<?xml version="1.0" encoding="UTF-8" standalone="no" ?>
<gpx xmlns="http://www.topografix.com/GPX/1/1" xmlns:xsi="http://www.w3.org/2001/XMLSchema-instance" xsi:schemaLocation="http://www.topografix.com/GPX/1/1 http://www.topografix.com/GPX/1/1/gpx.xsd" version="1.1" creator="VisuGPX - https://www.visugpx.com">
  <metadata>
    <name>Chemins pays de Retz de nuit</name>
  </metadata>
  <trk>
    <name><![CDATA[Chemins pays de Retz de nuit_1]]></name>
    <trkseg>
      <trkpt lat="47.20029" lon="-1.76008">
        <ele>10.6</ele>
        <time>2022-08-19T18:46:11Z</time>
      </trkpt>
      <trkpt lat="47.20011" lon="-1.7603">
        <ele>10.4</ele>
        <time>2022-08-19T18:46:17Z</time>
      </trkpt>
      <trkpt lat="47.19991" lon="-1.76054">
        <ele>10.2</ele>
        <time>2022-08-19T18:46:23Z</time>
      </trkpt>
      <trkpt lat="47.19962" lon="-1.76084">
        <ele>10</ele>
        <time>2022-08-19T18:46:31Z</time>
      </trkpt>
      <trkpt lat="47.19937" lon="-1.76114">
        <ele>10</ele>
        <time>2022-08-19T18:46:38Z</time>
      </trkpt>
      <trkpt lat="47.19907" lon="-1.76143">
        <ele>10.4</ele>
        <time>2022-08-19T18:46:46Z</time>
      </trkpt>
      <trkpt lat="47.19877" lon="-1.76172">
        <ele>10.6</ele>
        <time>2022-08-19T18:46:54Z</time>
      </trkpt>
      <trkpt lat="47.19845" lon="-1.76204">
        <ele>10.6</ele>
        <time>2022-08-19T18:47:02Z</time>
      </trkpt>
      <trkpt lat="47.19811" lon="-1.76237">
        <ele>11</ele>
        <time>2022-08-19T18:47:10Z</time>
      </trkpt>
      <trkpt lat="47.19779" lon="-1.76268">
        <ele>11.4</ele>
        <time>2022-08-19T18:47:17Z</time>
      </trkpt>
      <trkpt lat="47.19748" lon="-1.76299">
        <ele>11.4</ele>
        <time>2022-08-19T18:47:24Z</time>
      </trkpt>
      <trkpt lat="47.19721" lon="-1.76325">
        <ele>11.8</ele>
        <time>2022-08-19T18:47:30Z</time>
      </trkpt>
      <trkpt lat="47.19684" lon="-1.76361">
        <ele>12</ele>
        <time>2022-08-19T18:47:38Z</time>
      </trkpt>
      <trkpt lat="47.19667" lon="-1.76373">
        <ele>12.2</ele>
        <time>2022-08-19T18:47:42Z</time>
      </trkpt>
      <trkpt lat="47.19647" lon="-1.76383">
        <ele>12.4</ele>
        <time>2022-08-19T18:47:47Z</time>
      </trkpt>
      <trkpt lat="47.19638" lon="-1.76389">
        <ele>12.8</ele>
        <time>2022-08-19T18:47:51Z</time>
      </trkpt>
      <trkpt lat="47.19638" lon="-1.76389">
        <ele>12.8</ele>
        <time>2022-08-19T18:47:52Z</time>
      </trkpt>
      <trkpt lat="47.19631" lon="-1.76388">
        <ele>14</ele>
        <time>2022-08-19T18:48:24Z</time>
      </trkpt>
      <trkpt lat="47.19628" lon="-1.76388">
        <ele>14.2</ele>
        <time>2022-08-19T18:48:25Z</time>
      </trkpt>
      <trkpt lat="47.1961" lon="-1.76389">
        <ele>14.2</ele>
        <time>2022-08-19T18:48:29Z</time>
      </trkpt>
      <trkpt lat="47.19583" lon="-1.76389">
        <ele>14.2</ele>
        <time>2022-08-19T18:48:35Z</time>
      </trkpt>
      <trkpt lat="47.19557" lon="-1.76386">
        <ele>14</ele>
        <time>2022-08-19T18:48:41Z</time>
      </trkpt>
      <trkpt lat="47.19531" lon="-1.76386">
        <ele>13.8</ele>
        <time>2022-08-19T18:48:47Z</time>
      </trkpt>
      <trkpt lat="47.1949" lon="-1.76393">
        <ele>13.2</ele>
        <time>2022-08-19T18:48:55Z</time>
      </trkpt>
      <trkpt lat="47.19449" lon="-1.76409">
        <ele>13</ele>
        <time>2022-08-19T18:49:03Z</time>
      </trkpt>
      <trkpt lat="47.19443" lon="-1.76412">
        <ele>13</ele>
        <time>2022-08-19T18:49:04Z</time>
      </trkpt>
      <trkpt lat="47.19395" lon="-1.76435">
        <ele>12.6</ele>
        <time>2022-08-19T18:49:13Z</time>
      </trkpt>
      <trkpt lat="47.19353" lon="-1.76459">
        <ele>13.6</ele>
        <time>2022-08-19T18:49:21Z</time>
      </trkpt>
      <trkpt lat="47.19318" lon="-1.76479">
        <ele>13.8</ele>
        <time>2022-08-19T18:49:28Z</time>
      </trkpt>
      <trkpt lat="47.19278" lon="-1.76498">
        <ele>14</ele>
        <time>2022-08-19T18:49:36Z</time>
      </trkpt>
      <trkpt lat="47.1927" lon="-1.76493">
        <ele>14</ele>
        <time>2022-08-19T18:49:38Z</time>
      </trkpt>
      <trkpt lat="47.19268" lon="-1.76488">
        <ele>14.2</ele>
        <time>2022-08-19T18:49:39Z</time>
      </trkpt>
      <trkpt lat="47.19257" lon="-1.76456">
        <ele>14.2</ele>
        <time>2022-08-19T18:49:45Z</time>
      </trkpt>
      <trkpt lat="47.19247" lon="-1.76454">
        <ele>14.4</ele>
        <time>2022-08-19T18:49:48Z</time>
      </trkpt>
      <trkpt lat="47.19241" lon="-1.76468">
        <ele>14.4</ele>
        <time>2022-08-19T18:49:51Z</time>
      </trkpt>
      <trkpt lat="47.19225" lon="-1.76507">
        <ele>14.8</ele>
        <time>2022-08-19T18:49:57Z</time>
      </trkpt>
      <trkpt lat="47.19202" lon="-1.76563">
        <ele>15</ele>
        <time>2022-08-19T18:50:05Z</time>
      </trkpt>
      <trkpt lat="47.19171" lon="-1.76635">
        <ele>15.4</ele>
        <time>2022-08-19T18:50:15Z</time>
      </trkpt>
      <trkpt lat="47.1914" lon="-1.76702">
        <ele>15.6</ele>
        <time>2022-08-19T18:50:24Z</time>
      </trkpt>
      <trkpt lat="47.19137" lon="-1.7672">
        <ele>15.6</ele>
        <time>2022-08-19T18:50:26Z</time>
      </trkpt>
      <trkpt lat="47.19138" lon="-1.76729">
        <ele>15.6</ele>
        <time>2022-08-19T18:50:27Z</time>
      </trkpt>
      <trkpt lat="47.19137" lon="-1.76794">
        <ele>15.6</ele>
        <time>2022-08-19T18:50:34Z</time>
      </trkpt>
      <trkpt lat="47.19128" lon="-1.76867">
        <ele>15.6</ele>
        <time>2022-08-19T18:50:42Z</time>
      </trkpt>
      <trkpt lat="47.19127" lon="-1.76875">
        <ele>15.6</ele>
        <time>2022-08-19T18:50:43Z</time>
      </trkpt>
      <trkpt lat="47.19122" lon="-1.76919">
        <ele>15.8</ele>
        <time>2022-08-19T18:50:48Z</time>
      </trkpt>
      <trkpt lat="47.19114" lon="-1.7697">
        <ele>15.8</ele>
        <time>2022-08-19T18:50:54Z</time>
      </trkpt>
      <trkpt lat="47.19111" lon="-1.76986">
        <ele>15.6</ele>
        <time>2022-08-19T18:50:56Z</time>
      </trkpt>
      <trkpt lat="47.191" lon="-1.77053">
        <ele>15.6</ele>
        <time>2022-08-19T18:51:04Z</time>
      </trkpt>
      <trkpt lat="47.19097" lon="-1.7707">
        <ele>15.4</ele>
        <time>2022-08-19T18:51:06Z</time>
      </trkpt>
      <trkpt lat="47.19088" lon="-1.77109">
        <ele>15.6</ele>
        <time>2022-08-19T18:51:11Z</time>
      </trkpt>
      <trkpt lat="47.19072" lon="-1.77153">
        <ele>15.8</ele>
        <time>2022-08-19T18:51:17Z</time>
      </trkpt>
      <trkpt lat="47.19053" lon="-1.77202">
        <ele>15.8</ele>
        <time>2022-08-19T18:51:24Z</time>
      </trkpt>
      <trkpt lat="47.19047" lon="-1.77217">
        <ele>15.8</ele>
        <time>2022-08-19T18:51:26Z</time>
      </trkpt>
      <trkpt lat="47.19039" lon="-1.77241">
        <ele>15.6</ele>
        <time>2022-08-19T18:51:29Z</time>
      </trkpt>
      <trkpt lat="47.19031" lon="-1.77282">
        <ele>15.4</ele>
        <time>2022-08-19T18:51:34Z</time>
      </trkpt>
      <trkpt lat="47.19025" lon="-1.77333">
        <ele>15.2</ele>
        <time>2022-08-19T18:51:40Z</time>
      </trkpt>
      <trkpt lat="47.19015" lon="-1.77398">
        <ele>15.2</ele>
        <time>2022-08-19T18:51:47Z</time>
      </trkpt>
      <trkpt lat="47.19007" lon="-1.77466">
        <ele>15</ele>
        <time>2022-08-19T18:51:54Z</time>
      </trkpt>
      <trkpt lat="47.18998" lon="-1.77534">
        <ele>15</ele>
        <time>2022-08-19T18:52:01Z</time>
      </trkpt>
      <trkpt lat="47.18989" lon="-1.77592">
        <ele>15</ele>
        <time>2022-08-19T18:52:07Z</time>
      </trkpt>
      <trkpt lat="47.18978" lon="-1.77657">
        <ele>14.8</ele>
        <time>2022-08-19T18:52:14Z</time>
      </trkpt>
      <trkpt lat="47.18967" lon="-1.7772">
        <ele>14.6</ele>
        <time>2022-08-19T18:52:21Z</time>
      </trkpt>
      <trkpt lat="47.18961" lon="-1.77764">
        <ele>14.2</ele>
        <time>2022-08-19T18:52:26Z</time>
      </trkpt>
      <trkpt lat="47.18961" lon="-1.77773">
        <ele>14</ele>
        <time>2022-08-19T18:52:27Z</time>
      </trkpt>
      <trkpt lat="47.18958" lon="-1.77808">
        <ele>14</ele>
        <time>2022-08-19T18:52:31Z</time>
      </trkpt>
      <trkpt lat="47.18955" lon="-1.77877">
        <ele>14.2</ele>
        <time>2022-08-19T18:52:39Z</time>
      </trkpt>
      <trkpt lat="47.18951" lon="-1.77954">
        <ele>14.6</ele>
        <time>2022-08-19T18:52:48Z</time>
      </trkpt>
      <trkpt lat="47.18943" lon="-1.78012">
        <ele>14.6</ele>
        <time>2022-08-19T18:52:55Z</time>
      </trkpt>
      <trkpt lat="47.18929" lon="-1.78078">
        <ele>15</ele>
        <time>2022-08-19T18:53:03Z</time>
      </trkpt>
      <trkpt lat="47.18927" lon="-1.78085">
        <ele>15</ele>
        <time>2022-08-19T18:53:04Z</time>
      </trkpt>
      <trkpt lat="47.18922" lon="-1.7811">
        <ele>15.2</ele>
        <time>2022-08-19T18:53:07Z</time>
      </trkpt>
      <trkpt lat="47.18913" lon="-1.78148">
        <ele>15.4</ele>
        <time>2022-08-19T18:53:12Z</time>
      </trkpt>
      <trkpt lat="47.18904" lon="-1.78193">
        <ele>15.6</ele>
        <time>2022-08-19T18:53:18Z</time>
      </trkpt>
      <trkpt lat="47.18902" lon="-1.78199">
        <ele>15.8</ele>
        <time>2022-08-19T18:53:19Z</time>
      </trkpt>
      <trkpt lat="47.18898" lon="-1.78211">
        <ele>15.8</ele>
        <time>2022-08-19T18:53:21Z</time>
      </trkpt>
      <trkpt lat="47.18896" lon="-1.78217">
        <ele>16</ele>
        <time>2022-08-19T18:53:22Z</time>
      </trkpt>
      <trkpt lat="47.18894" lon="-1.78223">
        <ele>16</ele>
        <time>2022-08-19T18:53:23Z</time>
      </trkpt>
      <trkpt lat="47.18891" lon="-1.7824">
        <ele>16.2</ele>
        <time>2022-08-19T18:53:26Z</time>
      </trkpt>
      <trkpt lat="47.18883" lon="-1.78281">
        <ele>16.8</ele>
        <time>2022-08-19T18:53:32Z</time>
      </trkpt>
      <trkpt lat="47.18879" lon="-1.78306">
        <ele>17.4</ele>
        <time>2022-08-19T18:53:36Z</time>
      </trkpt>
      <trkpt lat="47.18878" lon="-1.78312">
        <ele>17.6</ele>
        <time>2022-08-19T18:53:37Z</time>
      </trkpt>
      <trkpt lat="47.18874" lon="-1.78332">
        <ele>18</ele>
        <time>2022-08-19T18:53:40Z</time>
      </trkpt>
      <trkpt lat="47.18871" lon="-1.78346">
        <ele>18.4</ele>
        <time>2022-08-19T18:53:42Z</time>
      </trkpt>
      <trkpt lat="47.18861" lon="-1.78395">
        <ele>19.2</ele>
        <time>2022-08-19T18:53:48Z</time>
      </trkpt>
      <trkpt lat="47.18851" lon="-1.78448">
        <ele>19.8</ele>
        <time>2022-08-19T18:53:55Z</time>
      </trkpt>
      <trkpt lat="47.18849" lon="-1.78456">
        <ele>19.8</ele>
        <time>2022-08-19T18:53:56Z</time>
      </trkpt>
      <trkpt lat="47.18844" lon="-1.78487">
        <ele>20</ele>
        <time>2022-08-19T18:54:00Z</time>
      </trkpt>
      <trkpt lat="47.18838" lon="-1.78527">
        <ele>20</ele>
        <time>2022-08-19T18:54:05Z</time>
      </trkpt>
      <trkpt lat="47.18835" lon="-1.78557">
        <ele>20.2</ele>
        <time>2022-08-19T18:54:09Z</time>
      </trkpt>
      <trkpt lat="47.18834" lon="-1.78565">
        <ele>20.2</ele>
        <time>2022-08-19T18:54:10Z</time>
      </trkpt>
      <trkpt lat="47.18831" lon="-1.78603">
        <ele>20.4</ele>
        <time>2022-08-19T18:54:15Z</time>
      </trkpt>
      <trkpt lat="47.18829" lon="-1.78625">
        <ele>20.4</ele>
        <time>2022-08-19T18:54:18Z</time>
      </trkpt>
      <trkpt lat="47.18826" lon="-1.78641">
        <ele>20.6</ele>
        <time>2022-08-19T18:54:20Z</time>
      </trkpt>
      <trkpt lat="47.18826" lon="-1.78649">
        <ele>20.6</ele>
        <time>2022-08-19T18:54:21Z</time>
      </trkpt>
      <trkpt lat="47.18823" lon="-1.78677">
        <ele>20.8</ele>
        <time>2022-08-19T18:54:25Z</time>
      </trkpt>
      <trkpt lat="47.18819" lon="-1.78691">
        <ele>21</ele>
        <time>2022-08-19T18:54:28Z</time>
      </trkpt>
      <trkpt lat="47.18817" lon="-1.78693">
        <ele>21</ele>
        <time>2022-08-19T18:54:29Z</time>
      </trkpt>
      <trkpt lat="47.18804" lon="-1.7871">
        <ele>21.2</ele>
        <time>2022-08-19T18:54:34Z</time>
      </trkpt>
      <trkpt lat="47.18785" lon="-1.78735">
        <ele>21.6</ele>
        <time>2022-08-19T18:54:39Z</time>
      </trkpt>
      <trkpt lat="47.18758" lon="-1.78782">
        <ele>21.4</ele>
        <time>2022-08-19T18:54:46Z</time>
      </trkpt>
      <trkpt lat="47.18738" lon="-1.78833">
        <ele>21.4</ele>
        <time>2022-08-19T18:54:53Z</time>
      </trkpt>
      <trkpt lat="47.1872" lon="-1.78885">
        <ele>21</ele>
        <time>2022-08-19T18:55:00Z</time>
      </trkpt>
      <trkpt lat="47.18703" lon="-1.78949">
        <ele>21.2</ele>
        <time>2022-08-19T18:55:08Z</time>
      </trkpt>
      <trkpt lat="47.18695" lon="-1.79009">
        <ele>21</ele>
        <time>2022-08-19T18:55:15Z</time>
      </trkpt>
      <trkpt lat="47.18683" lon="-1.79071">
        <ele>20.6</ele>
        <time>2022-08-19T18:55:22Z</time>
      </trkpt>
      <trkpt lat="47.18672" lon="-1.79097">
        <ele>20.2</ele>
        <time>2022-08-19T18:55:25Z</time>
      </trkpt>
      <trkpt lat="47.18663" lon="-1.79114">
        <ele>20</ele>
        <time>2022-08-19T18:55:27Z</time>
      </trkpt>
      <trkpt lat="47.18631" lon="-1.79158">
        <ele>19.6</ele>
        <time>2022-08-19T18:55:33Z</time>
      </trkpt>
      <trkpt lat="47.18607" lon="-1.79191">
        <ele>19.4</ele>
        <time>2022-08-19T18:55:38Z</time>
      </trkpt>
      <trkpt lat="47.18583" lon="-1.79229">
        <ele>19.4</ele>
        <time>2022-08-19T18:55:44Z</time>
      </trkpt>
      <trkpt lat="47.18566" lon="-1.79278">
        <ele>19.4</ele>
        <time>2022-08-19T18:55:51Z</time>
      </trkpt>
      <trkpt lat="47.18552" lon="-1.79324">
        <ele>19.8</ele>
        <time>2022-08-19T18:55:58Z</time>
      </trkpt>
      <trkpt lat="47.1853" lon="-1.79386">
        <ele>20</ele>
        <time>2022-08-19T18:56:07Z</time>
      </trkpt>
      <trkpt lat="47.18509" lon="-1.79434">
        <ele>20.2</ele>
        <time>2022-08-19T18:56:14Z</time>
      </trkpt>
      <trkpt lat="47.18485" lon="-1.79484">
        <ele>20.6</ele>
        <time>2022-08-19T18:56:21Z</time>
      </trkpt>
      <trkpt lat="47.18462" lon="-1.79533">
        <ele>21</ele>
        <time>2022-08-19T18:56:28Z</time>
      </trkpt>
      <trkpt lat="47.18446" lon="-1.79579">
        <ele>21.2</ele>
        <time>2022-08-19T18:56:34Z</time>
      </trkpt>
      <trkpt lat="47.18428" lon="-1.79635">
        <ele>21.4</ele>
        <time>2022-08-19T18:56:41Z</time>
      </trkpt>
      <trkpt lat="47.18416" lon="-1.79676">
        <ele>21.4</ele>
        <time>2022-08-19T18:56:46Z</time>
      </trkpt>
      <trkpt lat="47.18412" lon="-1.79683">
        <ele>21.4</ele>
        <time>2022-08-19T18:56:47Z</time>
      </trkpt>
      <trkpt lat="47.18388" lon="-1.79736">
        <ele>21.2</ele>
        <time>2022-08-19T18:56:54Z</time>
      </trkpt>
      <trkpt lat="47.18358" lon="-1.79795">
        <ele>21.4</ele>
        <time>2022-08-19T18:57:02Z</time>
      </trkpt>
      <trkpt lat="47.18331" lon="-1.7986">
        <ele>21.2</ele>
        <time>2022-08-19T18:57:10Z</time>
      </trkpt>
      <trkpt lat="47.18305" lon="-1.79922">
        <ele>20.8</ele>
        <time>2022-08-19T18:57:18Z</time>
      </trkpt>
      <trkpt lat="47.18284" lon="-1.79974">
        <ele>20.4</ele>
        <time>2022-08-19T18:57:25Z</time>
      </trkpt>
      <trkpt lat="47.18292" lon="-1.7999">
        <ele>20</ele>
        <time>2022-08-19T18:57:28Z</time>
      </trkpt>
      <trkpt lat="47.18297" lon="-1.80005">
        <ele>20</ele>
        <time>2022-08-19T18:57:30Z</time>
      </trkpt>
      <trkpt lat="47.183" lon="-1.80022">
        <ele>20</ele>
        <time>2022-08-19T18:57:32Z</time>
      </trkpt>
      <trkpt lat="47.18314" lon="-1.80062">
        <ele>19.6</ele>
        <time>2022-08-19T18:57:37Z</time>
      </trkpt>
      <trkpt lat="47.18334" lon="-1.80107">
        <ele>19</ele>
        <time>2022-08-19T18:57:43Z</time>
      </trkpt>
      <trkpt lat="47.18342" lon="-1.80121">
        <ele>18.8</ele>
        <time>2022-08-19T18:57:45Z</time>
      </trkpt>
      <trkpt lat="47.18359" lon="-1.80147">
        <ele>18.4</ele>
        <time>2022-08-19T18:57:49Z</time>
      </trkpt>
      <trkpt lat="47.18393" lon="-1.80188">
        <ele>17.8</ele>
        <time>2022-08-19T18:57:56Z</time>
      </trkpt>
      <trkpt lat="47.18424" lon="-1.80227">
        <ele>17.4</ele>
        <time>2022-08-19T18:58:03Z</time>
      </trkpt>
      <trkpt lat="47.1843" lon="-1.80239">
        <ele>17.2</ele>
        <time>2022-08-19T18:58:05Z</time>
      </trkpt>
      <trkpt lat="47.18432" lon="-1.8025">
        <ele>17.2</ele>
        <time>2022-08-19T18:58:07Z</time>
      </trkpt>
      <trkpt lat="47.18423" lon="-1.80254">
        <ele>16.8</ele>
        <time>2022-08-19T18:58:10Z</time>
      </trkpt>
      <trkpt lat="47.18408" lon="-1.80256">
        <ele>16.2</ele>
        <time>2022-08-19T18:58:14Z</time>
      </trkpt>
      <trkpt lat="47.18395" lon="-1.80259">
        <ele>15.8</ele>
        <time>2022-08-19T18:58:18Z</time>
      </trkpt>
      <trkpt lat="47.18374" lon="-1.80262">
        <ele>15.4</ele>
        <time>2022-08-19T18:58:23Z</time>
      </trkpt>
      <trkpt lat="47.1837" lon="-1.80263">
        <ele>15.2</ele>
        <time>2022-08-19T18:58:24Z</time>
      </trkpt>
      <trkpt lat="47.18349" lon="-1.80268">
        <ele>14.6</ele>
        <time>2022-08-19T18:58:29Z</time>
      </trkpt>
      <trkpt lat="47.1833" lon="-1.80273">
        <ele>14</ele>
        <time>2022-08-19T18:58:34Z</time>
      </trkpt>
      <trkpt lat="47.18311" lon="-1.80277">
        <ele>13.4</ele>
        <time>2022-08-19T18:58:39Z</time>
      </trkpt>
      <trkpt lat="47.18299" lon="-1.8028">
        <ele>12.8</ele>
        <time>2022-08-19T18:58:42Z</time>
      </trkpt>
      <trkpt lat="47.18291" lon="-1.80282">
        <ele>12.6</ele>
        <time>2022-08-19T18:58:44Z</time>
      </trkpt>
      <trkpt lat="47.18269" lon="-1.80287">
        <ele>11.6</ele>
        <time>2022-08-19T18:58:50Z</time>
      </trkpt>
      <trkpt lat="47.18263" lon="-1.8029">
        <ele>11.4</ele>
        <time>2022-08-19T18:58:52Z</time>
      </trkpt>
      <trkpt lat="47.18261" lon="-1.80297">
        <ele>11.2</ele>
        <time>2022-08-19T18:58:54Z</time>
      </trkpt>
      <trkpt lat="47.18261" lon="-1.80301">
        <ele>11.2</ele>
        <time>2022-08-19T18:58:55Z</time>
      </trkpt>
      <trkpt lat="47.18265" lon="-1.80314">
        <ele>10.8</ele>
        <time>2022-08-19T18:58:58Z</time>
      </trkpt>
      <trkpt lat="47.18271" lon="-1.80339">
        <ele>10</ele>
        <time>2022-08-19T18:59:03Z</time>
      </trkpt>
      <trkpt lat="47.18281" lon="-1.80371">
        <ele>9.2</ele>
        <time>2022-08-19T18:59:09Z</time>
      </trkpt>
      <trkpt lat="47.18286" lon="-1.80389">
        <ele>8.8</ele>
        <time>2022-08-19T18:59:12Z</time>
      </trkpt>
      <trkpt lat="47.1829" lon="-1.80401">
        <ele>8.6</ele>
        <time>2022-08-19T18:59:14Z</time>
      </trkpt>
      <trkpt lat="47.18291" lon="-1.80407">
        <ele>8.4</ele>
        <time>2022-08-19T18:59:15Z</time>
      </trkpt>
      <trkpt lat="47.18299" lon="-1.80429">
        <ele>8</ele>
        <time>2022-08-19T18:59:19Z</time>
      </trkpt>
      <trkpt lat="47.18307" lon="-1.80453">
        <ele>7.8</ele>
        <time>2022-08-19T18:59:24Z</time>
      </trkpt>
      <trkpt lat="47.18317" lon="-1.80491">
        <ele>7.6</ele>
        <time>2022-08-19T18:59:31Z</time>
      </trkpt>
      <trkpt lat="47.1832" lon="-1.80504">
        <ele>7.6</ele>
        <time>2022-08-19T18:59:33Z</time>
      </trkpt>
      <trkpt lat="47.18324" lon="-1.80529">
        <ele>7.6</ele>
        <time>2022-08-19T18:59:37Z</time>
      </trkpt>
      <trkpt lat="47.18329" lon="-1.80571">
        <ele>8.2</ele>
        <time>2022-08-19T18:59:44Z</time>
      </trkpt>
      <trkpt lat="47.1833" lon="-1.80604">
        <ele>8.2</ele>
        <time>2022-08-19T18:59:49Z</time>
      </trkpt>
      <trkpt lat="47.1833" lon="-1.8061">
        <ele>8.2</ele>
        <time>2022-08-19T18:59:50Z</time>
      </trkpt>
      <trkpt lat="47.18329" lon="-1.80639">
        <ele>8.6</ele>
        <time>2022-08-19T18:59:55Z</time>
      </trkpt>
      <trkpt lat="47.1833" lon="-1.80666">
        <ele>9.2</ele>
        <time>2022-08-19T19:00:01Z</time>
      </trkpt>
      <trkpt lat="47.18331" lon="-1.80695">
        <ele>9.6</ele>
        <time>2022-08-19T19:00:06Z</time>
      </trkpt>
      <trkpt lat="47.18329" lon="-1.80715">
        <ele>10</ele>
        <time>2022-08-19T19:00:10Z</time>
      </trkpt>
      <trkpt lat="47.18323" lon="-1.80738">
        <ele>10.4</ele>
        <time>2022-08-19T19:00:15Z</time>
      </trkpt>
      <trkpt lat="47.18321" lon="-1.80776">
        <ele>10.8</ele>
        <time>2022-08-19T19:00:22Z</time>
      </trkpt>
      <trkpt lat="47.18322" lon="-1.80779">
        <ele>10.8</ele>
        <time>2022-08-19T19:00:23Z</time>
      </trkpt>
      <trkpt lat="47.18321" lon="-1.80786">
        <ele>10.8</ele>
        <time>2022-08-19T19:00:25Z</time>
      </trkpt>
      <trkpt lat="47.18312" lon="-1.80796">
        <ele>10.8</ele>
        <time>2022-08-19T19:00:28Z</time>
      </trkpt>
      <trkpt lat="47.18297" lon="-1.80793">
        <ele>11</ele>
        <time>2022-08-19T19:00:32Z</time>
      </trkpt>
      <trkpt lat="47.1827" lon="-1.80791">
        <ele>11.2</ele>
        <time>2022-08-19T19:00:39Z</time>
      </trkpt>
      <trkpt lat="47.18266" lon="-1.80791">
        <ele>11.2</ele>
        <time>2022-08-19T19:00:40Z</time>
      </trkpt>
      <trkpt lat="47.18257" lon="-1.8079">
        <ele>11.2</ele>
        <time>2022-08-19T19:00:42Z</time>
      </trkpt>
      <trkpt lat="47.18249" lon="-1.80793">
        <ele>11.2</ele>
        <time>2022-08-19T19:00:44Z</time>
      </trkpt>
      <trkpt lat="47.18246" lon="-1.80797">
        <ele>11</ele>
        <time>2022-08-19T19:00:45Z</time>
      </trkpt>
      <trkpt lat="47.18241" lon="-1.8082">
        <ele>11</ele>
        <time>2022-08-19T19:00:49Z</time>
      </trkpt>
      <trkpt lat="47.18234" lon="-1.80869">
        <ele>11.4</ele>
        <time>2022-08-19T19:00:57Z</time>
      </trkpt>
      <trkpt lat="47.18223" lon="-1.80922">
        <ele>11.6</ele>
        <time>2022-08-19T19:01:05Z</time>
      </trkpt>
      <trkpt lat="47.18214" lon="-1.80971">
        <ele>11.8</ele>
        <time>2022-08-19T19:01:12Z</time>
      </trkpt>
      <trkpt lat="47.1821" lon="-1.81022">
        <ele>12</ele>
        <time>2022-08-19T19:01:19Z</time>
      </trkpt>
      <trkpt lat="47.18208" lon="-1.81064">
        <ele>12</ele>
        <time>2022-08-19T19:01:25Z</time>
      </trkpt>
      <trkpt lat="47.18201" lon="-1.81116">
        <ele>12.6</ele>
        <time>2022-08-19T19:01:32Z</time>
      </trkpt>
      <trkpt lat="47.1819" lon="-1.81177">
        <ele>13.2</ele>
        <time>2022-08-19T19:01:40Z</time>
      </trkpt>
      <trkpt lat="47.1818" lon="-1.81227">
        <ele>13.4</ele>
        <time>2022-08-19T19:01:47Z</time>
      </trkpt>
      <trkpt lat="47.18176" lon="-1.8124">
        <ele>13.4</ele>
        <time>2022-08-19T19:01:49Z</time>
      </trkpt>
      <trkpt lat="47.18168" lon="-1.81266">
        <ele>13.4</ele>
        <time>2022-08-19T19:01:53Z</time>
      </trkpt>
      <trkpt lat="47.18154" lon="-1.81312">
        <ele>13.8</ele>
        <time>2022-08-19T19:02:00Z</time>
      </trkpt>
      <trkpt lat="47.18146" lon="-1.81362">
        <ele>14</ele>
        <time>2022-08-19T19:02:07Z</time>
      </trkpt>
      <trkpt lat="47.18142" lon="-1.81405">
        <ele>14.2</ele>
        <time>2022-08-19T19:02:13Z</time>
      </trkpt>
      <trkpt lat="47.18141" lon="-1.81412">
        <ele>14.2</ele>
        <time>2022-08-19T19:02:14Z</time>
      </trkpt>
      <trkpt lat="47.1814" lon="-1.81418">
        <ele>14.2</ele>
        <time>2022-08-19T19:02:15Z</time>
      </trkpt>
      <trkpt lat="47.18139" lon="-1.81429">
        <ele>14.2</ele>
        <time>2022-08-19T19:02:17Z</time>
      </trkpt>
      <trkpt lat="47.18136" lon="-1.8143">
        <ele>14.2</ele>
        <time>2022-08-19T19:02:18Z</time>
      </trkpt>
      <trkpt lat="47.1813" lon="-1.81423">
        <ele>14.2</ele>
        <time>2022-08-19T19:02:21Z</time>
      </trkpt>
      <trkpt lat="47.18119" lon="-1.81407">
        <ele>14.2</ele>
        <time>2022-08-19T19:02:25Z</time>
      </trkpt>
      <trkpt lat="47.18093" lon="-1.81363">
        <ele>14</ele>
        <time>2022-08-19T19:02:33Z</time>
      </trkpt>
      <trkpt lat="47.1809" lon="-1.81358">
        <ele>14</ele>
        <time>2022-08-19T19:02:34Z</time>
      </trkpt>
      <trkpt lat="47.1808" lon="-1.81342">
        <ele>13.8</ele>
        <time>2022-08-19T19:02:37Z</time>
      </trkpt>
      <trkpt lat="47.18075" lon="-1.81339">
        <ele>13.8</ele>
        <time>2022-08-19T19:02:38Z</time>
      </trkpt>
      <trkpt lat="47.1807" lon="-1.81339">
        <ele>13.8</ele>
        <time>2022-08-19T19:02:39Z</time>
      </trkpt>
      <trkpt lat="47.18059" lon="-1.81342">
        <ele>13.8</ele>
        <time>2022-08-19T19:02:41Z</time>
      </trkpt>
      <trkpt lat="47.1802" lon="-1.81353">
        <ele>13.6</ele>
        <time>2022-08-19T19:02:48Z</time>
      </trkpt>
      <trkpt lat="47.17975" lon="-1.81361">
        <ele>13</ele>
        <time>2022-08-19T19:02:56Z</time>
      </trkpt>
      <trkpt lat="47.17933" lon="-1.81367">
        <ele>12.6</ele>
        <time>2022-08-19T19:03:03Z</time>
      </trkpt>
      <trkpt lat="47.17897" lon="-1.81371">
        <ele>12</ele>
        <time>2022-08-19T19:03:09Z</time>
      </trkpt>
      <trkpt lat="47.17851" lon="-1.81379">
        <ele>11.4</ele>
        <time>2022-08-19T19:03:17Z</time>
      </trkpt>
      <trkpt lat="47.17804" lon="-1.81391">
        <ele>10.8</ele>
        <time>2022-08-19T19:03:25Z</time>
      </trkpt>
      <trkpt lat="47.17762" lon="-1.81397">
        <ele>10.2</ele>
        <time>2022-08-19T19:03:32Z</time>
      </trkpt>
      <trkpt lat="47.17709" lon="-1.81402">
        <ele>9.4</ele>
        <time>2022-08-19T19:03:41Z</time>
      </trkpt>
      <trkpt lat="47.17678" lon="-1.81397">
        <ele>9</ele>
        <time>2022-08-19T19:03:46Z</time>
      </trkpt>
      <trkpt lat="47.17623" lon="-1.81387">
        <ele>8.2</ele>
        <time>2022-08-19T19:03:55Z</time>
      </trkpt>
      <trkpt lat="47.17599" lon="-1.81381">
        <ele>8</ele>
        <time>2022-08-19T19:03:59Z</time>
      </trkpt>
      <trkpt lat="47.17587" lon="-1.81381">
        <ele>7.8</ele>
        <time>2022-08-19T19:04:01Z</time>
      </trkpt>
      <trkpt lat="47.17575" lon="-1.8138">
        <ele>7.6</ele>
        <time>2022-08-19T19:04:03Z</time>
      </trkpt>
      <trkpt lat="47.17558" lon="-1.81377">
        <ele>7.4</ele>
        <time>2022-08-19T19:04:06Z</time>
      </trkpt>
      <trkpt lat="47.17516" lon="-1.8137">
        <ele>6.8</ele>
        <time>2022-08-19T19:04:13Z</time>
      </trkpt>
      <trkpt lat="47.17465" lon="-1.81361">
        <ele>6</ele>
        <time>2022-08-19T19:04:20Z</time>
      </trkpt>
      <trkpt lat="47.17417" lon="-1.81353">
        <ele>5.4</ele>
        <time>2022-08-19T19:04:27Z</time>
      </trkpt>
      <trkpt lat="47.17372" lon="-1.81349">
        <ele>4.8</ele>
        <time>2022-08-19T19:04:34Z</time>
      </trkpt>
      <trkpt lat="47.17341" lon="-1.81359">
        <ele>4.4</ele>
        <time>2022-08-19T19:04:39Z</time>
      </trkpt>
      <trkpt lat="47.17315" lon="-1.81385">
        <ele>3.8</ele>
        <time>2022-08-19T19:04:44Z</time>
      </trkpt>
      <trkpt lat="47.17283" lon="-1.81429">
        <ele>3.4</ele>
        <time>2022-08-19T19:04:51Z</time>
      </trkpt>
      <trkpt lat="47.17256" lon="-1.81466">
        <ele>2.8</ele>
        <time>2022-08-19T19:04:57Z</time>
      </trkpt>
      <trkpt lat="47.17225" lon="-1.81508">
        <ele>2.2</ele>
        <time>2022-08-19T19:05:04Z</time>
      </trkpt>
      <trkpt lat="47.17199" lon="-1.81543">
        <ele>1.6</ele>
        <time>2022-08-19T19:05:10Z</time>
      </trkpt>
      <trkpt lat="47.17174" lon="-1.81578">
        <ele>1.4</ele>
        <time>2022-08-19T19:05:16Z</time>
      </trkpt>
      <trkpt lat="47.17154" lon="-1.81605">
        <ele>1.4</ele>
        <time>2022-08-19T19:05:21Z</time>
      </trkpt>
      <trkpt lat="47.17151" lon="-1.81611">
        <ele>1.4</ele>
        <time>2022-08-19T19:05:22Z</time>
      </trkpt>
      <trkpt lat="47.17149" lon="-1.81618">
        <ele>1.4</ele>
        <time>2022-08-19T19:05:23Z</time>
      </trkpt>
      <trkpt lat="47.17149" lon="-1.81632">
        <ele>1.4</ele>
        <time>2022-08-19T19:05:25Z</time>
      </trkpt>
      <trkpt lat="47.17149" lon="-1.81646">
        <ele>1.4</ele>
        <time>2022-08-19T19:05:27Z</time>
      </trkpt>
      <trkpt lat="47.17146" lon="-1.81671">
        <ele>1.4</ele>
        <time>2022-08-19T19:05:31Z</time>
      </trkpt>
      <trkpt lat="47.17137" lon="-1.81712">
        <ele>1.8</ele>
        <time>2022-08-19T19:05:38Z</time>
      </trkpt>
      <trkpt lat="47.17128" lon="-1.81754">
        <ele>1.8</ele>
        <time>2022-08-19T19:05:45Z</time>
      </trkpt>
      <trkpt lat="47.17123" lon="-1.81804">
        <ele>2</ele>
        <time>2022-08-19T19:05:52Z</time>
      </trkpt>
      <trkpt lat="47.17122" lon="-1.81856">
        <ele>2</ele>
        <time>2022-08-19T19:05:59Z</time>
      </trkpt>
      <trkpt lat="47.17116" lon="-1.81866">
        <ele>2</ele>
        <time>2022-08-19T19:06:01Z</time>
      </trkpt>
      <trkpt lat="47.17111" lon="-1.81868">
        <ele>2</ele>
        <time>2022-08-19T19:06:02Z</time>
      </trkpt>
      <trkpt lat="47.17094" lon="-1.81877">
        <ele>2</ele>
        <time>2022-08-19T19:06:06Z</time>
      </trkpt>
      <trkpt lat="47.17088" lon="-1.81883">
        <ele>2</ele>
        <time>2022-08-19T19:06:08Z</time>
      </trkpt>
      <trkpt lat="47.17077" lon="-1.81887">
        <ele>1.8</ele>
        <time>2022-08-19T19:06:12Z</time>
      </trkpt>
      <trkpt lat="47.17061" lon="-1.8189">
        <ele>1.8</ele>
        <time>2022-08-19T19:06:16Z</time>
      </trkpt>
      <trkpt lat="47.17043" lon="-1.81894">
        <ele>2</ele>
        <time>2022-08-19T19:06:21Z</time>
      </trkpt>
      <trkpt lat="47.17024" lon="-1.81897">
        <ele>2</ele>
        <time>2022-08-19T19:06:26Z</time>
      </trkpt>
      <trkpt lat="47.17007" lon="-1.81905">
        <ele>2.2</ele>
        <time>2022-08-19T19:06:31Z</time>
      </trkpt>
      <trkpt lat="47.17005" lon="-1.81907">
        <ele>2.2</ele>
        <time>2022-08-19T19:06:32Z</time>
      </trkpt>
      <trkpt lat="47.17004" lon="-1.81912">
        <ele>2.4</ele>
        <time>2022-08-19T19:06:34Z</time>
      </trkpt>
      <trkpt lat="47.17002" lon="-1.81927">
        <ele>2.8</ele>
        <time>2022-08-19T19:06:38Z</time>
      </trkpt>
      <trkpt lat="47.16999" lon="-1.81944">
        <ele>3.2</ele>
        <time>2022-08-19T19:06:43Z</time>
      </trkpt>
      <trkpt lat="47.16998" lon="-1.81951">
        <ele>3.2</ele>
        <time>2022-08-19T19:06:45Z</time>
      </trkpt>
      <trkpt lat="47.16992" lon="-1.81961">
        <ele>3.4</ele>
        <time>2022-08-19T19:06:48Z</time>
      </trkpt>
      <trkpt lat="47.16991" lon="-1.81962">
        <ele>3.4</ele>
        <time>2022-08-19T19:06:50Z</time>
      </trkpt>
      <trkpt lat="47.16976" lon="-1.8197">
        <ele>4</ele>
        <time>2022-08-19T19:07:02Z</time>
      </trkpt>
      <trkpt lat="47.16971" lon="-1.8197">
        <ele>4.2</ele>
        <time>2022-08-19T19:07:05Z</time>
      </trkpt>
      <trkpt lat="47.16942" lon="-1.8197">
        <ele>10.4</ele>
        <time>2022-08-19T19:09:23Z</time>
      </trkpt>
      <trkpt lat="47.16941" lon="-1.81971">
        <ele>10.4</ele>
        <time>2022-08-19T19:09:24Z</time>
      </trkpt>
      <trkpt lat="47.16937" lon="-1.81971">
        <ele>10.6</ele>
        <time>2022-08-19T19:09:28Z</time>
      </trkpt>
      <trkpt lat="47.16935" lon="-1.81971">
        <ele>10.6</ele>
        <time>2022-08-19T19:09:29Z</time>
      </trkpt>
      <trkpt lat="47.1693" lon="-1.81976">
        <ele>10.8</ele>
        <time>2022-08-19T19:09:33Z</time>
      </trkpt>
      <trkpt lat="47.16928" lon="-1.81978">
        <ele>11</ele>
        <time>2022-08-19T19:09:35Z</time>
      </trkpt>
      <trkpt lat="47.16926" lon="-1.81984">
        <ele>11</ele>
        <time>2022-08-19T19:09:39Z</time>
      </trkpt>
      <trkpt lat="47.16925" lon="-1.81986">
        <ele>11.2</ele>
        <time>2022-08-19T19:09:42Z</time>
      </trkpt>
      <trkpt lat="47.1692" lon="-1.81996">
        <ele>12</ele>
        <time>2022-08-19T19:10:05Z</time>
      </trkpt>
      <trkpt lat="47.16919" lon="-1.81999">
        <ele>12</ele>
        <time>2022-08-19T19:10:06Z</time>
      </trkpt>
      <trkpt lat="47.16914" lon="-1.8201">
        <ele>12.2</ele>
        <time>2022-08-19T19:10:11Z</time>
      </trkpt>
      <trkpt lat="47.1691" lon="-1.82021">
        <ele>12.2</ele>
        <time>2022-08-19T19:10:16Z</time>
      </trkpt>
      <trkpt lat="47.16909" lon="-1.82024">
        <ele>12.2</ele>
        <time>2022-08-19T19:10:17Z</time>
      </trkpt>
      <trkpt lat="47.16906" lon="-1.82033">
        <ele>12.2</ele>
        <time>2022-08-19T19:10:20Z</time>
      </trkpt>
      <trkpt lat="47.16899" lon="-1.82043">
        <ele>12.2</ele>
        <time>2022-08-19T19:10:23Z</time>
      </trkpt>
      <trkpt lat="47.16897" lon="-1.82043">
        <ele>12.4</ele>
        <time>2022-08-19T19:10:24Z</time>
      </trkpt>
      <trkpt lat="47.16888" lon="-1.82027">
        <ele>12.6</ele>
        <time>2022-08-19T19:10:31Z</time>
      </trkpt>
      <trkpt lat="47.16881" lon="-1.82001">
        <ele>13</ele>
        <time>2022-08-19T19:10:38Z</time>
      </trkpt>
      <trkpt lat="47.16874" lon="-1.81981">
        <ele>13.2</ele>
        <time>2022-08-19T19:10:44Z</time>
      </trkpt>
      <trkpt lat="47.16871" lon="-1.81959">
        <ele>13.2</ele>
        <time>2022-08-19T19:10:50Z</time>
      </trkpt>
      <trkpt lat="47.16868" lon="-1.8193">
        <ele>13.2</ele>
        <time>2022-08-19T19:10:55Z</time>
      </trkpt>
      <trkpt lat="47.1686" lon="-1.81886">
        <ele>13.4</ele>
        <time>2022-08-19T19:11:02Z</time>
      </trkpt>
      <trkpt lat="47.16857" lon="-1.81881">
        <ele>13.4</ele>
        <time>2022-08-19T19:11:03Z</time>
      </trkpt>
      <trkpt lat="47.16855" lon="-1.81878">
        <ele>13.4</ele>
        <time>2022-08-19T19:11:04Z</time>
      </trkpt>
      <trkpt lat="47.16848" lon="-1.81875">
        <ele>13.4</ele>
        <time>2022-08-19T19:11:06Z</time>
      </trkpt>
      <trkpt lat="47.16822" lon="-1.81871">
        <ele>13.4</ele>
        <time>2022-08-19T19:11:13Z</time>
      </trkpt>
      <trkpt lat="47.16803" lon="-1.81867">
        <ele>13.6</ele>
        <time>2022-08-19T19:11:18Z</time>
      </trkpt>
      <trkpt lat="47.16786" lon="-1.81863">
        <ele>13.6</ele>
        <time>2022-08-19T19:11:23Z</time>
      </trkpt>
      <trkpt lat="47.16767" lon="-1.81861">
        <ele>13.8</ele>
        <time>2022-08-19T19:11:28Z</time>
      </trkpt>
      <trkpt lat="47.16747" lon="-1.81861">
        <ele>14.2</ele>
        <time>2022-08-19T19:11:33Z</time>
      </trkpt>
      <trkpt lat="47.16729" lon="-1.81861">
        <ele>14.6</ele>
        <time>2022-08-19T19:11:38Z</time>
      </trkpt>
      <trkpt lat="47.16714" lon="-1.81864">
        <ele>15.2</ele>
        <time>2022-08-19T19:11:42Z</time>
      </trkpt>
      <trkpt lat="47.16689" lon="-1.81871">
        <ele>15.8</ele>
        <time>2022-08-19T19:11:48Z</time>
      </trkpt>
      <trkpt lat="47.16676" lon="-1.81876">
        <ele>16.2</ele>
        <time>2022-08-19T19:11:51Z</time>
      </trkpt>
      <trkpt lat="47.16664" lon="-1.81882">
        <ele>16.6</ele>
        <time>2022-08-19T19:11:54Z</time>
      </trkpt>
      <trkpt lat="47.16656" lon="-1.81887">
        <ele>16.8</ele>
        <time>2022-08-19T19:11:56Z</time>
      </trkpt>
      <trkpt lat="47.16644" lon="-1.81895">
        <ele>17.2</ele>
        <time>2022-08-19T19:11:59Z</time>
      </trkpt>
      <trkpt lat="47.16633" lon="-1.81905">
        <ele>17.4</ele>
        <time>2022-08-19T19:12:02Z</time>
      </trkpt>
      <trkpt lat="47.16624" lon="-1.81914">
        <ele>17.8</ele>
        <time>2022-08-19T19:12:05Z</time>
      </trkpt>
      <trkpt lat="47.16611" lon="-1.81923">
        <ele>18</ele>
        <time>2022-08-19T19:12:09Z</time>
      </trkpt>
      <trkpt lat="47.16592" lon="-1.81935">
        <ele>18.4</ele>
        <time>2022-08-19T19:12:14Z</time>
      </trkpt>
      <trkpt lat="47.16574" lon="-1.81951">
        <ele>19</ele>
        <time>2022-08-19T19:12:19Z</time>
      </trkpt>
      <trkpt lat="47.16554" lon="-1.81961">
        <ele>19.2</ele>
        <time>2022-08-19T19:12:24Z</time>
      </trkpt>
      <trkpt lat="47.16537" lon="-1.81973">
        <ele>19.2</ele>
        <time>2022-08-19T19:12:29Z</time>
      </trkpt>
      <trkpt lat="47.16519" lon="-1.81983">
        <ele>19.8</ele>
        <time>2022-08-19T19:12:34Z</time>
      </trkpt>
      <trkpt lat="47.16492" lon="-1.81999">
        <ele>20.4</ele>
        <time>2022-08-19T19:12:41Z</time>
      </trkpt>
      <trkpt lat="47.16472" lon="-1.82013">
        <ele>20.8</ele>
        <time>2022-08-19T19:12:47Z</time>
      </trkpt>
      <trkpt lat="47.16456" lon="-1.82022">
        <ele>21.2</ele>
        <time>2022-08-19T19:12:52Z</time>
      </trkpt>
      <trkpt lat="47.16432" lon="-1.82034">
        <ele>21.4</ele>
        <time>2022-08-19T19:12:58Z</time>
      </trkpt>
      <trkpt lat="47.16401" lon="-1.82056">
        <ele>21.8</ele>
        <time>2022-08-19T19:13:06Z</time>
      </trkpt>
      <trkpt lat="47.16373" lon="-1.82079">
        <ele>22.2</ele>
        <time>2022-08-19T19:13:14Z</time>
      </trkpt>
      <trkpt lat="47.16348" lon="-1.82097">
        <ele>22.6</ele>
        <time>2022-08-19T19:13:21Z</time>
      </trkpt>
      <trkpt lat="47.16329" lon="-1.82108">
        <ele>22.8</ele>
        <time>2022-08-19T19:13:27Z</time>
      </trkpt>
      <trkpt lat="47.1632" lon="-1.82106">
        <ele>23</ele>
        <time>2022-08-19T19:13:31Z</time>
      </trkpt>
      <trkpt lat="47.16307" lon="-1.82106">
        <ele>23.4</ele>
        <time>2022-08-19T19:13:37Z</time>
      </trkpt>
      <trkpt lat="47.16287" lon="-1.82105">
        <ele>23.6</ele>
        <time>2022-08-19T19:13:42Z</time>
      </trkpt>
      <trkpt lat="47.16283" lon="-1.82104">
        <ele>23.6</ele>
        <time>2022-08-19T19:13:43Z</time>
      </trkpt>
      <trkpt lat="47.16253" lon="-1.82101">
        <ele>24</ele>
        <time>2022-08-19T19:13:50Z</time>
      </trkpt>
      <trkpt lat="47.16221" lon="-1.82096">
        <ele>24.4</ele>
        <time>2022-08-19T19:13:57Z</time>
      </trkpt>
      <trkpt lat="47.16197" lon="-1.82091">
        <ele>24.4</ele>
        <time>2022-08-19T19:14:02Z</time>
      </trkpt>
      <trkpt lat="47.16154" lon="-1.82076">
        <ele>25</ele>
        <time>2022-08-19T19:14:11Z</time>
      </trkpt>
      <trkpt lat="47.16113" lon="-1.8206">
        <ele>25.4</ele>
        <time>2022-08-19T19:14:20Z</time>
      </trkpt>
      <trkpt lat="47.16109" lon="-1.82058">
        <ele>25.4</ele>
        <time>2022-08-19T19:14:21Z</time>
      </trkpt>
      <trkpt lat="47.161" lon="-1.82059">
        <ele>25.4</ele>
        <time>2022-08-19T19:14:23Z</time>
      </trkpt>
      <trkpt lat="47.16095" lon="-1.82062">
        <ele>25.4</ele>
        <time>2022-08-19T19:14:24Z</time>
      </trkpt>
      <trkpt lat="47.16092" lon="-1.82067">
        <ele>25.4</ele>
        <time>2022-08-19T19:14:25Z</time>
      </trkpt>
      <trkpt lat="47.16087" lon="-1.82078">
        <ele>25.6</ele>
        <time>2022-08-19T19:14:27Z</time>
      </trkpt>
      <trkpt lat="47.16085" lon="-1.82085">
        <ele>25.6</ele>
        <time>2022-08-19T19:14:28Z</time>
      </trkpt>
      <trkpt lat="47.16071" lon="-1.82122">
        <ele>25.8</ele>
        <time>2022-08-19T19:14:34Z</time>
      </trkpt>
      <trkpt lat="47.16055" lon="-1.82167">
        <ele>26.2</ele>
        <time>2022-08-19T19:14:41Z</time>
      </trkpt>
      <trkpt lat="47.16041" lon="-1.82197">
        <ele>26.4</ele>
        <time>2022-08-19T19:14:46Z</time>
      </trkpt>
      <trkpt lat="47.16035" lon="-1.8221">
        <ele>26.4</ele>
        <time>2022-08-19T19:14:48Z</time>
      </trkpt>
      <trkpt lat="47.16005" lon="-1.82264">
        <ele>26.6</ele>
        <time>2022-08-19T19:14:57Z</time>
      </trkpt>
      <trkpt lat="47.15978" lon="-1.82297">
        <ele>26.8</ele>
        <time>2022-08-19T19:15:04Z</time>
      </trkpt>
      <trkpt lat="47.15969" lon="-1.82302">
        <ele>26.8</ele>
        <time>2022-08-19T19:15:06Z</time>
      </trkpt>
      <trkpt lat="47.15945" lon="-1.82309">
        <ele>26.8</ele>
        <time>2022-08-19T19:15:11Z</time>
      </trkpt>
      <trkpt lat="47.15902" lon="-1.82317">
        <ele>26.8</ele>
        <time>2022-08-19T19:15:20Z</time>
      </trkpt>
      <trkpt lat="47.15869" lon="-1.82318">
        <ele>26.8</ele>
        <time>2022-08-19T19:15:27Z</time>
      </trkpt>
      <trkpt lat="47.15865" lon="-1.82316">
        <ele>26.8</ele>
        <time>2022-08-19T19:15:28Z</time>
      </trkpt>
      <trkpt lat="47.15861" lon="-1.82312">
        <ele>26.8</ele>
        <time>2022-08-19T19:15:29Z</time>
      </trkpt>
      <trkpt lat="47.15855" lon="-1.82302">
        <ele>26.6</ele>
        <time>2022-08-19T19:15:31Z</time>
      </trkpt>
      <trkpt lat="47.15853" lon="-1.82296">
        <ele>26.6</ele>
        <time>2022-08-19T19:15:32Z</time>
      </trkpt>
      <trkpt lat="47.15852" lon="-1.8229">
        <ele>26.6</ele>
        <time>2022-08-19T19:15:33Z</time>
      </trkpt>
      <trkpt lat="47.15849" lon="-1.82269">
        <ele>26.6</ele>
        <time>2022-08-19T19:15:36Z</time>
      </trkpt>
      <trkpt lat="47.15848" lon="-1.82262">
        <ele>26.6</ele>
        <time>2022-08-19T19:15:37Z</time>
      </trkpt>
      <trkpt lat="47.15844" lon="-1.8222">
        <ele>26.6</ele>
        <time>2022-08-19T19:15:43Z</time>
      </trkpt>
      <trkpt lat="47.15832" lon="-1.8216">
        <ele>26.8</ele>
        <time>2022-08-19T19:15:52Z</time>
      </trkpt>
      <trkpt lat="47.15828" lon="-1.82111">
        <ele>27</ele>
        <time>2022-08-19T19:15:59Z</time>
      </trkpt>
      <trkpt lat="47.15823" lon="-1.82056">
        <ele>27.2</ele>
        <time>2022-08-19T19:16:07Z</time>
      </trkpt>
      <trkpt lat="47.15821" lon="-1.82014">
        <ele>27.4</ele>
        <time>2022-08-19T19:16:14Z</time>
      </trkpt>
      <trkpt lat="47.15819" lon="-1.82002">
        <ele>27.4</ele>
        <time>2022-08-19T19:16:16Z</time>
      </trkpt>
      <trkpt lat="47.15817" lon="-1.81971">
        <ele>27.4</ele>
        <time>2022-08-19T19:16:21Z</time>
      </trkpt>
      <trkpt lat="47.15813" lon="-1.8196">
        <ele>27.4</ele>
        <time>2022-08-19T19:16:23Z</time>
      </trkpt>
      <trkpt lat="47.15809" lon="-1.81958">
        <ele>27.4</ele>
        <time>2022-08-19T19:16:24Z</time>
      </trkpt>
      <trkpt lat="47.15804" lon="-1.81957">
        <ele>27.6</ele>
        <time>2022-08-19T19:16:25Z</time>
      </trkpt>
      <trkpt lat="47.15784" lon="-1.81957">
        <ele>27.6</ele>
        <time>2022-08-19T19:16:29Z</time>
      </trkpt>
      <trkpt lat="47.15739" lon="-1.8196">
        <ele>27.6</ele>
        <time>2022-08-19T19:16:38Z</time>
      </trkpt>
      <trkpt lat="47.15705" lon="-1.81963">
        <ele>27.4</ele>
        <time>2022-08-19T19:16:44Z</time>
      </trkpt>
      <trkpt lat="47.15664" lon="-1.81965">
        <ele>27.2</ele>
        <time>2022-08-19T19:16:50Z</time>
      </trkpt>
      <trkpt lat="47.1562" lon="-1.81969">
        <ele>26.6</ele>
        <time>2022-08-19T19:16:56Z</time>
      </trkpt>
      <trkpt lat="47.15573" lon="-1.81971">
        <ele>26</ele>
        <time>2022-08-19T19:17:03Z</time>
      </trkpt>
      <trkpt lat="47.15536" lon="-1.81975">
        <ele>25.6</ele>
        <time>2022-08-19T19:17:09Z</time>
      </trkpt>
      <trkpt lat="47.15494" lon="-1.81979">
        <ele>25.4</ele>
        <time>2022-08-19T19:17:17Z</time>
      </trkpt>
      <trkpt lat="47.15453" lon="-1.81995">
        <ele>25.2</ele>
        <time>2022-08-19T19:17:25Z</time>
      </trkpt>
      <trkpt lat="47.1542" lon="-1.82012">
        <ele>25.2</ele>
        <time>2022-08-19T19:17:32Z</time>
      </trkpt>
      <trkpt lat="47.15393" lon="-1.82021">
        <ele>25.2</ele>
        <time>2022-08-19T19:17:38Z</time>
      </trkpt>
      <trkpt lat="47.15378" lon="-1.82023">
        <ele>25.4</ele>
        <time>2022-08-19T19:17:44Z</time>
      </trkpt>
      <trkpt lat="47.15376" lon="-1.82023">
        <ele>25.4</ele>
        <time>2022-08-19T19:17:45Z</time>
      </trkpt>
      <trkpt lat="47.15375" lon="-1.82022">
        <ele>25.4</ele>
        <time>2022-08-19T19:17:47Z</time>
      </trkpt>
      <trkpt lat="47.15377" lon="-1.82021">
        <ele>25.4</ele>
        <time>2022-08-19T19:17:48Z</time>
      </trkpt>
      <trkpt lat="47.1538" lon="-1.82021">
        <ele>25.2</ele>
        <time>2022-08-19T19:17:50Z</time>
      </trkpt>
      <trkpt lat="47.15388" lon="-1.8202">
        <ele>25.4</ele>
        <time>2022-08-19T19:17:53Z</time>
      </trkpt>
      <trkpt lat="47.15392" lon="-1.82019">
        <ele>25.2</ele>
        <time>2022-08-19T19:17:54Z</time>
      </trkpt>
      <trkpt lat="47.15414" lon="-1.82014">
        <ele>25</ele>
        <time>2022-08-19T19:17:59Z</time>
      </trkpt>
      <trkpt lat="47.15442" lon="-1.81999">
        <ele>24.8</ele>
        <time>2022-08-19T19:18:06Z</time>
      </trkpt>
      <trkpt lat="47.15478" lon="-1.81982">
        <ele>24.6</ele>
        <time>2022-08-19T19:18:14Z</time>
      </trkpt>
      <trkpt lat="47.15515" lon="-1.81973">
        <ele>24.4</ele>
        <time>2022-08-19T19:18:21Z</time>
      </trkpt>
      <trkpt lat="47.1555" lon="-1.8197">
        <ele>24.2</ele>
        <time>2022-08-19T19:18:27Z</time>
      </trkpt>
      <trkpt lat="47.15585" lon="-1.81969">
        <ele>23.8</ele>
        <time>2022-08-19T19:18:34Z</time>
      </trkpt>
      <trkpt lat="47.15592" lon="-1.81968">
        <ele>23.6</ele>
        <time>2022-08-19T19:18:36Z</time>
      </trkpt>
      <trkpt lat="47.15595" lon="-1.81964">
        <ele>23.6</ele>
        <time>2022-08-19T19:18:37Z</time>
      </trkpt>
      <trkpt lat="47.156" lon="-1.81954">
        <ele>23.4</ele>
        <time>2022-08-19T19:18:39Z</time>
      </trkpt>
      <trkpt lat="47.15603" lon="-1.81943">
        <ele>23.2</ele>
        <time>2022-08-19T19:18:41Z</time>
      </trkpt>
      <trkpt lat="47.15603" lon="-1.81938">
        <ele>23.2</ele>
        <time>2022-08-19T19:18:42Z</time>
      </trkpt>
      <trkpt lat="47.15596" lon="-1.81915">
        <ele>22.4</ele>
        <time>2022-08-19T19:18:47Z</time>
      </trkpt>
      <trkpt lat="47.15587" lon="-1.81902">
        <ele>21.6</ele>
        <time>2022-08-19T19:18:51Z</time>
      </trkpt>
      <trkpt lat="47.1558" lon="-1.81884">
        <ele>21</ele>
        <time>2022-08-19T19:18:55Z</time>
      </trkpt>
      <trkpt lat="47.15573" lon="-1.81858">
        <ele>20</ele>
        <time>2022-08-19T19:19:00Z</time>
      </trkpt>
      <trkpt lat="47.1557" lon="-1.81852">
        <ele>19.6</ele>
        <time>2022-08-19T19:19:02Z</time>
      </trkpt>
      <trkpt lat="47.15569" lon="-1.81851">
        <ele>19.4</ele>
        <time>2022-08-19T19:19:03Z</time>
      </trkpt>
      <trkpt lat="47.15554" lon="-1.81847">
        <ele>18.8</ele>
        <time>2022-08-19T19:19:08Z</time>
      </trkpt>
      <trkpt lat="47.1555" lon="-1.81847">
        <ele>18.8</ele>
        <time>2022-08-19T19:19:09Z</time>
      </trkpt>
      <trkpt lat="47.15545" lon="-1.81843">
        <ele>18.8</ele>
        <time>2022-08-19T19:19:11Z</time>
      </trkpt>
      <trkpt lat="47.1553" lon="-1.8183">
        <ele>18.6</ele>
        <time>2022-08-19T19:19:16Z</time>
      </trkpt>
      <trkpt lat="47.15522" lon="-1.8182">
        <ele>18.6</ele>
        <time>2022-08-19T19:19:19Z</time>
      </trkpt>
      <trkpt lat="47.15515" lon="-1.81807">
        <ele>18.6</ele>
        <time>2022-08-19T19:19:23Z</time>
      </trkpt>
      <trkpt lat="47.15502" lon="-1.81791">
        <ele>18.8</ele>
        <time>2022-08-19T19:19:28Z</time>
      </trkpt>
      <trkpt lat="47.15489" lon="-1.81786">
        <ele>18.6</ele>
        <time>2022-08-19T19:19:32Z</time>
      </trkpt>
      <trkpt lat="47.15475" lon="-1.81776">
        <ele>18.4</ele>
        <time>2022-08-19T19:19:37Z</time>
      </trkpt>
      <trkpt lat="47.15466" lon="-1.81764">
        <ele>18.2</ele>
        <time>2022-08-19T19:19:41Z</time>
      </trkpt>
      <trkpt lat="47.15458" lon="-1.81748">
        <ele>18.2</ele>
        <time>2022-08-19T19:19:46Z</time>
      </trkpt>
      <trkpt lat="47.15456" lon="-1.81745">
        <ele>18.4</ele>
        <time>2022-08-19T19:19:47Z</time>
      </trkpt>
      <trkpt lat="47.15449" lon="-1.81738">
        <ele>18.6</ele>
        <time>2022-08-19T19:19:50Z</time>
      </trkpt>
      <trkpt lat="47.15439" lon="-1.81726">
        <ele>18.8</ele>
        <time>2022-08-19T19:19:55Z</time>
      </trkpt>
      <trkpt lat="47.15426" lon="-1.81709">
        <ele>19.2</ele>
        <time>2022-08-19T19:20:00Z</time>
      </trkpt>
      <trkpt lat="47.15415" lon="-1.817">
        <ele>19.4</ele>
        <time>2022-08-19T19:20:05Z</time>
      </trkpt>
      <trkpt lat="47.15411" lon="-1.81696">
        <ele>19.6</ele>
        <time>2022-08-19T19:20:07Z</time>
      </trkpt>
      <trkpt lat="47.15409" lon="-1.81693">
        <ele>19.6</ele>
        <time>2022-08-19T19:20:08Z</time>
      </trkpt>
      <trkpt lat="47.15406" lon="-1.8169">
        <ele>19.8</ele>
        <time>2022-08-19T19:20:11Z</time>
      </trkpt>
      <trkpt lat="47.15402" lon="-1.81687">
        <ele>20</ele>
        <time>2022-08-19T19:20:13Z</time>
      </trkpt>
      <trkpt lat="47.15393" lon="-1.8168">
        <ele>20.4</ele>
        <time>2022-08-19T19:20:18Z</time>
      </trkpt>
      <trkpt lat="47.1538" lon="-1.81676">
        <ele>20.8</ele>
        <time>2022-08-19T19:20:24Z</time>
      </trkpt>
      <trkpt lat="47.1537" lon="-1.81671">
        <ele>21.2</ele>
        <time>2022-08-19T19:20:29Z</time>
      </trkpt>
      <trkpt lat="47.15354" lon="-1.81665">
        <ele>21.8</ele>
        <time>2022-08-19T19:20:34Z</time>
      </trkpt>
      <trkpt lat="47.15342" lon="-1.8166">
        <ele>22.2</ele>
        <time>2022-08-19T19:20:38Z</time>
      </trkpt>
      <trkpt lat="47.15333" lon="-1.81656">
        <ele>22.6</ele>
        <time>2022-08-19T19:20:42Z</time>
      </trkpt>
      <trkpt lat="47.15325" lon="-1.81647">
        <ele>23</ele>
        <time>2022-08-19T19:20:47Z</time>
      </trkpt>
      <trkpt lat="47.15315" lon="-1.81634">
        <ele>23</ele>
        <time>2022-08-19T19:20:52Z</time>
      </trkpt>
      <trkpt lat="47.15312" lon="-1.81631">
        <ele>23</ele>
        <time>2022-08-19T19:20:54Z</time>
      </trkpt>
      <trkpt lat="47.1531" lon="-1.81631">
        <ele>22.8</ele>
        <time>2022-08-19T19:20:56Z</time>
      </trkpt>
      <trkpt lat="47.15307" lon="-1.81633">
        <ele>22.8</ele>
        <time>2022-08-19T19:20:59Z</time>
      </trkpt>
      <trkpt lat="47.15305" lon="-1.81637">
        <ele>22.8</ele>
        <time>2022-08-19T19:21:01Z</time>
      </trkpt>
      <trkpt lat="47.15301" lon="-1.81643">
        <ele>23</ele>
        <time>2022-08-19T19:21:06Z</time>
      </trkpt>
      <trkpt lat="47.15296" lon="-1.81656">
        <ele>22.6</ele>
        <time>2022-08-19T19:21:12Z</time>
      </trkpt>
      <trkpt lat="47.15292" lon="-1.81668">
        <ele>22.6</ele>
        <time>2022-08-19T19:21:16Z</time>
      </trkpt>
      <trkpt lat="47.15283" lon="-1.81692">
        <ele>22.2</ele>
        <time>2022-08-19T19:21:21Z</time>
      </trkpt>
      <trkpt lat="47.15274" lon="-1.81717">
        <ele>22</ele>
        <time>2022-08-19T19:21:26Z</time>
      </trkpt>
      <trkpt lat="47.15264" lon="-1.81735">
        <ele>21.8</ele>
        <time>2022-08-19T19:21:30Z</time>
      </trkpt>
      <trkpt lat="47.15253" lon="-1.81759">
        <ele>21.4</ele>
        <time>2022-08-19T19:21:36Z</time>
      </trkpt>
      <trkpt lat="47.15244" lon="-1.81786">
        <ele>20.6</ele>
        <time>2022-08-19T19:21:42Z</time>
      </trkpt>
      <trkpt lat="47.15239" lon="-1.81803">
        <ele>20.2</ele>
        <time>2022-08-19T19:21:45Z</time>
      </trkpt>
      <trkpt lat="47.15232" lon="-1.81821">
        <ele>20</ele>
        <time>2022-08-19T19:21:48Z</time>
      </trkpt>
      <trkpt lat="47.15221" lon="-1.81847">
        <ele>20.4</ele>
        <time>2022-08-19T19:21:53Z</time>
      </trkpt>
      <trkpt lat="47.15216" lon="-1.81878">
        <ele>20.2</ele>
        <time>2022-08-19T19:21:58Z</time>
      </trkpt>
      <trkpt lat="47.15213" lon="-1.81908">
        <ele>21.4</ele>
        <time>2022-08-19T19:22:03Z</time>
      </trkpt>
      <trkpt lat="47.15209" lon="-1.81944">
        <ele>21.8</ele>
        <time>2022-08-19T19:22:10Z</time>
      </trkpt>
      <trkpt lat="47.15204" lon="-1.81983">
        <ele>22.2</ele>
        <time>2022-08-19T19:22:17Z</time>
      </trkpt>
      <trkpt lat="47.152" lon="-1.82018">
        <ele>22.6</ele>
        <time>2022-08-19T19:22:23Z</time>
      </trkpt>
      <trkpt lat="47.15194" lon="-1.82055">
        <ele>23</ele>
        <time>2022-08-19T19:22:30Z</time>
      </trkpt>
      <trkpt lat="47.1519" lon="-1.82071">
        <ele>23.2</ele>
        <time>2022-08-19T19:22:34Z</time>
      </trkpt>
      <trkpt lat="47.15187" lon="-1.82083">
        <ele>23.4</ele>
        <time>2022-08-19T19:22:37Z</time>
      </trkpt>
      <trkpt lat="47.15186" lon="-1.82087">
        <ele>23.4</ele>
        <time>2022-08-19T19:22:38Z</time>
      </trkpt>
      <trkpt lat="47.15184" lon="-1.82111">
        <ele>24</ele>
        <time>2022-08-19T19:22:43Z</time>
      </trkpt>
      <trkpt lat="47.15182" lon="-1.82149">
        <ele>24.6</ele>
        <time>2022-08-19T19:22:50Z</time>
      </trkpt>
      <trkpt lat="47.15181" lon="-1.82179">
        <ele>25.2</ele>
        <time>2022-08-19T19:22:56Z</time>
      </trkpt>
      <trkpt lat="47.15182" lon="-1.82208">
        <ele>25.8</ele>
        <time>2022-08-19T19:23:02Z</time>
      </trkpt>
      <trkpt lat="47.15183" lon="-1.8223">
        <ele>26.2</ele>
        <time>2022-08-19T19:23:06Z</time>
      </trkpt>
      <trkpt lat="47.15184" lon="-1.82261">
        <ele>26.4</ele>
        <time>2022-08-19T19:23:12Z</time>
      </trkpt>
      <trkpt lat="47.15183" lon="-1.82265">
        <ele>26.4</ele>
        <time>2022-08-19T19:23:13Z</time>
      </trkpt>
      <trkpt lat="47.15183" lon="-1.82271">
        <ele>26.4</ele>
        <time>2022-08-19T19:23:15Z</time>
      </trkpt>
      <trkpt lat="47.15181" lon="-1.82291">
        <ele>26.6</ele>
        <time>2022-08-19T19:23:19Z</time>
      </trkpt>
      <trkpt lat="47.15181" lon="-1.82311">
        <ele>27</ele>
        <time>2022-08-19T19:23:23Z</time>
      </trkpt>
      <trkpt lat="47.15184" lon="-1.82345">
        <ele>27.2</ele>
        <time>2022-08-19T19:23:29Z</time>
      </trkpt>
      <trkpt lat="47.15186" lon="-1.82364">
        <ele>27.4</ele>
        <time>2022-08-19T19:23:32Z</time>
      </trkpt>
      <trkpt lat="47.15189" lon="-1.82378">
        <ele>27.4</ele>
        <time>2022-08-19T19:23:34Z</time>
      </trkpt>
      <trkpt lat="47.15198" lon="-1.82415">
        <ele>27.6</ele>
        <time>2022-08-19T19:23:40Z</time>
      </trkpt>
      <trkpt lat="47.15204" lon="-1.82439">
        <ele>27.6</ele>
        <time>2022-08-19T19:23:44Z</time>
      </trkpt>
      <trkpt lat="47.15206" lon="-1.82451">
        <ele>27.6</ele>
        <time>2022-08-19T19:23:46Z</time>
      </trkpt>
      <trkpt lat="47.15213" lon="-1.82484">
        <ele>27.8</ele>
        <time>2022-08-19T19:23:52Z</time>
      </trkpt>
      <trkpt lat="47.15218" lon="-1.8251">
        <ele>27.8</ele>
        <time>2022-08-19T19:23:57Z</time>
      </trkpt>
      <trkpt lat="47.1522" lon="-1.82526">
        <ele>27.8</ele>
        <time>2022-08-19T19:24:01Z</time>
      </trkpt>
      <trkpt lat="47.15221" lon="-1.82529">
        <ele>28</ele>
        <time>2022-08-19T19:24:02Z</time>
      </trkpt>
      <trkpt lat="47.15221" lon="-1.82532">
        <ele>27.6</ele>
        <time>2022-08-19T19:24:03Z</time>
      </trkpt>
      <trkpt lat="47.15223" lon="-1.82544">
        <ele>27.4</ele>
        <time>2022-08-19T19:24:07Z</time>
      </trkpt>
      <trkpt lat="47.15226" lon="-1.82564">
        <ele>27.4</ele>
        <time>2022-08-19T19:24:12Z</time>
      </trkpt>
      <trkpt lat="47.15226" lon="-1.82568">
        <ele>27.4</ele>
        <time>2022-08-19T19:24:13Z</time>
      </trkpt>
      <trkpt lat="47.15222" lon="-1.82576">
        <ele>27.4</ele>
        <time>2022-08-19T19:24:16Z</time>
      </trkpt>
      <trkpt lat="47.1522" lon="-1.82581">
        <ele>27.8</ele>
        <time>2022-08-19T19:24:19Z</time>
      </trkpt>
      <trkpt lat="47.15221" lon="-1.82583">
        <ele>27.8</ele>
        <time>2022-08-19T19:24:20Z</time>
      </trkpt>
      <trkpt lat="47.15228" lon="-1.82596">
        <ele>28.2</ele>
        <time>2022-08-19T19:24:26Z</time>
      </trkpt>
      <trkpt lat="47.15229" lon="-1.82599">
        <ele>28.2</ele>
        <time>2022-08-19T19:24:27Z</time>
      </trkpt>
      <trkpt lat="47.1523" lon="-1.82602">
        <ele>28.2</ele>
        <time>2022-08-19T19:24:28Z</time>
      </trkpt>
      <trkpt lat="47.15234" lon="-1.82612">
        <ele>28.4</ele>
        <time>2022-08-19T19:24:32Z</time>
      </trkpt>
      <trkpt lat="47.15234" lon="-1.82612">
        <ele>28.4</ele>
        <time>2022-08-19T19:24:33Z</time>
      </trkpt>
      <trkpt lat="47.15236" lon="-1.82617">
        <ele>29.2</ele>
        <time>2022-08-19T19:25:16Z</time>
      </trkpt>
      <trkpt lat="47.1524" lon="-1.82624">
        <ele>29.4</ele>
        <time>2022-08-19T19:25:18Z</time>
      </trkpt>
      <trkpt lat="47.15255" lon="-1.82649">
        <ele>29.4</ele>
        <time>2022-08-19T19:25:23Z</time>
      </trkpt>
      <trkpt lat="47.15275" lon="-1.82683">
        <ele>29.4</ele>
        <time>2022-08-19T19:25:30Z</time>
      </trkpt>
      <trkpt lat="47.15289" lon="-1.82713">
        <ele>29.4</ele>
        <time>2022-08-19T19:25:37Z</time>
      </trkpt>
      <trkpt lat="47.15301" lon="-1.8275">
        <ele>29.2</ele>
        <time>2022-08-19T19:25:44Z</time>
      </trkpt>
      <trkpt lat="47.15309" lon="-1.82778">
        <ele>29.2</ele>
        <time>2022-08-19T19:25:49Z</time>
      </trkpt>
      <trkpt lat="47.15317" lon="-1.82807">
        <ele>29</ele>
        <time>2022-08-19T19:25:54Z</time>
      </trkpt>
      <trkpt lat="47.15319" lon="-1.82812">
        <ele>28.8</ele>
        <time>2022-08-19T19:25:55Z</time>
      </trkpt>
      <trkpt lat="47.15329" lon="-1.82844">
        <ele>28.4</ele>
        <time>2022-08-19T19:26:00Z</time>
      </trkpt>
      <trkpt lat="47.15332" lon="-1.8285">
        <ele>28.4</ele>
        <time>2022-08-19T19:26:01Z</time>
      </trkpt>
      <trkpt lat="47.15334" lon="-1.82855">
        <ele>28.4</ele>
        <time>2022-08-19T19:26:02Z</time>
      </trkpt>
      <trkpt lat="47.15338" lon="-1.82867">
        <ele>28.2</ele>
        <time>2022-08-19T19:26:04Z</time>
      </trkpt>
      <trkpt lat="47.15346" lon="-1.8289">
        <ele>27.8</ele>
        <time>2022-08-19T19:26:08Z</time>
      </trkpt>
      <trkpt lat="47.15347" lon="-1.82896">
        <ele>27.8</ele>
        <time>2022-08-19T19:26:09Z</time>
      </trkpt>
      <trkpt lat="47.15343" lon="-1.82905">
        <ele>27.6</ele>
        <time>2022-08-19T19:26:11Z</time>
      </trkpt>
      <trkpt lat="47.15326" lon="-1.82911">
        <ele>27.2</ele>
        <time>2022-08-19T19:26:16Z</time>
      </trkpt>
      <trkpt lat="47.1531" lon="-1.82917">
        <ele>27</ele>
        <time>2022-08-19T19:26:21Z</time>
      </trkpt>
      <trkpt lat="47.15291" lon="-1.82925">
        <ele>27</ele>
        <time>2022-08-19T19:26:26Z</time>
      </trkpt>
      <trkpt lat="47.15284" lon="-1.82929">
        <ele>27</ele>
        <time>2022-08-19T19:26:28Z</time>
      </trkpt>
      <trkpt lat="47.15271" lon="-1.82934">
        <ele>27</ele>
        <time>2022-08-19T19:26:31Z</time>
      </trkpt>
      <trkpt lat="47.1524" lon="-1.82945">
        <ele>26.8</ele>
        <time>2022-08-19T19:26:38Z</time>
      </trkpt>
      <trkpt lat="47.15217" lon="-1.82951">
        <ele>26.4</ele>
        <time>2022-08-19T19:26:44Z</time>
      </trkpt>
      <trkpt lat="47.15185" lon="-1.82955">
        <ele>26.4</ele>
        <time>2022-08-19T19:26:52Z</time>
      </trkpt>
      <trkpt lat="47.15162" lon="-1.82963">
        <ele>26</ele>
        <time>2022-08-19T19:26:58Z</time>
      </trkpt>
      <trkpt lat="47.15144" lon="-1.82968">
        <ele>26</ele>
        <time>2022-08-19T19:27:03Z</time>
      </trkpt>
      <trkpt lat="47.15136" lon="-1.82974">
        <ele>26.2</ele>
        <time>2022-08-19T19:27:07Z</time>
      </trkpt>
      <trkpt lat="47.15131" lon="-1.82972">
        <ele>26.2</ele>
        <time>2022-08-19T19:27:10Z</time>
      </trkpt>
      <trkpt lat="47.15127" lon="-1.82971">
        <ele>26.4</ele>
        <time>2022-08-19T19:27:12Z</time>
      </trkpt>
      <trkpt lat="47.15109" lon="-1.82965">
        <ele>26.8</ele>
        <time>2022-08-19T19:27:18Z</time>
      </trkpt>
      <trkpt lat="47.15078" lon="-1.82952">
        <ele>27</ele>
        <time>2022-08-19T19:27:27Z</time>
      </trkpt>
      <trkpt lat="47.15055" lon="-1.82943">
        <ele>27.2</ele>
        <time>2022-08-19T19:27:33Z</time>
      </trkpt>
      <trkpt lat="47.1503" lon="-1.82926">
        <ele>27.4</ele>
        <time>2022-08-19T19:27:40Z</time>
      </trkpt>
      <trkpt lat="47.15019" lon="-1.82907">
        <ele>27.4</ele>
        <time>2022-08-19T19:27:45Z</time>
      </trkpt>
      <trkpt lat="47.1501" lon="-1.82875">
        <ele>27.6</ele>
        <time>2022-08-19T19:27:52Z</time>
      </trkpt>
      <trkpt lat="47.15008" lon="-1.82867">
        <ele>27.6</ele>
        <time>2022-08-19T19:27:55Z</time>
      </trkpt>
      <trkpt lat="47.15008" lon="-1.82863">
        <ele>27.8</ele>
        <time>2022-08-19T19:27:57Z</time>
      </trkpt>
      <trkpt lat="47.15007" lon="-1.82861">
        <ele>27.8</ele>
        <time>2022-08-19T19:27:58Z</time>
      </trkpt>
      <trkpt lat="47.15006" lon="-1.82857">
        <ele>27.8</ele>
        <time>2022-08-19T19:28:00Z</time>
      </trkpt>
      <trkpt lat="47.15006" lon="-1.82852">
        <ele>27.8</ele>
        <time>2022-08-19T19:28:02Z</time>
      </trkpt>
      <trkpt lat="47.15005" lon="-1.8285">
        <ele>27.8</ele>
        <time>2022-08-19T19:28:03Z</time>
      </trkpt>
      <trkpt lat="47.15002" lon="-1.82848">
        <ele>27.8</ele>
        <time>2022-08-19T19:28:06Z</time>
      </trkpt>
      <trkpt lat="47.14998" lon="-1.82848">
        <ele>27.6</ele>
        <time>2022-08-19T19:28:09Z</time>
      </trkpt>
      <trkpt lat="47.14996" lon="-1.8285">
        <ele>27.8</ele>
        <time>2022-08-19T19:28:11Z</time>
      </trkpt>
      <trkpt lat="47.14994" lon="-1.82851">
        <ele>27.8</ele>
        <time>2022-08-19T19:28:12Z</time>
      </trkpt>
      <trkpt lat="47.14982" lon="-1.82856">
        <ele>27.6</ele>
        <time>2022-08-19T19:28:17Z</time>
      </trkpt>
      <trkpt lat="47.14961" lon="-1.82868">
        <ele>27.4</ele>
        <time>2022-08-19T19:28:24Z</time>
      </trkpt>
      <trkpt lat="47.14942" lon="-1.82877">
        <ele>27.4</ele>
        <time>2022-08-19T19:28:30Z</time>
      </trkpt>
      <trkpt lat="47.14918" lon="-1.82889">
        <ele>26.8</ele>
        <time>2022-08-19T19:28:37Z</time>
      </trkpt>
      <trkpt lat="47.14893" lon="-1.82898">
        <ele>26.2</ele>
        <time>2022-08-19T19:28:43Z</time>
      </trkpt>
      <trkpt lat="47.14861" lon="-1.82908">
        <ele>25.2</ele>
        <time>2022-08-19T19:28:50Z</time>
      </trkpt>
      <trkpt lat="47.14846" lon="-1.82914">
        <ele>24.8</ele>
        <time>2022-08-19T19:28:54Z</time>
      </trkpt>
      <trkpt lat="47.14836" lon="-1.82917">
        <ele>24.6</ele>
        <time>2022-08-19T19:28:58Z</time>
      </trkpt>
      <trkpt lat="47.14823" lon="-1.82919">
        <ele>24.2</ele>
        <time>2022-08-19T19:29:03Z</time>
      </trkpt>
      <trkpt lat="47.14815" lon="-1.82919">
        <ele>24</ele>
        <time>2022-08-19T19:29:07Z</time>
      </trkpt>
      <trkpt lat="47.14813" lon="-1.82919">
        <ele>23.8</ele>
        <time>2022-08-19T19:29:08Z</time>
      </trkpt>
      <trkpt lat="47.14803" lon="-1.82918">
        <ele>23.6</ele>
        <time>2022-08-19T19:29:13Z</time>
      </trkpt>
      <trkpt lat="47.14793" lon="-1.82919">
        <ele>23.4</ele>
        <time>2022-08-19T19:29:17Z</time>
      </trkpt>
      <trkpt lat="47.14791" lon="-1.82919">
        <ele>23.4</ele>
        <time>2022-08-19T19:29:18Z</time>
      </trkpt>
      <trkpt lat="47.14777" lon="-1.82916">
        <ele>23.2</ele>
        <time>2022-08-19T19:29:23Z</time>
      </trkpt>
      <trkpt lat="47.14761" lon="-1.82912">
        <ele>22.6</ele>
        <time>2022-08-19T19:29:28Z</time>
      </trkpt>
      <trkpt lat="47.14748" lon="-1.82909">
        <ele>22</ele>
        <time>2022-08-19T19:29:33Z</time>
      </trkpt>
      <trkpt lat="47.14731" lon="-1.82911">
        <ele>21.2</ele>
        <time>2022-08-19T19:29:39Z</time>
      </trkpt>
      <trkpt lat="47.14726" lon="-1.82914">
        <ele>21</ele>
        <time>2022-08-19T19:29:41Z</time>
      </trkpt>
      <trkpt lat="47.14721" lon="-1.82919">
        <ele>21</ele>
        <time>2022-08-19T19:29:43Z</time>
      </trkpt>
      <trkpt lat="47.14701" lon="-1.82932">
        <ele>20.4</ele>
        <time>2022-08-19T19:29:49Z</time>
      </trkpt>
      <trkpt lat="47.14685" lon="-1.82945">
        <ele>20.2</ele>
        <time>2022-08-19T19:29:54Z</time>
      </trkpt>
      <trkpt lat="47.14668" lon="-1.82954">
        <ele>20</ele>
        <time>2022-08-19T19:29:58Z</time>
      </trkpt>
      <trkpt lat="47.14664" lon="-1.82956">
        <ele>19.8</ele>
        <time>2022-08-19T19:29:59Z</time>
      </trkpt>
      <trkpt lat="47.14651" lon="-1.82972">
        <ele>19.8</ele>
        <time>2022-08-19T19:30:03Z</time>
      </trkpt>
      <trkpt lat="47.14638" lon="-1.83003">
        <ele>19.2</ele>
        <time>2022-08-19T19:30:09Z</time>
      </trkpt>
      <trkpt lat="47.14635" lon="-1.83008">
        <ele>19</ele>
        <time>2022-08-19T19:30:10Z</time>
      </trkpt>
      <trkpt lat="47.14627" lon="-1.83017">
        <ele>18.8</ele>
        <time>2022-08-19T19:30:12Z</time>
      </trkpt>
      <trkpt lat="47.14623" lon="-1.8302">
        <ele>18.8</ele>
        <time>2022-08-19T19:30:13Z</time>
      </trkpt>
      <trkpt lat="47.14619" lon="-1.83024">
        <ele>18.8</ele>
        <time>2022-08-19T19:30:14Z</time>
      </trkpt>
      <trkpt lat="47.14603" lon="-1.83042">
        <ele>18.4</ele>
        <time>2022-08-19T19:30:18Z</time>
      </trkpt>
      <trkpt lat="47.14573" lon="-1.83077">
        <ele>17.6</ele>
        <time>2022-08-19T19:30:26Z</time>
      </trkpt>
      <trkpt lat="47.14565" lon="-1.83086">
        <ele>17.4</ele>
        <time>2022-08-19T19:30:28Z</time>
      </trkpt>
      <trkpt lat="47.14556" lon="-1.83098">
        <ele>17.2</ele>
        <time>2022-08-19T19:30:31Z</time>
      </trkpt>
      <trkpt lat="47.14549" lon="-1.83107">
        <ele>17</ele>
        <time>2022-08-19T19:30:33Z</time>
      </trkpt>
      <trkpt lat="47.14543" lon="-1.83113">
        <ele>16.8</ele>
        <time>2022-08-19T19:30:35Z</time>
      </trkpt>
      <trkpt lat="47.14532" lon="-1.83123">
        <ele>16.6</ele>
        <time>2022-08-19T19:30:38Z</time>
      </trkpt>
      <trkpt lat="47.14524" lon="-1.83129">
        <ele>16.4</ele>
        <time>2022-08-19T19:30:40Z</time>
      </trkpt>
      <trkpt lat="47.14508" lon="-1.83142">
        <ele>16.2</ele>
        <time>2022-08-19T19:30:45Z</time>
      </trkpt>
      <trkpt lat="47.14501" lon="-1.83148">
        <ele>16.2</ele>
        <time>2022-08-19T19:30:47Z</time>
      </trkpt>
      <trkpt lat="47.14494" lon="-1.83154">
        <ele>16.4</ele>
        <time>2022-08-19T19:30:49Z</time>
      </trkpt>
      <trkpt lat="47.14471" lon="-1.83173">
        <ele>16.4</ele>
        <time>2022-08-19T19:30:55Z</time>
      </trkpt>
      <trkpt lat="47.14447" lon="-1.83183">
        <ele>16.2</ele>
        <time>2022-08-19T19:31:01Z</time>
      </trkpt>
      <trkpt lat="47.14425" lon="-1.83186">
        <ele>15.6</ele>
        <time>2022-08-19T19:31:06Z</time>
      </trkpt>
      <trkpt lat="47.14421" lon="-1.83186">
        <ele>15.6</ele>
        <time>2022-08-19T19:31:07Z</time>
      </trkpt>
      <trkpt lat="47.14403" lon="-1.83188">
        <ele>15.2</ele>
        <time>2022-08-19T19:31:11Z</time>
      </trkpt>
      <trkpt lat="47.14378" lon="-1.83191">
        <ele>14.8</ele>
        <time>2022-08-19T19:31:17Z</time>
      </trkpt>
      <trkpt lat="47.14356" lon="-1.83192">
        <ele>14.4</ele>
        <time>2022-08-19T19:31:22Z</time>
      </trkpt>
      <trkpt lat="47.14325" lon="-1.83194">
        <ele>14</ele>
        <time>2022-08-19T19:31:28Z</time>
      </trkpt>
      <trkpt lat="47.14304" lon="-1.83189">
        <ele>13.6</ele>
        <time>2022-08-19T19:31:33Z</time>
      </trkpt>
      <trkpt lat="47.14305" lon="-1.83179">
        <ele>13.4</ele>
        <time>2022-08-19T19:31:36Z</time>
      </trkpt>
      <trkpt lat="47.14308" lon="-1.8316">
        <ele>12.4</ele>
        <time>2022-08-19T19:31:41Z</time>
      </trkpt>
      <trkpt lat="47.1431" lon="-1.83133">
        <ele>11.6</ele>
        <time>2022-08-19T19:31:48Z</time>
      </trkpt>
      <trkpt lat="47.14308" lon="-1.83104">
        <ele>11.8</ele>
        <time>2022-08-19T19:31:55Z</time>
      </trkpt>
      <trkpt lat="47.14304" lon="-1.83097">
        <ele>11.8</ele>
        <time>2022-08-19T19:31:57Z</time>
      </trkpt>
      <trkpt lat="47.14297" lon="-1.83095">
        <ele>11.8</ele>
        <time>2022-08-19T19:31:59Z</time>
      </trkpt>
      <trkpt lat="47.1429" lon="-1.83095">
        <ele>11.6</ele>
        <time>2022-08-19T19:32:01Z</time>
      </trkpt>
      <trkpt lat="47.14276" lon="-1.83097">
        <ele>11.6</ele>
        <time>2022-08-19T19:32:04Z</time>
      </trkpt>
      <trkpt lat="47.14272" lon="-1.83097">
        <ele>11.6</ele>
        <time>2022-08-19T19:32:05Z</time>
      </trkpt>
      <trkpt lat="47.14266" lon="-1.83091">
        <ele>11.6</ele>
        <time>2022-08-19T19:32:07Z</time>
      </trkpt>
      <trkpt lat="47.14268" lon="-1.83076">
        <ele>11.2</ele>
        <time>2022-08-19T19:32:10Z</time>
      </trkpt>
      <trkpt lat="47.14273" lon="-1.83036">
        <ele>11.4</ele>
        <time>2022-08-19T19:32:18Z</time>
      </trkpt>
      <trkpt lat="47.14269" lon="-1.83007">
        <ele>11.8</ele>
        <time>2022-08-19T19:32:24Z</time>
      </trkpt>
      <trkpt lat="47.14264" lon="-1.82974">
        <ele>12.2</ele>
        <time>2022-08-19T19:32:31Z</time>
      </trkpt>
      <trkpt lat="47.14256" lon="-1.82936">
        <ele>12.4</ele>
        <time>2022-08-19T19:32:38Z</time>
      </trkpt>
      <trkpt lat="47.14249" lon="-1.82905">
        <ele>12.4</ele>
        <time>2022-08-19T19:32:44Z</time>
      </trkpt>
      <trkpt lat="47.14244" lon="-1.8288">
        <ele>12.2</ele>
        <time>2022-08-19T19:32:48Z</time>
      </trkpt>
      <trkpt lat="47.14241" lon="-1.8286">
        <ele>12.2</ele>
        <time>2022-08-19T19:32:51Z</time>
      </trkpt>
      <trkpt lat="47.14239" lon="-1.82839">
        <ele>12.6</ele>
        <time>2022-08-19T19:32:54Z</time>
      </trkpt>
      <trkpt lat="47.14239" lon="-1.82825">
        <ele>12</ele>
        <time>2022-08-19T19:32:56Z</time>
      </trkpt>
      <trkpt lat="47.14239" lon="-1.82811">
        <ele>12</ele>
        <time>2022-08-19T19:32:58Z</time>
      </trkpt>
      <trkpt lat="47.14233" lon="-1.828">
        <ele>11.8</ele>
        <time>2022-08-19T19:33:00Z</time>
      </trkpt>
      <trkpt lat="47.14223" lon="-1.82795">
        <ele>11.6</ele>
        <time>2022-08-19T19:33:02Z</time>
      </trkpt>
      <trkpt lat="47.14212" lon="-1.82792">
        <ele>11.4</ele>
        <time>2022-08-19T19:33:04Z</time>
      </trkpt>
      <trkpt lat="47.14186" lon="-1.82781">
        <ele>10.6</ele>
        <time>2022-08-19T19:33:09Z</time>
      </trkpt>
      <trkpt lat="47.14181" lon="-1.8278">
        <ele>10.6</ele>
        <time>2022-08-19T19:33:10Z</time>
      </trkpt>
      <trkpt lat="47.14163" lon="-1.82775">
        <ele>10.2</ele>
        <time>2022-08-19T19:33:13Z</time>
      </trkpt>
      <trkpt lat="47.14151" lon="-1.82776">
        <ele>10</ele>
        <time>2022-08-19T19:33:15Z</time>
      </trkpt>
      <trkpt lat="47.1414" lon="-1.82781">
        <ele>9.8</ele>
        <time>2022-08-19T19:33:17Z</time>
      </trkpt>
      <trkpt lat="47.14126" lon="-1.82792">
        <ele>9.6</ele>
        <time>2022-08-19T19:33:20Z</time>
      </trkpt>
      <trkpt lat="47.14115" lon="-1.82809">
        <ele>9.4</ele>
        <time>2022-08-19T19:33:24Z</time>
      </trkpt>
      <trkpt lat="47.14109" lon="-1.82826">
        <ele>9</ele>
        <time>2022-08-19T19:33:27Z</time>
      </trkpt>
      <trkpt lat="47.14102" lon="-1.82834">
        <ele>8.8</ele>
        <time>2022-08-19T19:33:29Z</time>
      </trkpt>
      <trkpt lat="47.14085" lon="-1.82843">
        <ele>8.6</ele>
        <time>2022-08-19T19:33:34Z</time>
      </trkpt>
      <trkpt lat="47.14072" lon="-1.82849">
        <ele>8.4</ele>
        <time>2022-08-19T19:33:39Z</time>
      </trkpt>
      <trkpt lat="47.14048" lon="-1.82861">
        <ele>8.4</ele>
        <time>2022-08-19T19:33:47Z</time>
      </trkpt>
      <trkpt lat="47.14031" lon="-1.82871">
        <ele>8.4</ele>
        <time>2022-08-19T19:33:53Z</time>
      </trkpt>
      <trkpt lat="47.14009" lon="-1.82886">
        <ele>8.6</ele>
        <time>2022-08-19T19:34:00Z</time>
      </trkpt>
      <trkpt lat="47.13991" lon="-1.82891">
        <ele>8.6</ele>
        <time>2022-08-19T19:34:06Z</time>
      </trkpt>
      <trkpt lat="47.13958" lon="-1.82894">
        <ele>9</ele>
        <time>2022-08-19T19:34:16Z</time>
      </trkpt>
      <trkpt lat="47.13949" lon="-1.82895">
        <ele>9</ele>
        <time>2022-08-19T19:34:19Z</time>
      </trkpt>
      <trkpt lat="47.13946" lon="-1.82902">
        <ele>9.2</ele>
        <time>2022-08-19T19:34:21Z</time>
      </trkpt>
      <trkpt lat="47.13946" lon="-1.82923">
        <ele>9</ele>
        <time>2022-08-19T19:34:25Z</time>
      </trkpt>
      <trkpt lat="47.13947" lon="-1.82935">
        <ele>9</ele>
        <time>2022-08-19T19:34:27Z</time>
      </trkpt>
      <trkpt lat="47.13949" lon="-1.82971">
        <ele>8.4</ele>
        <time>2022-08-19T19:34:33Z</time>
      </trkpt>
      <trkpt lat="47.13954" lon="-1.82997">
        <ele>8.2</ele>
        <time>2022-08-19T19:34:38Z</time>
      </trkpt>
      <trkpt lat="47.13954" lon="-1.83002">
        <ele>8.2</ele>
        <time>2022-08-19T19:34:39Z</time>
      </trkpt>
      <trkpt lat="47.13953" lon="-1.83011">
        <ele>8</ele>
        <time>2022-08-19T19:34:41Z</time>
      </trkpt>
      <trkpt lat="47.13949" lon="-1.83029">
        <ele>7.8</ele>
        <time>2022-08-19T19:34:45Z</time>
      </trkpt>
      <trkpt lat="47.13944" lon="-1.83052">
        <ele>7.4</ele>
        <time>2022-08-19T19:34:49Z</time>
      </trkpt>
      <trkpt lat="47.13943" lon="-1.83059">
        <ele>7.4</ele>
        <time>2022-08-19T19:34:50Z</time>
      </trkpt>
      <trkpt lat="47.13937" lon="-1.83096">
        <ele>7</ele>
        <time>2022-08-19T19:34:55Z</time>
      </trkpt>
      <trkpt lat="47.13935" lon="-1.83102">
        <ele>7</ele>
        <time>2022-08-19T19:34:56Z</time>
      </trkpt>
      <trkpt lat="47.13933" lon="-1.83118">
        <ele>6.6</ele>
        <time>2022-08-19T19:35:00Z</time>
      </trkpt>
      <trkpt lat="47.13934" lon="-1.83119">
        <ele>6.6</ele>
        <time>2022-08-19T19:35:02Z</time>
      </trkpt>
      <trkpt lat="47.13933" lon="-1.83124">
        <ele>4.8</ele>
        <time>2022-08-19T19:35:47Z</time>
      </trkpt>
      <trkpt lat="47.13932" lon="-1.83128">
        <ele>4.6</ele>
        <time>2022-08-19T19:35:48Z</time>
      </trkpt>
      <trkpt lat="47.1393" lon="-1.83143">
        <ele>4</ele>
        <time>2022-08-19T19:35:53Z</time>
      </trkpt>
      <trkpt lat="47.13931" lon="-1.83147">
        <ele>4</ele>
        <time>2022-08-19T19:35:54Z</time>
      </trkpt>
      <trkpt lat="47.13938" lon="-1.83159">
        <ele>3.2</ele>
        <time>2022-08-19T19:36:00Z</time>
      </trkpt>
      <trkpt lat="47.13941" lon="-1.8316">
        <ele>3.2</ele>
        <time>2022-08-19T19:36:02Z</time>
      </trkpt>
      <trkpt lat="47.13947" lon="-1.83163">
        <ele>3.2</ele>
        <time>2022-08-19T19:36:06Z</time>
      </trkpt>
      <trkpt lat="47.13957" lon="-1.83171">
        <ele>3.2</ele>
        <time>2022-08-19T19:36:12Z</time>
      </trkpt>
      <trkpt lat="47.13961" lon="-1.83176">
        <ele>3.2</ele>
        <time>2022-08-19T19:36:15Z</time>
      </trkpt>
      <trkpt lat="47.13963" lon="-1.83181">
        <ele>3.2</ele>
        <time>2022-08-19T19:36:17Z</time>
      </trkpt>
      <trkpt lat="47.13964" lon="-1.83183">
        <ele>3.2</ele>
        <time>2022-08-19T19:36:18Z</time>
      </trkpt>
      <trkpt lat="47.13964" lon="-1.8319">
        <ele>3.2</ele>
        <time>2022-08-19T19:36:21Z</time>
      </trkpt>
      <trkpt lat="47.13964" lon="-1.83198">
        <ele>3</ele>
        <time>2022-08-19T19:36:25Z</time>
      </trkpt>
      <trkpt lat="47.13966" lon="-1.83215">
        <ele>2.6</ele>
        <time>2022-08-19T19:36:30Z</time>
      </trkpt>
      <trkpt lat="47.13967" lon="-1.83229">
        <ele>2.2</ele>
        <time>2022-08-19T19:36:35Z</time>
      </trkpt>
      <trkpt lat="47.1397" lon="-1.83244">
        <ele>2</ele>
        <time>2022-08-19T19:36:40Z</time>
      </trkpt>
      <trkpt lat="47.13971" lon="-1.83264">
        <ele>2</ele>
        <time>2022-08-19T19:36:45Z</time>
      </trkpt>
      <trkpt lat="47.13971" lon="-1.83272">
        <ele>2.2</ele>
        <time>2022-08-19T19:36:47Z</time>
      </trkpt>
      <trkpt lat="47.13968" lon="-1.83279">
        <ele>2.2</ele>
        <time>2022-08-19T19:36:49Z</time>
      </trkpt>
      <trkpt lat="47.13956" lon="-1.8329">
        <ele>2</ele>
        <time>2022-08-19T19:36:54Z</time>
      </trkpt>
      <trkpt lat="47.13942" lon="-1.83304">
        <ele>2.4</ele>
        <time>2022-08-19T19:37:00Z</time>
      </trkpt>
      <trkpt lat="47.13934" lon="-1.83314">
        <ele>2.6</ele>
        <time>2022-08-19T19:37:04Z</time>
      </trkpt>
      <trkpt lat="47.13922" lon="-1.83336">
        <ele>2.8</ele>
        <time>2022-08-19T19:37:09Z</time>
      </trkpt>
      <trkpt lat="47.13909" lon="-1.83349">
        <ele>3</ele>
        <time>2022-08-19T19:37:13Z</time>
      </trkpt>
      <trkpt lat="47.139" lon="-1.83355">
        <ele>3</ele>
        <time>2022-08-19T19:37:15Z</time>
      </trkpt>
      <trkpt lat="47.13892" lon="-1.8336">
        <ele>3</ele>
        <time>2022-08-19T19:37:17Z</time>
      </trkpt>
      <trkpt lat="47.13883" lon="-1.83363">
        <ele>3.2</ele>
        <time>2022-08-19T19:37:19Z</time>
      </trkpt>
      <trkpt lat="47.13871" lon="-1.83365">
        <ele>3.6</ele>
        <time>2022-08-19T19:37:22Z</time>
      </trkpt>
      <trkpt lat="47.1385" lon="-1.83366">
        <ele>4.2</ele>
        <time>2022-08-19T19:37:27Z</time>
      </trkpt>
      <trkpt lat="47.13838" lon="-1.83368">
        <ele>4.6</ele>
        <time>2022-08-19T19:37:30Z</time>
      </trkpt>
      <trkpt lat="47.1383" lon="-1.83372">
        <ele>4.8</ele>
        <time>2022-08-19T19:37:32Z</time>
      </trkpt>
      <trkpt lat="47.13819" lon="-1.83388">
        <ele>5.2</ele>
        <time>2022-08-19T19:37:36Z</time>
      </trkpt>
      <trkpt lat="47.1382" lon="-1.834">
        <ele>5.4</ele>
        <time>2022-08-19T19:37:38Z</time>
      </trkpt>
      <trkpt lat="47.13823" lon="-1.8341">
        <ele>5.6</ele>
        <time>2022-08-19T19:37:40Z</time>
      </trkpt>
      <trkpt lat="47.13831" lon="-1.83435">
        <ele>6.4</ele>
        <time>2022-08-19T19:37:46Z</time>
      </trkpt>
      <trkpt lat="47.13841" lon="-1.83452">
        <ele>7</ele>
        <time>2022-08-19T19:37:53Z</time>
      </trkpt>
      <trkpt lat="47.13845" lon="-1.83468">
        <ele>7.4</ele>
        <time>2022-08-19T19:37:57Z</time>
      </trkpt>
      <trkpt lat="47.13843" lon="-1.83471">
        <ele>7.4</ele>
        <time>2022-08-19T19:37:58Z</time>
      </trkpt>
      <trkpt lat="47.13831" lon="-1.83473">
        <ele>7.8</ele>
        <time>2022-08-19T19:38:02Z</time>
      </trkpt>
      <trkpt lat="47.13807" lon="-1.83474">
        <ele>8.8</ele>
        <time>2022-08-19T19:38:10Z</time>
      </trkpt>
      <trkpt lat="47.13787" lon="-1.83475">
        <ele>9.6</ele>
        <time>2022-08-19T19:38:17Z</time>
      </trkpt>
      <trkpt lat="47.13778" lon="-1.83483">
        <ele>10</ele>
        <time>2022-08-19T19:38:21Z</time>
      </trkpt>
      <trkpt lat="47.13776" lon="-1.83504">
        <ele>10.8</ele>
        <time>2022-08-19T19:38:27Z</time>
      </trkpt>
      <trkpt lat="47.13775" lon="-1.83538">
        <ele>11.6</ele>
        <time>2022-08-19T19:38:35Z</time>
      </trkpt>
      <trkpt lat="47.13772" lon="-1.83562">
        <ele>12.2</ele>
        <time>2022-08-19T19:38:40Z</time>
      </trkpt>
      <trkpt lat="47.13767" lon="-1.83591">
        <ele>12.8</ele>
        <time>2022-08-19T19:38:46Z</time>
      </trkpt>
      <trkpt lat="47.13761" lon="-1.83631">
        <ele>13.6</ele>
        <time>2022-08-19T19:38:53Z</time>
      </trkpt>
      <trkpt lat="47.13756" lon="-1.83664">
        <ele>14.2</ele>
        <time>2022-08-19T19:38:59Z</time>
      </trkpt>
      <trkpt lat="47.13748" lon="-1.83711">
        <ele>15</ele>
        <time>2022-08-19T19:39:07Z</time>
      </trkpt>
      <trkpt lat="47.13744" lon="-1.83749">
        <ele>15.6</ele>
        <time>2022-08-19T19:39:13Z</time>
      </trkpt>
      <trkpt lat="47.13742" lon="-1.83767">
        <ele>15.8</ele>
        <time>2022-08-19T19:39:16Z</time>
      </trkpt>
      <trkpt lat="47.13742" lon="-1.83787">
        <ele>16.2</ele>
        <time>2022-08-19T19:39:19Z</time>
      </trkpt>
      <trkpt lat="47.13744" lon="-1.83807">
        <ele>16.4</ele>
        <time>2022-08-19T19:39:22Z</time>
      </trkpt>
      <trkpt lat="47.1375" lon="-1.83869">
        <ele>17.2</ele>
        <time>2022-08-19T19:39:31Z</time>
      </trkpt>
      <trkpt lat="47.13759" lon="-1.83916">
        <ele>17.6</ele>
        <time>2022-08-19T19:39:38Z</time>
      </trkpt>
      <trkpt lat="47.13773" lon="-1.83964">
        <ele>18</ele>
        <time>2022-08-19T19:39:45Z</time>
      </trkpt>
      <trkpt lat="47.13791" lon="-1.84016">
        <ele>18.2</ele>
        <time>2022-08-19T19:39:53Z</time>
      </trkpt>
      <trkpt lat="47.13805" lon="-1.84057">
        <ele>18.4</ele>
        <time>2022-08-19T19:39:59Z</time>
      </trkpt>
      <trkpt lat="47.13808" lon="-1.84071">
        <ele>18.6</ele>
        <time>2022-08-19T19:40:01Z</time>
      </trkpt>
      <trkpt lat="47.13814" lon="-1.84111">
        <ele>18.6</ele>
        <time>2022-08-19T19:40:07Z</time>
      </trkpt>
      <trkpt lat="47.13815" lon="-1.84131">
        <ele>18.8</ele>
        <time>2022-08-19T19:40:10Z</time>
      </trkpt>
      <trkpt lat="47.1382" lon="-1.8414">
        <ele>18.8</ele>
        <time>2022-08-19T19:40:12Z</time>
      </trkpt>
      <trkpt lat="47.13834" lon="-1.84149">
        <ele>18.8</ele>
        <time>2022-08-19T19:40:16Z</time>
      </trkpt>
      <trkpt lat="47.13855" lon="-1.8416">
        <ele>19</ele>
        <time>2022-08-19T19:40:21Z</time>
      </trkpt>
      <trkpt lat="47.13889" lon="-1.84179">
        <ele>19.4</ele>
        <time>2022-08-19T19:40:28Z</time>
      </trkpt>
      <trkpt lat="47.13907" lon="-1.84191">
        <ele>19.4</ele>
        <time>2022-08-19T19:40:32Z</time>
      </trkpt>
      <trkpt lat="47.13917" lon="-1.84197">
        <ele>19.4</ele>
        <time>2022-08-19T19:40:34Z</time>
      </trkpt>
      <trkpt lat="47.13935" lon="-1.84209">
        <ele>19.4</ele>
        <time>2022-08-19T19:40:38Z</time>
      </trkpt>
      <trkpt lat="47.13944" lon="-1.84215">
        <ele>19.4</ele>
        <time>2022-08-19T19:40:40Z</time>
      </trkpt>
      <trkpt lat="47.13958" lon="-1.84224">
        <ele>19.4</ele>
        <time>2022-08-19T19:40:43Z</time>
      </trkpt>
      <trkpt lat="47.13968" lon="-1.84229">
        <ele>19.4</ele>
        <time>2022-08-19T19:40:45Z</time>
      </trkpt>
      <trkpt lat="47.13977" lon="-1.84236">
        <ele>19.4</ele>
        <time>2022-08-19T19:40:47Z</time>
      </trkpt>
      <trkpt lat="47.13992" lon="-1.84245">
        <ele>19.4</ele>
        <time>2022-08-19T19:40:50Z</time>
      </trkpt>
      <trkpt lat="47.14019" lon="-1.8426">
        <ele>19</ele>
        <time>2022-08-19T19:40:55Z</time>
      </trkpt>
      <trkpt lat="47.14061" lon="-1.84289">
        <ele>18.4</ele>
        <time>2022-08-19T19:41:03Z</time>
      </trkpt>
      <trkpt lat="47.14106" lon="-1.84322">
        <ele>18.4</ele>
        <time>2022-08-19T19:41:12Z</time>
      </trkpt>
      <trkpt lat="47.14144" lon="-1.8435">
        <ele>18.4</ele>
        <time>2022-08-19T19:41:20Z</time>
      </trkpt>
      <trkpt lat="47.14153" lon="-1.84357">
        <ele>18.4</ele>
        <time>2022-08-19T19:41:22Z</time>
      </trkpt>
      <trkpt lat="47.14167" lon="-1.84366">
        <ele>18.4</ele>
        <time>2022-08-19T19:41:25Z</time>
      </trkpt>
      <trkpt lat="47.14195" lon="-1.84386">
        <ele>18.6</ele>
        <time>2022-08-19T19:41:31Z</time>
      </trkpt>
      <trkpt lat="47.14235" lon="-1.84411">
        <ele>18.6</ele>
        <time>2022-08-19T19:41:39Z</time>
      </trkpt>
      <trkpt lat="47.14264" lon="-1.84426">
        <ele>18.4</ele>
        <time>2022-08-19T19:41:45Z</time>
      </trkpt>
      <trkpt lat="47.14279" lon="-1.84435">
        <ele>18.4</ele>
        <time>2022-08-19T19:41:48Z</time>
      </trkpt>
      <trkpt lat="47.14289" lon="-1.84438">
        <ele>18.4</ele>
        <time>2022-08-19T19:41:50Z</time>
      </trkpt>
      <trkpt lat="47.14299" lon="-1.8444">
        <ele>18.6</ele>
        <time>2022-08-19T19:41:52Z</time>
      </trkpt>
      <trkpt lat="47.14315" lon="-1.8444">
        <ele>18.6</ele>
        <time>2022-08-19T19:41:55Z</time>
      </trkpt>
      <trkpt lat="47.14321" lon="-1.8444">
        <ele>18.6</ele>
        <time>2022-08-19T19:41:56Z</time>
      </trkpt>
      <trkpt lat="47.14341" lon="-1.84444">
        <ele>18.8</ele>
        <time>2022-08-19T19:42:00Z</time>
      </trkpt>
      <trkpt lat="47.14346" lon="-1.84445">
        <ele>18.8</ele>
        <time>2022-08-19T19:42:01Z</time>
      </trkpt>
      <trkpt lat="47.14356" lon="-1.8445">
        <ele>18.6</ele>
        <time>2022-08-19T19:42:03Z</time>
      </trkpt>
      <trkpt lat="47.14361" lon="-1.84452">
        <ele>18.6</ele>
        <time>2022-08-19T19:42:04Z</time>
      </trkpt>
      <trkpt lat="47.1439" lon="-1.84466">
        <ele>18.6</ele>
        <time>2022-08-19T19:42:10Z</time>
      </trkpt>
      <trkpt lat="47.14428" lon="-1.84488">
        <ele>19</ele>
        <time>2022-08-19T19:42:18Z</time>
      </trkpt>
      <trkpt lat="47.14463" lon="-1.84519">
        <ele>19.4</ele>
        <time>2022-08-19T19:42:26Z</time>
      </trkpt>
      <trkpt lat="47.14486" lon="-1.84534">
        <ele>19.6</ele>
        <time>2022-08-19T19:42:31Z</time>
      </trkpt>
      <trkpt lat="47.14495" lon="-1.84541">
        <ele>19.8</ele>
        <time>2022-08-19T19:42:33Z</time>
      </trkpt>
      <trkpt lat="47.14514" lon="-1.84553">
        <ele>20</ele>
        <time>2022-08-19T19:42:37Z</time>
      </trkpt>
      <trkpt lat="47.14521" lon="-1.84559">
        <ele>20.2</ele>
        <time>2022-08-19T19:42:39Z</time>
      </trkpt>
      <trkpt lat="47.1454" lon="-1.8457">
        <ele>20.4</ele>
        <time>2022-08-19T19:42:43Z</time>
      </trkpt>
      <trkpt lat="47.14559" lon="-1.84582">
        <ele>20.6</ele>
        <time>2022-08-19T19:42:47Z</time>
      </trkpt>
      <trkpt lat="47.14583" lon="-1.84597">
        <ele>20.8</ele>
        <time>2022-08-19T19:42:52Z</time>
      </trkpt>
      <trkpt lat="47.14597" lon="-1.84609">
        <ele>21</ele>
        <time>2022-08-19T19:42:55Z</time>
      </trkpt>
      <trkpt lat="47.14606" lon="-1.84618">
        <ele>21.2</ele>
        <time>2022-08-19T19:42:57Z</time>
      </trkpt>
      <trkpt lat="47.14632" lon="-1.84646">
        <ele>21.2</ele>
        <time>2022-08-19T19:43:03Z</time>
      </trkpt>
      <trkpt lat="47.1466" lon="-1.84669">
        <ele>21.6</ele>
        <time>2022-08-19T19:43:09Z</time>
      </trkpt>
      <trkpt lat="47.14699" lon="-1.84698">
        <ele>22.2</ele>
        <time>2022-08-19T19:43:17Z</time>
      </trkpt>
      <trkpt lat="47.14743" lon="-1.84729">
        <ele>22.8</ele>
        <time>2022-08-19T19:43:26Z</time>
      </trkpt>
      <trkpt lat="47.14776" lon="-1.84753">
        <ele>23.2</ele>
        <time>2022-08-19T19:43:33Z</time>
      </trkpt>
      <trkpt lat="47.14804" lon="-1.84776">
        <ele>23.6</ele>
        <time>2022-08-19T19:43:39Z</time>
      </trkpt>
      <trkpt lat="47.14818" lon="-1.84788">
        <ele>23.8</ele>
        <time>2022-08-19T19:43:42Z</time>
      </trkpt>
      <trkpt lat="47.14823" lon="-1.84792">
        <ele>23.8</ele>
        <time>2022-08-19T19:43:43Z</time>
      </trkpt>
      <trkpt lat="47.14852" lon="-1.84816">
        <ele>24</ele>
        <time>2022-08-19T19:43:49Z</time>
      </trkpt>
      <trkpt lat="47.14893" lon="-1.84849">
        <ele>24.2</ele>
        <time>2022-08-19T19:43:57Z</time>
      </trkpt>
      <trkpt lat="47.14926" lon="-1.84875">
        <ele>24.4</ele>
        <time>2022-08-19T19:44:04Z</time>
      </trkpt>
      <trkpt lat="47.1495" lon="-1.84896">
        <ele>24.6</ele>
        <time>2022-08-19T19:44:10Z</time>
      </trkpt>
      <trkpt lat="47.14954" lon="-1.84901">
        <ele>24.6</ele>
        <time>2022-08-19T19:44:11Z</time>
      </trkpt>
      <trkpt lat="47.14956" lon="-1.84908">
        <ele>24.6</ele>
        <time>2022-08-19T19:44:12Z</time>
      </trkpt>
      <trkpt lat="47.14956" lon="-1.84923">
        <ele>24.8</ele>
        <time>2022-08-19T19:44:14Z</time>
      </trkpt>
      <trkpt lat="47.14949" lon="-1.84952">
        <ele>24.8</ele>
        <time>2022-08-19T19:44:18Z</time>
      </trkpt>
      <trkpt lat="47.14949" lon="-1.84959">
        <ele>25</ele>
        <time>2022-08-19T19:44:19Z</time>
      </trkpt>
      <trkpt lat="47.14951" lon="-1.84966">
        <ele>25</ele>
        <time>2022-08-19T19:44:20Z</time>
      </trkpt>
      <trkpt lat="47.14956" lon="-1.84975">
        <ele>25</ele>
        <time>2022-08-19T19:44:22Z</time>
      </trkpt>
      <trkpt lat="47.14966" lon="-1.84982">
        <ele>25.2</ele>
        <time>2022-08-19T19:44:26Z</time>
      </trkpt>
      <trkpt lat="47.14968" lon="-1.84983">
        <ele>25.4</ele>
        <time>2022-08-19T19:44:28Z</time>
      </trkpt>
      <trkpt lat="47.14969" lon="-1.84986">
        <ele>27.6</ele>
        <time>2022-08-19T19:45:47Z</time>
      </trkpt>
      <trkpt lat="47.1497" lon="-1.84993">
        <ele>27.8</ele>
        <time>2022-08-19T19:45:49Z</time>
      </trkpt>
      <trkpt lat="47.14968" lon="-1.85001">
        <ele>27.8</ele>
        <time>2022-08-19T19:45:51Z</time>
      </trkpt>
      <trkpt lat="47.14961" lon="-1.85017">
        <ele>28</ele>
        <time>2022-08-19T19:45:55Z</time>
      </trkpt>
      <trkpt lat="47.14959" lon="-1.85024">
        <ele>28</ele>
        <time>2022-08-19T19:45:56Z</time>
      </trkpt>
      <trkpt lat="47.14949" lon="-1.85048">
        <ele>28.2</ele>
        <time>2022-08-19T19:45:59Z</time>
      </trkpt>
      <trkpt lat="47.14922" lon="-1.85115">
        <ele>28.2</ele>
        <time>2022-08-19T19:46:07Z</time>
      </trkpt>
      <trkpt lat="47.149" lon="-1.85173">
        <ele>28.2</ele>
        <time>2022-08-19T19:46:14Z</time>
      </trkpt>
      <trkpt lat="47.14873" lon="-1.8524">
        <ele>28.2</ele>
        <time>2022-08-19T19:46:22Z</time>
      </trkpt>
      <trkpt lat="47.14845" lon="-1.85309">
        <ele>28</ele>
        <time>2022-08-19T19:46:30Z</time>
      </trkpt>
      <trkpt lat="47.14838" lon="-1.85327">
        <ele>28</ele>
        <time>2022-08-19T19:46:32Z</time>
      </trkpt>
      <trkpt lat="47.14811" lon="-1.85398">
        <ele>27.6</ele>
        <time>2022-08-19T19:46:40Z</time>
      </trkpt>
      <trkpt lat="47.14788" lon="-1.85466">
        <ele>27.6</ele>
        <time>2022-08-19T19:46:48Z</time>
      </trkpt>
      <trkpt lat="47.14764" lon="-1.85539">
        <ele>27.4</ele>
        <time>2022-08-19T19:46:57Z</time>
      </trkpt>
      <trkpt lat="47.14742" lon="-1.85612">
        <ele>27.4</ele>
        <time>2022-08-19T19:47:06Z</time>
      </trkpt>
      <trkpt lat="47.14718" lon="-1.85685">
        <ele>27.4</ele>
        <time>2022-08-19T19:47:15Z</time>
      </trkpt>
      <trkpt lat="47.14696" lon="-1.85752">
        <ele>27.4</ele>
        <time>2022-08-19T19:47:23Z</time>
      </trkpt>
      <trkpt lat="47.14679" lon="-1.85811">
        <ele>27.2</ele>
        <time>2022-08-19T19:47:30Z</time>
      </trkpt>
      <trkpt lat="47.14659" lon="-1.85879">
        <ele>27.2</ele>
        <time>2022-08-19T19:47:38Z</time>
      </trkpt>
      <trkpt lat="47.14638" lon="-1.85957">
        <ele>27.2</ele>
        <time>2022-08-19T19:47:47Z</time>
      </trkpt>
      <trkpt lat="47.14624" lon="-1.86015">
        <ele>27.4</ele>
        <time>2022-08-19T19:47:54Z</time>
      </trkpt>
      <trkpt lat="47.14605" lon="-1.86091">
        <ele>27.4</ele>
        <time>2022-08-19T19:48:03Z</time>
      </trkpt>
      <trkpt lat="47.14594" lon="-1.86142">
        <ele>27.6</ele>
        <time>2022-08-19T19:48:09Z</time>
      </trkpt>
      <trkpt lat="47.1458" lon="-1.86204">
        <ele>27.6</ele>
        <time>2022-08-19T19:48:16Z</time>
      </trkpt>
      <trkpt lat="47.14563" lon="-1.86273">
        <ele>27.6</ele>
        <time>2022-08-19T19:48:24Z</time>
      </trkpt>
      <trkpt lat="47.14552" lon="-1.86321">
        <ele>27.8</ele>
        <time>2022-08-19T19:48:30Z</time>
      </trkpt>
      <trkpt lat="47.14551" lon="-1.86327">
        <ele>27.6</ele>
        <time>2022-08-19T19:48:31Z</time>
      </trkpt>
      <trkpt lat="47.14546" lon="-1.86345">
        <ele>27.4</ele>
        <time>2022-08-19T19:48:35Z</time>
      </trkpt>
      <trkpt lat="47.1454" lon="-1.86359">
        <ele>27.2</ele>
        <time>2022-08-19T19:48:41Z</time>
      </trkpt>
      <trkpt lat="47.1453" lon="-1.86375">
        <ele>27</ele>
        <time>2022-08-19T19:48:46Z</time>
      </trkpt>
      <trkpt lat="47.14513" lon="-1.86403">
        <ele>26.6</ele>
        <time>2022-08-19T19:48:52Z</time>
      </trkpt>
      <trkpt lat="47.14488" lon="-1.86436">
        <ele>26.4</ele>
        <time>2022-08-19T19:48:58Z</time>
      </trkpt>
      <trkpt lat="47.14453" lon="-1.86468">
        <ele>26</ele>
        <time>2022-08-19T19:49:05Z</time>
      </trkpt>
      <trkpt lat="47.14411" lon="-1.865">
        <ele>25.4</ele>
        <time>2022-08-19T19:49:13Z</time>
      </trkpt>
      <trkpt lat="47.14372" lon="-1.86528">
        <ele>24.8</ele>
        <time>2022-08-19T19:49:20Z</time>
      </trkpt>
      <trkpt lat="47.14339" lon="-1.86551">
        <ele>24.4</ele>
        <time>2022-08-19T19:49:26Z</time>
      </trkpt>
      <trkpt lat="47.143" lon="-1.86579">
        <ele>24</ele>
        <time>2022-08-19T19:49:33Z</time>
      </trkpt>
      <trkpt lat="47.14289" lon="-1.86588">
        <ele>23.8</ele>
        <time>2022-08-19T19:49:35Z</time>
      </trkpt>
      <trkpt lat="47.14244" lon="-1.86619">
        <ele>23.2</ele>
        <time>2022-08-19T19:49:43Z</time>
      </trkpt>
      <trkpt lat="47.14198" lon="-1.86652">
        <ele>23</ele>
        <time>2022-08-19T19:49:51Z</time>
      </trkpt>
      <trkpt lat="47.14164" lon="-1.86677">
        <ele>22.6</ele>
        <time>2022-08-19T19:49:57Z</time>
      </trkpt>
      <trkpt lat="47.14153" lon="-1.86685">
        <ele>22.6</ele>
        <time>2022-08-19T19:49:59Z</time>
      </trkpt>
      <trkpt lat="47.14148" lon="-1.86689">
        <ele>22.4</ele>
        <time>2022-08-19T19:50:00Z</time>
      </trkpt>
      <trkpt lat="47.14136" lon="-1.86697">
        <ele>22.4</ele>
        <time>2022-08-19T19:50:02Z</time>
      </trkpt>
      <trkpt lat="47.14131" lon="-1.86701">
        <ele>22.4</ele>
        <time>2022-08-19T19:50:03Z</time>
      </trkpt>
      <trkpt lat="47.14119" lon="-1.8671">
        <ele>22.2</ele>
        <time>2022-08-19T19:50:05Z</time>
      </trkpt>
      <trkpt lat="47.14102" lon="-1.86722">
        <ele>22.2</ele>
        <time>2022-08-19T19:50:08Z</time>
      </trkpt>
      <trkpt lat="47.14074" lon="-1.86746">
        <ele>22.2</ele>
        <time>2022-08-19T19:50:13Z</time>
      </trkpt>
      <trkpt lat="47.1403" lon="-1.86792">
        <ele>22.2</ele>
        <time>2022-08-19T19:50:21Z</time>
      </trkpt>
      <trkpt lat="47.13994" lon="-1.86838">
        <ele>22</ele>
        <time>2022-08-19T19:50:28Z</time>
      </trkpt>
      <trkpt lat="47.13973" lon="-1.86872">
        <ele>22</ele>
        <time>2022-08-19T19:50:33Z</time>
      </trkpt>
      <trkpt lat="47.13936" lon="-1.86937">
        <ele>21.8</ele>
        <time>2022-08-19T19:50:42Z</time>
      </trkpt>
      <trkpt lat="47.13923" lon="-1.86959">
        <ele>21.6</ele>
        <time>2022-08-19T19:50:45Z</time>
      </trkpt>
      <trkpt lat="47.13893" lon="-1.87011">
        <ele>21.2</ele>
        <time>2022-08-19T19:50:52Z</time>
      </trkpt>
      <trkpt lat="47.13881" lon="-1.87033">
        <ele>21</ele>
        <time>2022-08-19T19:50:55Z</time>
      </trkpt>
      <trkpt lat="47.13868" lon="-1.87055">
        <ele>20.8</ele>
        <time>2022-08-19T19:50:58Z</time>
      </trkpt>
      <trkpt lat="47.13833" lon="-1.87114">
        <ele>20.4</ele>
        <time>2022-08-19T19:51:06Z</time>
      </trkpt>
      <trkpt lat="47.138" lon="-1.87174">
        <ele>19.8</ele>
        <time>2022-08-19T19:51:14Z</time>
      </trkpt>
      <trkpt lat="47.13765" lon="-1.87233">
        <ele>19.4</ele>
        <time>2022-08-19T19:51:22Z</time>
      </trkpt>
      <trkpt lat="47.13732" lon="-1.8729">
        <ele>18.8</ele>
        <time>2022-08-19T19:51:30Z</time>
      </trkpt>
      <trkpt lat="47.13693" lon="-1.87358">
        <ele>18.4</ele>
        <time>2022-08-19T19:51:39Z</time>
      </trkpt>
      <trkpt lat="47.13663" lon="-1.8741">
        <ele>18</ele>
        <time>2022-08-19T19:51:46Z</time>
      </trkpt>
      <trkpt lat="47.13629" lon="-1.87467">
        <ele>17.8</ele>
        <time>2022-08-19T19:51:54Z</time>
      </trkpt>
      <trkpt lat="47.13591" lon="-1.87516">
        <ele>17.6</ele>
        <time>2022-08-19T19:52:02Z</time>
      </trkpt>
      <trkpt lat="47.13559" lon="-1.87544">
        <ele>17.4</ele>
        <time>2022-08-19T19:52:08Z</time>
      </trkpt>
      <trkpt lat="47.13521" lon="-1.87571">
        <ele>17.4</ele>
        <time>2022-08-19T19:52:14Z</time>
      </trkpt>
      <trkpt lat="47.13514" lon="-1.87574">
        <ele>17.4</ele>
        <time>2022-08-19T19:52:15Z</time>
      </trkpt>
      <trkpt lat="47.13468" lon="-1.8759">
        <ele>17.4</ele>
        <time>2022-08-19T19:52:22Z</time>
      </trkpt>
      <trkpt lat="47.13415" lon="-1.87596">
        <ele>17.6</ele>
        <time>2022-08-19T19:52:30Z</time>
      </trkpt>
      <trkpt lat="47.13359" lon="-1.876">
        <ele>17.6</ele>
        <time>2022-08-19T19:52:39Z</time>
      </trkpt>
      <trkpt lat="47.13301" lon="-1.87603">
        <ele>17.8</ele>
        <time>2022-08-19T19:52:49Z</time>
      </trkpt>
      <trkpt lat="47.13292" lon="-1.87603">
        <ele>17.8</ele>
        <time>2022-08-19T19:52:51Z</time>
      </trkpt>
      <trkpt lat="47.13282" lon="-1.87607">
        <ele>17.8</ele>
        <time>2022-08-19T19:52:53Z</time>
      </trkpt>
      <trkpt lat="47.13278" lon="-1.87609">
        <ele>17.8</ele>
        <time>2022-08-19T19:52:54Z</time>
      </trkpt>
      <trkpt lat="47.13274" lon="-1.87611">
        <ele>17.8</ele>
        <time>2022-08-19T19:52:55Z</time>
      </trkpt>
      <trkpt lat="47.13264" lon="-1.8761">
        <ele>18</ele>
        <time>2022-08-19T19:52:57Z</time>
      </trkpt>
      <trkpt lat="47.13259" lon="-1.87607">
        <ele>18</ele>
        <time>2022-08-19T19:52:58Z</time>
      </trkpt>
      <trkpt lat="47.13248" lon="-1.87601">
        <ele>18</ele>
        <time>2022-08-19T19:53:00Z</time>
      </trkpt>
      <trkpt lat="47.1323" lon="-1.87596">
        <ele>18</ele>
        <time>2022-08-19T19:53:03Z</time>
      </trkpt>
      <trkpt lat="47.13175" lon="-1.87582">
        <ele>18.2</ele>
        <time>2022-08-19T19:53:12Z</time>
      </trkpt>
      <trkpt lat="47.13118" lon="-1.87566">
        <ele>18.2</ele>
        <time>2022-08-19T19:53:21Z</time>
      </trkpt>
      <trkpt lat="47.13073" lon="-1.87553">
        <ele>18.4</ele>
        <time>2022-08-19T19:53:28Z</time>
      </trkpt>
      <trkpt lat="47.13014" lon="-1.87537">
        <ele>18.6</ele>
        <time>2022-08-19T19:53:37Z</time>
      </trkpt>
      <trkpt lat="47.1296" lon="-1.87522">
        <ele>18.8</ele>
        <time>2022-08-19T19:53:45Z</time>
      </trkpt>
      <trkpt lat="47.12947" lon="-1.87518">
        <ele>18.8</ele>
        <time>2022-08-19T19:53:47Z</time>
      </trkpt>
      <trkpt lat="47.129" lon="-1.87505">
        <ele>19</ele>
        <time>2022-08-19T19:53:54Z</time>
      </trkpt>
      <trkpt lat="47.12845" lon="-1.8749">
        <ele>19</ele>
        <time>2022-08-19T19:54:02Z</time>
      </trkpt>
      <trkpt lat="47.12787" lon="-1.87474">
        <ele>19</ele>
        <time>2022-08-19T19:54:10Z</time>
      </trkpt>
      <trkpt lat="47.1278" lon="-1.87472">
        <ele>18.8</ele>
        <time>2022-08-19T19:54:11Z</time>
      </trkpt>
      <trkpt lat="47.12726" lon="-1.87462">
        <ele>18.6</ele>
        <time>2022-08-19T19:54:18Z</time>
      </trkpt>
      <trkpt lat="47.12718" lon="-1.87462">
        <ele>18.6</ele>
        <time>2022-08-19T19:54:19Z</time>
      </trkpt>
      <trkpt lat="47.12663" lon="-1.87466">
        <ele>18.4</ele>
        <time>2022-08-19T19:54:26Z</time>
      </trkpt>
      <trkpt lat="47.12604" lon="-1.87484">
        <ele>18.2</ele>
        <time>2022-08-19T19:54:34Z</time>
      </trkpt>
      <trkpt lat="47.12597" lon="-1.87486">
        <ele>18.2</ele>
        <time>2022-08-19T19:54:35Z</time>
      </trkpt>
      <trkpt lat="47.1254" lon="-1.87504">
        <ele>18</ele>
        <time>2022-08-19T19:54:43Z</time>
      </trkpt>
      <trkpt lat="47.12499" lon="-1.87519">
        <ele>17.8</ele>
        <time>2022-08-19T19:54:49Z</time>
      </trkpt>
      <trkpt lat="47.12454" lon="-1.87532">
        <ele>17.8</ele>
        <time>2022-08-19T19:54:55Z</time>
      </trkpt>
      <trkpt lat="47.12403" lon="-1.87549">
        <ele>17.2</ele>
        <time>2022-08-19T19:55:02Z</time>
      </trkpt>
      <trkpt lat="47.12358" lon="-1.87564">
        <ele>16.8</ele>
        <time>2022-08-19T19:55:08Z</time>
      </trkpt>
      <trkpt lat="47.12305" lon="-1.87581">
        <ele>16.6</ele>
        <time>2022-08-19T19:55:15Z</time>
      </trkpt>
      <trkpt lat="47.12253" lon="-1.87599">
        <ele>16.4</ele>
        <time>2022-08-19T19:55:22Z</time>
      </trkpt>
      <trkpt lat="47.12201" lon="-1.87616">
        <ele>16</ele>
        <time>2022-08-19T19:55:29Z</time>
      </trkpt>
      <trkpt lat="47.12147" lon="-1.87633">
        <ele>15.6</ele>
        <time>2022-08-19T19:55:36Z</time>
      </trkpt>
      <trkpt lat="47.12133" lon="-1.87638">
        <ele>15.6</ele>
        <time>2022-08-19T19:55:38Z</time>
      </trkpt>
      <trkpt lat="47.12087" lon="-1.87648">
        <ele>15.4</ele>
        <time>2022-08-19T19:55:44Z</time>
      </trkpt>
      <trkpt lat="47.12032" lon="-1.87653">
        <ele>15.4</ele>
        <time>2022-08-19T19:55:51Z</time>
      </trkpt>
      <trkpt lat="47.11987" lon="-1.87659">
        <ele>15</ele>
        <time>2022-08-19T19:55:57Z</time>
      </trkpt>
      <trkpt lat="47.11935" lon="-1.87663">
        <ele>14.8</ele>
        <time>2022-08-19T19:56:04Z</time>
      </trkpt>
      <trkpt lat="47.11881" lon="-1.87668">
        <ele>14.6</ele>
        <time>2022-08-19T19:56:11Z</time>
      </trkpt>
      <trkpt lat="47.11866" lon="-1.8767">
        <ele>14.6</ele>
        <time>2022-08-19T19:56:13Z</time>
      </trkpt>
      <trkpt lat="47.11831" lon="-1.87677">
        <ele>14.2</ele>
        <time>2022-08-19T19:56:18Z</time>
      </trkpt>
      <trkpt lat="47.11793" lon="-1.87689">
        <ele>13.8</ele>
        <time>2022-08-19T19:56:24Z</time>
      </trkpt>
      <trkpt lat="47.11783" lon="-1.8768">
        <ele>13.6</ele>
        <time>2022-08-19T19:56:26Z</time>
      </trkpt>
      <trkpt lat="47.11777" lon="-1.87651">
        <ele>13.4</ele>
        <time>2022-08-19T19:56:29Z</time>
      </trkpt>
      <trkpt lat="47.11766" lon="-1.87586">
        <ele>13</ele>
        <time>2022-08-19T19:56:35Z</time>
      </trkpt>
      <trkpt lat="47.11752" lon="-1.87511">
        <ele>12.6</ele>
        <time>2022-08-19T19:56:42Z</time>
      </trkpt>
      <trkpt lat="47.11736" lon="-1.87447">
        <ele>12</ele>
        <time>2022-08-19T19:56:48Z</time>
      </trkpt>
      <trkpt lat="47.11731" lon="-1.87438">
        <ele>11.8</ele>
        <time>2022-08-19T19:56:49Z</time>
      </trkpt>
      <trkpt lat="47.11722" lon="-1.87424">
        <ele>11.6</ele>
        <time>2022-08-19T19:56:51Z</time>
      </trkpt>
      <trkpt lat="47.11682" lon="-1.87368">
        <ele>11.2</ele>
        <time>2022-08-19T19:56:59Z</time>
      </trkpt>
      <trkpt lat="47.11664" lon="-1.87338">
        <ele>10.8</ele>
        <time>2022-08-19T19:57:03Z</time>
      </trkpt>
      <trkpt lat="47.11657" lon="-1.8732">
        <ele>10.8</ele>
        <time>2022-08-19T19:57:05Z</time>
      </trkpt>
      <trkpt lat="47.11641" lon="-1.87254">
        <ele>10.4</ele>
        <time>2022-08-19T19:57:12Z</time>
      </trkpt>
      <trkpt lat="47.11626" lon="-1.87189">
        <ele>10.2</ele>
        <time>2022-08-19T19:57:19Z</time>
      </trkpt>
      <trkpt lat="47.11621" lon="-1.87151">
        <ele>9.8</ele>
        <time>2022-08-19T19:57:23Z</time>
      </trkpt>
      <trkpt lat="47.11624" lon="-1.87111">
        <ele>9.6</ele>
        <time>2022-08-19T19:57:27Z</time>
      </trkpt>
      <trkpt lat="47.1164" lon="-1.87055">
        <ele>9.4</ele>
        <time>2022-08-19T19:57:33Z</time>
      </trkpt>
      <trkpt lat="47.11658" lon="-1.86992">
        <ele>9.4</ele>
        <time>2022-08-19T19:57:40Z</time>
      </trkpt>
      <trkpt lat="47.11665" lon="-1.8694">
        <ele>9.2</ele>
        <time>2022-08-19T19:57:45Z</time>
      </trkpt>
      <trkpt lat="47.11667" lon="-1.86864">
        <ele>9</ele>
        <time>2022-08-19T19:57:52Z</time>
      </trkpt>
      <trkpt lat="47.11668" lon="-1.86781">
        <ele>9</ele>
        <time>2022-08-19T19:58:00Z</time>
      </trkpt>
      <trkpt lat="47.1167" lon="-1.86711">
        <ele>9</ele>
        <time>2022-08-19T19:58:08Z</time>
      </trkpt>
      <trkpt lat="47.11671" lon="-1.86636">
        <ele>9.2</ele>
        <time>2022-08-19T19:58:17Z</time>
      </trkpt>
      <trkpt lat="47.11666" lon="-1.86584">
        <ele>9.2</ele>
        <time>2022-08-19T19:58:23Z</time>
      </trkpt>
      <trkpt lat="47.11663" lon="-1.86559">
        <ele>9.2</ele>
        <time>2022-08-19T19:58:26Z</time>
      </trkpt>
      <trkpt lat="47.11663" lon="-1.86543">
        <ele>9</ele>
        <time>2022-08-19T19:58:28Z</time>
      </trkpt>
      <trkpt lat="47.11666" lon="-1.86521">
        <ele>8.8</ele>
        <time>2022-08-19T19:58:31Z</time>
      </trkpt>
      <trkpt lat="47.11664" lon="-1.86515">
        <ele>8.8</ele>
        <time>2022-08-19T19:58:32Z</time>
      </trkpt>
      <trkpt lat="47.11662" lon="-1.86512">
        <ele>8.6</ele>
        <time>2022-08-19T19:58:33Z</time>
      </trkpt>
      <trkpt lat="47.11653" lon="-1.86511">
        <ele>8.6</ele>
        <time>2022-08-19T19:58:35Z</time>
      </trkpt>
      <trkpt lat="47.11622" lon="-1.86518">
        <ele>8.2</ele>
        <time>2022-08-19T19:58:41Z</time>
      </trkpt>
      <trkpt lat="47.11616" lon="-1.86519">
        <ele>8</ele>
        <time>2022-08-19T19:58:42Z</time>
      </trkpt>
      <trkpt lat="47.11596" lon="-1.86523">
        <ele>7.8</ele>
        <time>2022-08-19T19:58:46Z</time>
      </trkpt>
      <trkpt lat="47.11571" lon="-1.86528">
        <ele>7.4</ele>
        <time>2022-08-19T19:58:51Z</time>
      </trkpt>
      <trkpt lat="47.1155" lon="-1.86533">
        <ele>7</ele>
        <time>2022-08-19T19:58:55Z</time>
      </trkpt>
      <trkpt lat="47.11541" lon="-1.86536">
        <ele>6.6</ele>
        <time>2022-08-19T19:58:57Z</time>
      </trkpt>
      <trkpt lat="47.11523" lon="-1.86541">
        <ele>6</ele>
        <time>2022-08-19T19:59:01Z</time>
      </trkpt>
      <trkpt lat="47.11499" lon="-1.86546">
        <ele>5.2</ele>
        <time>2022-08-19T19:59:06Z</time>
      </trkpt>
      <trkpt lat="47.11476" lon="-1.86545">
        <ele>4.4</ele>
        <time>2022-08-19T19:59:11Z</time>
      </trkpt>
      <trkpt lat="47.11471" lon="-1.86544">
        <ele>4.2</ele>
        <time>2022-08-19T19:59:12Z</time>
      </trkpt>
      <trkpt lat="47.11455" lon="-1.86537">
        <ele>3.8</ele>
        <time>2022-08-19T19:59:16Z</time>
      </trkpt>
      <trkpt lat="47.11435" lon="-1.86524">
        <ele>3.4</ele>
        <time>2022-08-19T19:59:21Z</time>
      </trkpt>
      <trkpt lat="47.11431" lon="-1.8652">
        <ele>3.2</ele>
        <time>2022-08-19T19:59:22Z</time>
      </trkpt>
      <trkpt lat="47.11418" lon="-1.86506">
        <ele>2.6</ele>
        <time>2022-08-19T19:59:26Z</time>
      </trkpt>
      <trkpt lat="47.11405" lon="-1.8649">
        <ele>2</ele>
        <time>2022-08-19T19:59:30Z</time>
      </trkpt>
      <trkpt lat="47.11401" lon="-1.86485">
        <ele>2</ele>
        <time>2022-08-19T19:59:31Z</time>
      </trkpt>
      <trkpt lat="47.11391" lon="-1.86473">
        <ele>1.6</ele>
        <time>2022-08-19T19:59:34Z</time>
      </trkpt>
      <trkpt lat="47.11378" lon="-1.86455">
        <ele>1.2</ele>
        <time>2022-08-19T19:59:38Z</time>
      </trkpt>
      <trkpt lat="47.1136" lon="-1.86427">
        <ele>1</ele>
        <time>2022-08-19T19:59:43Z</time>
      </trkpt>
      <trkpt lat="47.11343" lon="-1.86401">
        <ele>0.80000000000001</ele>
        <time>2022-08-19T19:59:48Z</time>
      </trkpt>
      <trkpt lat="47.11327" lon="-1.86375">
        <ele>0.80000000000001</ele>
        <time>2022-08-19T19:59:53Z</time>
      </trkpt>
      <trkpt lat="47.11325" lon="-1.86369">
        <ele>0.60000000000002</ele>
        <time>2022-08-19T19:59:56Z</time>
      </trkpt>
      <trkpt lat="47.11319" lon="-1.86354">
        <ele>-0.19999999999999</ele>
        <time>2022-08-19T20:00:23Z</time>
      </trkpt>
      <trkpt lat="47.11317" lon="-1.8635">
        <ele>-0.39999999999998</ele>
        <time>2022-08-19T20:00:25Z</time>
      </trkpt>
      <trkpt lat="47.11315" lon="-1.86348">
        <ele>-0.39999999999998</ele>
        <time>2022-08-19T20:00:26Z</time>
      </trkpt>
      <trkpt lat="47.11308" lon="-1.86337">
        <ele>-1.2</ele>
        <time>2022-08-19T20:00:31Z</time>
      </trkpt>
      <trkpt lat="47.11304" lon="-1.86329">
        <ele>-1.8</ele>
        <time>2022-08-19T20:00:34Z</time>
      </trkpt>
      <trkpt lat="47.11293" lon="-1.86305">
        <ele>-3.8</ele>
        <time>2022-08-19T20:00:39Z</time>
      </trkpt>
      <trkpt lat="47.11286" lon="-1.86288">
        <ele>-5.4</ele>
        <time>2022-08-19T20:00:43Z</time>
      </trkpt>
      <trkpt lat="47.11279" lon="-1.86268">
        <ele>-7.2</ele>
        <time>2022-08-19T20:00:48Z</time>
      </trkpt>
      <trkpt lat="47.11272" lon="-1.86249">
        <ele>-8.6</ele>
        <time>2022-08-19T20:00:53Z</time>
      </trkpt>
      <trkpt lat="47.1126" lon="-1.86216">
        <ele>-10.2</ele>
        <time>2022-08-19T20:00:59Z</time>
      </trkpt>
      <trkpt lat="47.11246" lon="-1.86174">
        <ele>-12.4</ele>
        <time>2022-08-19T20:01:06Z</time>
      </trkpt>
      <trkpt lat="47.11238" lon="-1.86143">
        <ele>-13.8</ele>
        <time>2022-08-19T20:01:11Z</time>
      </trkpt>
      <trkpt lat="47.11235" lon="-1.86135">
        <ele>-13.8</ele>
        <time>2022-08-19T20:01:12Z</time>
      </trkpt>
      <trkpt lat="47.11228" lon="-1.86112">
        <ele>-14</ele>
        <time>2022-08-19T20:01:15Z</time>
      </trkpt>
      <trkpt lat="47.11222" lon="-1.86087">
        <ele>-14.8</ele>
        <time>2022-08-19T20:01:19Z</time>
      </trkpt>
      <trkpt lat="47.11214" lon="-1.86049">
        <ele>-16</ele>
        <time>2022-08-19T20:01:25Z</time>
      </trkpt>
      <trkpt lat="47.1121" lon="-1.8603">
        <ele>-16.4</ele>
        <time>2022-08-19T20:01:28Z</time>
      </trkpt>
      <trkpt lat="47.11205" lon="-1.86017">
        <ele>-16.6</ele>
        <time>2022-08-19T20:01:30Z</time>
      </trkpt>
      <trkpt lat="47.11194" lon="-1.85985">
        <ele>-17.2</ele>
        <time>2022-08-19T20:01:35Z</time>
      </trkpt>
      <trkpt lat="47.1119" lon="-1.85966">
        <ele>-17.4</ele>
        <time>2022-08-19T20:01:38Z</time>
      </trkpt>
      <trkpt lat="47.11189" lon="-1.85959">
        <ele>-17.4</ele>
        <time>2022-08-19T20:01:39Z</time>
      </trkpt>
      <trkpt lat="47.11182" lon="-1.85925">
        <ele>-17</ele>
        <time>2022-08-19T20:01:45Z</time>
      </trkpt>
      <trkpt lat="47.11174" lon="-1.85896">
        <ele>-15.8</ele>
        <time>2022-08-19T20:01:50Z</time>
      </trkpt>
      <trkpt lat="47.11166" lon="-1.85875">
        <ele>-15.2</ele>
        <time>2022-08-19T20:01:55Z</time>
      </trkpt>
      <trkpt lat="47.11161" lon="-1.85855">
        <ele>-15.2</ele>
        <time>2022-08-19T20:01:59Z</time>
      </trkpt>
      <trkpt lat="47.11152" lon="-1.8582">
        <ele>-14.8</ele>
        <time>2022-08-19T20:02:05Z</time>
      </trkpt>
      <trkpt lat="47.11145" lon="-1.85796">
        <ele>-14.4</ele>
        <time>2022-08-19T20:02:09Z</time>
      </trkpt>
      <trkpt lat="47.1114" lon="-1.85773">
        <ele>-13.6</ele>
        <time>2022-08-19T20:02:12Z</time>
      </trkpt>
      <trkpt lat="47.11135" lon="-1.85756">
        <ele>-13.2</ele>
        <time>2022-08-19T20:02:14Z</time>
      </trkpt>
      <trkpt lat="47.11126" lon="-1.8572">
        <ele>-12.2</ele>
        <time>2022-08-19T20:02:19Z</time>
      </trkpt>
      <trkpt lat="47.11124" lon="-1.85713">
        <ele>-12</ele>
        <time>2022-08-19T20:02:20Z</time>
      </trkpt>
      <trkpt lat="47.11113" lon="-1.85673">
        <ele>-11.4</ele>
        <time>2022-08-19T20:02:26Z</time>
      </trkpt>
      <trkpt lat="47.11109" lon="-1.85661">
        <ele>-11.2</ele>
        <time>2022-08-19T20:02:28Z</time>
      </trkpt>
      <trkpt lat="47.11104" lon="-1.85647">
        <ele>-10.8</ele>
        <time>2022-08-19T20:02:30Z</time>
      </trkpt>
      <trkpt lat="47.11088" lon="-1.85614">
        <ele>-10.2</ele>
        <time>2022-08-19T20:02:35Z</time>
      </trkpt>
      <trkpt lat="47.11079" lon="-1.85596">
        <ele>-10</ele>
        <time>2022-08-19T20:02:38Z</time>
      </trkpt>
      <trkpt lat="47.11075" lon="-1.85589">
        <ele>-9.8</ele>
        <time>2022-08-19T20:02:39Z</time>
      </trkpt>
      <trkpt lat="47.11062" lon="-1.85566">
        <ele>-9.4</ele>
        <time>2022-08-19T20:02:43Z</time>
      </trkpt>
      <trkpt lat="47.11059" lon="-1.8556">
        <ele>-9.4</ele>
        <time>2022-08-19T20:02:44Z</time>
      </trkpt>
      <trkpt lat="47.1104" lon="-1.85529">
        <ele>-8.6</ele>
        <time>2022-08-19T20:02:50Z</time>
      </trkpt>
      <trkpt lat="47.11016" lon="-1.85495">
        <ele>-7.8</ele>
        <time>2022-08-19T20:02:57Z</time>
      </trkpt>
      <trkpt lat="47.10999" lon="-1.85473">
        <ele>-7.2</ele>
        <time>2022-08-19T20:03:02Z</time>
      </trkpt>
      <trkpt lat="47.10976" lon="-1.85446">
        <ele>-6.6</ele>
        <time>2022-08-19T20:03:08Z</time>
      </trkpt>
      <trkpt lat="47.10953" lon="-1.85422">
        <ele>-6</ele>
        <time>2022-08-19T20:03:14Z</time>
      </trkpt>
      <trkpt lat="47.10935" lon="-1.85404">
        <ele>-5.8</ele>
        <time>2022-08-19T20:03:19Z</time>
      </trkpt>
      <trkpt lat="47.10917" lon="-1.8539">
        <ele>-5.6</ele>
        <time>2022-08-19T20:03:24Z</time>
      </trkpt>
      <trkpt lat="47.10914" lon="-1.8539">
        <ele>-5.4</ele>
        <time>2022-08-19T20:03:25Z</time>
      </trkpt>
      <trkpt lat="47.10908" lon="-1.85396">
        <ele>-5.2</ele>
        <time>2022-08-19T20:03:27Z</time>
      </trkpt>
      <trkpt lat="47.10897" lon="-1.85433">
        <ele>-4.6</ele>
        <time>2022-08-19T20:03:33Z</time>
      </trkpt>
      <trkpt lat="47.10882" lon="-1.85485">
        <ele>-4</ele>
        <time>2022-08-19T20:03:40Z</time>
      </trkpt>
      <trkpt lat="47.10873" lon="-1.85517">
        <ele>-3.6</ele>
        <time>2022-08-19T20:03:44Z</time>
      </trkpt>
      <trkpt lat="47.10871" lon="-1.85525">
        <ele>-3.6</ele>
        <time>2022-08-19T20:03:45Z</time>
      </trkpt>
      <trkpt lat="47.10861" lon="-1.85566">
        <ele>-3.2</ele>
        <time>2022-08-19T20:03:50Z</time>
      </trkpt>
      <trkpt lat="47.10857" lon="-1.85583">
        <ele>-3.2</ele>
        <time>2022-08-19T20:03:52Z</time>
      </trkpt>
      <trkpt lat="47.10851" lon="-1.85609">
        <ele>-3</ele>
        <time>2022-08-19T20:03:55Z</time>
      </trkpt>
      <trkpt lat="47.10837" lon="-1.85675">
        <ele>-2.4</ele>
        <time>2022-08-19T20:04:02Z</time>
      </trkpt>
      <trkpt lat="47.10822" lon="-1.85754">
        <ele>-1.6</ele>
        <time>2022-08-19T20:04:10Z</time>
      </trkpt>
      <trkpt lat="47.10811" lon="-1.85811">
        <ele>-1</ele>
        <time>2022-08-19T20:04:16Z</time>
      </trkpt>
      <trkpt lat="47.10799" lon="-1.85857">
        <ele>-0.39999999999998</ele>
        <time>2022-08-19T20:04:21Z</time>
      </trkpt>
      <trkpt lat="47.1078" lon="-1.85921">
        <ele>0.19999999999999</ele>
        <time>2022-08-19T20:04:28Z</time>
      </trkpt>
      <trkpt lat="47.10766" lon="-1.85965">
        <ele>0.60000000000002</ele>
        <time>2022-08-19T20:04:33Z</time>
      </trkpt>
      <trkpt lat="47.10753" lon="-1.86009">
        <ele>1</ele>
        <time>2022-08-19T20:04:38Z</time>
      </trkpt>
      <trkpt lat="47.10725" lon="-1.86062">
        <ele>1.4</ele>
        <time>2022-08-19T20:04:45Z</time>
      </trkpt>
      <trkpt lat="47.10689" lon="-1.86111">
        <ele>2</ele>
        <time>2022-08-19T20:04:53Z</time>
      </trkpt>
      <trkpt lat="47.10651" lon="-1.86158">
        <ele>2.6</ele>
        <time>2022-08-19T20:05:01Z</time>
      </trkpt>
      <trkpt lat="47.10638" lon="-1.86176">
        <ele>2.8</ele>
        <time>2022-08-19T20:05:04Z</time>
      </trkpt>
      <trkpt lat="47.10625" lon="-1.86195">
        <ele>3</ele>
        <time>2022-08-19T20:05:07Z</time>
      </trkpt>
      <trkpt lat="47.1059" lon="-1.86241">
        <ele>3.8</ele>
        <time>2022-08-19T20:05:15Z</time>
      </trkpt>
      <trkpt lat="47.1056" lon="-1.86281">
        <ele>4.4</ele>
        <time>2022-08-19T20:05:22Z</time>
      </trkpt>
      <trkpt lat="47.10525" lon="-1.8633">
        <ele>5.4</ele>
        <time>2022-08-19T20:05:31Z</time>
      </trkpt>
      <trkpt lat="47.10493" lon="-1.86362">
        <ele>6.2</ele>
        <time>2022-08-19T20:05:38Z</time>
      </trkpt>
      <trkpt lat="47.10451" lon="-1.86393">
        <ele>6.8</ele>
        <time>2022-08-19T20:05:46Z</time>
      </trkpt>
      <trkpt lat="47.10414" lon="-1.86419">
        <ele>7.2</ele>
        <time>2022-08-19T20:05:53Z</time>
      </trkpt>
      <trkpt lat="47.10368" lon="-1.86448">
        <ele>8</ele>
        <time>2022-08-19T20:06:01Z</time>
      </trkpt>
      <trkpt lat="47.10337" lon="-1.86462">
        <ele>8.4</ele>
        <time>2022-08-19T20:06:07Z</time>
      </trkpt>
      <trkpt lat="47.10327" lon="-1.86465">
        <ele>8.6</ele>
        <time>2022-08-19T20:06:10Z</time>
      </trkpt>
      <trkpt lat="47.10324" lon="-1.86462">
        <ele>8.6</ele>
        <time>2022-08-19T20:06:11Z</time>
      </trkpt>
      <trkpt lat="47.10315" lon="-1.86442">
        <ele>8.6</ele>
        <time>2022-08-19T20:06:15Z</time>
      </trkpt>
      <trkpt lat="47.10308" lon="-1.8642">
        <ele>8.6</ele>
        <time>2022-08-19T20:06:18Z</time>
      </trkpt>
      <trkpt lat="47.10306" lon="-1.86404">
        <ele>8.8</ele>
        <time>2022-08-19T20:06:20Z</time>
      </trkpt>
      <trkpt lat="47.10303" lon="-1.86373">
        <ele>8.8</ele>
        <time>2022-08-19T20:06:24Z</time>
      </trkpt>
      <trkpt lat="47.10299" lon="-1.86348">
        <ele>8.8</ele>
        <time>2022-08-19T20:06:27Z</time>
      </trkpt>
      <trkpt lat="47.10286" lon="-1.86288">
        <ele>9</ele>
        <time>2022-08-19T20:06:35Z</time>
      </trkpt>
      <trkpt lat="47.10279" lon="-1.86266">
        <ele>9.2</ele>
        <time>2022-08-19T20:06:37Z</time>
      </trkpt>
      <trkpt lat="47.10267" lon="-1.8624">
        <ele>9.4</ele>
        <time>2022-08-19T20:06:42Z</time>
      </trkpt>
      <trkpt lat="47.10261" lon="-1.86227">
        <ele>9.4</ele>
        <time>2022-08-19T20:06:44Z</time>
      </trkpt>
      <trkpt lat="47.10251" lon="-1.86201">
        <ele>9.6</ele>
        <time>2022-08-19T20:06:48Z</time>
      </trkpt>
      <trkpt lat="47.10236" lon="-1.86164">
        <ele>9.8</ele>
        <time>2022-08-19T20:06:54Z</time>
      </trkpt>
      <trkpt lat="47.10229" lon="-1.86155">
        <ele>10</ele>
        <time>2022-08-19T20:06:56Z</time>
      </trkpt>
      <trkpt lat="47.1022" lon="-1.86154">
        <ele>10</ele>
        <time>2022-08-19T20:06:58Z</time>
      </trkpt>
      <trkpt lat="47.10216" lon="-1.86156">
        <ele>10.2</ele>
        <time>2022-08-19T20:06:59Z</time>
      </trkpt>
      <trkpt lat="47.10198" lon="-1.86173">
        <ele>10.6</ele>
        <time>2022-08-19T20:07:05Z</time>
      </trkpt>
      <trkpt lat="47.10189" lon="-1.86182">
        <ele>10.8</ele>
        <time>2022-08-19T20:07:10Z</time>
      </trkpt>
      <trkpt lat="47.10189" lon="-1.86182">
        <ele>11</ele>
        <time>2022-08-19T20:07:12Z</time>
      </trkpt>
      <trkpt lat="47.10177" lon="-1.86189">
        <ele>15</ele>
        <time>2022-08-19T20:12:08Z</time>
      </trkpt>
      <trkpt lat="47.10176" lon="-1.8619">
        <ele>15.2</ele>
        <time>2022-08-19T20:12:09Z</time>
      </trkpt>
      <trkpt lat="47.10163" lon="-1.862">
        <ele>15.2</ele>
        <time>2022-08-19T20:12:16Z</time>
      </trkpt>
      <trkpt lat="47.10149" lon="-1.86211">
        <ele>15.2</ele>
        <time>2022-08-19T20:12:21Z</time>
      </trkpt>
      <trkpt lat="47.10125" lon="-1.8622">
        <ele>15.6</ele>
        <time>2022-08-19T20:12:28Z</time>
      </trkpt>
      <trkpt lat="47.10103" lon="-1.86241">
        <ele>15.6</ele>
        <time>2022-08-19T20:12:35Z</time>
      </trkpt>
      <trkpt lat="47.10084" lon="-1.86259">
        <ele>15.4</ele>
        <time>2022-08-19T20:12:41Z</time>
      </trkpt>
      <trkpt lat="47.10067" lon="-1.86274">
        <ele>15.4</ele>
        <time>2022-08-19T20:12:46Z</time>
      </trkpt>
      <trkpt lat="47.10049" lon="-1.86287">
        <ele>15.4</ele>
        <time>2022-08-19T20:12:51Z</time>
      </trkpt>
      <trkpt lat="47.10038" lon="-1.86282">
        <ele>15.4</ele>
        <time>2022-08-19T20:12:54Z</time>
      </trkpt>
      <trkpt lat="47.10036" lon="-1.86278">
        <ele>15.2</ele>
        <time>2022-08-19T20:12:55Z</time>
      </trkpt>
      <trkpt lat="47.10029" lon="-1.86257">
        <ele>15.4</ele>
        <time>2022-08-19T20:12:59Z</time>
      </trkpt>
      <trkpt lat="47.10022" lon="-1.86234">
        <ele>15.4</ele>
        <time>2022-08-19T20:13:03Z</time>
      </trkpt>
      <trkpt lat="47.10014" lon="-1.8623">
        <ele>15.6</ele>
        <time>2022-08-19T20:13:05Z</time>
      </trkpt>
      <trkpt lat="47.1001" lon="-1.86231">
        <ele>15.6</ele>
        <time>2022-08-19T20:13:06Z</time>
      </trkpt>
      <trkpt lat="47.09982" lon="-1.86242">
        <ele>15.8</ele>
        <time>2022-08-19T20:13:12Z</time>
      </trkpt>
      <trkpt lat="47.09943" lon="-1.86255">
        <ele>16</ele>
        <time>2022-08-19T20:13:21Z</time>
      </trkpt>
      <trkpt lat="47.09904" lon="-1.86268">
        <ele>16.4</ele>
        <time>2022-08-19T20:13:30Z</time>
      </trkpt>
      <trkpt lat="47.09874" lon="-1.86279">
        <ele>16.4</ele>
        <time>2022-08-19T20:13:37Z</time>
      </trkpt>
      <trkpt lat="47.09869" lon="-1.86281">
        <ele>16.4</ele>
        <time>2022-08-19T20:13:38Z</time>
      </trkpt>
      <trkpt lat="47.09848" lon="-1.86293">
        <ele>16.4</ele>
        <time>2022-08-19T20:13:43Z</time>
      </trkpt>
      <trkpt lat="47.09833" lon="-1.86302">
        <ele>16.4</ele>
        <time>2022-08-19T20:13:47Z</time>
      </trkpt>
      <trkpt lat="47.09829" lon="-1.86302">
        <ele>16.4</ele>
        <time>2022-08-19T20:13:48Z</time>
      </trkpt>
      <trkpt lat="47.0981" lon="-1.86302">
        <ele>16.4</ele>
        <time>2022-08-19T20:13:52Z</time>
      </trkpt>
      <trkpt lat="47.09805" lon="-1.86302">
        <ele>16.4</ele>
        <time>2022-08-19T20:13:53Z</time>
      </trkpt>
      <trkpt lat="47.09787" lon="-1.86304">
        <ele>16.6</ele>
        <time>2022-08-19T20:13:57Z</time>
      </trkpt>
      <trkpt lat="47.09763" lon="-1.86304">
        <ele>16.6</ele>
        <time>2022-08-19T20:14:02Z</time>
      </trkpt>
      <trkpt lat="47.09758" lon="-1.86304">
        <ele>16.8</ele>
        <time>2022-08-19T20:14:03Z</time>
      </trkpt>
      <trkpt lat="47.09725" lon="-1.863">
        <ele>16.8</ele>
        <time>2022-08-19T20:14:10Z</time>
      </trkpt>
      <trkpt lat="47.09693" lon="-1.86283">
        <ele>17</ele>
        <time>2022-08-19T20:14:17Z</time>
      </trkpt>
      <trkpt lat="47.09656" lon="-1.86267">
        <ele>17</ele>
        <time>2022-08-19T20:14:25Z</time>
      </trkpt>
      <trkpt lat="47.09652" lon="-1.86267">
        <ele>17</ele>
        <time>2022-08-19T20:14:26Z</time>
      </trkpt>
      <trkpt lat="47.09643" lon="-1.86265">
        <ele>17.2</ele>
        <time>2022-08-19T20:14:28Z</time>
      </trkpt>
      <trkpt lat="47.09633" lon="-1.86266">
        <ele>17.2</ele>
        <time>2022-08-19T20:14:30Z</time>
      </trkpt>
      <trkpt lat="47.09615" lon="-1.86272">
        <ele>17.2</ele>
        <time>2022-08-19T20:14:34Z</time>
      </trkpt>
      <trkpt lat="47.09605" lon="-1.86274">
        <ele>17.2</ele>
        <time>2022-08-19T20:14:36Z</time>
      </trkpt>
      <trkpt lat="47.09596" lon="-1.86272">
        <ele>17.2</ele>
        <time>2022-08-19T20:14:38Z</time>
      </trkpt>
      <trkpt lat="47.09592" lon="-1.86269">
        <ele>17.2</ele>
        <time>2022-08-19T20:14:39Z</time>
      </trkpt>
      <trkpt lat="47.09567" lon="-1.86241">
        <ele>17</ele>
        <time>2022-08-19T20:14:46Z</time>
      </trkpt>
      <trkpt lat="47.09543" lon="-1.86213">
        <ele>16.6</ele>
        <time>2022-08-19T20:14:52Z</time>
      </trkpt>
      <trkpt lat="47.09538" lon="-1.8621">
        <ele>16.6</ele>
        <time>2022-08-19T20:14:53Z</time>
      </trkpt>
      <trkpt lat="47.09525" lon="-1.86203">
        <ele>16.4</ele>
        <time>2022-08-19T20:14:56Z</time>
      </trkpt>
      <trkpt lat="47.09515" lon="-1.86205">
        <ele>16.4</ele>
        <time>2022-08-19T20:14:58Z</time>
      </trkpt>
      <trkpt lat="47.0951" lon="-1.86208">
        <ele>16.4</ele>
        <time>2022-08-19T20:14:59Z</time>
      </trkpt>
      <trkpt lat="47.09474" lon="-1.86243">
        <ele>16.4</ele>
        <time>2022-08-19T20:15:08Z</time>
      </trkpt>
      <trkpt lat="47.09451" lon="-1.86266">
        <ele>16.4</ele>
        <time>2022-08-19T20:15:14Z</time>
      </trkpt>
      <trkpt lat="47.09441" lon="-1.86278">
        <ele>16.6</ele>
        <time>2022-08-19T20:15:17Z</time>
      </trkpt>
      <trkpt lat="47.09432" lon="-1.86291">
        <ele>16.6</ele>
        <time>2022-08-19T20:15:20Z</time>
      </trkpt>
      <trkpt lat="47.09425" lon="-1.863">
        <ele>16.6</ele>
        <time>2022-08-19T20:15:22Z</time>
      </trkpt>
      <trkpt lat="47.09413" lon="-1.86318">
        <ele>16.2</ele>
        <time>2022-08-19T20:15:26Z</time>
      </trkpt>
      <trkpt lat="47.094" lon="-1.86327">
        <ele>16.2</ele>
        <time>2022-08-19T20:15:30Z</time>
      </trkpt>
      <trkpt lat="47.09391" lon="-1.86328">
        <ele>16</ele>
        <time>2022-08-19T20:15:32Z</time>
      </trkpt>
      <trkpt lat="47.09376" lon="-1.86326">
        <ele>16</ele>
        <time>2022-08-19T20:15:35Z</time>
      </trkpt>
      <trkpt lat="47.09342" lon="-1.86329">
        <ele>16.2</ele>
        <time>2022-08-19T20:15:41Z</time>
      </trkpt>
      <trkpt lat="47.09312" lon="-1.86337">
        <ele>15.8</ele>
        <time>2022-08-19T20:15:46Z</time>
      </trkpt>
      <trkpt lat="47.093" lon="-1.86337">
        <ele>15.8</ele>
        <time>2022-08-19T20:15:48Z</time>
      </trkpt>
      <trkpt lat="47.09289" lon="-1.86333">
        <ele>15.8</ele>
        <time>2022-08-19T20:15:50Z</time>
      </trkpt>
      <trkpt lat="47.09279" lon="-1.86324">
        <ele>15.8</ele>
        <time>2022-08-19T20:15:52Z</time>
      </trkpt>
      <trkpt lat="47.09272" lon="-1.86311">
        <ele>15.6</ele>
        <time>2022-08-19T20:15:54Z</time>
      </trkpt>
      <trkpt lat="47.09267" lon="-1.86295">
        <ele>15.6</ele>
        <time>2022-08-19T20:15:56Z</time>
      </trkpt>
      <trkpt lat="47.09255" lon="-1.86237">
        <ele>15.4</ele>
        <time>2022-08-19T20:16:03Z</time>
      </trkpt>
      <trkpt lat="47.09245" lon="-1.86182">
        <ele>15.4</ele>
        <time>2022-08-19T20:16:10Z</time>
      </trkpt>
      <trkpt lat="47.09236" lon="-1.86138">
        <ele>15.4</ele>
        <time>2022-08-19T20:16:16Z</time>
      </trkpt>
      <trkpt lat="47.09224" lon="-1.86082">
        <ele>15.8</ele>
        <time>2022-08-19T20:16:24Z</time>
      </trkpt>
      <trkpt lat="47.09218" lon="-1.86071">
        <ele>15.8</ele>
        <time>2022-08-19T20:16:26Z</time>
      </trkpt>
      <trkpt lat="47.0921" lon="-1.86064">
        <ele>15.8</ele>
        <time>2022-08-19T20:16:28Z</time>
      </trkpt>
      <trkpt lat="47.092" lon="-1.86063">
        <ele>15.8</ele>
        <time>2022-08-19T20:16:30Z</time>
      </trkpt>
      <trkpt lat="47.09189" lon="-1.86065">
        <ele>16</ele>
        <time>2022-08-19T20:16:32Z</time>
      </trkpt>
      <trkpt lat="47.09158" lon="-1.86076">
        <ele>16</ele>
        <time>2022-08-19T20:16:38Z</time>
      </trkpt>
      <trkpt lat="47.09109" lon="-1.86099">
        <ele>16</ele>
        <time>2022-08-19T20:16:47Z</time>
      </trkpt>
      <trkpt lat="47.09059" lon="-1.86134">
        <ele>16</ele>
        <time>2022-08-19T20:16:56Z</time>
      </trkpt>
      <trkpt lat="47.09011" lon="-1.86168">
        <ele>16</ele>
        <time>2022-08-19T20:17:04Z</time>
      </trkpt>
      <trkpt lat="47.08991" lon="-1.86174">
        <ele>15.8</ele>
        <time>2022-08-19T20:17:07Z</time>
      </trkpt>
      <trkpt lat="47.08971" lon="-1.86173">
        <ele>15.8</ele>
        <time>2022-08-19T20:17:10Z</time>
      </trkpt>
      <trkpt lat="47.08934" lon="-1.86161">
        <ele>16</ele>
        <time>2022-08-19T20:17:16Z</time>
      </trkpt>
      <trkpt lat="47.0891" lon="-1.8615">
        <ele>15.8</ele>
        <time>2022-08-19T20:17:20Z</time>
      </trkpt>
      <trkpt lat="47.08892" lon="-1.86143">
        <ele>15.8</ele>
        <time>2022-08-19T20:17:23Z</time>
      </trkpt>
      <trkpt lat="47.08855" lon="-1.86131">
        <ele>16</ele>
        <time>2022-08-19T20:17:29Z</time>
      </trkpt>
      <trkpt lat="47.08842" lon="-1.86131">
        <ele>16</ele>
        <time>2022-08-19T20:17:31Z</time>
      </trkpt>
      <trkpt lat="47.08829" lon="-1.86133">
        <ele>16</ele>
        <time>2022-08-19T20:17:33Z</time>
      </trkpt>
      <trkpt lat="47.08812" lon="-1.86141">
        <ele>16.2</ele>
        <time>2022-08-19T20:17:36Z</time>
      </trkpt>
      <trkpt lat="47.08779" lon="-1.86164">
        <ele>16.4</ele>
        <time>2022-08-19T20:17:42Z</time>
      </trkpt>
      <trkpt lat="47.08752" lon="-1.86178">
        <ele>16.6</ele>
        <time>2022-08-19T20:17:47Z</time>
      </trkpt>
      <trkpt lat="47.08739" lon="-1.86181">
        <ele>16.8</ele>
        <time>2022-08-19T20:17:49Z</time>
      </trkpt>
      <trkpt lat="47.08695" lon="-1.86185">
        <ele>17</ele>
        <time>2022-08-19T20:17:56Z</time>
      </trkpt>
      <trkpt lat="47.08659" lon="-1.86189">
        <ele>17</ele>
        <time>2022-08-19T20:18:02Z</time>
      </trkpt>
      <trkpt lat="47.08636" lon="-1.8619">
        <ele>17.2</ele>
        <time>2022-08-19T20:18:06Z</time>
      </trkpt>
      <trkpt lat="47.0863" lon="-1.86189">
        <ele>17.2</ele>
        <time>2022-08-19T20:18:07Z</time>
      </trkpt>
      <trkpt lat="47.08597" lon="-1.86181">
        <ele>17.2</ele>
        <time>2022-08-19T20:18:12Z</time>
      </trkpt>
      <trkpt lat="47.08552" lon="-1.86166">
        <ele>17.4</ele>
        <time>2022-08-19T20:18:19Z</time>
      </trkpt>
      <trkpt lat="47.08539" lon="-1.86162">
        <ele>17.6</ele>
        <time>2022-08-19T20:18:21Z</time>
      </trkpt>
      <trkpt lat="47.0852" lon="-1.86156">
        <ele>17.8</ele>
        <time>2022-08-19T20:18:24Z</time>
      </trkpt>
      <trkpt lat="47.08483" lon="-1.86144">
        <ele>18.2</ele>
        <time>2022-08-19T20:18:30Z</time>
      </trkpt>
      <trkpt lat="47.0845" lon="-1.86134">
        <ele>18.4</ele>
        <time>2022-08-19T20:18:35Z</time>
      </trkpt>
      <trkpt lat="47.08413" lon="-1.86127">
        <ele>18.6</ele>
        <time>2022-08-19T20:18:41Z</time>
      </trkpt>
      <trkpt lat="47.08407" lon="-1.86126">
        <ele>18.8</ele>
        <time>2022-08-19T20:18:42Z</time>
      </trkpt>
      <trkpt lat="47.0837" lon="-1.86121">
        <ele>19.2</ele>
        <time>2022-08-19T20:18:48Z</time>
      </trkpt>
      <trkpt lat="47.08337" lon="-1.86114">
        <ele>19.6</ele>
        <time>2022-08-19T20:18:54Z</time>
      </trkpt>
      <trkpt lat="47.08319" lon="-1.86109">
        <ele>20</ele>
        <time>2022-08-19T20:19:00Z</time>
      </trkpt>
      <trkpt lat="47.08307" lon="-1.86101">
        <ele>20.4</ele>
        <time>2022-08-19T20:19:04Z</time>
      </trkpt>
      <trkpt lat="47.08297" lon="-1.86098">
        <ele>20.4</ele>
        <time>2022-08-19T20:19:06Z</time>
      </trkpt>
      <trkpt lat="47.08283" lon="-1.86094">
        <ele>20.6</ele>
        <time>2022-08-19T20:19:09Z</time>
      </trkpt>
      <trkpt lat="47.08249" lon="-1.86088">
        <ele>21</ele>
        <time>2022-08-19T20:19:16Z</time>
      </trkpt>
      <trkpt lat="47.08204" lon="-1.86079">
        <ele>21.6</ele>
        <time>2022-08-19T20:19:24Z</time>
      </trkpt>
      <trkpt lat="47.08157" lon="-1.8607">
        <ele>22.2</ele>
        <time>2022-08-19T20:19:32Z</time>
      </trkpt>
      <trkpt lat="47.08115" lon="-1.86061">
        <ele>22.6</ele>
        <time>2022-08-19T20:19:39Z</time>
      </trkpt>
      <trkpt lat="47.08091" lon="-1.86056">
        <ele>22.8</ele>
        <time>2022-08-19T20:19:43Z</time>
      </trkpt>
      <trkpt lat="47.08056" lon="-1.86049">
        <ele>23.2</ele>
        <time>2022-08-19T20:19:49Z</time>
      </trkpt>
      <trkpt lat="47.08016" lon="-1.86041">
        <ele>23.6</ele>
        <time>2022-08-19T20:19:56Z</time>
      </trkpt>
      <trkpt lat="47.0798" lon="-1.86033">
        <ele>23.8</ele>
        <time>2022-08-19T20:20:03Z</time>
      </trkpt>
      <trkpt lat="47.07939" lon="-1.86025">
        <ele>24.4</ele>
        <time>2022-08-19T20:20:11Z</time>
      </trkpt>
      <trkpt lat="47.07884" lon="-1.86013">
        <ele>25</ele>
        <time>2022-08-19T20:20:21Z</time>
      </trkpt>
      <trkpt lat="47.07836" lon="-1.85999">
        <ele>25.6</ele>
        <time>2022-08-19T20:20:30Z</time>
      </trkpt>
      <trkpt lat="47.07794" lon="-1.85988">
        <ele>26</ele>
        <time>2022-08-19T20:20:38Z</time>
      </trkpt>
      <trkpt lat="47.07752" lon="-1.85976">
        <ele>26.8</ele>
        <time>2022-08-19T20:20:46Z</time>
      </trkpt>
      <trkpt lat="47.07721" lon="-1.85967">
        <ele>27</ele>
        <time>2022-08-19T20:20:52Z</time>
      </trkpt>
      <trkpt lat="47.07676" lon="-1.85954">
        <ele>27.6</ele>
        <time>2022-08-19T20:21:00Z</time>
      </trkpt>
      <trkpt lat="47.07642" lon="-1.85943">
        <ele>28</ele>
        <time>2022-08-19T20:21:06Z</time>
      </trkpt>
      <trkpt lat="47.07608" lon="-1.85925">
        <ele>28.4</ele>
        <time>2022-08-19T20:21:12Z</time>
      </trkpt>
      <trkpt lat="47.07562" lon="-1.85899">
        <ele>28.6</ele>
        <time>2022-08-19T20:21:20Z</time>
      </trkpt>
      <trkpt lat="47.07521" lon="-1.85875">
        <ele>29</ele>
        <time>2022-08-19T20:21:27Z</time>
      </trkpt>
      <trkpt lat="47.07493" lon="-1.85858">
        <ele>29.2</ele>
        <time>2022-08-19T20:21:32Z</time>
      </trkpt>
      <trkpt lat="47.07462" lon="-1.85831">
        <ele>29.4</ele>
        <time>2022-08-19T20:21:38Z</time>
      </trkpt>
      <trkpt lat="47.07461" lon="-1.85814">
        <ele>29.4</ele>
        <time>2022-08-19T20:21:40Z</time>
      </trkpt>
      <trkpt lat="47.07469" lon="-1.85804">
        <ele>29.4</ele>
        <time>2022-08-19T20:21:42Z</time>
      </trkpt>
      <trkpt lat="47.07483" lon="-1.85791">
        <ele>29.4</ele>
        <time>2022-08-19T20:21:45Z</time>
      </trkpt>
      <trkpt lat="47.0749" lon="-1.85779">
        <ele>29.4</ele>
        <time>2022-08-19T20:21:47Z</time>
      </trkpt>
      <trkpt lat="47.07491" lon="-1.85762">
        <ele>29.4</ele>
        <time>2022-08-19T20:21:49Z</time>
      </trkpt>
      <trkpt lat="47.0749" lon="-1.85754">
        <ele>29.6</ele>
        <time>2022-08-19T20:21:50Z</time>
      </trkpt>
      <trkpt lat="47.07487" lon="-1.85746">
        <ele>29.6</ele>
        <time>2022-08-19T20:21:51Z</time>
      </trkpt>
      <trkpt lat="47.07475" lon="-1.85717">
        <ele>29.6</ele>
        <time>2022-08-19T20:21:55Z</time>
      </trkpt>
      <trkpt lat="47.07463" lon="-1.85697">
        <ele>29.6</ele>
        <time>2022-08-19T20:21:58Z</time>
      </trkpt>
      <trkpt lat="47.07453" lon="-1.85684">
        <ele>29.6</ele>
        <time>2022-08-19T20:22:00Z</time>
      </trkpt>
      <trkpt lat="47.07444" lon="-1.85672">
        <ele>29.6</ele>
        <time>2022-08-19T20:22:02Z</time>
      </trkpt>
      <trkpt lat="47.07424" lon="-1.8565">
        <ele>29.6</ele>
        <time>2022-08-19T20:22:06Z</time>
      </trkpt>
      <trkpt lat="47.07397" lon="-1.85612">
        <ele>29.6</ele>
        <time>2022-08-19T20:22:12Z</time>
      </trkpt>
      <trkpt lat="47.07394" lon="-1.85605">
        <ele>29.6</ele>
        <time>2022-08-19T20:22:13Z</time>
      </trkpt>
      <trkpt lat="47.07377" lon="-1.85554">
        <ele>29.4</ele>
        <time>2022-08-19T20:22:19Z</time>
      </trkpt>
      <trkpt lat="47.07364" lon="-1.85508">
        <ele>29.4</ele>
        <time>2022-08-19T20:22:24Z</time>
      </trkpt>
      <trkpt lat="47.07359" lon="-1.85491">
        <ele>29.4</ele>
        <time>2022-08-19T20:22:26Z</time>
      </trkpt>
      <trkpt lat="47.07346" lon="-1.85432">
        <ele>29.4</ele>
        <time>2022-08-19T20:22:33Z</time>
      </trkpt>
      <trkpt lat="47.0733" lon="-1.85357">
        <ele>29.6</ele>
        <time>2022-08-19T20:22:42Z</time>
      </trkpt>
      <trkpt lat="47.07314" lon="-1.85289">
        <ele>29.6</ele>
        <time>2022-08-19T20:22:50Z</time>
      </trkpt>
      <trkpt lat="47.07308" lon="-1.85273">
        <ele>29.8</ele>
        <time>2022-08-19T20:22:52Z</time>
      </trkpt>
      <trkpt lat="47.07295" lon="-1.85242">
        <ele>29.6</ele>
        <time>2022-08-19T20:22:56Z</time>
      </trkpt>
      <trkpt lat="47.07266" lon="-1.85193">
        <ele>29.4</ele>
        <time>2022-08-19T20:23:03Z</time>
      </trkpt>
      <trkpt lat="47.07249" lon="-1.85169">
        <ele>29.2</ele>
        <time>2022-08-19T20:23:07Z</time>
      </trkpt>
      <trkpt lat="47.07246" lon="-1.85163">
        <ele>29.2</ele>
        <time>2022-08-19T20:23:08Z</time>
      </trkpt>
      <trkpt lat="47.07231" lon="-1.85127">
        <ele>29</ele>
        <time>2022-08-19T20:23:14Z</time>
      </trkpt>
      <trkpt lat="47.07223" lon="-1.85124">
        <ele>28.8</ele>
        <time>2022-08-19T20:23:16Z</time>
      </trkpt>
      <trkpt lat="47.07218" lon="-1.85126">
        <ele>28.8</ele>
        <time>2022-08-19T20:23:17Z</time>
      </trkpt>
      <trkpt lat="47.07193" lon="-1.85149">
        <ele>28.4</ele>
        <time>2022-08-19T20:23:22Z</time>
      </trkpt>
      <trkpt lat="47.07156" lon="-1.85181">
        <ele>27.6</ele>
        <time>2022-08-19T20:23:28Z</time>
      </trkpt>
      <trkpt lat="47.07105" lon="-1.85221">
        <ele>26.6</ele>
        <time>2022-08-19T20:23:36Z</time>
      </trkpt>
      <trkpt lat="47.07062" lon="-1.85245">
        <ele>26</ele>
        <time>2022-08-19T20:23:43Z</time>
      </trkpt>
      <trkpt lat="47.07028" lon="-1.85264">
        <ele>25.8</ele>
        <time>2022-08-19T20:23:50Z</time>
      </trkpt>
      <trkpt lat="47.07002" lon="-1.8528">
        <ele>25.6</ele>
        <time>2022-08-19T20:23:56Z</time>
      </trkpt>
      <trkpt lat="47.06983" lon="-1.8529">
        <ele>25.4</ele>
        <time>2022-08-19T20:24:00Z</time>
      </trkpt>
      <trkpt lat="47.06951" lon="-1.85309">
        <ele>25.2</ele>
        <time>2022-08-19T20:24:07Z</time>
      </trkpt>
      <trkpt lat="47.06932" lon="-1.85321">
        <ele>25</ele>
        <time>2022-08-19T20:24:11Z</time>
      </trkpt>
      <trkpt lat="47.06922" lon="-1.85328">
        <ele>25</ele>
        <time>2022-08-19T20:24:13Z</time>
      </trkpt>
      <trkpt lat="47.06889" lon="-1.85352">
        <ele>24.8</ele>
        <time>2022-08-19T20:24:20Z</time>
      </trkpt>
      <trkpt lat="47.06867" lon="-1.85372">
        <ele>24.8</ele>
        <time>2022-08-19T20:24:25Z</time>
      </trkpt>
      <trkpt lat="47.06829" lon="-1.85407">
        <ele>24.8</ele>
        <time>2022-08-19T20:24:33Z</time>
      </trkpt>
      <trkpt lat="47.06789" lon="-1.85446">
        <ele>24.8</ele>
        <time>2022-08-19T20:24:41Z</time>
      </trkpt>
      <trkpt lat="47.06743" lon="-1.8549">
        <ele>24.6</ele>
        <time>2022-08-19T20:24:50Z</time>
      </trkpt>
      <trkpt lat="47.06728" lon="-1.85506">
        <ele>24.6</ele>
        <time>2022-08-19T20:24:53Z</time>
      </trkpt>
      <trkpt lat="47.06721" lon="-1.85519">
        <ele>24.6</ele>
        <time>2022-08-19T20:24:55Z</time>
      </trkpt>
      <trkpt lat="47.06705" lon="-1.85567">
        <ele>24.6</ele>
        <time>2022-08-19T20:25:01Z</time>
      </trkpt>
      <trkpt lat="47.06688" lon="-1.85612">
        <ele>24.8</ele>
        <time>2022-08-19T20:25:07Z</time>
      </trkpt>
      <trkpt lat="47.06674" lon="-1.85643">
        <ele>24.8</ele>
        <time>2022-08-19T20:25:11Z</time>
      </trkpt>
      <trkpt lat="47.0667" lon="-1.8565">
        <ele>24.8</ele>
        <time>2022-08-19T20:25:12Z</time>
      </trkpt>
      <trkpt lat="47.06649" lon="-1.85685">
        <ele>24.8</ele>
        <time>2022-08-19T20:25:17Z</time>
      </trkpt>
      <trkpt lat="47.06627" lon="-1.85743">
        <ele>24.6</ele>
        <time>2022-08-19T20:25:24Z</time>
      </trkpt>
      <trkpt lat="47.0662" lon="-1.85759">
        <ele>24.6</ele>
        <time>2022-08-19T20:25:26Z</time>
      </trkpt>
      <trkpt lat="47.06609" lon="-1.85781">
        <ele>24.6</ele>
        <time>2022-08-19T20:25:29Z</time>
      </trkpt>
      <trkpt lat="47.06584" lon="-1.85823">
        <ele>24.6</ele>
        <time>2022-08-19T20:25:35Z</time>
      </trkpt>
      <trkpt lat="47.0658" lon="-1.85831">
        <ele>24.6</ele>
        <time>2022-08-19T20:25:36Z</time>
      </trkpt>
      <trkpt lat="47.06572" lon="-1.85845">
        <ele>24.4</ele>
        <time>2022-08-19T20:25:38Z</time>
      </trkpt>
      <trkpt lat="47.06548" lon="-1.85889">
        <ele>24.4</ele>
        <time>2022-08-19T20:25:44Z</time>
      </trkpt>
      <trkpt lat="47.06539" lon="-1.85914">
        <ele>24.2</ele>
        <time>2022-08-19T20:25:47Z</time>
      </trkpt>
      <trkpt lat="47.06536" lon="-1.85931">
        <ele>24.2</ele>
        <time>2022-08-19T20:25:49Z</time>
      </trkpt>
      <trkpt lat="47.06527" lon="-1.8596">
        <ele>24.2</ele>
        <time>2022-08-19T20:25:53Z</time>
      </trkpt>
      <trkpt lat="47.06523" lon="-1.85967">
        <ele>24.2</ele>
        <time>2022-08-19T20:25:54Z</time>
      </trkpt>
      <trkpt lat="47.06513" lon="-1.85987">
        <ele>24</ele>
        <time>2022-08-19T20:25:57Z</time>
      </trkpt>
      <trkpt lat="47.06509" lon="-1.85993">
        <ele>23.8</ele>
        <time>2022-08-19T20:25:58Z</time>
      </trkpt>
      <trkpt lat="47.06498" lon="-1.86012">
        <ele>23.6</ele>
        <time>2022-08-19T20:26:01Z</time>
      </trkpt>
      <trkpt lat="47.06474" lon="-1.86053">
        <ele>23</ele>
        <time>2022-08-19T20:26:07Z</time>
      </trkpt>
      <trkpt lat="47.06465" lon="-1.86066">
        <ele>22.8</ele>
        <time>2022-08-19T20:26:09Z</time>
      </trkpt>
      <trkpt lat="47.06457" lon="-1.86078">
        <ele>22.6</ele>
        <time>2022-08-19T20:26:11Z</time>
      </trkpt>
      <trkpt lat="47.06435" lon="-1.86117">
        <ele>22.2</ele>
        <time>2022-08-19T20:26:17Z</time>
      </trkpt>
      <trkpt lat="47.06408" lon="-1.86159">
        <ele>21.4</ele>
        <time>2022-08-19T20:26:23Z</time>
      </trkpt>
      <trkpt lat="47.06379" lon="-1.86207">
        <ele>21.2</ele>
        <time>2022-08-19T20:26:30Z</time>
      </trkpt>
      <trkpt lat="47.06349" lon="-1.86247">
        <ele>21.4</ele>
        <time>2022-08-19T20:26:37Z</time>
      </trkpt>
      <trkpt lat="47.06341" lon="-1.86256">
        <ele>21.4</ele>
        <time>2022-08-19T20:26:39Z</time>
      </trkpt>
      <trkpt lat="47.06332" lon="-1.86264">
        <ele>21.4</ele>
        <time>2022-08-19T20:26:41Z</time>
      </trkpt>
      <trkpt lat="47.06318" lon="-1.86274">
        <ele>21.2</ele>
        <time>2022-08-19T20:26:44Z</time>
      </trkpt>
      <trkpt lat="47.06308" lon="-1.8628">
        <ele>21.2</ele>
        <time>2022-08-19T20:26:46Z</time>
      </trkpt>
      <trkpt lat="47.06281" lon="-1.86306">
        <ele>20.6</ele>
        <time>2022-08-19T20:26:52Z</time>
      </trkpt>
      <trkpt lat="47.06258" lon="-1.86342">
        <ele>20.6</ele>
        <time>2022-08-19T20:26:58Z</time>
      </trkpt>
      <trkpt lat="47.06255" lon="-1.86348">
        <ele>20.6</ele>
        <time>2022-08-19T20:26:59Z</time>
      </trkpt>
      <trkpt lat="47.06243" lon="-1.86366">
        <ele>20.8</ele>
        <time>2022-08-19T20:27:02Z</time>
      </trkpt>
      <trkpt lat="47.06235" lon="-1.86376">
        <ele>20.6</ele>
        <time>2022-08-19T20:27:04Z</time>
      </trkpt>
      <trkpt lat="47.06215" lon="-1.86402">
        <ele>21.2</ele>
        <time>2022-08-19T20:27:09Z</time>
      </trkpt>
      <trkpt lat="47.06212" lon="-1.86408">
        <ele>21.2</ele>
        <time>2022-08-19T20:27:10Z</time>
      </trkpt>
      <trkpt lat="47.06206" lon="-1.86422">
        <ele>21.4</ele>
        <time>2022-08-19T20:27:12Z</time>
      </trkpt>
      <trkpt lat="47.06203" lon="-1.86437">
        <ele>21.4</ele>
        <time>2022-08-19T20:27:14Z</time>
      </trkpt>
      <trkpt lat="47.06201" lon="-1.86477">
        <ele>21.8</ele>
        <time>2022-08-19T20:27:19Z</time>
      </trkpt>
      <trkpt lat="47.06201" lon="-1.865">
        <ele>22</ele>
        <time>2022-08-19T20:27:22Z</time>
      </trkpt>
      <trkpt lat="47.06202" lon="-1.86532">
        <ele>22.2</ele>
        <time>2022-08-19T20:27:26Z</time>
      </trkpt>
      <trkpt lat="47.06202" lon="-1.8654">
        <ele>22.2</ele>
        <time>2022-08-19T20:27:27Z</time>
      </trkpt>
      <trkpt lat="47.06199" lon="-1.86555">
        <ele>22.4</ele>
        <time>2022-08-19T20:27:29Z</time>
      </trkpt>
      <trkpt lat="47.06197" lon="-1.86562">
        <ele>22.4</ele>
        <time>2022-08-19T20:27:30Z</time>
      </trkpt>
      <trkpt lat="47.06194" lon="-1.86569">
        <ele>22.4</ele>
        <time>2022-08-19T20:27:31Z</time>
      </trkpt>
      <trkpt lat="47.06184" lon="-1.86585">
        <ele>22.6</ele>
        <time>2022-08-19T20:27:34Z</time>
      </trkpt>
      <trkpt lat="47.06154" lon="-1.86622">
        <ele>23.2</ele>
        <time>2022-08-19T20:27:41Z</time>
      </trkpt>
      <trkpt lat="47.06136" lon="-1.86644">
        <ele>23.6</ele>
        <time>2022-08-19T20:27:45Z</time>
      </trkpt>
      <trkpt lat="47.06127" lon="-1.86655">
        <ele>23.8</ele>
        <time>2022-08-19T20:27:47Z</time>
      </trkpt>
      <trkpt lat="47.06092" lon="-1.86693">
        <ele>24</ele>
        <time>2022-08-19T20:27:54Z</time>
      </trkpt>
      <trkpt lat="47.06069" lon="-1.86718">
        <ele>24.2</ele>
        <time>2022-08-19T20:27:59Z</time>
      </trkpt>
      <trkpt lat="47.0606" lon="-1.86728">
        <ele>24.2</ele>
        <time>2022-08-19T20:28:01Z</time>
      </trkpt>
      <trkpt lat="47.06041" lon="-1.86748">
        <ele>24.2</ele>
        <time>2022-08-19T20:28:05Z</time>
      </trkpt>
      <trkpt lat="47.06016" lon="-1.86774">
        <ele>24.2</ele>
        <time>2022-08-19T20:28:10Z</time>
      </trkpt>
      <trkpt lat="47.0598" lon="-1.86811">
        <ele>24.2</ele>
        <time>2022-08-19T20:28:17Z</time>
      </trkpt>
      <trkpt lat="47.05959" lon="-1.86828">
        <ele>24.2</ele>
        <time>2022-08-19T20:28:21Z</time>
      </trkpt>
      <trkpt lat="47.05912" lon="-1.86861">
        <ele>24.4</ele>
        <time>2022-08-19T20:28:29Z</time>
      </trkpt>
      <trkpt lat="47.0587" lon="-1.86886">
        <ele>24.4</ele>
        <time>2022-08-19T20:28:36Z</time>
      </trkpt>
      <trkpt lat="47.05839" lon="-1.86901">
        <ele>24.4</ele>
        <time>2022-08-19T20:28:41Z</time>
      </trkpt>
      <trkpt lat="47.05833" lon="-1.86904">
        <ele>24.4</ele>
        <time>2022-08-19T20:28:42Z</time>
      </trkpt>
      <trkpt lat="47.05792" lon="-1.86924">
        <ele>24.4</ele>
        <time>2022-08-19T20:28:49Z</time>
      </trkpt>
      <trkpt lat="47.0575" lon="-1.86945">
        <ele>24.2</ele>
        <time>2022-08-19T20:28:56Z</time>
      </trkpt>
      <trkpt lat="47.05732" lon="-1.86953">
        <ele>24.2</ele>
        <time>2022-08-19T20:28:59Z</time>
      </trkpt>
      <trkpt lat="47.05719" lon="-1.86958">
        <ele>24.2</ele>
        <time>2022-08-19T20:29:01Z</time>
      </trkpt>
      <trkpt lat="47.0569" lon="-1.86974">
        <ele>23.8</ele>
        <time>2022-08-19T20:29:06Z</time>
      </trkpt>
      <trkpt lat="47.05655" lon="-1.86991">
        <ele>23.4</ele>
        <time>2022-08-19T20:29:12Z</time>
      </trkpt>
      <trkpt lat="47.05633" lon="-1.87005">
        <ele>23.2</ele>
        <time>2022-08-19T20:29:16Z</time>
      </trkpt>
      <trkpt lat="47.05602" lon="-1.87029">
        <ele>22.8</ele>
        <time>2022-08-19T20:29:22Z</time>
      </trkpt>
      <trkpt lat="47.05565" lon="-1.87062">
        <ele>22.6</ele>
        <time>2022-08-19T20:29:29Z</time>
      </trkpt>
      <trkpt lat="47.05523" lon="-1.87099">
        <ele>22.6</ele>
        <time>2022-08-19T20:29:37Z</time>
      </trkpt>
      <trkpt lat="47.05482" lon="-1.87135">
        <ele>23</ele>
        <time>2022-08-19T20:29:45Z</time>
      </trkpt>
      <trkpt lat="47.05465" lon="-1.87146">
        <ele>23.2</ele>
        <time>2022-08-19T20:29:48Z</time>
      </trkpt>
      <trkpt lat="47.05455" lon="-1.8715">
        <ele>23.2</ele>
        <time>2022-08-19T20:29:50Z</time>
      </trkpt>
      <trkpt lat="47.05422" lon="-1.8716">
        <ele>23.4</ele>
        <time>2022-08-19T20:29:56Z</time>
      </trkpt>
      <trkpt lat="47.0541" lon="-1.87165">
        <ele>23.6</ele>
        <time>2022-08-19T20:29:58Z</time>
      </trkpt>
      <trkpt lat="47.05399" lon="-1.87174">
        <ele>23.6</ele>
        <time>2022-08-19T20:30:00Z</time>
      </trkpt>
      <trkpt lat="47.05385" lon="-1.87189">
        <ele>23.8</ele>
        <time>2022-08-19T20:30:03Z</time>
      </trkpt>
      <trkpt lat="47.05374" lon="-1.87196">
        <ele>24</ele>
        <time>2022-08-19T20:30:05Z</time>
      </trkpt>
      <trkpt lat="47.05356" lon="-1.87203">
        <ele>24</ele>
        <time>2022-08-19T20:30:08Z</time>
      </trkpt>
      <trkpt lat="47.05344" lon="-1.87204">
        <ele>24.2</ele>
        <time>2022-08-19T20:30:10Z</time>
      </trkpt>
      <trkpt lat="47.05306" lon="-1.87208">
        <ele>24.6</ele>
        <time>2022-08-19T20:30:17Z</time>
      </trkpt>
      <trkpt lat="47.05287" lon="-1.87208">
        <ele>24.8</ele>
        <time>2022-08-19T20:30:21Z</time>
      </trkpt>
      <trkpt lat="47.05282" lon="-1.87206">
        <ele>24.8</ele>
        <time>2022-08-19T20:30:22Z</time>
      </trkpt>
      <trkpt lat="47.05278" lon="-1.87202">
        <ele>25</ele>
        <time>2022-08-19T20:30:23Z</time>
      </trkpt>
      <trkpt lat="47.05272" lon="-1.87192">
        <ele>25.2</ele>
        <time>2022-08-19T20:30:25Z</time>
      </trkpt>
      <trkpt lat="47.05262" lon="-1.87159">
        <ele>25.2</ele>
        <time>2022-08-19T20:30:30Z</time>
      </trkpt>
      <trkpt lat="47.05249" lon="-1.87105">
        <ele>25.4</ele>
        <time>2022-08-19T20:30:37Z</time>
      </trkpt>
      <trkpt lat="47.05248" lon="-1.87089">
        <ele>25.2</ele>
        <time>2022-08-19T20:30:39Z</time>
      </trkpt>
      <trkpt lat="47.05248" lon="-1.87083">
        <ele>25.2</ele>
        <time>2022-08-19T20:30:40Z</time>
      </trkpt>
      <trkpt lat="47.05248" lon="-1.87075">
        <ele>25.2</ele>
        <time>2022-08-19T20:30:41Z</time>
      </trkpt>
      <trkpt lat="47.05247" lon="-1.87059">
        <ele>25.2</ele>
        <time>2022-08-19T20:30:43Z</time>
      </trkpt>
      <trkpt lat="47.05247" lon="-1.8705">
        <ele>25.2</ele>
        <time>2022-08-19T20:30:44Z</time>
      </trkpt>
      <trkpt lat="47.05246" lon="-1.87042">
        <ele>25.2</ele>
        <time>2022-08-19T20:30:45Z</time>
      </trkpt>
      <trkpt lat="47.05243" lon="-1.87027">
        <ele>25.4</ele>
        <time>2022-08-19T20:30:47Z</time>
      </trkpt>
      <trkpt lat="47.05242" lon="-1.8702">
        <ele>25.4</ele>
        <time>2022-08-19T20:30:48Z</time>
      </trkpt>
      <trkpt lat="47.05225" lon="-1.86971">
        <ele>26</ele>
        <time>2022-08-19T20:30:55Z</time>
      </trkpt>
      <trkpt lat="47.05201" lon="-1.86908">
        <ele>26.8</ele>
        <time>2022-08-19T20:31:04Z</time>
      </trkpt>
      <trkpt lat="47.05184" lon="-1.86866">
        <ele>27</ele>
        <time>2022-08-19T20:31:10Z</time>
      </trkpt>
      <trkpt lat="47.05161" lon="-1.8681">
        <ele>27.4</ele>
        <time>2022-08-19T20:31:18Z</time>
      </trkpt>
      <trkpt lat="47.05152" lon="-1.86788">
        <ele>27.6</ele>
        <time>2022-08-19T20:31:21Z</time>
      </trkpt>
      <trkpt lat="47.05141" lon="-1.86767">
        <ele>27.8</ele>
        <time>2022-08-19T20:31:24Z</time>
      </trkpt>
      <trkpt lat="47.05115" lon="-1.86709">
        <ele>28.6</ele>
        <time>2022-08-19T20:31:32Z</time>
      </trkpt>
      <trkpt lat="47.05099" lon="-1.86654">
        <ele>29</ele>
        <time>2022-08-19T20:31:39Z</time>
      </trkpt>
      <trkpt lat="47.05081" lon="-1.86582">
        <ele>29.8</ele>
        <time>2022-08-19T20:31:48Z</time>
      </trkpt>
      <trkpt lat="47.05065" lon="-1.86515">
        <ele>30.6</ele>
        <time>2022-08-19T20:31:56Z</time>
      </trkpt>
      <trkpt lat="47.05052" lon="-1.86441">
        <ele>31.4</ele>
        <time>2022-08-19T20:32:05Z</time>
      </trkpt>
      <trkpt lat="47.05051" lon="-1.86434">
        <ele>31.4</ele>
        <time>2022-08-19T20:32:06Z</time>
      </trkpt>
      <trkpt lat="47.05043" lon="-1.86425">
        <ele>31.6</ele>
        <time>2022-08-19T20:32:08Z</time>
      </trkpt>
      <trkpt lat="47.05033" lon="-1.86423">
        <ele>31.6</ele>
        <time>2022-08-19T20:32:10Z</time>
      </trkpt>
      <trkpt lat="47.05028" lon="-1.86424">
        <ele>31.6</ele>
        <time>2022-08-19T20:32:11Z</time>
      </trkpt>
      <trkpt lat="47.04982" lon="-1.86432">
        <ele>32.2</ele>
        <time>2022-08-19T20:32:19Z</time>
      </trkpt>
      <trkpt lat="47.0497" lon="-1.86433">
        <ele>32.2</ele>
        <time>2022-08-19T20:32:21Z</time>
      </trkpt>
      <trkpt lat="47.04952" lon="-1.86431">
        <ele>32.4</ele>
        <time>2022-08-19T20:32:24Z</time>
      </trkpt>
      <trkpt lat="47.04914" lon="-1.86423">
        <ele>32.8</ele>
        <time>2022-08-19T20:32:30Z</time>
      </trkpt>
      <trkpt lat="47.04878" lon="-1.86415">
        <ele>33</ele>
        <time>2022-08-19T20:32:36Z</time>
      </trkpt>
      <trkpt lat="47.04836" lon="-1.86399">
        <ele>33.2</ele>
        <time>2022-08-19T20:32:43Z</time>
      </trkpt>
      <trkpt lat="47.04781" lon="-1.86377">
        <ele>33.6</ele>
        <time>2022-08-19T20:32:52Z</time>
      </trkpt>
      <trkpt lat="47.04732" lon="-1.86361">
        <ele>34</ele>
        <time>2022-08-19T20:33:00Z</time>
      </trkpt>
      <trkpt lat="47.04691" lon="-1.86347">
        <ele>34.4</ele>
        <time>2022-08-19T20:33:07Z</time>
      </trkpt>
      <trkpt lat="47.04682" lon="-1.86344">
        <ele>34.4</ele>
        <time>2022-08-19T20:33:09Z</time>
      </trkpt>
      <trkpt lat="47.04678" lon="-1.86346">
        <ele>34.4</ele>
        <time>2022-08-19T20:33:10Z</time>
      </trkpt>
      <trkpt lat="47.04675" lon="-1.86349">
        <ele>34.4</ele>
        <time>2022-08-19T20:33:11Z</time>
      </trkpt>
      <trkpt lat="47.04672" lon="-1.86359">
        <ele>34.6</ele>
        <time>2022-08-19T20:33:13Z</time>
      </trkpt>
      <trkpt lat="47.04668" lon="-1.86371">
        <ele>34.6</ele>
        <time>2022-08-19T20:33:15Z</time>
      </trkpt>
      <trkpt lat="47.04666" lon="-1.86385">
        <ele>34.8</ele>
        <time>2022-08-19T20:33:17Z</time>
      </trkpt>
      <trkpt lat="47.04665" lon="-1.864">
        <ele>34.8</ele>
        <time>2022-08-19T20:33:19Z</time>
      </trkpt>
      <trkpt lat="47.04667" lon="-1.86422">
        <ele>35</ele>
        <time>2022-08-19T20:33:22Z</time>
      </trkpt>
      <trkpt lat="47.04667" lon="-1.8643">
        <ele>35</ele>
        <time>2022-08-19T20:33:23Z</time>
      </trkpt>
      <trkpt lat="47.04671" lon="-1.8647">
        <ele>35.2</ele>
        <time>2022-08-19T20:33:28Z</time>
      </trkpt>
      <trkpt lat="47.04672" lon="-1.86477">
        <ele>35.4</ele>
        <time>2022-08-19T20:33:29Z</time>
      </trkpt>
      <trkpt lat="47.04673" lon="-1.86509">
        <ele>35.6</ele>
        <time>2022-08-19T20:33:33Z</time>
      </trkpt>
      <trkpt lat="47.04673" lon="-1.86566">
        <ele>35.8</ele>
        <time>2022-08-19T20:33:40Z</time>
      </trkpt>
      <trkpt lat="47.04678" lon="-1.86622">
        <ele>35.8</ele>
        <time>2022-08-19T20:33:47Z</time>
      </trkpt>
      <trkpt lat="47.04686" lon="-1.86679">
        <ele>36</ele>
        <time>2022-08-19T20:33:54Z</time>
      </trkpt>
      <trkpt lat="47.04693" lon="-1.86743">
        <ele>36.2</ele>
        <time>2022-08-19T20:34:02Z</time>
      </trkpt>
      <trkpt lat="47.04691" lon="-1.8679">
        <ele>36.2</ele>
        <time>2022-08-19T20:34:08Z</time>
      </trkpt>
      <trkpt lat="47.04686" lon="-1.8682">
        <ele>36.2</ele>
        <time>2022-08-19T20:34:12Z</time>
      </trkpt>
      <trkpt lat="47.04681" lon="-1.86834">
        <ele>36.4</ele>
        <time>2022-08-19T20:34:14Z</time>
      </trkpt>
      <trkpt lat="47.04666" lon="-1.86864">
        <ele>36.4</ele>
        <time>2022-08-19T20:34:19Z</time>
      </trkpt>
      <trkpt lat="47.0466" lon="-1.86877">
        <ele>36.4</ele>
        <time>2022-08-19T20:34:21Z</time>
      </trkpt>
      <trkpt lat="47.04645" lon="-1.86909">
        <ele>36</ele>
        <time>2022-08-19T20:34:26Z</time>
      </trkpt>
      <trkpt lat="47.04621" lon="-1.86966">
        <ele>35.6</ele>
        <time>2022-08-19T20:34:34Z</time>
      </trkpt>
      <trkpt lat="47.046" lon="-1.87026">
        <ele>35.2</ele>
        <time>2022-08-19T20:34:42Z</time>
      </trkpt>
      <trkpt lat="47.0459" lon="-1.87075">
        <ele>35.2</ele>
        <time>2022-08-19T20:34:48Z</time>
      </trkpt>
      <trkpt lat="47.04583" lon="-1.87115">
        <ele>35</ele>
        <time>2022-08-19T20:34:53Z</time>
      </trkpt>
      <trkpt lat="47.04581" lon="-1.8713">
        <ele>35</ele>
        <time>2022-08-19T20:34:55Z</time>
      </trkpt>
      <trkpt lat="47.04571" lon="-1.87203">
        <ele>34.8</ele>
        <time>2022-08-19T20:35:04Z</time>
      </trkpt>
      <trkpt lat="47.04569" lon="-1.87226">
        <ele>34.8</ele>
        <time>2022-08-19T20:35:07Z</time>
      </trkpt>
      <trkpt lat="47.04569" lon="-1.87242">
        <ele>34.8</ele>
        <time>2022-08-19T20:35:09Z</time>
      </trkpt>
      <trkpt lat="47.04569" lon="-1.8725">
        <ele>34.8</ele>
        <time>2022-08-19T20:35:10Z</time>
      </trkpt>
      <trkpt lat="47.04567" lon="-1.87275">
        <ele>34.6</ele>
        <time>2022-08-19T20:35:13Z</time>
      </trkpt>
      <trkpt lat="47.04566" lon="-1.87283">
        <ele>34.6</ele>
        <time>2022-08-19T20:35:14Z</time>
      </trkpt>
      <trkpt lat="47.04562" lon="-1.87325">
        <ele>34.4</ele>
        <time>2022-08-19T20:35:19Z</time>
      </trkpt>
      <trkpt lat="47.04561" lon="-1.87334">
        <ele>34.4</ele>
        <time>2022-08-19T20:35:20Z</time>
      </trkpt>
      <trkpt lat="47.0456" lon="-1.87342">
        <ele>34.4</ele>
        <time>2022-08-19T20:35:21Z</time>
      </trkpt>
      <trkpt lat="47.04552" lon="-1.87371">
        <ele>34.2</ele>
        <time>2022-08-19T20:35:25Z</time>
      </trkpt>
      <trkpt lat="47.04544" lon="-1.87381">
        <ele>34.2</ele>
        <time>2022-08-19T20:35:27Z</time>
      </trkpt>
      <trkpt lat="47.0453" lon="-1.87395">
        <ele>33.8</ele>
        <time>2022-08-19T20:35:30Z</time>
      </trkpt>
      <trkpt lat="47.04515" lon="-1.87408">
        <ele>33.8</ele>
        <time>2022-08-19T20:35:33Z</time>
      </trkpt>
      <trkpt lat="47.04506" lon="-1.87418">
        <ele>33.8</ele>
        <time>2022-08-19T20:35:35Z</time>
      </trkpt>
      <trkpt lat="47.04476" lon="-1.8745">
        <ele>34</ele>
        <time>2022-08-19T20:35:42Z</time>
      </trkpt>
      <trkpt lat="47.04471" lon="-1.8746">
        <ele>34</ele>
        <time>2022-08-19T20:35:44Z</time>
      </trkpt>
      <trkpt lat="47.04473" lon="-1.87471">
        <ele>34</ele>
        <time>2022-08-19T20:35:46Z</time>
      </trkpt>
      <trkpt lat="47.04477" lon="-1.87481">
        <ele>33.8</ele>
        <time>2022-08-19T20:35:48Z</time>
      </trkpt>
      <trkpt lat="47.04483" lon="-1.87493">
        <ele>33.8</ele>
        <time>2022-08-19T20:35:50Z</time>
      </trkpt>
      <trkpt lat="47.04492" lon="-1.8751">
        <ele>33.8</ele>
        <time>2022-08-19T20:35:53Z</time>
      </trkpt>
      <trkpt lat="47.04495" lon="-1.87516">
        <ele>33.8</ele>
        <time>2022-08-19T20:35:54Z</time>
      </trkpt>
      <trkpt lat="47.04499" lon="-1.87522">
        <ele>33.8</ele>
        <time>2022-08-19T20:35:55Z</time>
      </trkpt>
      <trkpt lat="47.04512" lon="-1.87549">
        <ele>33.6</ele>
        <time>2022-08-19T20:35:59Z</time>
      </trkpt>
      <trkpt lat="47.04541" lon="-1.876">
        <ele>33.2</ele>
        <time>2022-08-19T20:36:07Z</time>
      </trkpt>
      <trkpt lat="47.04548" lon="-1.87613">
        <ele>33.2</ele>
        <time>2022-08-19T20:36:09Z</time>
      </trkpt>
      <trkpt lat="47.0456" lon="-1.87631">
        <ele>33</ele>
        <time>2022-08-19T20:36:12Z</time>
      </trkpt>
      <trkpt lat="47.04583" lon="-1.87667">
        <ele>33.2</ele>
        <time>2022-08-19T20:36:18Z</time>
      </trkpt>
      <trkpt lat="47.04612" lon="-1.87722">
        <ele>33.2</ele>
        <time>2022-08-19T20:36:26Z</time>
      </trkpt>
      <trkpt lat="47.0464" lon="-1.87782">
        <ele>33</ele>
        <time>2022-08-19T20:36:34Z</time>
      </trkpt>
      <trkpt lat="47.04662" lon="-1.87829">
        <ele>32.8</ele>
        <time>2022-08-19T20:36:40Z</time>
      </trkpt>
      <trkpt lat="47.04696" lon="-1.87899">
        <ele>32.6</ele>
        <time>2022-08-19T20:36:49Z</time>
      </trkpt>
      <trkpt lat="47.0473" lon="-1.87968">
        <ele>32.4</ele>
        <time>2022-08-19T20:36:58Z</time>
      </trkpt>
      <trkpt lat="47.04737" lon="-1.87983">
        <ele>32.4</ele>
        <time>2022-08-19T20:37:00Z</time>
      </trkpt>
      <trkpt lat="47.0476" lon="-1.88029">
        <ele>32.2</ele>
        <time>2022-08-19T20:37:06Z</time>
      </trkpt>
      <trkpt lat="47.04795" lon="-1.88088">
        <ele>31.8</ele>
        <time>2022-08-19T20:37:14Z</time>
      </trkpt>
      <trkpt lat="47.04822" lon="-1.88134">
        <ele>31.6</ele>
        <time>2022-08-19T20:37:20Z</time>
      </trkpt>
      <trkpt lat="47.04832" lon="-1.88148">
        <ele>31.4</ele>
        <time>2022-08-19T20:37:22Z</time>
      </trkpt>
      <trkpt lat="47.04847" lon="-1.88169">
        <ele>31.2</ele>
        <time>2022-08-19T20:37:25Z</time>
      </trkpt>
      <trkpt lat="47.04852" lon="-1.88177">
        <ele>31</ele>
        <time>2022-08-19T20:37:26Z</time>
      </trkpt>
      <trkpt lat="47.04872" lon="-1.88217">
        <ele>30.4</ele>
        <time>2022-08-19T20:37:31Z</time>
      </trkpt>
      <trkpt lat="47.04902" lon="-1.88277">
        <ele>29.4</ele>
        <time>2022-08-19T20:37:38Z</time>
      </trkpt>
      <trkpt lat="47.04925" lon="-1.88326">
        <ele>28.8</ele>
        <time>2022-08-19T20:37:44Z</time>
      </trkpt>
      <trkpt lat="47.04948" lon="-1.8838">
        <ele>28.2</ele>
        <time>2022-08-19T20:37:50Z</time>
      </trkpt>
      <trkpt lat="47.04964" lon="-1.88414">
        <ele>28</ele>
        <time>2022-08-19T20:37:54Z</time>
      </trkpt>
      <trkpt lat="47.04969" lon="-1.88423">
        <ele>27.8</ele>
        <time>2022-08-19T20:37:55Z</time>
      </trkpt>
      <trkpt lat="47.04987" lon="-1.88468">
        <ele>27.8</ele>
        <time>2022-08-19T20:38:00Z</time>
      </trkpt>
      <trkpt lat="47.05013" lon="-1.88529">
        <ele>28</ele>
        <time>2022-08-19T20:38:07Z</time>
      </trkpt>
      <trkpt lat="47.05041" lon="-1.88599">
        <ele>28.2</ele>
        <time>2022-08-19T20:38:15Z</time>
      </trkpt>
      <trkpt lat="47.05075" lon="-1.88672">
        <ele>28.4</ele>
        <time>2022-08-19T20:38:24Z</time>
      </trkpt>
      <trkpt lat="47.05105" lon="-1.88713">
        <ele>28.4</ele>
        <time>2022-08-19T20:38:30Z</time>
      </trkpt>
      <trkpt lat="47.05137" lon="-1.88748">
        <ele>28.6</ele>
        <time>2022-08-19T20:38:36Z</time>
      </trkpt>
      <trkpt lat="47.05171" lon="-1.8878">
        <ele>28.6</ele>
        <time>2022-08-19T20:38:42Z</time>
      </trkpt>
      <trkpt lat="47.05205" lon="-1.88812">
        <ele>28.6</ele>
        <time>2022-08-19T20:38:48Z</time>
      </trkpt>
      <trkpt lat="47.05244" lon="-1.88849">
        <ele>28.4</ele>
        <time>2022-08-19T20:38:55Z</time>
      </trkpt>
      <trkpt lat="47.05283" lon="-1.88885">
        <ele>28.2</ele>
        <time>2022-08-19T20:39:02Z</time>
      </trkpt>
      <trkpt lat="47.05322" lon="-1.88921">
        <ele>28</ele>
        <time>2022-08-19T20:39:09Z</time>
      </trkpt>
      <trkpt lat="47.05362" lon="-1.88959">
        <ele>27.8</ele>
        <time>2022-08-19T20:39:16Z</time>
      </trkpt>
      <trkpt lat="47.05403" lon="-1.88997">
        <ele>27.4</ele>
        <time>2022-08-19T20:39:23Z</time>
      </trkpt>
      <trkpt lat="47.05438" lon="-1.8903">
        <ele>27</ele>
        <time>2022-08-19T20:39:29Z</time>
      </trkpt>
      <trkpt lat="47.05481" lon="-1.89071">
        <ele>26.8</ele>
        <time>2022-08-19T20:39:36Z</time>
      </trkpt>
      <trkpt lat="47.05527" lon="-1.89112">
        <ele>26.8</ele>
        <time>2022-08-19T20:39:44Z</time>
      </trkpt>
      <trkpt lat="47.05562" lon="-1.89141">
        <ele>26.8</ele>
        <time>2022-08-19T20:39:50Z</time>
      </trkpt>
      <trkpt lat="47.0558" lon="-1.89155">
        <ele>26.6</ele>
        <time>2022-08-19T20:39:53Z</time>
      </trkpt>
      <trkpt lat="47.05592" lon="-1.89164">
        <ele>26.4</ele>
        <time>2022-08-19T20:39:55Z</time>
      </trkpt>
      <trkpt lat="47.05627" lon="-1.89194">
        <ele>26</ele>
        <time>2022-08-19T20:40:01Z</time>
      </trkpt>
      <trkpt lat="47.05638" lon="-1.89205">
        <ele>25.8</ele>
        <time>2022-08-19T20:40:03Z</time>
      </trkpt>
      <trkpt lat="47.05651" lon="-1.89214">
        <ele>25.8</ele>
        <time>2022-08-19T20:40:05Z</time>
      </trkpt>
      <trkpt lat="47.05656" lon="-1.8922">
        <ele>25.6</ele>
        <time>2022-08-19T20:40:06Z</time>
      </trkpt>
      <trkpt lat="47.05667" lon="-1.89231">
        <ele>25.6</ele>
        <time>2022-08-19T20:40:08Z</time>
      </trkpt>
      <trkpt lat="47.05678" lon="-1.89241">
        <ele>25.4</ele>
        <time>2022-08-19T20:40:10Z</time>
      </trkpt>
      <trkpt lat="47.05711" lon="-1.8927">
        <ele>25</ele>
        <time>2022-08-19T20:40:16Z</time>
      </trkpt>
      <trkpt lat="47.05733" lon="-1.89295">
        <ele>24.6</ele>
        <time>2022-08-19T20:40:21Z</time>
      </trkpt>
      <trkpt lat="47.05752" lon="-1.89312">
        <ele>24.8</ele>
        <time>2022-08-19T20:40:26Z</time>
      </trkpt>
      <trkpt lat="47.05756" lon="-1.89315">
        <ele>25</ele>
        <time>2022-08-19T20:40:27Z</time>
      </trkpt>
      <trkpt lat="47.05777" lon="-1.89338">
        <ele>24.4</ele>
        <time>2022-08-19T20:40:33Z</time>
      </trkpt>
      <trkpt lat="47.05801" lon="-1.8936">
        <ele>24.6</ele>
        <time>2022-08-19T20:40:38Z</time>
      </trkpt>
      <trkpt lat="47.05826" lon="-1.89381">
        <ele>25</ele>
        <time>2022-08-19T20:40:43Z</time>
      </trkpt>
      <trkpt lat="47.05852" lon="-1.89405">
        <ele>25</ele>
        <time>2022-08-19T20:40:48Z</time>
      </trkpt>
      <trkpt lat="47.05869" lon="-1.89418">
        <ele>24.6</ele>
        <time>2022-08-19T20:40:51Z</time>
      </trkpt>
      <trkpt lat="47.0588" lon="-1.89427">
        <ele>24.6</ele>
        <time>2022-08-19T20:40:53Z</time>
      </trkpt>
      <trkpt lat="47.05918" lon="-1.89461">
        <ele>24.4</ele>
        <time>2022-08-19T20:41:00Z</time>
      </trkpt>
      <trkpt lat="47.05951" lon="-1.89492">
        <ele>24.4</ele>
        <time>2022-08-19T20:41:06Z</time>
      </trkpt>
      <trkpt lat="47.05984" lon="-1.89523">
        <ele>24.4</ele>
        <time>2022-08-19T20:41:12Z</time>
      </trkpt>
      <trkpt lat="47.05995" lon="-1.89533">
        <ele>24.4</ele>
        <time>2022-08-19T20:41:14Z</time>
      </trkpt>
      <trkpt lat="47.06011" lon="-1.8955">
        <ele>24.2</ele>
        <time>2022-08-19T20:41:17Z</time>
      </trkpt>
      <trkpt lat="47.06022" lon="-1.89561">
        <ele>24.2</ele>
        <time>2022-08-19T20:41:19Z</time>
      </trkpt>
      <trkpt lat="47.06032" lon="-1.89572">
        <ele>24.2</ele>
        <time>2022-08-19T20:41:21Z</time>
      </trkpt>
      <trkpt lat="47.06069" lon="-1.89612">
        <ele>24.4</ele>
        <time>2022-08-19T20:41:28Z</time>
      </trkpt>
      <trkpt lat="47.06102" lon="-1.89643">
        <ele>24.4</ele>
        <time>2022-08-19T20:41:34Z</time>
      </trkpt>
      <trkpt lat="47.06132" lon="-1.89667">
        <ele>24.4</ele>
        <time>2022-08-19T20:41:39Z</time>
      </trkpt>
      <trkpt lat="47.06138" lon="-1.89672">
        <ele>24.2</ele>
        <time>2022-08-19T20:41:40Z</time>
      </trkpt>
      <trkpt lat="47.06161" lon="-1.89689">
        <ele>24.4</ele>
        <time>2022-08-19T20:41:44Z</time>
      </trkpt>
      <trkpt lat="47.06202" lon="-1.89719">
        <ele>24.4</ele>
        <time>2022-08-19T20:41:51Z</time>
      </trkpt>
      <trkpt lat="47.06255" lon="-1.89759">
        <ele>24.2</ele>
        <time>2022-08-19T20:42:00Z</time>
      </trkpt>
      <trkpt lat="47.06293" lon="-1.89801">
        <ele>24</ele>
        <time>2022-08-19T20:42:07Z</time>
      </trkpt>
      <trkpt lat="47.06335" lon="-1.89856">
        <ele>24</ele>
        <time>2022-08-19T20:42:15Z</time>
      </trkpt>
      <trkpt lat="47.0634" lon="-1.89862">
        <ele>24.2</ele>
        <time>2022-08-19T20:42:16Z</time>
      </trkpt>
      <trkpt lat="47.06381" lon="-1.89916">
        <ele>24.4</ele>
        <time>2022-08-19T20:42:24Z</time>
      </trkpt>
      <trkpt lat="47.06391" lon="-1.8993">
        <ele>24.4</ele>
        <time>2022-08-19T20:42:26Z</time>
      </trkpt>
      <trkpt lat="47.06432" lon="-1.89982">
        <ele>24.4</ele>
        <time>2022-08-19T20:42:34Z</time>
      </trkpt>
      <trkpt lat="47.06471" lon="-1.9002">
        <ele>24</ele>
        <time>2022-08-19T20:42:41Z</time>
      </trkpt>
      <trkpt lat="47.06509" lon="-1.90058">
        <ele>24</ele>
        <time>2022-08-19T20:42:48Z</time>
      </trkpt>
      <trkpt lat="47.06545" lon="-1.90097">
        <ele>23.8</ele>
        <time>2022-08-19T20:42:55Z</time>
      </trkpt>
      <trkpt lat="47.06583" lon="-1.9015">
        <ele>24</ele>
        <time>2022-08-19T20:43:03Z</time>
      </trkpt>
      <trkpt lat="47.06619" lon="-1.90205">
        <ele>23.6</ele>
        <time>2022-08-19T20:43:11Z</time>
      </trkpt>
      <trkpt lat="47.06657" lon="-1.90262">
        <ele>23.6</ele>
        <time>2022-08-19T20:43:19Z</time>
      </trkpt>
      <trkpt lat="47.06662" lon="-1.90269">
        <ele>23.8</ele>
        <time>2022-08-19T20:43:20Z</time>
      </trkpt>
      <trkpt lat="47.06702" lon="-1.90327">
        <ele>23.6</ele>
        <time>2022-08-19T20:43:28Z</time>
      </trkpt>
      <trkpt lat="47.06745" lon="-1.90382">
        <ele>23.6</ele>
        <time>2022-08-19T20:43:36Z</time>
      </trkpt>
      <trkpt lat="47.06756" lon="-1.90396">
        <ele>23.6</ele>
        <time>2022-08-19T20:43:38Z</time>
      </trkpt>
      <trkpt lat="47.06792" lon="-1.90441">
        <ele>23.2</ele>
        <time>2022-08-19T20:43:45Z</time>
      </trkpt>
      <trkpt lat="47.06819" lon="-1.90473">
        <ele>22.8</ele>
        <time>2022-08-19T20:43:51Z</time>
      </trkpt>
      <trkpt lat="47.06844" lon="-1.90499">
        <ele>22.8</ele>
        <time>2022-08-19T20:43:57Z</time>
      </trkpt>
      <trkpt lat="47.06864" lon="-1.90514">
        <ele>22.6</ele>
        <time>2022-08-19T20:44:03Z</time>
      </trkpt>
      <trkpt lat="47.06883" lon="-1.90526">
        <ele>22.8</ele>
        <time>2022-08-19T20:44:09Z</time>
      </trkpt>
      <trkpt lat="47.06901" lon="-1.90543">
        <ele>22.6</ele>
        <time>2022-08-19T20:44:14Z</time>
      </trkpt>
      <trkpt lat="47.06915" lon="-1.90551">
        <ele>22.6</ele>
        <time>2022-08-19T20:44:17Z</time>
      </trkpt>
      <trkpt lat="47.0693" lon="-1.9056">
        <ele>22.6</ele>
        <time>2022-08-19T20:44:20Z</time>
      </trkpt>
      <trkpt lat="47.06964" lon="-1.90577">
        <ele>22.6</ele>
        <time>2022-08-19T20:44:27Z</time>
      </trkpt>
      <trkpt lat="47.07003" lon="-1.90597">
        <ele>22.8</ele>
        <time>2022-08-19T20:44:34Z</time>
      </trkpt>
      <trkpt lat="47.07042" lon="-1.90618">
        <ele>22.6</ele>
        <time>2022-08-19T20:44:40Z</time>
      </trkpt>
      <trkpt lat="47.07087" lon="-1.90644">
        <ele>22.6</ele>
        <time>2022-08-19T20:44:47Z</time>
      </trkpt>
      <trkpt lat="47.07124" lon="-1.90669">
        <ele>22.6</ele>
        <time>2022-08-19T20:44:53Z</time>
      </trkpt>
      <trkpt lat="47.07168" lon="-1.90699">
        <ele>22.4</ele>
        <time>2022-08-19T20:45:00Z</time>
      </trkpt>
      <trkpt lat="47.07213" lon="-1.9074">
        <ele>22.2</ele>
        <time>2022-08-19T20:45:08Z</time>
      </trkpt>
      <trkpt lat="47.07251" lon="-1.90781">
        <ele>22</ele>
        <time>2022-08-19T20:45:15Z</time>
      </trkpt>
      <trkpt lat="47.07298" lon="-1.90832">
        <ele>22</ele>
        <time>2022-08-19T20:45:24Z</time>
      </trkpt>
      <trkpt lat="47.07306" lon="-1.90843">
        <ele>22</ele>
        <time>2022-08-19T20:45:26Z</time>
      </trkpt>
      <trkpt lat="47.07308" lon="-1.90848">
        <ele>22</ele>
        <time>2022-08-19T20:45:27Z</time>
      </trkpt>
      <trkpt lat="47.07307" lon="-1.90852">
        <ele>22.2</ele>
        <time>2022-08-19T20:45:28Z</time>
      </trkpt>
      <trkpt lat="47.073" lon="-1.90857">
        <ele>22</ele>
        <time>2022-08-19T20:45:30Z</time>
      </trkpt>
      <trkpt lat="47.07277" lon="-1.90869">
        <ele>22</ele>
        <time>2022-08-19T20:45:36Z</time>
      </trkpt>
      <trkpt lat="47.07261" lon="-1.90878">
        <ele>22</ele>
        <time>2022-08-19T20:45:40Z</time>
      </trkpt>
      <trkpt lat="47.0724" lon="-1.9089">
        <ele>22</ele>
        <time>2022-08-19T20:45:45Z</time>
      </trkpt>
      <trkpt lat="47.07222" lon="-1.909">
        <ele>21.8</ele>
        <time>2022-08-19T20:45:49Z</time>
      </trkpt>
      <trkpt lat="47.07212" lon="-1.90905">
        <ele>21.8</ele>
        <time>2022-08-19T20:45:51Z</time>
      </trkpt>
      <trkpt lat="47.0718" lon="-1.90921">
        <ele>22</ele>
        <time>2022-08-19T20:45:57Z</time>
      </trkpt>
      <trkpt lat="47.0716" lon="-1.90932">
        <ele>22</ele>
        <time>2022-08-19T20:46:02Z</time>
      </trkpt>
      <trkpt lat="47.07149" lon="-1.9094">
        <ele>22</ele>
        <time>2022-08-19T20:46:07Z</time>
      </trkpt>
      <trkpt lat="47.07148" lon="-1.90939">
        <ele>22.2</ele>
        <time>2022-08-19T20:46:08Z</time>
      </trkpt>
      <trkpt lat="47.0714" lon="-1.90942">
        <ele>23.8</ele>
        <time>2022-08-19T20:50:05Z</time>
      </trkpt>
      <trkpt lat="47.07136" lon="-1.90945">
        <ele>23.8</ele>
        <time>2022-08-19T20:50:07Z</time>
      </trkpt>
      <trkpt lat="47.07117" lon="-1.90953">
        <ele>23.6</ele>
        <time>2022-08-19T20:50:13Z</time>
      </trkpt>
      <trkpt lat="47.07097" lon="-1.90963">
        <ele>23.4</ele>
        <time>2022-08-19T20:50:18Z</time>
      </trkpt>
      <trkpt lat="47.07075" lon="-1.90975">
        <ele>23.2</ele>
        <time>2022-08-19T20:50:23Z</time>
      </trkpt>
      <trkpt lat="47.07057" lon="-1.90983">
        <ele>23.2</ele>
        <time>2022-08-19T20:50:28Z</time>
      </trkpt>
      <trkpt lat="47.07039" lon="-1.90992">
        <ele>23.2</ele>
        <time>2022-08-19T20:50:34Z</time>
      </trkpt>
      <trkpt lat="47.07024" lon="-1.91">
        <ele>23</ele>
        <time>2022-08-19T20:50:39Z</time>
      </trkpt>
      <trkpt lat="47.07011" lon="-1.91008">
        <ele>23</ele>
        <time>2022-08-19T20:50:44Z</time>
      </trkpt>
      <trkpt lat="47.06995" lon="-1.9102">
        <ele>22.8</ele>
        <time>2022-08-19T20:50:50Z</time>
      </trkpt>
      <trkpt lat="47.0698" lon="-1.91029">
        <ele>23</ele>
        <time>2022-08-19T20:50:55Z</time>
      </trkpt>
      <trkpt lat="47.06964" lon="-1.91039">
        <ele>23</ele>
        <time>2022-08-19T20:51:00Z</time>
      </trkpt>
      <trkpt lat="47.06949" lon="-1.91047">
        <ele>23</ele>
        <time>2022-08-19T20:51:05Z</time>
      </trkpt>
      <trkpt lat="47.06935" lon="-1.91053">
        <ele>23.2</ele>
        <time>2022-08-19T20:51:09Z</time>
      </trkpt>
      <trkpt lat="47.06916" lon="-1.91062">
        <ele>23.2</ele>
        <time>2022-08-19T20:51:14Z</time>
      </trkpt>
      <trkpt lat="47.06896" lon="-1.91068">
        <ele>23.4</ele>
        <time>2022-08-19T20:51:19Z</time>
      </trkpt>
      <trkpt lat="47.06877" lon="-1.91072">
        <ele>23.6</ele>
        <time>2022-08-19T20:51:24Z</time>
      </trkpt>
      <trkpt lat="47.06854" lon="-1.91076">
        <ele>23.8</ele>
        <time>2022-08-19T20:51:29Z</time>
      </trkpt>
      <trkpt lat="47.06823" lon="-1.91079">
        <ele>24</ele>
        <time>2022-08-19T20:51:35Z</time>
      </trkpt>
      <trkpt lat="47.06785" lon="-1.9108">
        <ele>24</ele>
        <time>2022-08-19T20:51:43Z</time>
      </trkpt>
      <trkpt lat="47.06781" lon="-1.91082">
        <ele>24</ele>
        <time>2022-08-19T20:51:44Z</time>
      </trkpt>
      <trkpt lat="47.06775" lon="-1.9109">
        <ele>24.2</ele>
        <time>2022-08-19T20:51:46Z</time>
      </trkpt>
      <trkpt lat="47.06772" lon="-1.91101">
        <ele>24.2</ele>
        <time>2022-08-19T20:51:48Z</time>
      </trkpt>
      <trkpt lat="47.06769" lon="-1.91119">
        <ele>24.2</ele>
        <time>2022-08-19T20:51:51Z</time>
      </trkpt>
      <trkpt lat="47.06762" lon="-1.9117">
        <ele>24.4</ele>
        <time>2022-08-19T20:51:59Z</time>
      </trkpt>
      <trkpt lat="47.06754" lon="-1.91226">
        <ele>24.8</ele>
        <time>2022-08-19T20:52:07Z</time>
      </trkpt>
      <trkpt lat="47.06743" lon="-1.91303">
        <ele>25.2</ele>
        <time>2022-08-19T20:52:17Z</time>
      </trkpt>
      <trkpt lat="47.06733" lon="-1.91364">
        <ele>25.4</ele>
        <time>2022-08-19T20:52:25Z</time>
      </trkpt>
      <trkpt lat="47.06724" lon="-1.91412">
        <ele>25.6</ele>
        <time>2022-08-19T20:52:31Z</time>
      </trkpt>
      <trkpt lat="47.06709" lon="-1.91487">
        <ele>25.6</ele>
        <time>2022-08-19T20:52:40Z</time>
      </trkpt>
      <trkpt lat="47.06695" lon="-1.91545">
        <ele>25.6</ele>
        <time>2022-08-19T20:52:47Z</time>
      </trkpt>
      <trkpt lat="47.06688" lon="-1.9157">
        <ele>25.4</ele>
        <time>2022-08-19T20:52:50Z</time>
      </trkpt>
      <trkpt lat="47.06682" lon="-1.91595">
        <ele>25.4</ele>
        <time>2022-08-19T20:52:53Z</time>
      </trkpt>
      <trkpt lat="47.06663" lon="-1.91662">
        <ele>25</ele>
        <time>2022-08-19T20:53:01Z</time>
      </trkpt>
      <trkpt lat="47.06647" lon="-1.91729">
        <ele>24.8</ele>
        <time>2022-08-19T20:53:09Z</time>
      </trkpt>
      <trkpt lat="47.06626" lon="-1.91807">
        <ele>24.4</ele>
        <time>2022-08-19T20:53:18Z</time>
      </trkpt>
      <trkpt lat="47.06624" lon="-1.91815">
        <ele>24.4</ele>
        <time>2022-08-19T20:53:19Z</time>
      </trkpt>
      <trkpt lat="47.06611" lon="-1.91869">
        <ele>24</ele>
        <time>2022-08-19T20:53:25Z</time>
      </trkpt>
      <trkpt lat="47.06605" lon="-1.91914">
        <ele>24</ele>
        <time>2022-08-19T20:53:30Z</time>
      </trkpt>
      <trkpt lat="47.06603" lon="-1.91923">
        <ele>24</ele>
        <time>2022-08-19T20:53:31Z</time>
      </trkpt>
      <trkpt lat="47.0659" lon="-1.91981">
        <ele>24</ele>
        <time>2022-08-19T20:53:38Z</time>
      </trkpt>
      <trkpt lat="47.06575" lon="-1.92039">
        <ele>24</ele>
        <time>2022-08-19T20:53:45Z</time>
      </trkpt>
      <trkpt lat="47.06571" lon="-1.92098">
        <ele>24</ele>
        <time>2022-08-19T20:53:52Z</time>
      </trkpt>
      <trkpt lat="47.06571" lon="-1.92106">
        <ele>24.2</ele>
        <time>2022-08-19T20:53:53Z</time>
      </trkpt>
      <trkpt lat="47.06567" lon="-1.92143">
        <ele>24.2</ele>
        <time>2022-08-19T20:53:58Z</time>
      </trkpt>
      <trkpt lat="47.0656" lon="-1.92179">
        <ele>24.2</ele>
        <time>2022-08-19T20:54:03Z</time>
      </trkpt>
      <trkpt lat="47.06557" lon="-1.92193">
        <ele>24.2</ele>
        <time>2022-08-19T20:54:05Z</time>
      </trkpt>
      <trkpt lat="47.06545" lon="-1.9224">
        <ele>24.2</ele>
        <time>2022-08-19T20:54:12Z</time>
      </trkpt>
      <trkpt lat="47.0654" lon="-1.92256">
        <ele>24.2</ele>
        <time>2022-08-19T20:54:15Z</time>
      </trkpt>
      <trkpt lat="47.06541" lon="-1.9226">
        <ele>24.2</ele>
        <time>2022-08-19T20:54:16Z</time>
      </trkpt>
      <trkpt lat="47.06543" lon="-1.92262">
        <ele>24.2</ele>
        <time>2022-08-19T20:54:17Z</time>
      </trkpt>
      <trkpt lat="47.0655" lon="-1.9226">
        <ele>24.2</ele>
        <time>2022-08-19T20:54:19Z</time>
      </trkpt>
      <trkpt lat="47.06576" lon="-1.92254">
        <ele>24.2</ele>
        <time>2022-08-19T20:54:25Z</time>
      </trkpt>
      <trkpt lat="47.06606" lon="-1.92249">
        <ele>24.4</ele>
        <time>2022-08-19T20:54:31Z</time>
      </trkpt>
      <trkpt lat="47.06631" lon="-1.92244">
        <ele>24.4</ele>
        <time>2022-08-19T20:54:36Z</time>
      </trkpt>
      <trkpt lat="47.06641" lon="-1.92243">
        <ele>24.4</ele>
        <time>2022-08-19T20:54:38Z</time>
      </trkpt>
      <trkpt lat="47.06655" lon="-1.92241">
        <ele>24.4</ele>
        <time>2022-08-19T20:54:41Z</time>
      </trkpt>
      <trkpt lat="47.06674" lon="-1.92237">
        <ele>24.4</ele>
        <time>2022-08-19T20:54:45Z</time>
      </trkpt>
      <trkpt lat="47.06709" lon="-1.92233">
        <ele>24.6</ele>
        <time>2022-08-19T20:54:52Z</time>
      </trkpt>
      <trkpt lat="47.06714" lon="-1.92231">
        <ele>24.6</ele>
        <time>2022-08-19T20:54:53Z</time>
      </trkpt>
      <trkpt lat="47.06745" lon="-1.92225">
        <ele>24.6</ele>
        <time>2022-08-19T20:54:59Z</time>
      </trkpt>
      <trkpt lat="47.06782" lon="-1.92215">
        <ele>24.6</ele>
        <time>2022-08-19T20:55:06Z</time>
      </trkpt>
      <trkpt lat="47.06813" lon="-1.92197">
        <ele>24.6</ele>
        <time>2022-08-19T20:55:12Z</time>
      </trkpt>
      <trkpt lat="47.06851" lon="-1.9217">
        <ele>24.4</ele>
        <time>2022-08-19T20:55:19Z</time>
      </trkpt>
      <trkpt lat="47.06897" lon="-1.92135">
        <ele>24</ele>
        <time>2022-08-19T20:55:27Z</time>
      </trkpt>
      <trkpt lat="47.06931" lon="-1.92109">
        <ele>23.6</ele>
        <time>2022-08-19T20:55:33Z</time>
      </trkpt>
      <trkpt lat="47.06943" lon="-1.92102">
        <ele>23.6</ele>
        <time>2022-08-19T20:55:35Z</time>
      </trkpt>
      <trkpt lat="47.06954" lon="-1.92095">
        <ele>23.4</ele>
        <time>2022-08-19T20:55:37Z</time>
      </trkpt>
      <trkpt lat="47.0696" lon="-1.9209">
        <ele>23.4</ele>
        <time>2022-08-19T20:55:38Z</time>
      </trkpt>
      <trkpt lat="47.06965" lon="-1.92086">
        <ele>23.4</ele>
        <time>2022-08-19T20:55:39Z</time>
      </trkpt>
      <trkpt lat="47.06981" lon="-1.92074">
        <ele>23.2</ele>
        <time>2022-08-19T20:55:42Z</time>
      </trkpt>
      <trkpt lat="47.06986" lon="-1.92069">
        <ele>23.2</ele>
        <time>2022-08-19T20:55:43Z</time>
      </trkpt>
      <trkpt lat="47.07021" lon="-1.92035">
        <ele>22.8</ele>
        <time>2022-08-19T20:55:50Z</time>
      </trkpt>
      <trkpt lat="47.07055" lon="-1.92003">
        <ele>22.6</ele>
        <time>2022-08-19T20:55:57Z</time>
      </trkpt>
      <trkpt lat="47.071" lon="-1.91963">
        <ele>22.2</ele>
        <time>2022-08-19T20:56:06Z</time>
      </trkpt>
      <trkpt lat="47.07136" lon="-1.91933">
        <ele>22</ele>
        <time>2022-08-19T20:56:13Z</time>
      </trkpt>
      <trkpt lat="47.07173" lon="-1.91902">
        <ele>21.8</ele>
        <time>2022-08-19T20:56:20Z</time>
      </trkpt>
      <trkpt lat="47.07204" lon="-1.91877">
        <ele>21.8</ele>
        <time>2022-08-19T20:56:26Z</time>
      </trkpt>
      <trkpt lat="47.0724" lon="-1.91845">
        <ele>21.8</ele>
        <time>2022-08-19T20:56:33Z</time>
      </trkpt>
      <trkpt lat="47.07271" lon="-1.91807">
        <ele>22.2</ele>
        <time>2022-08-19T20:56:40Z</time>
      </trkpt>
      <trkpt lat="47.07299" lon="-1.91761">
        <ele>22.2</ele>
        <time>2022-08-19T20:56:47Z</time>
      </trkpt>
      <trkpt lat="47.07335" lon="-1.917">
        <ele>22.4</ele>
        <time>2022-08-19T20:56:56Z</time>
      </trkpt>
      <trkpt lat="47.07366" lon="-1.91645">
        <ele>22.6</ele>
        <time>2022-08-19T20:57:04Z</time>
      </trkpt>
      <trkpt lat="47.07394" lon="-1.91596">
        <ele>22.8</ele>
        <time>2022-08-19T20:57:11Z</time>
      </trkpt>
      <trkpt lat="47.07423" lon="-1.91561">
        <ele>22.8</ele>
        <time>2022-08-19T20:57:17Z</time>
      </trkpt>
      <trkpt lat="47.07458" lon="-1.91527">
        <ele>23</ele>
        <time>2022-08-19T20:57:24Z</time>
      </trkpt>
      <trkpt lat="47.07483" lon="-1.91503">
        <ele>23</ele>
        <time>2022-08-19T20:57:30Z</time>
      </trkpt>
      <trkpt lat="47.07488" lon="-1.91511">
        <ele>23.2</ele>
        <time>2022-08-19T20:57:33Z</time>
      </trkpt>
      <trkpt lat="47.07483" lon="-1.91536">
        <ele>23</ele>
        <time>2022-08-19T20:57:38Z</time>
      </trkpt>
      <trkpt lat="47.07481" lon="-1.91549">
        <ele>23</ele>
        <time>2022-08-19T20:57:40Z</time>
      </trkpt>
      <trkpt lat="47.07477" lon="-1.91568">
        <ele>23</ele>
        <time>2022-08-19T20:57:43Z</time>
      </trkpt>
      <trkpt lat="47.07472" lon="-1.91591">
        <ele>23.2</ele>
        <time>2022-08-19T20:57:46Z</time>
      </trkpt>
      <trkpt lat="47.0747" lon="-1.91608">
        <ele>23.2</ele>
        <time>2022-08-19T20:57:48Z</time>
      </trkpt>
      <trkpt lat="47.07465" lon="-1.91671">
        <ele>23.4</ele>
        <time>2022-08-19T20:57:56Z</time>
      </trkpt>
      <trkpt lat="47.07458" lon="-1.91745">
        <ele>23.6</ele>
        <time>2022-08-19T20:58:05Z</time>
      </trkpt>
      <trkpt lat="47.0745" lon="-1.91818">
        <ele>23.6</ele>
        <time>2022-08-19T20:58:14Z</time>
      </trkpt>
      <trkpt lat="47.07445" lon="-1.91873">
        <ele>23.8</ele>
        <time>2022-08-19T20:58:21Z</time>
      </trkpt>
      <trkpt lat="47.07441" lon="-1.91921">
        <ele>23</ele>
        <time>2022-08-19T20:58:27Z</time>
      </trkpt>
      <trkpt lat="47.07441" lon="-1.91929">
        <ele>23</ele>
        <time>2022-08-19T20:58:28Z</time>
      </trkpt>
      <trkpt lat="47.07439" lon="-1.91972">
        <ele>22.6</ele>
        <time>2022-08-19T20:58:34Z</time>
      </trkpt>
      <trkpt lat="47.07436" lon="-1.92017">
        <ele>22.4</ele>
        <time>2022-08-19T20:58:40Z</time>
      </trkpt>
      <trkpt lat="47.07433" lon="-1.9207">
        <ele>22.2</ele>
        <time>2022-08-19T20:58:47Z</time>
      </trkpt>
      <trkpt lat="47.0743" lon="-1.92134">
        <ele>22.4</ele>
        <time>2022-08-19T20:58:55Z</time>
      </trkpt>
      <trkpt lat="47.07427" lon="-1.9218">
        <ele>22.4</ele>
        <time>2022-08-19T20:59:01Z</time>
      </trkpt>
      <trkpt lat="47.07426" lon="-1.92202">
        <ele>22.8</ele>
        <time>2022-08-19T20:59:04Z</time>
      </trkpt>
      <trkpt lat="47.07426" lon="-1.92208">
        <ele>22.8</ele>
        <time>2022-08-19T20:59:05Z</time>
      </trkpt>
      <trkpt lat="47.07424" lon="-1.92237">
        <ele>22.6</ele>
        <time>2022-08-19T20:59:09Z</time>
      </trkpt>
      <trkpt lat="47.07421" lon="-1.92289">
        <ele>22.6</ele>
        <time>2022-08-19T20:59:16Z</time>
      </trkpt>
      <trkpt lat="47.07416" lon="-1.92344">
        <ele>22.8</ele>
        <time>2022-08-19T20:59:24Z</time>
      </trkpt>
      <trkpt lat="47.07413" lon="-1.92384">
        <ele>23.2</ele>
        <time>2022-08-19T20:59:30Z</time>
      </trkpt>
      <trkpt lat="47.0741" lon="-1.92434">
        <ele>23.6</ele>
        <time>2022-08-19T20:59:37Z</time>
      </trkpt>
      <trkpt lat="47.07405" lon="-1.92496">
        <ele>24</ele>
        <time>2022-08-19T20:59:45Z</time>
      </trkpt>
      <trkpt lat="47.07406" lon="-1.92563">
        <ele>24.2</ele>
        <time>2022-08-19T20:59:53Z</time>
      </trkpt>
      <trkpt lat="47.07412" lon="-1.92649">
        <ele>24.4</ele>
        <time>2022-08-19T21:00:03Z</time>
      </trkpt>
      <trkpt lat="47.07413" lon="-1.92657">
        <ele>24.4</ele>
        <time>2022-08-19T21:00:04Z</time>
      </trkpt>
      <trkpt lat="47.07415" lon="-1.92715">
        <ele>24.6</ele>
        <time>2022-08-19T21:00:11Z</time>
      </trkpt>
      <trkpt lat="47.07415" lon="-1.92723">
        <ele>24.6</ele>
        <time>2022-08-19T21:00:12Z</time>
      </trkpt>
      <trkpt lat="47.07413" lon="-1.9273">
        <ele>24.6</ele>
        <time>2022-08-19T21:00:13Z</time>
      </trkpt>
      <trkpt lat="47.07406" lon="-1.92753">
        <ele>24.4</ele>
        <time>2022-08-19T21:00:16Z</time>
      </trkpt>
      <trkpt lat="47.07402" lon="-1.9276">
        <ele>24.6</ele>
        <time>2022-08-19T21:00:17Z</time>
      </trkpt>
      <trkpt lat="47.07377" lon="-1.9279">
        <ele>24.8</ele>
        <time>2022-08-19T21:00:23Z</time>
      </trkpt>
      <trkpt lat="47.07343" lon="-1.92836">
        <ele>25</ele>
        <time>2022-08-19T21:00:31Z</time>
      </trkpt>
      <trkpt lat="47.07306" lon="-1.92884">
        <ele>25</ele>
        <time>2022-08-19T21:00:39Z</time>
      </trkpt>
      <trkpt lat="47.07272" lon="-1.92928">
        <ele>25</ele>
        <time>2022-08-19T21:00:46Z</time>
      </trkpt>
      <trkpt lat="47.07228" lon="-1.92986">
        <ele>25</ele>
        <time>2022-08-19T21:00:55Z</time>
      </trkpt>
      <trkpt lat="47.07189" lon="-1.93039">
        <ele>24.8</ele>
        <time>2022-08-19T21:01:03Z</time>
      </trkpt>
      <trkpt lat="47.0715" lon="-1.93089">
        <ele>24.8</ele>
        <time>2022-08-19T21:01:11Z</time>
      </trkpt>
      <trkpt lat="47.07124" lon="-1.93124">
        <ele>25</ele>
        <time>2022-08-19T21:01:17Z</time>
      </trkpt>
      <trkpt lat="47.0709" lon="-1.93164">
        <ele>24.8</ele>
        <time>2022-08-19T21:01:24Z</time>
      </trkpt>
      <trkpt lat="47.07068" lon="-1.93191">
        <ele>24.8</ele>
        <time>2022-08-19T21:01:29Z</time>
      </trkpt>
      <trkpt lat="47.07028" lon="-1.93238">
        <ele>24.8</ele>
        <time>2022-08-19T21:01:37Z</time>
      </trkpt>
      <trkpt lat="47.06995" lon="-1.93278">
        <ele>24.8</ele>
        <time>2022-08-19T21:01:44Z</time>
      </trkpt>
      <trkpt lat="47.06962" lon="-1.93308">
        <ele>25</ele>
        <time>2022-08-19T21:01:50Z</time>
      </trkpt>
      <trkpt lat="47.06922" lon="-1.9334">
        <ele>25</ele>
        <time>2022-08-19T21:01:57Z</time>
      </trkpt>
      <trkpt lat="47.06883" lon="-1.93379">
        <ele>25.2</ele>
        <time>2022-08-19T21:02:04Z</time>
      </trkpt>
      <trkpt lat="47.06836" lon="-1.93434">
        <ele>24.8</ele>
        <time>2022-08-19T21:02:13Z</time>
      </trkpt>
      <trkpt lat="47.06831" lon="-1.9344">
        <ele>24.8</ele>
        <time>2022-08-19T21:02:14Z</time>
      </trkpt>
      <trkpt lat="47.0679" lon="-1.93489">
        <ele>24.4</ele>
        <time>2022-08-19T21:02:22Z</time>
      </trkpt>
      <trkpt lat="47.06781" lon="-1.93503">
        <ele>24.2</ele>
        <time>2022-08-19T21:02:24Z</time>
      </trkpt>
      <trkpt lat="47.06776" lon="-1.9352">
        <ele>24.2</ele>
        <time>2022-08-19T21:02:26Z</time>
      </trkpt>
      <trkpt lat="47.06776" lon="-1.93553">
        <ele>24</ele>
        <time>2022-08-19T21:02:30Z</time>
      </trkpt>
      <trkpt lat="47.06773" lon="-1.93566">
        <ele>24</ele>
        <time>2022-08-19T21:02:33Z</time>
      </trkpt>
      <trkpt lat="47.06766" lon="-1.93569">
        <ele>24</ele>
        <time>2022-08-19T21:02:35Z</time>
      </trkpt>
      <trkpt lat="47.06762" lon="-1.9357">
        <ele>24</ele>
        <time>2022-08-19T21:02:36Z</time>
      </trkpt>
      <trkpt lat="47.06731" lon="-1.93569">
        <ele>23.8</ele>
        <time>2022-08-19T21:02:42Z</time>
      </trkpt>
      <trkpt lat="47.0669" lon="-1.93568">
        <ele>23.4</ele>
        <time>2022-08-19T21:02:49Z</time>
      </trkpt>
      <trkpt lat="47.06636" lon="-1.93566">
        <ele>23.4</ele>
        <time>2022-08-19T21:02:58Z</time>
      </trkpt>
      <trkpt lat="47.06587" lon="-1.93564">
        <ele>23.4</ele>
        <time>2022-08-19T21:03:06Z</time>
      </trkpt>
      <trkpt lat="47.06533" lon="-1.93564">
        <ele>23.6</ele>
        <time>2022-08-19T21:03:15Z</time>
      </trkpt>
      <trkpt lat="47.06527" lon="-1.93563">
        <ele>23.8</ele>
        <time>2022-08-19T21:03:16Z</time>
      </trkpt>
      <trkpt lat="47.06471" lon="-1.93562">
        <ele>23.6</ele>
        <time>2022-08-19T21:03:25Z</time>
      </trkpt>
      <trkpt lat="47.06465" lon="-1.93562">
        <ele>23.6</ele>
        <time>2022-08-19T21:03:26Z</time>
      </trkpt>
      <trkpt lat="47.06434" lon="-1.93561">
        <ele>24</ele>
        <time>2022-08-19T21:03:32Z</time>
      </trkpt>
      <trkpt lat="47.06427" lon="-1.93569">
        <ele>24</ele>
        <time>2022-08-19T21:03:34Z</time>
      </trkpt>
      <trkpt lat="47.06431" lon="-1.93582">
        <ele>24</ele>
        <time>2022-08-19T21:03:36Z</time>
      </trkpt>
      <trkpt lat="47.06456" lon="-1.9362">
        <ele>24</ele>
        <time>2022-08-19T21:03:42Z</time>
      </trkpt>
      <trkpt lat="47.06488" lon="-1.93671">
        <ele>24.2</ele>
        <time>2022-08-19T21:03:50Z</time>
      </trkpt>
      <trkpt lat="47.06513" lon="-1.93703">
        <ele>24.4</ele>
        <time>2022-08-19T21:03:56Z</time>
      </trkpt>
      <trkpt lat="47.06517" lon="-1.9371">
        <ele>24.4</ele>
        <time>2022-08-19T21:03:57Z</time>
      </trkpt>
      <trkpt lat="47.06531" lon="-1.93737">
        <ele>24.4</ele>
        <time>2022-08-19T21:04:01Z</time>
      </trkpt>
      <trkpt lat="47.06537" lon="-1.93751">
        <ele>24.4</ele>
        <time>2022-08-19T21:04:03Z</time>
      </trkpt>
      <trkpt lat="47.06548" lon="-1.93767">
        <ele>24.4</ele>
        <time>2022-08-19T21:04:06Z</time>
      </trkpt>
      <trkpt lat="47.06565" lon="-1.93781">
        <ele>24.4</ele>
        <time>2022-08-19T21:04:10Z</time>
      </trkpt>
      <trkpt lat="47.06569" lon="-1.93783">
        <ele>24.2</ele>
        <time>2022-08-19T21:04:11Z</time>
      </trkpt>
      <trkpt lat="47.06572" lon="-1.93781">
        <ele>24.2</ele>
        <time>2022-08-19T21:04:12Z</time>
      </trkpt>
      <trkpt lat="47.06579" lon="-1.93771">
        <ele>24.4</ele>
        <time>2022-08-19T21:04:14Z</time>
      </trkpt>
      <trkpt lat="47.06588" lon="-1.93761">
        <ele>24.4</ele>
        <time>2022-08-19T21:04:17Z</time>
      </trkpt>
      <trkpt lat="47.06598" lon="-1.93769">
        <ele>24.4</ele>
        <time>2022-08-19T21:04:20Z</time>
      </trkpt>
      <trkpt lat="47.06622" lon="-1.93799">
        <ele>24</ele>
        <time>2022-08-19T21:04:27Z</time>
      </trkpt>
      <trkpt lat="47.06651" lon="-1.93832">
        <ele>23.6</ele>
        <time>2022-08-19T21:04:34Z</time>
      </trkpt>
      <trkpt lat="47.0667" lon="-1.93861">
        <ele>23.2</ele>
        <time>2022-08-19T21:04:39Z</time>
      </trkpt>
      <trkpt lat="47.06672" lon="-1.93866">
        <ele>23.2</ele>
        <time>2022-08-19T21:04:40Z</time>
      </trkpt>
      <trkpt lat="47.06675" lon="-1.93879">
        <ele>23</ele>
        <time>2022-08-19T21:04:42Z</time>
      </trkpt>
      <trkpt lat="47.06675" lon="-1.93885">
        <ele>22.8</ele>
        <time>2022-08-19T21:04:43Z</time>
      </trkpt>
      <trkpt lat="47.06682" lon="-1.93911">
        <ele>22.4</ele>
        <time>2022-08-19T21:04:48Z</time>
      </trkpt>
      <trkpt lat="47.06692" lon="-1.93934">
        <ele>21.4</ele>
        <time>2022-08-19T21:04:54Z</time>
      </trkpt>
      <trkpt lat="47.06704" lon="-1.93962">
        <ele>20.6</ele>
        <time>2022-08-19T21:05:00Z</time>
      </trkpt>
      <trkpt lat="47.06714" lon="-1.93985">
        <ele>19.8</ele>
        <time>2022-08-19T21:05:05Z</time>
      </trkpt>
      <trkpt lat="47.06721" lon="-1.94002">
        <ele>19.6</ele>
        <time>2022-08-19T21:05:09Z</time>
      </trkpt>
      <trkpt lat="47.06728" lon="-1.94026">
        <ele>19</ele>
        <time>2022-08-19T21:05:15Z</time>
      </trkpt>
      <trkpt lat="47.06729" lon="-1.94036">
        <ele>18.8</ele>
        <time>2022-08-19T21:05:18Z</time>
      </trkpt>
      <trkpt lat="47.06727" lon="-1.94041">
        <ele>18.6</ele>
        <time>2022-08-19T21:05:20Z</time>
      </trkpt>
      <trkpt lat="47.06715" lon="-1.94049">
        <ele>18.6</ele>
        <time>2022-08-19T21:05:26Z</time>
      </trkpt>
      <trkpt lat="47.06701" lon="-1.94058">
        <ele>18.6</ele>
        <time>2022-08-19T21:05:32Z</time>
      </trkpt>
      <trkpt lat="47.06683" lon="-1.94069">
        <ele>18.4</ele>
        <time>2022-08-19T21:05:39Z</time>
      </trkpt>
      <trkpt lat="47.06669" lon="-1.94078">
        <ele>19</ele>
        <time>2022-08-19T21:05:45Z</time>
      </trkpt>
      <trkpt lat="47.0666" lon="-1.94085">
        <ele>19.6</ele>
        <time>2022-08-19T21:05:50Z</time>
      </trkpt>
      <trkpt lat="47.06647" lon="-1.94091">
        <ele>20</ele>
        <time>2022-08-19T21:05:55Z</time>
      </trkpt>
      <trkpt lat="47.06642" lon="-1.94095">
        <ele>20.2</ele>
        <time>2022-08-19T21:05:58Z</time>
      </trkpt>
      <trkpt lat="47.06636" lon="-1.94099">
        <ele>20.2</ele>
        <time>2022-08-19T21:06:00Z</time>
      </trkpt>
      <trkpt lat="47.0662" lon="-1.94108">
        <ele>20.6</ele>
        <time>2022-08-19T21:06:07Z</time>
      </trkpt>
      <trkpt lat="47.06608" lon="-1.94114">
        <ele>20.8</ele>
        <time>2022-08-19T21:06:12Z</time>
      </trkpt>
      <trkpt lat="47.06595" lon="-1.9412">
        <ele>21.4</ele>
        <time>2022-08-19T21:06:17Z</time>
      </trkpt>
      <trkpt lat="47.06584" lon="-1.94126">
        <ele>21.6</ele>
        <time>2022-08-19T21:06:22Z</time>
      </trkpt>
      <trkpt lat="47.0657" lon="-1.94137">
        <ele>21.8</ele>
        <time>2022-08-19T21:06:28Z</time>
      </trkpt>
      <trkpt lat="47.06554" lon="-1.94146">
        <ele>21.8</ele>
        <time>2022-08-19T21:06:34Z</time>
      </trkpt>
      <trkpt lat="47.0654" lon="-1.94154">
        <ele>22.4</ele>
        <time>2022-08-19T21:06:40Z</time>
      </trkpt>
      <trkpt lat="47.06526" lon="-1.94165">
        <ele>22.6</ele>
        <time>2022-08-19T21:06:46Z</time>
      </trkpt>
      <trkpt lat="47.06513" lon="-1.94175">
        <ele>23</ele>
        <time>2022-08-19T21:06:52Z</time>
      </trkpt>
      <trkpt lat="47.06496" lon="-1.94189">
        <ele>23</ele>
        <time>2022-08-19T21:06:58Z</time>
      </trkpt>
      <trkpt lat="47.06484" lon="-1.94198">
        <ele>23.2</ele>
        <time>2022-08-19T21:07:03Z</time>
      </trkpt>
      <trkpt lat="47.06471" lon="-1.94209">
        <ele>23.6</ele>
        <time>2022-08-19T21:07:08Z</time>
      </trkpt>
      <trkpt lat="47.06458" lon="-1.94218">
        <ele>23.8</ele>
        <time>2022-08-19T21:07:13Z</time>
      </trkpt>
      <trkpt lat="47.06448" lon="-1.94226">
        <ele>24.2</ele>
        <time>2022-08-19T21:07:18Z</time>
      </trkpt>
      <trkpt lat="47.06448" lon="-1.94226">
        <ele>24.2</ele>
        <time>2022-08-19T21:07:19Z</time>
      </trkpt>
      <trkpt lat="47.06443" lon="-1.94233">
        <ele>28.4</ele>
        <time>2022-08-19T21:11:09Z</time>
      </trkpt>
      <trkpt lat="47.06439" lon="-1.94236">
        <ele>28.4</ele>
        <time>2022-08-19T21:11:11Z</time>
      </trkpt>
      <trkpt lat="47.06425" lon="-1.94244">
        <ele>28.2</ele>
        <time>2022-08-19T21:11:16Z</time>
      </trkpt>
      <trkpt lat="47.06406" lon="-1.94258">
        <ele>27.8</ele>
        <time>2022-08-19T21:11:22Z</time>
      </trkpt>
      <trkpt lat="47.06384" lon="-1.94275">
        <ele>27.6</ele>
        <time>2022-08-19T21:11:28Z</time>
      </trkpt>
      <trkpt lat="47.06362" lon="-1.94291">
        <ele>27.4</ele>
        <time>2022-08-19T21:11:33Z</time>
      </trkpt>
      <trkpt lat="47.06338" lon="-1.9431">
        <ele>27</ele>
        <time>2022-08-19T21:11:39Z</time>
      </trkpt>
      <trkpt lat="47.06311" lon="-1.9433">
        <ele>26.8</ele>
        <time>2022-08-19T21:11:45Z</time>
      </trkpt>
      <trkpt lat="47.06276" lon="-1.94361">
        <ele>26.6</ele>
        <time>2022-08-19T21:11:53Z</time>
      </trkpt>
      <trkpt lat="47.06268" lon="-1.94369">
        <ele>26.6</ele>
        <time>2022-08-19T21:11:55Z</time>
      </trkpt>
      <trkpt lat="47.06256" lon="-1.94383">
        <ele>26.6</ele>
        <time>2022-08-19T21:11:58Z</time>
      </trkpt>
      <trkpt lat="47.0623" lon="-1.94411">
        <ele>27.4</ele>
        <time>2022-08-19T21:12:04Z</time>
      </trkpt>
      <trkpt lat="47.06217" lon="-1.94424">
        <ele>27.4</ele>
        <time>2022-08-19T21:12:07Z</time>
      </trkpt>
      <trkpt lat="47.06208" lon="-1.94434">
        <ele>27</ele>
        <time>2022-08-19T21:12:09Z</time>
      </trkpt>
      <trkpt lat="47.06178" lon="-1.94472">
        <ele>27.4</ele>
        <time>2022-08-19T21:12:16Z</time>
      </trkpt>
      <trkpt lat="47.06158" lon="-1.94501">
        <ele>27.6</ele>
        <time>2022-08-19T21:12:21Z</time>
      </trkpt>
      <trkpt lat="47.06155" lon="-1.94507">
        <ele>27.6</ele>
        <time>2022-08-19T21:12:22Z</time>
      </trkpt>
      <trkpt lat="47.06141" lon="-1.94529">
        <ele>27.8</ele>
        <time>2022-08-19T21:12:26Z</time>
      </trkpt>
      <trkpt lat="47.06121" lon="-1.94563">
        <ele>28</ele>
        <time>2022-08-19T21:12:32Z</time>
      </trkpt>
      <trkpt lat="47.06099" lon="-1.94598">
        <ele>28.2</ele>
        <time>2022-08-19T21:12:38Z</time>
      </trkpt>
      <trkpt lat="47.06068" lon="-1.94644">
        <ele>28.2</ele>
        <time>2022-08-19T21:12:45Z</time>
      </trkpt>
      <trkpt lat="47.06042" lon="-1.94684">
        <ele>28.4</ele>
        <time>2022-08-19T21:12:51Z</time>
      </trkpt>
      <trkpt lat="47.06005" lon="-1.94741">
        <ele>28.4</ele>
        <time>2022-08-19T21:12:59Z</time>
      </trkpt>
      <trkpt lat="47.05971" lon="-1.94789">
        <ele>28.2</ele>
        <time>2022-08-19T21:13:06Z</time>
      </trkpt>
      <trkpt lat="47.0594" lon="-1.94834">
        <ele>28.2</ele>
        <time>2022-08-19T21:13:13Z</time>
      </trkpt>
      <trkpt lat="47.05917" lon="-1.94871">
        <ele>28.2</ele>
        <time>2022-08-19T21:13:19Z</time>
      </trkpt>
      <trkpt lat="47.05896" lon="-1.94907">
        <ele>28</ele>
        <time>2022-08-19T21:13:25Z</time>
      </trkpt>
      <trkpt lat="47.05878" lon="-1.94937">
        <ele>28.2</ele>
        <time>2022-08-19T21:13:30Z</time>
      </trkpt>
      <trkpt lat="47.05856" lon="-1.94974">
        <ele>28</ele>
        <time>2022-08-19T21:13:36Z</time>
      </trkpt>
      <trkpt lat="47.05852" lon="-1.9498">
        <ele>28.2</ele>
        <time>2022-08-19T21:13:37Z</time>
      </trkpt>
      <trkpt lat="47.05844" lon="-1.94992">
        <ele>28.4</ele>
        <time>2022-08-19T21:13:39Z</time>
      </trkpt>
      <trkpt lat="47.05841" lon="-1.94997">
        <ele>28</ele>
        <time>2022-08-19T21:13:40Z</time>
      </trkpt>
      <trkpt lat="47.05836" lon="-1.95004">
        <ele>28</ele>
        <time>2022-08-19T21:13:41Z</time>
      </trkpt>
      <trkpt lat="47.05826" lon="-1.95017">
        <ele>28</ele>
        <time>2022-08-19T21:13:43Z</time>
      </trkpt>
      <trkpt lat="47.05799" lon="-1.95047">
        <ele>28</ele>
        <time>2022-08-19T21:13:49Z</time>
      </trkpt>
      <trkpt lat="47.0577" lon="-1.95075">
        <ele>28.2</ele>
        <time>2022-08-19T21:13:55Z</time>
      </trkpt>
      <trkpt lat="47.05737" lon="-1.95105">
        <ele>28.2</ele>
        <time>2022-08-19T21:14:02Z</time>
      </trkpt>
      <trkpt lat="47.05726" lon="-1.95114">
        <ele>28</ele>
        <time>2022-08-19T21:14:06Z</time>
      </trkpt>
      <trkpt lat="47.05725" lon="-1.95116">
        <ele>28</ele>
        <time>2022-08-19T21:14:07Z</time>
      </trkpt>
      <trkpt lat="47.05718" lon="-1.95122">
        <ele>27.8</ele>
        <time>2022-08-19T21:14:12Z</time>
      </trkpt>
      <trkpt lat="47.05699" lon="-1.95138">
        <ele>27.8</ele>
        <time>2022-08-19T21:14:19Z</time>
      </trkpt>
      <trkpt lat="47.05688" lon="-1.9515">
        <ele>27.6</ele>
        <time>2022-08-19T21:14:24Z</time>
      </trkpt>
      <trkpt lat="47.05674" lon="-1.95163">
        <ele>27.8</ele>
        <time>2022-08-19T21:14:29Z</time>
      </trkpt>
      <trkpt lat="47.05661" lon="-1.95182">
        <ele>28</ele>
        <time>2022-08-19T21:14:34Z</time>
      </trkpt>
      <trkpt lat="47.0566" lon="-1.95188">
        <ele>28</ele>
        <time>2022-08-19T21:14:35Z</time>
      </trkpt>
      <trkpt lat="47.05661" lon="-1.95201">
        <ele>28</ele>
        <time>2022-08-19T21:14:37Z</time>
      </trkpt>
      <trkpt lat="47.05662" lon="-1.95208">
        <ele>28</ele>
        <time>2022-08-19T21:14:38Z</time>
      </trkpt>
      <trkpt lat="47.05665" lon="-1.95221">
        <ele>28</ele>
        <time>2022-08-19T21:14:40Z</time>
      </trkpt>
      <trkpt lat="47.05674" lon="-1.95238">
        <ele>28</ele>
        <time>2022-08-19T21:14:43Z</time>
      </trkpt>
      <trkpt lat="47.05683" lon="-1.95263">
        <ele>28</ele>
        <time>2022-08-19T21:14:47Z</time>
      </trkpt>
      <trkpt lat="47.05683" lon="-1.9527">
        <ele>28</ele>
        <time>2022-08-19T21:14:48Z</time>
      </trkpt>
      <trkpt lat="47.05681" lon="-1.95278">
        <ele>28</ele>
        <time>2022-08-19T21:14:49Z</time>
      </trkpt>
      <trkpt lat="47.05676" lon="-1.9529">
        <ele>28</ele>
        <time>2022-08-19T21:14:51Z</time>
      </trkpt>
      <trkpt lat="47.05674" lon="-1.95295">
        <ele>28.2</ele>
        <time>2022-08-19T21:14:52Z</time>
      </trkpt>
      <trkpt lat="47.05663" lon="-1.95308">
        <ele>27.8</ele>
        <time>2022-08-19T21:14:55Z</time>
      </trkpt>
      <trkpt lat="47.05641" lon="-1.95335">
        <ele>27.6</ele>
        <time>2022-08-19T21:15:02Z</time>
      </trkpt>
      <trkpt lat="47.05638" lon="-1.95339">
        <ele>27.4</ele>
        <time>2022-08-19T21:15:03Z</time>
      </trkpt>
      <trkpt lat="47.05625" lon="-1.95356">
        <ele>27.4</ele>
        <time>2022-08-19T21:15:07Z</time>
      </trkpt>
      <trkpt lat="47.05603" lon="-1.95383">
        <ele>27</ele>
        <time>2022-08-19T21:15:13Z</time>
      </trkpt>
      <trkpt lat="47.0558" lon="-1.95414">
        <ele>27</ele>
        <time>2022-08-19T21:15:19Z</time>
      </trkpt>
      <trkpt lat="47.05576" lon="-1.95418">
        <ele>26.8</ele>
        <time>2022-08-19T21:15:20Z</time>
      </trkpt>
      <trkpt lat="47.05563" lon="-1.95436">
        <ele>26.6</ele>
        <time>2022-08-19T21:15:24Z</time>
      </trkpt>
      <trkpt lat="47.05546" lon="-1.95456">
        <ele>26.4</ele>
        <time>2022-08-19T21:15:29Z</time>
      </trkpt>
      <trkpt lat="47.05541" lon="-1.95462">
        <ele>26.2</ele>
        <time>2022-08-19T21:15:32Z</time>
      </trkpt>
      <trkpt lat="47.05542" lon="-1.95462">
        <ele>26.4</ele>
        <time>2022-08-19T21:15:33Z</time>
      </trkpt>
      <trkpt lat="47.05546" lon="-1.95461">
        <ele>26.2</ele>
        <time>2022-08-19T21:15:36Z</time>
      </trkpt>
      <trkpt lat="47.05551" lon="-1.95459">
        <ele>26</ele>
        <time>2022-08-19T21:15:38Z</time>
      </trkpt>
      <trkpt lat="47.05565" lon="-1.95463">
        <ele>25.4</ele>
        <time>2022-08-19T21:15:43Z</time>
      </trkpt>
      <trkpt lat="47.05576" lon="-1.95483">
        <ele>25.2</ele>
        <time>2022-08-19T21:15:48Z</time>
      </trkpt>
      <trkpt lat="47.0559" lon="-1.95504">
        <ele>24.4</ele>
        <time>2022-08-19T21:15:54Z</time>
      </trkpt>
      <trkpt lat="47.05601" lon="-1.95529">
        <ele>23.2</ele>
        <time>2022-08-19T21:16:00Z</time>
      </trkpt>
      <trkpt lat="47.05609" lon="-1.95553">
        <ele>22.2</ele>
        <time>2022-08-19T21:16:05Z</time>
      </trkpt>
      <trkpt lat="47.0562" lon="-1.95576">
        <ele>21.6</ele>
        <time>2022-08-19T21:16:10Z</time>
      </trkpt>
      <trkpt lat="47.05632" lon="-1.95595">
        <ele>22</ele>
        <time>2022-08-19T21:16:14Z</time>
      </trkpt>
      <trkpt lat="47.05638" lon="-1.95604">
        <ele>22</ele>
        <time>2022-08-19T21:16:16Z</time>
      </trkpt>
      <trkpt lat="47.05657" lon="-1.9563">
        <ele>22.2</ele>
        <time>2022-08-19T21:16:22Z</time>
      </trkpt>
      <trkpt lat="47.05663" lon="-1.95639">
        <ele>22.2</ele>
        <time>2022-08-19T21:16:24Z</time>
      </trkpt>
      <trkpt lat="47.0567" lon="-1.95648">
        <ele>21</ele>
        <time>2022-08-19T21:16:26Z</time>
      </trkpt>
      <trkpt lat="47.05689" lon="-1.95677">
        <ele>22.2</ele>
        <time>2022-08-19T21:16:32Z</time>
      </trkpt>
      <trkpt lat="47.05696" lon="-1.95686">
        <ele>21.4</ele>
        <time>2022-08-19T21:16:34Z</time>
      </trkpt>
      <trkpt lat="47.05703" lon="-1.95695">
        <ele>21.6</ele>
        <time>2022-08-19T21:16:36Z</time>
      </trkpt>
      <trkpt lat="47.05711" lon="-1.9571">
        <ele>21.4</ele>
        <time>2022-08-19T21:16:39Z</time>
      </trkpt>
      <trkpt lat="47.05717" lon="-1.9572">
        <ele>21</ele>
        <time>2022-08-19T21:16:41Z</time>
      </trkpt>
      <trkpt lat="47.05719" lon="-1.95726">
        <ele>21</ele>
        <time>2022-08-19T21:16:42Z</time>
      </trkpt>
      <trkpt lat="47.0574" lon="-1.9576">
        <ele>20.4</ele>
        <time>2022-08-19T21:16:49Z</time>
      </trkpt>
      <trkpt lat="47.0575" lon="-1.95775">
        <ele>20.2</ele>
        <time>2022-08-19T21:16:52Z</time>
      </trkpt>
      <trkpt lat="47.0576" lon="-1.9579">
        <ele>20.2</ele>
        <time>2022-08-19T21:16:55Z</time>
      </trkpt>
      <trkpt lat="47.05784" lon="-1.95821">
        <ele>19.8</ele>
        <time>2022-08-19T21:17:02Z</time>
      </trkpt>
      <trkpt lat="47.05802" lon="-1.95839">
        <ele>19.6</ele>
        <time>2022-08-19T21:17:07Z</time>
      </trkpt>
      <trkpt lat="47.05808" lon="-1.95848">
        <ele>19.4</ele>
        <time>2022-08-19T21:17:09Z</time>
      </trkpt>
      <trkpt lat="47.05816" lon="-1.95865">
        <ele>19</ele>
        <time>2022-08-19T21:17:12Z</time>
      </trkpt>
      <trkpt lat="47.05819" lon="-1.9587">
        <ele>18.8</ele>
        <time>2022-08-19T21:17:13Z</time>
      </trkpt>
      <trkpt lat="47.05827" lon="-1.95894">
        <ele>18.4</ele>
        <time>2022-08-19T21:17:17Z</time>
      </trkpt>
      <trkpt lat="47.05838" lon="-1.9592">
        <ele>18</ele>
        <time>2022-08-19T21:17:22Z</time>
      </trkpt>
      <trkpt lat="47.05847" lon="-1.95943">
        <ele>18</ele>
        <time>2022-08-19T21:17:26Z</time>
      </trkpt>
      <trkpt lat="47.0585" lon="-1.95948">
        <ele>17.8</ele>
        <time>2022-08-19T21:17:27Z</time>
      </trkpt>
      <trkpt lat="47.05862" lon="-1.95978">
        <ele>17.8</ele>
        <time>2022-08-19T21:17:32Z</time>
      </trkpt>
      <trkpt lat="47.05867" lon="-1.95991">
        <ele>17.8</ele>
        <time>2022-08-19T21:17:34Z</time>
      </trkpt>
      <trkpt lat="47.05882" lon="-1.96015">
        <ele>19</ele>
        <time>2022-08-19T21:17:39Z</time>
      </trkpt>
      <trkpt lat="47.05895" lon="-1.96041">
        <ele>18.6</ele>
        <time>2022-08-19T21:17:45Z</time>
      </trkpt>
      <trkpt lat="47.05903" lon="-1.96062">
        <ele>18.8</ele>
        <time>2022-08-19T21:17:50Z</time>
      </trkpt>
      <trkpt lat="47.05906" lon="-1.96073">
        <ele>18.8</ele>
        <time>2022-08-19T21:17:53Z</time>
      </trkpt>
      <trkpt lat="47.05905" lon="-1.96078">
        <ele>18.8</ele>
        <time>2022-08-19T21:17:54Z</time>
      </trkpt>
      <trkpt lat="47.05894" lon="-1.9609">
        <ele>19</ele>
        <time>2022-08-19T21:17:58Z</time>
      </trkpt>
      <trkpt lat="47.05879" lon="-1.96099">
        <ele>19</ele>
        <time>2022-08-19T21:18:02Z</time>
      </trkpt>
      <trkpt lat="47.05852" lon="-1.96118">
        <ele>19.4</ele>
        <time>2022-08-19T21:18:09Z</time>
      </trkpt>
      <trkpt lat="47.0582" lon="-1.96139">
        <ele>19.8</ele>
        <time>2022-08-19T21:18:16Z</time>
      </trkpt>
      <trkpt lat="47.05791" lon="-1.96158">
        <ele>20</ele>
        <time>2022-08-19T21:18:22Z</time>
      </trkpt>
      <trkpt lat="47.05754" lon="-1.96183">
        <ele>20.4</ele>
        <time>2022-08-19T21:18:29Z</time>
      </trkpt>
      <trkpt lat="47.05722" lon="-1.96204">
        <ele>20.6</ele>
        <time>2022-08-19T21:18:35Z</time>
      </trkpt>
      <trkpt lat="47.05694" lon="-1.96222">
        <ele>20.8</ele>
        <time>2022-08-19T21:18:40Z</time>
      </trkpt>
      <trkpt lat="47.05652" lon="-1.96258">
        <ele>21.2</ele>
        <time>2022-08-19T21:18:48Z</time>
      </trkpt>
      <trkpt lat="47.05622" lon="-1.96291">
        <ele>21.2</ele>
        <time>2022-08-19T21:18:54Z</time>
      </trkpt>
      <trkpt lat="47.05587" lon="-1.9633">
        <ele>21.2</ele>
        <time>2022-08-19T21:19:01Z</time>
      </trkpt>
      <trkpt lat="47.05544" lon="-1.96381">
        <ele>21.2</ele>
        <time>2022-08-19T21:19:09Z</time>
      </trkpt>
      <trkpt lat="47.05504" lon="-1.96432">
        <ele>20.6</ele>
        <time>2022-08-19T21:19:16Z</time>
      </trkpt>
      <trkpt lat="47.05462" lon="-1.96493">
        <ele>19.6</ele>
        <time>2022-08-19T21:19:23Z</time>
      </trkpt>
      <trkpt lat="47.05427" lon="-1.96561">
        <ele>18.6</ele>
        <time>2022-08-19T21:19:30Z</time>
      </trkpt>
      <trkpt lat="47.05418" lon="-1.9658">
        <ele>18.4</ele>
        <time>2022-08-19T21:19:32Z</time>
      </trkpt>
      <trkpt lat="47.054" lon="-1.96616">
        <ele>17.8</ele>
        <time>2022-08-19T21:19:36Z</time>
      </trkpt>
      <trkpt lat="47.05398" lon="-1.96623">
        <ele>17.8</ele>
        <time>2022-08-19T21:19:37Z</time>
      </trkpt>
      <trkpt lat="47.05398" lon="-1.9663">
        <ele>17.6</ele>
        <time>2022-08-19T21:19:38Z</time>
      </trkpt>
      <trkpt lat="47.05403" lon="-1.96642">
        <ele>17.4</ele>
        <time>2022-08-19T21:19:40Z</time>
      </trkpt>
      <trkpt lat="47.05422" lon="-1.96675">
        <ele>16.8</ele>
        <time>2022-08-19T21:19:46Z</time>
      </trkpt>
      <trkpt lat="47.05442" lon="-1.9674">
        <ele>16</ele>
        <time>2022-08-19T21:19:55Z</time>
      </trkpt>
      <trkpt lat="47.05459" lon="-1.9678">
        <ele>15.6</ele>
        <time>2022-08-19T21:20:01Z</time>
      </trkpt>
      <trkpt lat="47.05485" lon="-1.96816">
        <ele>15.4</ele>
        <time>2022-08-19T21:20:08Z</time>
      </trkpt>
      <trkpt lat="47.05507" lon="-1.96849">
        <ele>15.4</ele>
        <time>2022-08-19T21:20:14Z</time>
      </trkpt>
      <trkpt lat="47.05537" lon="-1.96908">
        <ele>15.2</ele>
        <time>2022-08-19T21:20:23Z</time>
      </trkpt>
      <trkpt lat="47.05546" lon="-1.96929">
        <ele>15</ele>
        <time>2022-08-19T21:20:26Z</time>
      </trkpt>
      <trkpt lat="47.0555" lon="-1.96945">
        <ele>15</ele>
        <time>2022-08-19T21:20:28Z</time>
      </trkpt>
      <trkpt lat="47.05551" lon="-1.96953">
        <ele>15</ele>
        <time>2022-08-19T21:20:29Z</time>
      </trkpt>
      <trkpt lat="47.05551" lon="-1.96971">
        <ele>15</ele>
        <time>2022-08-19T21:20:31Z</time>
      </trkpt>
      <trkpt lat="47.05551" lon="-1.9698">
        <ele>15</ele>
        <time>2022-08-19T21:20:32Z</time>
      </trkpt>
      <trkpt lat="47.05549" lon="-1.97017">
        <ele>15</ele>
        <time>2022-08-19T21:20:36Z</time>
      </trkpt>
      <trkpt lat="47.05552" lon="-1.97034">
        <ele>14.8</ele>
        <time>2022-08-19T21:20:38Z</time>
      </trkpt>
      <trkpt lat="47.05558" lon="-1.9705">
        <ele>15</ele>
        <time>2022-08-19T21:20:40Z</time>
      </trkpt>
      <trkpt lat="47.05569" lon="-1.97072">
        <ele>14.8</ele>
        <time>2022-08-19T21:20:43Z</time>
      </trkpt>
      <trkpt lat="47.05596" lon="-1.97114">
        <ele>14.8</ele>
        <time>2022-08-19T21:20:49Z</time>
      </trkpt>
      <trkpt lat="47.05622" lon="-1.97153">
        <ele>14.4</ele>
        <time>2022-08-19T21:20:55Z</time>
      </trkpt>
      <trkpt lat="47.05627" lon="-1.97158">
        <ele>14.4</ele>
        <time>2022-08-19T21:20:56Z</time>
      </trkpt>
      <trkpt lat="47.05632" lon="-1.97163">
        <ele>14.2</ele>
        <time>2022-08-19T21:20:57Z</time>
      </trkpt>
      <trkpt lat="47.05652" lon="-1.97174">
        <ele>14</ele>
        <time>2022-08-19T21:21:00Z</time>
      </trkpt>
      <trkpt lat="47.057" lon="-1.97196">
        <ele>13.2</ele>
        <time>2022-08-19T21:21:07Z</time>
      </trkpt>
      <trkpt lat="47.05718" lon="-1.97202">
        <ele>13</ele>
        <time>2022-08-19T21:21:10Z</time>
      </trkpt>
      <trkpt lat="47.05732" lon="-1.97202">
        <ele>12.8</ele>
        <time>2022-08-19T21:21:12Z</time>
      </trkpt>
      <trkpt lat="47.05775" lon="-1.972">
        <ele>12.2</ele>
        <time>2022-08-19T21:21:18Z</time>
      </trkpt>
      <trkpt lat="47.05819" lon="-1.972">
        <ele>11.6</ele>
        <time>2022-08-19T21:21:25Z</time>
      </trkpt>
      <trkpt lat="47.05855" lon="-1.97198">
        <ele>11.2</ele>
        <time>2022-08-19T21:21:32Z</time>
      </trkpt>
      <trkpt lat="47.05862" lon="-1.97203">
        <ele>11.2</ele>
        <time>2022-08-19T21:21:34Z</time>
      </trkpt>
      <trkpt lat="47.05869" lon="-1.97212">
        <ele>11.2</ele>
        <time>2022-08-19T21:21:36Z</time>
      </trkpt>
      <trkpt lat="47.05878" lon="-1.97237">
        <ele>11.2</ele>
        <time>2022-08-19T21:21:40Z</time>
      </trkpt>
      <trkpt lat="47.0588" lon="-1.97243">
        <ele>11.4</ele>
        <time>2022-08-19T21:21:41Z</time>
      </trkpt>
      <trkpt lat="47.05882" lon="-1.97248">
        <ele>11.4</ele>
        <time>2022-08-19T21:21:42Z</time>
      </trkpt>
      <trkpt lat="47.05886" lon="-1.9726">
        <ele>11.4</ele>
        <time>2022-08-19T21:21:44Z</time>
      </trkpt>
      <trkpt lat="47.05889" lon="-1.97266">
        <ele>11.4</ele>
        <time>2022-08-19T21:21:45Z</time>
      </trkpt>
      <trkpt lat="47.05904" lon="-1.97304">
        <ele>11.8</ele>
        <time>2022-08-19T21:21:51Z</time>
      </trkpt>
      <trkpt lat="47.05921" lon="-1.97356">
        <ele>11.8</ele>
        <time>2022-08-19T21:21:59Z</time>
      </trkpt>
      <trkpt lat="47.05939" lon="-1.97407">
        <ele>12.2</ele>
        <time>2022-08-19T21:22:07Z</time>
      </trkpt>
      <trkpt lat="47.05947" lon="-1.97426">
        <ele>12.2</ele>
        <time>2022-08-19T21:22:10Z</time>
      </trkpt>
      <trkpt lat="47.05961" lon="-1.97447">
        <ele>12.4</ele>
        <time>2022-08-19T21:22:14Z</time>
      </trkpt>
      <trkpt lat="47.05979" lon="-1.97475">
        <ele>12.6</ele>
        <time>2022-08-19T21:22:19Z</time>
      </trkpt>
      <trkpt lat="47.05987" lon="-1.97493">
        <ele>12.8</ele>
        <time>2022-08-19T21:22:22Z</time>
      </trkpt>
      <trkpt lat="47.0601" lon="-1.97547">
        <ele>13.2</ele>
        <time>2022-08-19T21:22:30Z</time>
      </trkpt>
      <trkpt lat="47.06028" lon="-1.97597">
        <ele>13.2</ele>
        <time>2022-08-19T21:22:37Z</time>
      </trkpt>
      <trkpt lat="47.06038" lon="-1.97632">
        <ele>13.2</ele>
        <time>2022-08-19T21:22:42Z</time>
      </trkpt>
      <trkpt lat="47.06039" lon="-1.9764">
        <ele>13</ele>
        <time>2022-08-19T21:22:43Z</time>
      </trkpt>
      <trkpt lat="47.0604" lon="-1.97655">
        <ele>13</ele>
        <time>2022-08-19T21:22:45Z</time>
      </trkpt>
      <trkpt lat="47.06039" lon="-1.97688">
        <ele>13</ele>
        <time>2022-08-19T21:22:49Z</time>
      </trkpt>
      <trkpt lat="47.06039" lon="-1.97696">
        <ele>12.8</ele>
        <time>2022-08-19T21:22:50Z</time>
      </trkpt>
      <trkpt lat="47.06044" lon="-1.9771">
        <ele>12.8</ele>
        <time>2022-08-19T21:22:52Z</time>
      </trkpt>
      <trkpt lat="47.06052" lon="-1.97732">
        <ele>12.6</ele>
        <time>2022-08-19T21:22:55Z</time>
      </trkpt>
      <trkpt lat="47.06054" lon="-1.97739">
        <ele>12.6</ele>
        <time>2022-08-19T21:22:56Z</time>
      </trkpt>
      <trkpt lat="47.06073" lon="-1.97771">
        <ele>12.4</ele>
        <time>2022-08-19T21:23:02Z</time>
      </trkpt>
      <trkpt lat="47.06097" lon="-1.97796">
        <ele>12.4</ele>
        <time>2022-08-19T21:23:08Z</time>
      </trkpt>
      <trkpt lat="47.06101" lon="-1.97798">
        <ele>12.4</ele>
        <time>2022-08-19T21:23:09Z</time>
      </trkpt>
      <trkpt lat="47.06121" lon="-1.97806">
        <ele>12.6</ele>
        <time>2022-08-19T21:23:13Z</time>
      </trkpt>
      <trkpt lat="47.06126" lon="-1.97808">
        <ele>12.6</ele>
        <time>2022-08-19T21:23:14Z</time>
      </trkpt>
      <trkpt lat="47.0614" lon="-1.97813">
        <ele>12.2</ele>
        <time>2022-08-19T21:23:17Z</time>
      </trkpt>
      <trkpt lat="47.06145" lon="-1.97814">
        <ele>12.4</ele>
        <time>2022-08-19T21:23:18Z</time>
      </trkpt>
      <trkpt lat="47.06155" lon="-1.97815">
        <ele>12.6</ele>
        <time>2022-08-19T21:23:20Z</time>
      </trkpt>
      <trkpt lat="47.06164" lon="-1.97816">
        <ele>12.8</ele>
        <time>2022-08-19T21:23:22Z</time>
      </trkpt>
      <trkpt lat="47.06194" lon="-1.9782">
        <ele>12.6</ele>
        <time>2022-08-19T21:23:28Z</time>
      </trkpt>
      <trkpt lat="47.06214" lon="-1.97821">
        <ele>12.4</ele>
        <time>2022-08-19T21:23:32Z</time>
      </trkpt>
      <trkpt lat="47.06225" lon="-1.9782">
        <ele>12.4</ele>
        <time>2022-08-19T21:23:34Z</time>
      </trkpt>
      <trkpt lat="47.06249" lon="-1.97813">
        <ele>12.4</ele>
        <time>2022-08-19T21:23:39Z</time>
      </trkpt>
      <trkpt lat="47.06254" lon="-1.97812">
        <ele>12.4</ele>
        <time>2022-08-19T21:23:40Z</time>
      </trkpt>
      <trkpt lat="47.06275" lon="-1.9781">
        <ele>12.2</ele>
        <time>2022-08-19T21:23:44Z</time>
      </trkpt>
      <trkpt lat="47.06285" lon="-1.97812">
        <ele>12.2</ele>
        <time>2022-08-19T21:23:46Z</time>
      </trkpt>
      <trkpt lat="47.06314" lon="-1.97824">
        <ele>12</ele>
        <time>2022-08-19T21:23:52Z</time>
      </trkpt>
      <trkpt lat="47.06341" lon="-1.97839">
        <ele>11.8</ele>
        <time>2022-08-19T21:23:57Z</time>
      </trkpt>
      <trkpt lat="47.06351" lon="-1.97841">
        <ele>11.6</ele>
        <time>2022-08-19T21:23:59Z</time>
      </trkpt>
      <trkpt lat="47.06378" lon="-1.97843">
        <ele>11.4</ele>
        <time>2022-08-19T21:24:05Z</time>
      </trkpt>
      <trkpt lat="47.06396" lon="-1.97843">
        <ele>11.4</ele>
        <time>2022-08-19T21:24:10Z</time>
      </trkpt>
      <trkpt lat="47.06418" lon="-1.97845">
        <ele>11.4</ele>
        <time>2022-08-19T21:24:16Z</time>
      </trkpt>
      <trkpt lat="47.06441" lon="-1.97848">
        <ele>10.8</ele>
        <time>2022-08-19T21:24:22Z</time>
      </trkpt>
      <trkpt lat="47.06453" lon="-1.97852">
        <ele>10.6</ele>
        <time>2022-08-19T21:24:26Z</time>
      </trkpt>
      <trkpt lat="47.06471" lon="-1.97854">
        <ele>10.2</ele>
        <time>2022-08-19T21:24:32Z</time>
      </trkpt>
      <trkpt lat="47.06473" lon="-1.97855">
        <ele>10</ele>
        <time>2022-08-19T21:24:33Z</time>
      </trkpt>
      <trkpt lat="47.06478" lon="-1.97861">
        <ele>9.8</ele>
        <time>2022-08-19T21:24:35Z</time>
      </trkpt>
      <trkpt lat="47.06486" lon="-1.9788">
        <ele>9.6</ele>
        <time>2022-08-19T21:24:39Z</time>
      </trkpt>
      <trkpt lat="47.06488" lon="-1.97913">
        <ele>9.2</ele>
        <time>2022-08-19T21:24:43Z</time>
      </trkpt>
      <trkpt lat="47.0649" lon="-1.97921">
        <ele>9</ele>
        <time>2022-08-19T21:24:44Z</time>
      </trkpt>
      <trkpt lat="47.06498" lon="-1.97972">
        <ele>8.4</ele>
        <time>2022-08-19T21:24:49Z</time>
      </trkpt>
      <trkpt lat="47.06503" lon="-1.97995">
        <ele>8.2</ele>
        <time>2022-08-19T21:24:51Z</time>
      </trkpt>
      <trkpt lat="47.06511" lon="-1.98028">
        <ele>8</ele>
        <time>2022-08-19T21:24:54Z</time>
      </trkpt>
      <trkpt lat="47.06513" lon="-1.9805">
        <ele>7.8</ele>
        <time>2022-08-19T21:24:56Z</time>
      </trkpt>
      <trkpt lat="47.06512" lon="-1.98069">
        <ele>7.6</ele>
        <time>2022-08-19T21:24:58Z</time>
      </trkpt>
      <trkpt lat="47.06511" lon="-1.98085">
        <ele>7.6</ele>
        <time>2022-08-19T21:25:00Z</time>
      </trkpt>
      <trkpt lat="47.0651" lon="-1.98092">
        <ele>7.6</ele>
        <time>2022-08-19T21:25:01Z</time>
      </trkpt>
      <trkpt lat="47.06509" lon="-1.98106">
        <ele>7.4</ele>
        <time>2022-08-19T21:25:03Z</time>
      </trkpt>
      <trkpt lat="47.06508" lon="-1.98134">
        <ele>7.4</ele>
        <time>2022-08-19T21:25:07Z</time>
      </trkpt>
      <trkpt lat="47.06511" lon="-1.9816">
        <ele>7.4</ele>
        <time>2022-08-19T21:25:11Z</time>
      </trkpt>
      <trkpt lat="47.06514" lon="-1.98177">
        <ele>7.4</ele>
        <time>2022-08-19T21:25:14Z</time>
      </trkpt>
      <trkpt lat="47.06516" lon="-1.98189">
        <ele>7.4</ele>
        <time>2022-08-19T21:25:16Z</time>
      </trkpt>
      <trkpt lat="47.0652" lon="-1.98211">
        <ele>7.6</ele>
        <time>2022-08-19T21:25:20Z</time>
      </trkpt>
      <trkpt lat="47.06526" lon="-1.98244">
        <ele>8.2</ele>
        <time>2022-08-19T21:25:27Z</time>
      </trkpt>
      <trkpt lat="47.06528" lon="-1.98249">
        <ele>8.4</ele>
        <time>2022-08-19T21:25:29Z</time>
      </trkpt>
      <trkpt lat="47.06528" lon="-1.9826">
        <ele>8.6</ele>
        <time>2022-08-19T21:25:32Z</time>
      </trkpt>
      <trkpt lat="47.0652" lon="-1.98293">
        <ele>8.8</ele>
        <time>2022-08-19T21:25:38Z</time>
      </trkpt>
      <trkpt lat="47.06515" lon="-1.98325">
        <ele>8.8</ele>
        <time>2022-08-19T21:25:43Z</time>
      </trkpt>
      <trkpt lat="47.06514" lon="-1.98332">
        <ele>8.8</ele>
        <time>2022-08-19T21:25:44Z</time>
      </trkpt>
      <trkpt lat="47.06513" lon="-1.98339">
        <ele>8.8</ele>
        <time>2022-08-19T21:25:45Z</time>
      </trkpt>
      <trkpt lat="47.06512" lon="-1.98354">
        <ele>8.8</ele>
        <time>2022-08-19T21:25:47Z</time>
      </trkpt>
      <trkpt lat="47.0651" lon="-1.98369">
        <ele>8.8</ele>
        <time>2022-08-19T21:25:49Z</time>
      </trkpt>
      <trkpt lat="47.06508" lon="-1.98394">
        <ele>8.8</ele>
        <time>2022-08-19T21:25:52Z</time>
      </trkpt>
      <trkpt lat="47.06509" lon="-1.9841">
        <ele>8.8</ele>
        <time>2022-08-19T21:25:54Z</time>
      </trkpt>
      <trkpt lat="47.06508" lon="-1.98418">
        <ele>8.8</ele>
        <time>2022-08-19T21:25:55Z</time>
      </trkpt>
      <trkpt lat="47.06506" lon="-1.98425">
        <ele>8.8</ele>
        <time>2022-08-19T21:25:56Z</time>
      </trkpt>
      <trkpt lat="47.06502" lon="-1.98445">
        <ele>8.8</ele>
        <time>2022-08-19T21:25:59Z</time>
      </trkpt>
      <trkpt lat="47.06497" lon="-1.98485">
        <ele>9</ele>
        <time>2022-08-19T21:26:05Z</time>
      </trkpt>
      <trkpt lat="47.06496" lon="-1.98491">
        <ele>9</ele>
        <time>2022-08-19T21:26:06Z</time>
      </trkpt>
      <trkpt lat="47.06486" lon="-1.98534">
        <ele>9.8</ele>
        <time>2022-08-19T21:26:13Z</time>
      </trkpt>
      <trkpt lat="47.06484" lon="-1.9854">
        <ele>10</ele>
        <time>2022-08-19T21:26:14Z</time>
      </trkpt>
      <trkpt lat="47.06473" lon="-1.98566">
        <ele>10.2</ele>
        <time>2022-08-19T21:26:18Z</time>
      </trkpt>
      <trkpt lat="47.0645" lon="-1.98605">
        <ele>10.4</ele>
        <time>2022-08-19T21:26:24Z</time>
      </trkpt>
      <trkpt lat="47.06427" lon="-1.98651">
        <ele>10.4</ele>
        <time>2022-08-19T21:26:30Z</time>
      </trkpt>
      <trkpt lat="47.06412" lon="-1.98711">
        <ele>10.2</ele>
        <time>2022-08-19T21:26:36Z</time>
      </trkpt>
      <trkpt lat="47.06398" lon="-1.98788">
        <ele>9.8</ele>
        <time>2022-08-19T21:26:44Z</time>
      </trkpt>
      <trkpt lat="47.06396" lon="-1.98797">
        <ele>10</ele>
        <time>2022-08-19T21:26:45Z</time>
      </trkpt>
      <trkpt lat="47.06386" lon="-1.9885">
        <ele>9.8</ele>
        <time>2022-08-19T21:26:51Z</time>
      </trkpt>
      <trkpt lat="47.06373" lon="-1.98921">
        <ele>9.6</ele>
        <time>2022-08-19T21:26:59Z</time>
      </trkpt>
      <trkpt lat="47.06369" lon="-1.98982">
        <ele>9.4</ele>
        <time>2022-08-19T21:27:06Z</time>
      </trkpt>
      <trkpt lat="47.06375" lon="-1.9904">
        <ele>9.4</ele>
        <time>2022-08-19T21:27:13Z</time>
      </trkpt>
      <trkpt lat="47.06384" lon="-1.99103">
        <ele>9.4</ele>
        <time>2022-08-19T21:27:21Z</time>
      </trkpt>
      <trkpt lat="47.06388" lon="-1.99149">
        <ele>9.4</ele>
        <time>2022-08-19T21:27:27Z</time>
      </trkpt>
      <trkpt lat="47.06388" lon="-1.99156">
        <ele>9.4</ele>
        <time>2022-08-19T21:27:28Z</time>
      </trkpt>
      <trkpt lat="47.06386" lon="-1.99183">
        <ele>9.4</ele>
        <time>2022-08-19T21:27:32Z</time>
      </trkpt>
      <trkpt lat="47.06383" lon="-1.99197">
        <ele>9.2</ele>
        <time>2022-08-19T21:27:34Z</time>
      </trkpt>
      <trkpt lat="47.06377" lon="-1.99239">
        <ele>9.2</ele>
        <time>2022-08-19T21:27:40Z</time>
      </trkpt>
      <trkpt lat="47.06378" lon="-1.99294">
        <ele>9.2</ele>
        <time>2022-08-19T21:27:47Z</time>
      </trkpt>
      <trkpt lat="47.06377" lon="-1.99354">
        <ele>9.2</ele>
        <time>2022-08-19T21:27:54Z</time>
      </trkpt>
      <trkpt lat="47.0638" lon="-1.99404">
        <ele>9.2</ele>
        <time>2022-08-19T21:28:00Z</time>
      </trkpt>
      <trkpt lat="47.06384" lon="-1.9947">
        <ele>9.2</ele>
        <time>2022-08-19T21:28:08Z</time>
      </trkpt>
      <trkpt lat="47.06387" lon="-1.99528">
        <ele>9.4</ele>
        <time>2022-08-19T21:28:15Z</time>
      </trkpt>
      <trkpt lat="47.06388" lon="-1.99585">
        <ele>9.4</ele>
        <time>2022-08-19T21:28:22Z</time>
      </trkpt>
      <trkpt lat="47.0639" lon="-1.99651">
        <ele>9.4</ele>
        <time>2022-08-19T21:28:30Z</time>
      </trkpt>
      <trkpt lat="47.06393" lon="-1.99708">
        <ele>9.4</ele>
        <time>2022-08-19T21:28:37Z</time>
      </trkpt>
      <trkpt lat="47.06392" lon="-1.99759">
        <ele>9.6</ele>
        <time>2022-08-19T21:28:43Z</time>
      </trkpt>
      <trkpt lat="47.06391" lon="-1.99767">
        <ele>9.6</ele>
        <time>2022-08-19T21:28:44Z</time>
      </trkpt>
      <trkpt lat="47.06385" lon="-1.99813">
        <ele>9.6</ele>
        <time>2022-08-19T21:28:50Z</time>
      </trkpt>
      <trkpt lat="47.06384" lon="-1.99828">
        <ele>9.6</ele>
        <time>2022-08-19T21:28:52Z</time>
      </trkpt>
      <trkpt lat="47.06381" lon="-1.99842">
        <ele>9.6</ele>
        <time>2022-08-19T21:28:54Z</time>
      </trkpt>
      <trkpt lat="47.06379" lon="-1.99849">
        <ele>9.6</ele>
        <time>2022-08-19T21:28:55Z</time>
      </trkpt>
      <trkpt lat="47.06369" lon="-1.99894">
        <ele>9.4</ele>
        <time>2022-08-19T21:29:01Z</time>
      </trkpt>
      <trkpt lat="47.0636" lon="-1.99949">
        <ele>9.4</ele>
        <time>2022-08-19T21:29:08Z</time>
      </trkpt>
      <trkpt lat="47.06357" lon="-1.99971">
        <ele>9.4</ele>
        <time>2022-08-19T21:29:11Z</time>
      </trkpt>
      <trkpt lat="47.06357" lon="-1.99996">
        <ele>9.4</ele>
        <time>2022-08-19T21:29:14Z</time>
      </trkpt>
      <trkpt lat="47.06356" lon="-2.00045">
        <ele>9.2</ele>
        <time>2022-08-19T21:29:20Z</time>
      </trkpt>
      <trkpt lat="47.06357" lon="-2.00053">
        <ele>9.2</ele>
        <time>2022-08-19T21:29:21Z</time>
      </trkpt>
      <trkpt lat="47.06359" lon="-2.00109">
        <ele>9</ele>
        <time>2022-08-19T21:29:28Z</time>
      </trkpt>
      <trkpt lat="47.06361" lon="-2.00124">
        <ele>8.8</ele>
        <time>2022-08-19T21:29:30Z</time>
      </trkpt>
      <trkpt lat="47.06365" lon="-2.00138">
        <ele>8.8</ele>
        <time>2022-08-19T21:29:32Z</time>
      </trkpt>
      <trkpt lat="47.06367" lon="-2.00145">
        <ele>8.6</ele>
        <time>2022-08-19T21:29:33Z</time>
      </trkpt>
      <trkpt lat="47.06385" lon="-2.002">
        <ele>8.4</ele>
        <time>2022-08-19T21:29:41Z</time>
      </trkpt>
      <trkpt lat="47.06398" lon="-2.00237">
        <ele>8.2</ele>
        <time>2022-08-19T21:29:47Z</time>
      </trkpt>
      <trkpt lat="47.06402" lon="-2.00251">
        <ele>8.2</ele>
        <time>2022-08-19T21:29:49Z</time>
      </trkpt>
      <trkpt lat="47.06417" lon="-2.0028">
        <ele>8.2</ele>
        <time>2022-08-19T21:29:54Z</time>
      </trkpt>
      <trkpt lat="47.06422" lon="-2.00295">
        <ele>8.2</ele>
        <time>2022-08-19T21:29:57Z</time>
      </trkpt>
      <trkpt lat="47.06419" lon="-2.00299">
        <ele>8.2</ele>
        <time>2022-08-19T21:29:58Z</time>
      </trkpt>
      <trkpt lat="47.06402" lon="-2.00312">
        <ele>8</ele>
        <time>2022-08-19T21:30:02Z</time>
      </trkpt>
      <trkpt lat="47.06398" lon="-2.00315">
        <ele>8</ele>
        <time>2022-08-19T21:30:03Z</time>
      </trkpt>
      <trkpt lat="47.06371" lon="-2.00323">
        <ele>7.8</ele>
        <time>2022-08-19T21:30:08Z</time>
      </trkpt>
      <trkpt lat="47.06337" lon="-2.00335">
        <ele>7.6</ele>
        <time>2022-08-19T21:30:14Z</time>
      </trkpt>
      <trkpt lat="47.06332" lon="-2.00345">
        <ele>7.6</ele>
        <time>2022-08-19T21:30:16Z</time>
      </trkpt>
      <trkpt lat="47.06331" lon="-2.0036">
        <ele>7.4</ele>
        <time>2022-08-19T21:30:18Z</time>
      </trkpt>
      <trkpt lat="47.06333" lon="-2.00376">
        <ele>7.4</ele>
        <time>2022-08-19T21:30:20Z</time>
      </trkpt>
      <trkpt lat="47.06334" lon="-2.00384">
        <ele>7.2</ele>
        <time>2022-08-19T21:30:21Z</time>
      </trkpt>
      <trkpt lat="47.06334" lon="-2.004">
        <ele>7.2</ele>
        <time>2022-08-19T21:30:23Z</time>
      </trkpt>
      <trkpt lat="47.06333" lon="-2.00407">
        <ele>7.2</ele>
        <time>2022-08-19T21:30:24Z</time>
      </trkpt>
      <trkpt lat="47.06334" lon="-2.00455">
        <ele>7.2</ele>
        <time>2022-08-19T21:30:30Z</time>
      </trkpt>
      <trkpt lat="47.06335" lon="-2.00471">
        <ele>7</ele>
        <time>2022-08-19T21:30:32Z</time>
      </trkpt>
      <trkpt lat="47.06336" lon="-2.00487">
        <ele>7</ele>
        <time>2022-08-19T21:30:34Z</time>
      </trkpt>
      <trkpt lat="47.06341" lon="-2.0053">
        <ele>6.8</ele>
        <time>2022-08-19T21:30:40Z</time>
      </trkpt>
      <trkpt lat="47.06342" lon="-2.00568">
        <ele>7</ele>
        <time>2022-08-19T21:30:45Z</time>
      </trkpt>
      <trkpt lat="47.06342" lon="-2.00607">
        <ele>6.8</ele>
        <time>2022-08-19T21:30:50Z</time>
      </trkpt>
      <trkpt lat="47.06341" lon="-2.00614">
        <ele>6.8</ele>
        <time>2022-08-19T21:30:51Z</time>
      </trkpt>
      <trkpt lat="47.06338" lon="-2.00619">
        <ele>6.8</ele>
        <time>2022-08-19T21:30:52Z</time>
      </trkpt>
      <trkpt lat="47.06334" lon="-2.00621">
        <ele>7</ele>
        <time>2022-08-19T21:30:53Z</time>
      </trkpt>
      <trkpt lat="47.06326" lon="-2.00624">
        <ele>6.8</ele>
        <time>2022-08-19T21:30:55Z</time>
      </trkpt>
      <trkpt lat="47.06306" lon="-2.00637">
        <ele>6.8</ele>
        <time>2022-08-19T21:31:00Z</time>
      </trkpt>
      <trkpt lat="47.06284" lon="-2.00653">
        <ele>7</ele>
        <time>2022-08-19T21:31:06Z</time>
      </trkpt>
      <trkpt lat="47.06274" lon="-2.00665">
        <ele>7</ele>
        <time>2022-08-19T21:31:11Z</time>
      </trkpt>
      <trkpt lat="47.06273" lon="-2.00665">
        <ele>7</ele>
        <time>2022-08-19T21:31:12Z</time>
      </trkpt>
      <trkpt lat="47.06286" lon="-2.0065">
        <ele>8</ele>
        <time>2022-08-19T21:38:08Z</time>
      </trkpt>
      <trkpt lat="47.06289" lon="-2.00647">
        <ele>7.4</ele>
        <time>2022-08-19T21:38:10Z</time>
      </trkpt>
      <trkpt lat="47.06301" lon="-2.00639">
        <ele>7.4</ele>
        <time>2022-08-19T21:38:16Z</time>
      </trkpt>
      <trkpt lat="47.06316" lon="-2.00629">
        <ele>7.2</ele>
        <time>2022-08-19T21:38:22Z</time>
      </trkpt>
      <trkpt lat="47.06335" lon="-2.00617">
        <ele>6.6</ele>
        <time>2022-08-19T21:38:29Z</time>
      </trkpt>
      <trkpt lat="47.06339" lon="-2.00623">
        <ele>6.4</ele>
        <time>2022-08-19T21:38:31Z</time>
      </trkpt>
      <trkpt lat="47.0634" lon="-2.00629">
        <ele>6.4</ele>
        <time>2022-08-19T21:38:32Z</time>
      </trkpt>
      <trkpt lat="47.06344" lon="-2.00669">
        <ele>6.6</ele>
        <time>2022-08-19T21:38:39Z</time>
      </trkpt>
      <trkpt lat="47.06356" lon="-2.00693">
        <ele>6.6</ele>
        <time>2022-08-19T21:38:44Z</time>
      </trkpt>
      <trkpt lat="47.06378" lon="-2.00728">
        <ele>6.8</ele>
        <time>2022-08-19T21:38:52Z</time>
      </trkpt>
      <trkpt lat="47.06401" lon="-2.00766">
        <ele>6.8</ele>
        <time>2022-08-19T21:39:00Z</time>
      </trkpt>
      <trkpt lat="47.06415" lon="-2.00787">
        <ele>7</ele>
        <time>2022-08-19T21:39:06Z</time>
      </trkpt>
      <trkpt lat="47.06424" lon="-2.00803">
        <ele>7.2</ele>
        <time>2022-08-19T21:39:12Z</time>
      </trkpt>
      <trkpt lat="47.06433" lon="-2.00818">
        <ele>7.2</ele>
        <time>2022-08-19T21:39:17Z</time>
      </trkpt>
      <trkpt lat="47.06443" lon="-2.00836">
        <ele>7.2</ele>
        <time>2022-08-19T21:39:23Z</time>
      </trkpt>
      <trkpt lat="47.06453" lon="-2.00852">
        <ele>7.4</ele>
        <time>2022-08-19T21:39:28Z</time>
      </trkpt>
      <trkpt lat="47.06475" lon="-2.00891">
        <ele>7.4</ele>
        <time>2022-08-19T21:39:37Z</time>
      </trkpt>
      <trkpt lat="47.06487" lon="-2.00911">
        <ele>7.4</ele>
        <time>2022-08-19T21:39:43Z</time>
      </trkpt>
      <trkpt lat="47.06488" lon="-2.00912">
        <ele>7.4</ele>
        <time>2022-08-19T21:39:44Z</time>
      </trkpt>
      <trkpt lat="47.06489" lon="-2.00912">
        <ele>7.2</ele>
        <time>2022-08-19T21:39:46Z</time>
      </trkpt>
      <trkpt lat="47.06492" lon="-2.00921">
        <ele>7.4</ele>
        <time>2022-08-19T21:40:38Z</time>
      </trkpt>
      <trkpt lat="47.06501" lon="-2.00937">
        <ele>7.4</ele>
        <time>2022-08-19T21:40:42Z</time>
      </trkpt>
      <trkpt lat="47.06522" lon="-2.00967">
        <ele>7.2</ele>
        <time>2022-08-19T21:40:49Z</time>
      </trkpt>
      <trkpt lat="47.06548" lon="-2.00997">
        <ele>7.2</ele>
        <time>2022-08-19T21:40:57Z</time>
      </trkpt>
      <trkpt lat="47.0657" lon="-2.01022">
        <ele>7</ele>
        <time>2022-08-19T21:41:04Z</time>
      </trkpt>
      <trkpt lat="47.0659" lon="-2.01043">
        <ele>6.8</ele>
        <time>2022-08-19T21:41:11Z</time>
      </trkpt>
      <trkpt lat="47.0659" lon="-2.01045">
        <ele>6.8</ele>
        <time>2022-08-19T21:41:12Z</time>
      </trkpt>
      <trkpt lat="47.06586" lon="-2.01046">
        <ele>6.8</ele>
        <time>2022-08-19T21:41:14Z</time>
      </trkpt>
      <trkpt lat="47.06575" lon="-2.01033">
        <ele>6.6</ele>
        <time>2022-08-19T21:41:19Z</time>
      </trkpt>
      <trkpt lat="47.0656" lon="-2.01017">
        <ele>6.6</ele>
        <time>2022-08-19T21:41:25Z</time>
      </trkpt>
      <trkpt lat="47.06557" lon="-2.01013">
        <ele>6.6</ele>
        <time>2022-08-19T21:41:26Z</time>
      </trkpt>
      <trkpt lat="47.06536" lon="-2.00987">
        <ele>7</ele>
        <time>2022-08-19T21:41:33Z</time>
      </trkpt>
      <trkpt lat="47.06511" lon="-2.00953">
        <ele>7</ele>
        <time>2022-08-19T21:41:41Z</time>
      </trkpt>
      <trkpt lat="47.06508" lon="-2.00949">
        <ele>7.2</ele>
        <time>2022-08-19T21:41:42Z</time>
      </trkpt>
      <trkpt lat="47.06494" lon="-2.00929">
        <ele>7.4</ele>
        <time>2022-08-19T21:41:46Z</time>
      </trkpt>
      <trkpt lat="47.06488" lon="-2.00918">
        <ele>7.4</ele>
        <time>2022-08-19T21:41:48Z</time>
      </trkpt>
      <trkpt lat="47.06487" lon="-2.00905">
        <ele>7.6</ele>
        <time>2022-08-19T21:41:50Z</time>
      </trkpt>
      <trkpt lat="47.06489" lon="-2.00898">
        <ele>7.6</ele>
        <time>2022-08-19T21:41:51Z</time>
      </trkpt>
      <trkpt lat="47.06493" lon="-2.00893">
        <ele>7.6</ele>
        <time>2022-08-19T21:41:52Z</time>
      </trkpt>
      <trkpt lat="47.06502" lon="-2.00885">
        <ele>7.6</ele>
        <time>2022-08-19T21:41:54Z</time>
      </trkpt>
      <trkpt lat="47.06517" lon="-2.00869">
        <ele>7.4</ele>
        <time>2022-08-19T21:41:58Z</time>
      </trkpt>
      <trkpt lat="47.06542" lon="-2.00843">
        <ele>7.4</ele>
        <time>2022-08-19T21:42:05Z</time>
      </trkpt>
      <trkpt lat="47.0655" lon="-2.00836">
        <ele>7.4</ele>
        <time>2022-08-19T21:42:10Z</time>
      </trkpt>
      <trkpt lat="47.0656" lon="-2.00819">
        <ele>8.2</ele>
        <time>2022-08-19T21:42:45Z</time>
      </trkpt>
      <trkpt lat="47.06563" lon="-2.00812">
        <ele>8.2</ele>
        <time>2022-08-19T21:42:47Z</time>
      </trkpt>
      <trkpt lat="47.06565" lon="-2.00783">
        <ele>8.2</ele>
        <time>2022-08-19T21:42:52Z</time>
      </trkpt>
      <trkpt lat="47.06567" lon="-2.00772">
        <ele>8.2</ele>
        <time>2022-08-19T21:42:54Z</time>
      </trkpt>
      <trkpt lat="47.06574" lon="-2.00756">
        <ele>8</ele>
        <time>2022-08-19T21:42:57Z</time>
      </trkpt>
      <trkpt lat="47.06589" lon="-2.00729">
        <ele>8</ele>
        <time>2022-08-19T21:43:03Z</time>
      </trkpt>
      <trkpt lat="47.06604" lon="-2.00702">
        <ele>8.2</ele>
        <time>2022-08-19T21:43:10Z</time>
      </trkpt>
      <trkpt lat="47.06607" lon="-2.00693">
        <ele>8.4</ele>
        <time>2022-08-19T21:43:14Z</time>
      </trkpt>
      <trkpt lat="47.06607" lon="-2.00693">
        <ele>8.4</ele>
        <time>2022-08-19T21:43:15Z</time>
      </trkpt>
      <trkpt lat="47.06607" lon="-2.0069">
        <ele>8.4</ele>
        <time>2022-08-19T21:43:31Z</time>
      </trkpt>
      <trkpt lat="47.06606" lon="-2.00684">
        <ele>8.6</ele>
        <time>2022-08-19T21:43:33Z</time>
      </trkpt>
      <trkpt lat="47.06599" lon="-2.00669">
        <ele>8.6</ele>
        <time>2022-08-19T21:43:37Z</time>
      </trkpt>
      <trkpt lat="47.06584" lon="-2.00637">
        <ele>8.8</ele>
        <time>2022-08-19T21:43:42Z</time>
      </trkpt>
      <trkpt lat="47.06559" lon="-2.00581">
        <ele>9</ele>
        <time>2022-08-19T21:43:51Z</time>
      </trkpt>
      <trkpt lat="47.06556" lon="-2.00576">
        <ele>9.2</ele>
        <time>2022-08-19T21:43:52Z</time>
      </trkpt>
      <trkpt lat="47.06542" lon="-2.00547">
        <ele>9.2</ele>
        <time>2022-08-19T21:43:57Z</time>
      </trkpt>
      <trkpt lat="47.06526" lon="-2.00513">
        <ele>9.4</ele>
        <time>2022-08-19T21:44:03Z</time>
      </trkpt>
      <trkpt lat="47.06507" lon="-2.0047">
        <ele>9.6</ele>
        <time>2022-08-19T21:44:10Z</time>
      </trkpt>
      <trkpt lat="47.06484" lon="-2.00419">
        <ele>9.8</ele>
        <time>2022-08-19T21:44:18Z</time>
      </trkpt>
      <trkpt lat="47.06466" lon="-2.00383">
        <ele>10</ele>
        <time>2022-08-19T21:44:23Z</time>
      </trkpt>
      <trkpt lat="47.06442" lon="-2.00328">
        <ele>9.8</ele>
        <time>2022-08-19T21:44:30Z</time>
      </trkpt>
      <trkpt lat="47.06409" lon="-2.00269">
        <ele>9.6</ele>
        <time>2022-08-19T21:44:38Z</time>
      </trkpt>
      <trkpt lat="47.0639" lon="-2.00227">
        <ele>9.6</ele>
        <time>2022-08-19T21:44:43Z</time>
      </trkpt>
      <trkpt lat="47.06368" lon="-2.0016">
        <ele>9.2</ele>
        <time>2022-08-19T21:44:51Z</time>
      </trkpt>
      <trkpt lat="47.06357" lon="-2.00129">
        <ele>9</ele>
        <time>2022-08-19T21:44:56Z</time>
      </trkpt>
      <trkpt lat="47.06356" lon="-2.00134">
        <ele>8.8</ele>
        <time>2022-08-19T21:44:59Z</time>
      </trkpt>
      <trkpt lat="47.06358" lon="-2.00137">
        <ele>8.8</ele>
        <time>2022-08-19T21:45:02Z</time>
      </trkpt>
      <trkpt lat="47.06357" lon="-2.0014">
        <ele>8.8</ele>
        <time>2022-08-19T21:45:04Z</time>
      </trkpt>
      <trkpt lat="47.06352" lon="-2.0015">
        <ele>8.6</ele>
        <time>2022-08-19T21:45:09Z</time>
      </trkpt>
      <trkpt lat="47.0635" lon="-2.00153">
        <ele>8.4</ele>
        <time>2022-08-19T21:45:12Z</time>
      </trkpt>
      <trkpt lat="47.06356" lon="-2.00126">
        <ele>7.8</ele>
        <time>2022-08-19T21:46:46Z</time>
      </trkpt>
      <trkpt lat="47.06355" lon="-2.0011">
        <ele>7.8</ele>
        <time>2022-08-19T21:46:52Z</time>
      </trkpt>
      <trkpt lat="47.06352" lon="-2.00085">
        <ele>7.6</ele>
        <time>2022-08-19T21:46:59Z</time>
      </trkpt>
      <trkpt lat="47.06352" lon="-2.00055">
        <ele>7.6</ele>
        <time>2022-08-19T21:47:05Z</time>
      </trkpt>
      <trkpt lat="47.06352" lon="-2.00017">
        <ele>7.6</ele>
        <time>2022-08-19T21:47:12Z</time>
      </trkpt>
      <trkpt lat="47.06352" lon="-1.99999">
        <ele>7.6</ele>
        <time>2022-08-19T21:47:15Z</time>
      </trkpt>
      <trkpt lat="47.06352" lon="-1.9998">
        <ele>7.4</ele>
        <time>2022-08-19T21:47:18Z</time>
      </trkpt>
      <trkpt lat="47.06358" lon="-1.99938">
        <ele>7.4</ele>
        <time>2022-08-19T21:47:25Z</time>
      </trkpt>
      <trkpt lat="47.06367" lon="-1.99891">
        <ele>7.6</ele>
        <time>2022-08-19T21:47:32Z</time>
      </trkpt>
      <trkpt lat="47.0638" lon="-1.9982">
        <ele>7.8</ele>
        <time>2022-08-19T21:47:42Z</time>
      </trkpt>
      <trkpt lat="47.06386" lon="-1.99777">
        <ele>8</ele>
        <time>2022-08-19T21:47:48Z</time>
      </trkpt>
      <trkpt lat="47.06389" lon="-1.99727">
        <ele>8</ele>
        <time>2022-08-19T21:47:55Z</time>
      </trkpt>
      <trkpt lat="47.06387" lon="-1.99674">
        <ele>8.2</ele>
        <time>2022-08-19T21:48:02Z</time>
      </trkpt>
      <trkpt lat="47.06386" lon="-1.99641">
        <ele>8.2</ele>
        <time>2022-08-19T21:48:06Z</time>
      </trkpt>
      <trkpt lat="47.06386" lon="-1.99616">
        <ele>8.4</ele>
        <time>2022-08-19T21:48:09Z</time>
      </trkpt>
      <trkpt lat="47.06385" lon="-1.99566">
        <ele>8.4</ele>
        <time>2022-08-19T21:48:15Z</time>
      </trkpt>
      <trkpt lat="47.06383" lon="-1.99508">
        <ele>8.4</ele>
        <time>2022-08-19T21:48:22Z</time>
      </trkpt>
      <trkpt lat="47.0638" lon="-1.99461">
        <ele>8.6</ele>
        <time>2022-08-19T21:48:28Z</time>
      </trkpt>
      <trkpt lat="47.0638" lon="-1.99437">
        <ele>8.6</ele>
        <time>2022-08-19T21:48:31Z</time>
      </trkpt>
      <trkpt lat="47.0638" lon="-1.9942">
        <ele>8.8</ele>
        <time>2022-08-19T21:48:33Z</time>
      </trkpt>
      <trkpt lat="47.06379" lon="-1.99412">
        <ele>8.8</ele>
        <time>2022-08-19T21:48:34Z</time>
      </trkpt>
      <trkpt lat="47.06374" lon="-1.99353">
        <ele>8.8</ele>
        <time>2022-08-19T21:48:41Z</time>
      </trkpt>
      <trkpt lat="47.06373" lon="-1.99327">
        <ele>8.8</ele>
        <time>2022-08-19T21:48:44Z</time>
      </trkpt>
      <trkpt lat="47.06375" lon="-1.99301">
        <ele>8.8</ele>
        <time>2022-08-19T21:48:47Z</time>
      </trkpt>
      <trkpt lat="47.06375" lon="-1.99292">
        <ele>8.6</ele>
        <time>2022-08-19T21:48:48Z</time>
      </trkpt>
      <trkpt lat="47.06373" lon="-1.9925">
        <ele>8.6</ele>
        <time>2022-08-19T21:48:53Z</time>
      </trkpt>
      <trkpt lat="47.06373" lon="-1.99241">
        <ele>8.6</ele>
        <time>2022-08-19T21:48:54Z</time>
      </trkpt>
      <trkpt lat="47.06375" lon="-1.99216">
        <ele>8.6</ele>
        <time>2022-08-19T21:48:57Z</time>
      </trkpt>
      <trkpt lat="47.06376" lon="-1.99209">
        <ele>8.6</ele>
        <time>2022-08-19T21:48:58Z</time>
      </trkpt>
      <trkpt lat="47.06385" lon="-1.99144">
        <ele>8.6</ele>
        <time>2022-08-19T21:49:06Z</time>
      </trkpt>
      <trkpt lat="47.06379" lon="-1.99094">
        <ele>8.4</ele>
        <time>2022-08-19T21:49:12Z</time>
      </trkpt>
      <trkpt lat="47.06369" lon="-1.99021">
        <ele>8.4</ele>
        <time>2022-08-19T21:49:21Z</time>
      </trkpt>
      <trkpt lat="47.06366" lon="-1.98978">
        <ele>8.4</ele>
        <time>2022-08-19T21:49:26Z</time>
      </trkpt>
      <trkpt lat="47.06366" lon="-1.9896">
        <ele>8.4</ele>
        <time>2022-08-19T21:49:28Z</time>
      </trkpt>
      <trkpt lat="47.06373" lon="-1.98903">
        <ele>8.4</ele>
        <time>2022-08-19T21:49:35Z</time>
      </trkpt>
      <trkpt lat="47.06384" lon="-1.98839">
        <ele>8.2</ele>
        <time>2022-08-19T21:49:43Z</time>
      </trkpt>
      <trkpt lat="47.06401" lon="-1.98756">
        <ele>8.2</ele>
        <time>2022-08-19T21:49:53Z</time>
      </trkpt>
      <trkpt lat="47.06403" lon="-1.98748">
        <ele>8.2</ele>
        <time>2022-08-19T21:49:54Z</time>
      </trkpt>
      <trkpt lat="47.06415" lon="-1.98681">
        <ele>8.4</ele>
        <time>2022-08-19T21:50:03Z</time>
      </trkpt>
      <trkpt lat="47.06427" lon="-1.98638">
        <ele>8.6</ele>
        <time>2022-08-19T21:50:10Z</time>
      </trkpt>
      <trkpt lat="47.06446" lon="-1.98604">
        <ele>8.6</ele>
        <time>2022-08-19T21:50:17Z</time>
      </trkpt>
      <trkpt lat="47.06463" lon="-1.98574">
        <ele>9</ele>
        <time>2022-08-19T21:50:23Z</time>
      </trkpt>
      <trkpt lat="47.06468" lon="-1.98563">
        <ele>9.2</ele>
        <time>2022-08-19T21:50:25Z</time>
      </trkpt>
      <trkpt lat="47.06484" lon="-1.98518">
        <ele>9.6</ele>
        <time>2022-08-19T21:50:32Z</time>
      </trkpt>
      <trkpt lat="47.06491" lon="-1.98476">
        <ele>9.8</ele>
        <time>2022-08-19T21:50:37Z</time>
      </trkpt>
      <trkpt lat="47.06497" lon="-1.98412">
        <ele>9.6</ele>
        <time>2022-08-19T21:50:43Z</time>
      </trkpt>
      <trkpt lat="47.06497" lon="-1.984">
        <ele>9.6</ele>
        <time>2022-08-19T21:50:44Z</time>
      </trkpt>
      <trkpt lat="47.06502" lon="-1.98354">
        <ele>9.4</ele>
        <time>2022-08-19T21:50:49Z</time>
      </trkpt>
      <trkpt lat="47.06511" lon="-1.983">
        <ele>10.2</ele>
        <time>2022-08-19T21:50:56Z</time>
      </trkpt>
      <trkpt lat="47.06527" lon="-1.98253">
        <ele>10</ele>
        <time>2022-08-19T21:51:03Z</time>
      </trkpt>
      <trkpt lat="47.06528" lon="-1.98245">
        <ele>10</ele>
        <time>2022-08-19T21:51:05Z</time>
      </trkpt>
      <trkpt lat="47.06527" lon="-1.98241">
        <ele>10</ele>
        <time>2022-08-19T21:51:06Z</time>
      </trkpt>
      <trkpt lat="47.06522" lon="-1.98232">
        <ele>10.2</ele>
        <time>2022-08-19T21:51:08Z</time>
      </trkpt>
      <trkpt lat="47.06519" lon="-1.98218">
        <ele>10.2</ele>
        <time>2022-08-19T21:51:10Z</time>
      </trkpt>
      <trkpt lat="47.06511" lon="-1.98171">
        <ele>10</ele>
        <time>2022-08-19T21:51:16Z</time>
      </trkpt>
      <trkpt lat="47.06508" lon="-1.98154">
        <ele>10</ele>
        <time>2022-08-19T21:51:18Z</time>
      </trkpt>
      <trkpt lat="47.06506" lon="-1.98134">
        <ele>9.6</ele>
        <time>2022-08-19T21:51:20Z</time>
      </trkpt>
      <trkpt lat="47.06505" lon="-1.98113">
        <ele>9.6</ele>
        <time>2022-08-19T21:51:22Z</time>
      </trkpt>
      <trkpt lat="47.06508" lon="-1.98091">
        <ele>9.4</ele>
        <time>2022-08-19T21:51:24Z</time>
      </trkpt>
      <trkpt lat="47.06513" lon="-1.98059">
        <ele>9</ele>
        <time>2022-08-19T21:51:27Z</time>
      </trkpt>
      <trkpt lat="47.06512" lon="-1.98038">
        <ele>8.8</ele>
        <time>2022-08-19T21:51:29Z</time>
      </trkpt>
      <trkpt lat="47.06509" lon="-1.98018">
        <ele>8.6</ele>
        <time>2022-08-19T21:51:31Z</time>
      </trkpt>
      <trkpt lat="47.06503" lon="-1.98">
        <ele>8.4</ele>
        <time>2022-08-19T21:51:33Z</time>
      </trkpt>
      <trkpt lat="47.06498" lon="-1.97985">
        <ele>8.4</ele>
        <time>2022-08-19T21:51:35Z</time>
      </trkpt>
      <trkpt lat="47.06493" lon="-1.9797">
        <ele>8.4</ele>
        <time>2022-08-19T21:51:37Z</time>
      </trkpt>
      <trkpt lat="47.06488" lon="-1.97952">
        <ele>8.2</ele>
        <time>2022-08-19T21:51:40Z</time>
      </trkpt>
      <trkpt lat="47.06486" lon="-1.9794">
        <ele>8.2</ele>
        <time>2022-08-19T21:51:42Z</time>
      </trkpt>
      <trkpt lat="47.06482" lon="-1.97904">
        <ele>8</ele>
        <time>2022-08-19T21:51:48Z</time>
      </trkpt>
      <trkpt lat="47.0648" lon="-1.97869">
        <ele>7.8</ele>
        <time>2022-08-19T21:51:54Z</time>
      </trkpt>
      <trkpt lat="47.06476" lon="-1.97842">
        <ele>7.8</ele>
        <time>2022-08-19T21:51:59Z</time>
      </trkpt>
      <trkpt lat="47.06475" lon="-1.97814">
        <ele>7.6</ele>
        <time>2022-08-19T21:52:04Z</time>
      </trkpt>
      <trkpt lat="47.06472" lon="-1.97775">
        <ele>7.6</ele>
        <time>2022-08-19T21:52:10Z</time>
      </trkpt>
      <trkpt lat="47.06471" lon="-1.97749">
        <ele>7.4</ele>
        <time>2022-08-19T21:52:14Z</time>
      </trkpt>
      <trkpt lat="47.0647" lon="-1.97691">
        <ele>7.8</ele>
        <time>2022-08-19T21:52:22Z</time>
      </trkpt>
      <trkpt lat="47.06471" lon="-1.97677">
        <ele>8.2</ele>
        <time>2022-08-19T21:52:24Z</time>
      </trkpt>
      <trkpt lat="47.06473" lon="-1.97664">
        <ele>8.4</ele>
        <time>2022-08-19T21:52:26Z</time>
      </trkpt>
      <trkpt lat="47.06475" lon="-1.97658">
        <ele>8.4</ele>
        <time>2022-08-19T21:52:27Z</time>
      </trkpt>
      <trkpt lat="47.06477" lon="-1.97652">
        <ele>8.6</ele>
        <time>2022-08-19T21:52:28Z</time>
      </trkpt>
      <trkpt lat="47.06484" lon="-1.97642">
        <ele>8.8</ele>
        <time>2022-08-19T21:52:30Z</time>
      </trkpt>
      <trkpt lat="47.06488" lon="-1.97638">
        <ele>8.8</ele>
        <time>2022-08-19T21:52:31Z</time>
      </trkpt>
      <trkpt lat="47.06504" lon="-1.97623">
        <ele>8.8</ele>
        <time>2022-08-19T21:52:35Z</time>
      </trkpt>
      <trkpt lat="47.0651" lon="-1.97614">
        <ele>9</ele>
        <time>2022-08-19T21:52:37Z</time>
      </trkpt>
      <trkpt lat="47.06515" lon="-1.976">
        <ele>9.2</ele>
        <time>2022-08-19T21:52:39Z</time>
      </trkpt>
      <trkpt lat="47.06515" lon="-1.97585">
        <ele>9.4</ele>
        <time>2022-08-19T21:52:41Z</time>
      </trkpt>
      <trkpt lat="47.0651" lon="-1.97543">
        <ele>10.2</ele>
        <time>2022-08-19T21:52:47Z</time>
      </trkpt>
      <trkpt lat="47.06504" lon="-1.97516">
        <ele>10.4</ele>
        <time>2022-08-19T21:52:51Z</time>
      </trkpt>
      <trkpt lat="47.065" lon="-1.97503">
        <ele>10.8</ele>
        <time>2022-08-19T21:52:53Z</time>
      </trkpt>
      <trkpt lat="47.06491" lon="-1.97468">
        <ele>11.2</ele>
        <time>2022-08-19T21:52:58Z</time>
      </trkpt>
      <trkpt lat="47.06489" lon="-1.97454">
        <ele>11.4</ele>
        <time>2022-08-19T21:53:00Z</time>
      </trkpt>
      <trkpt lat="47.06485" lon="-1.97433">
        <ele>11.8</ele>
        <time>2022-08-19T21:53:03Z</time>
      </trkpt>
      <trkpt lat="47.06482" lon="-1.97419">
        <ele>12</ele>
        <time>2022-08-19T21:53:05Z</time>
      </trkpt>
      <trkpt lat="47.06473" lon="-1.97361">
        <ele>13</ele>
        <time>2022-08-19T21:53:13Z</time>
      </trkpt>
      <trkpt lat="47.06472" lon="-1.97313">
        <ele>13.4</ele>
        <time>2022-08-19T21:53:19Z</time>
      </trkpt>
      <trkpt lat="47.06473" lon="-1.97305">
        <ele>13.6</ele>
        <time>2022-08-19T21:53:20Z</time>
      </trkpt>
      <trkpt lat="47.06477" lon="-1.97291">
        <ele>13.8</ele>
        <time>2022-08-19T21:53:22Z</time>
      </trkpt>
      <trkpt lat="47.0648" lon="-1.97284">
        <ele>13.8</ele>
        <time>2022-08-19T21:53:23Z</time>
      </trkpt>
      <trkpt lat="47.06483" lon="-1.97278">
        <ele>14</ele>
        <time>2022-08-19T21:53:24Z</time>
      </trkpt>
      <trkpt lat="47.06492" lon="-1.97268">
        <ele>14.2</ele>
        <time>2022-08-19T21:53:26Z</time>
      </trkpt>
      <trkpt lat="47.06497" lon="-1.97265">
        <ele>14.2</ele>
        <time>2022-08-19T21:53:27Z</time>
      </trkpt>
      <trkpt lat="47.0653" lon="-1.97253">
        <ele>14.6</ele>
        <time>2022-08-19T21:53:33Z</time>
      </trkpt>
      <trkpt lat="47.06574" lon="-1.97241">
        <ele>15.4</ele>
        <time>2022-08-19T21:53:41Z</time>
      </trkpt>
      <trkpt lat="47.06628" lon="-1.97232">
        <ele>16</ele>
        <time>2022-08-19T21:53:50Z</time>
      </trkpt>
      <trkpt lat="47.0664" lon="-1.97228">
        <ele>16</ele>
        <time>2022-08-19T21:53:52Z</time>
      </trkpt>
      <trkpt lat="47.06658" lon="-1.97218">
        <ele>16.2</ele>
        <time>2022-08-19T21:53:55Z</time>
      </trkpt>
      <trkpt lat="47.06696" lon="-1.9719">
        <ele>16.6</ele>
        <time>2022-08-19T21:54:02Z</time>
      </trkpt>
      <trkpt lat="47.06728" lon="-1.97177">
        <ele>16.8</ele>
        <time>2022-08-19T21:54:07Z</time>
      </trkpt>
      <trkpt lat="47.06779" lon="-1.97163">
        <ele>16.8</ele>
        <time>2022-08-19T21:54:14Z</time>
      </trkpt>
      <trkpt lat="47.068" lon="-1.97156">
        <ele>17</ele>
        <time>2022-08-19T21:54:17Z</time>
      </trkpt>
      <trkpt lat="47.06813" lon="-1.97145">
        <ele>17</ele>
        <time>2022-08-19T21:54:19Z</time>
      </trkpt>
      <trkpt lat="47.06826" lon="-1.9712">
        <ele>17</ele>
        <time>2022-08-19T21:54:22Z</time>
      </trkpt>
      <trkpt lat="47.0683" lon="-1.97111">
        <ele>17</ele>
        <time>2022-08-19T21:54:23Z</time>
      </trkpt>
      <trkpt lat="47.06847" lon="-1.97046">
        <ele>17.2</ele>
        <time>2022-08-19T21:54:30Z</time>
      </trkpt>
      <trkpt lat="47.06858" lon="-1.97014">
        <ele>17.4</ele>
        <time>2022-08-19T21:54:34Z</time>
      </trkpt>
      <trkpt lat="47.06863" lon="-1.96999">
        <ele>17.6</ele>
        <time>2022-08-19T21:54:36Z</time>
      </trkpt>
      <trkpt lat="47.06872" lon="-1.96976">
        <ele>17.6</ele>
        <time>2022-08-19T21:54:39Z</time>
      </trkpt>
      <trkpt lat="47.06886" lon="-1.96915">
        <ele>18</ele>
        <time>2022-08-19T21:54:46Z</time>
      </trkpt>
      <trkpt lat="47.06889" lon="-1.96897">
        <ele>18</ele>
        <time>2022-08-19T21:54:48Z</time>
      </trkpt>
      <trkpt lat="47.06894" lon="-1.9688">
        <ele>18.2</ele>
        <time>2022-08-19T21:54:50Z</time>
      </trkpt>
      <trkpt lat="47.06898" lon="-1.96872">
        <ele>18.2</ele>
        <time>2022-08-19T21:54:51Z</time>
      </trkpt>
      <trkpt lat="47.06925" lon="-1.96822">
        <ele>18.6</ele>
        <time>2022-08-19T21:54:58Z</time>
      </trkpt>
      <trkpt lat="47.0693" lon="-1.96815">
        <ele>18.6</ele>
        <time>2022-08-19T21:54:59Z</time>
      </trkpt>
      <trkpt lat="47.06947" lon="-1.96779">
        <ele>19</ele>
        <time>2022-08-19T21:55:04Z</time>
      </trkpt>
      <trkpt lat="47.06954" lon="-1.96759">
        <ele>19</ele>
        <time>2022-08-19T21:55:07Z</time>
      </trkpt>
      <trkpt lat="47.06956" lon="-1.96751">
        <ele>19</ele>
        <time>2022-08-19T21:55:08Z</time>
      </trkpt>
      <trkpt lat="47.06961" lon="-1.9673">
        <ele>19</ele>
        <time>2022-08-19T21:55:11Z</time>
      </trkpt>
      <trkpt lat="47.06965" lon="-1.96714">
        <ele>19</ele>
        <time>2022-08-19T21:55:13Z</time>
      </trkpt>
      <trkpt lat="47.06974" lon="-1.96691">
        <ele>18.8</ele>
        <time>2022-08-19T21:55:16Z</time>
      </trkpt>
      <trkpt lat="47.0698" lon="-1.96676">
        <ele>18.8</ele>
        <time>2022-08-19T21:55:18Z</time>
      </trkpt>
      <trkpt lat="47.06986" lon="-1.96661">
        <ele>19.2</ele>
        <time>2022-08-19T21:55:20Z</time>
      </trkpt>
      <trkpt lat="47.06997" lon="-1.96641">
        <ele>18.2</ele>
        <time>2022-08-19T21:55:23Z</time>
      </trkpt>
      <trkpt lat="47.0702" lon="-1.96604">
        <ele>19</ele>
        <time>2022-08-19T21:55:29Z</time>
      </trkpt>
      <trkpt lat="47.07025" lon="-1.96589">
        <ele>18.8</ele>
        <time>2022-08-19T21:55:31Z</time>
      </trkpt>
      <trkpt lat="47.07024" lon="-1.96581">
        <ele>19</ele>
        <time>2022-08-19T21:55:32Z</time>
      </trkpt>
      <trkpt lat="47.07009" lon="-1.9653">
        <ele>19.2</ele>
        <time>2022-08-19T21:55:39Z</time>
      </trkpt>
      <trkpt lat="47.06993" lon="-1.96495">
        <ele>19.2</ele>
        <time>2022-08-19T21:55:44Z</time>
      </trkpt>
      <trkpt lat="47.06974" lon="-1.96448">
        <ele>19.2</ele>
        <time>2022-08-19T21:55:50Z</time>
      </trkpt>
      <trkpt lat="47.06951" lon="-1.96388">
        <ele>19.4</ele>
        <time>2022-08-19T21:55:57Z</time>
      </trkpt>
      <trkpt lat="47.06949" lon="-1.96378">
        <ele>19.4</ele>
        <time>2022-08-19T21:55:58Z</time>
      </trkpt>
      <trkpt lat="47.06949" lon="-1.96357">
        <ele>19.4</ele>
        <time>2022-08-19T21:56:00Z</time>
      </trkpt>
      <trkpt lat="47.06956" lon="-1.96337">
        <ele>19.4</ele>
        <time>2022-08-19T21:56:02Z</time>
      </trkpt>
      <trkpt lat="47.06961" lon="-1.96329">
        <ele>19.4</ele>
        <time>2022-08-19T21:56:03Z</time>
      </trkpt>
      <trkpt lat="47.06981" lon="-1.96288">
        <ele>19.4</ele>
        <time>2022-08-19T21:56:08Z</time>
      </trkpt>
      <trkpt lat="47.07004" lon="-1.96242">
        <ele>19.4</ele>
        <time>2022-08-19T21:56:14Z</time>
      </trkpt>
      <trkpt lat="47.07034" lon="-1.96178">
        <ele>19.2</ele>
        <time>2022-08-19T21:56:22Z</time>
      </trkpt>
      <trkpt lat="47.07053" lon="-1.96125">
        <ele>19.4</ele>
        <time>2022-08-19T21:56:28Z</time>
      </trkpt>
      <trkpt lat="47.07061" lon="-1.96088">
        <ele>19.4</ele>
        <time>2022-08-19T21:56:32Z</time>
      </trkpt>
      <trkpt lat="47.07065" lon="-1.9608">
        <ele>19.6</ele>
        <time>2022-08-19T21:56:33Z</time>
      </trkpt>
      <trkpt lat="47.07095" lon="-1.96014">
        <ele>19.8</ele>
        <time>2022-08-19T21:56:41Z</time>
      </trkpt>
      <trkpt lat="47.07119" lon="-1.95954">
        <ele>20</ele>
        <time>2022-08-19T21:56:48Z</time>
      </trkpt>
      <trkpt lat="47.07139" lon="-1.95876">
        <ele>20.4</ele>
        <time>2022-08-19T21:56:56Z</time>
      </trkpt>
      <trkpt lat="47.07156" lon="-1.95798">
        <ele>20.8</ele>
        <time>2022-08-19T21:57:04Z</time>
      </trkpt>
      <trkpt lat="47.07171" lon="-1.95729">
        <ele>21.2</ele>
        <time>2022-08-19T21:57:11Z</time>
      </trkpt>
      <trkpt lat="47.07186" lon="-1.95671">
        <ele>21.4</ele>
        <time>2022-08-19T21:57:17Z</time>
      </trkpt>
      <trkpt lat="47.07206" lon="-1.95602">
        <ele>21.6</ele>
        <time>2022-08-19T21:57:24Z</time>
      </trkpt>
      <trkpt lat="47.07222" lon="-1.95546">
        <ele>21.8</ele>
        <time>2022-08-19T21:57:30Z</time>
      </trkpt>
      <trkpt lat="47.0724" lon="-1.95473">
        <ele>22</ele>
        <time>2022-08-19T21:57:38Z</time>
      </trkpt>
      <trkpt lat="47.07248" lon="-1.95464">
        <ele>22</ele>
        <time>2022-08-19T21:57:40Z</time>
      </trkpt>
      <trkpt lat="47.07253" lon="-1.95463">
        <ele>22.2</ele>
        <time>2022-08-19T21:57:41Z</time>
      </trkpt>
      <trkpt lat="47.0728" lon="-1.9546">
        <ele>22.2</ele>
        <time>2022-08-19T21:57:47Z</time>
      </trkpt>
      <trkpt lat="47.07307" lon="-1.95454">
        <ele>22.4</ele>
        <time>2022-08-19T21:57:52Z</time>
      </trkpt>
      <trkpt lat="47.07357" lon="-1.95444">
        <ele>22.2</ele>
        <time>2022-08-19T21:58:00Z</time>
      </trkpt>
      <trkpt lat="47.07363" lon="-1.95443">
        <ele>22.4</ele>
        <time>2022-08-19T21:58:01Z</time>
      </trkpt>
      <trkpt lat="47.074" lon="-1.95436">
        <ele>22.4</ele>
        <time>2022-08-19T21:58:07Z</time>
      </trkpt>
      <trkpt lat="47.07433" lon="-1.9543">
        <ele>22.6</ele>
        <time>2022-08-19T21:58:12Z</time>
      </trkpt>
      <trkpt lat="47.07439" lon="-1.95429">
        <ele>22.6</ele>
        <time>2022-08-19T21:58:13Z</time>
      </trkpt>
      <trkpt lat="47.0749" lon="-1.95415">
        <ele>22.4</ele>
        <time>2022-08-19T21:58:21Z</time>
      </trkpt>
      <trkpt lat="47.07516" lon="-1.95406">
        <ele>22.4</ele>
        <time>2022-08-19T21:58:25Z</time>
      </trkpt>
      <trkpt lat="47.07528" lon="-1.954">
        <ele>22.2</ele>
        <time>2022-08-19T21:58:27Z</time>
      </trkpt>
      <trkpt lat="47.07566" lon="-1.95383">
        <ele>22.2</ele>
        <time>2022-08-19T21:58:33Z</time>
      </trkpt>
      <trkpt lat="47.07572" lon="-1.9538">
        <ele>22.2</ele>
        <time>2022-08-19T21:58:34Z</time>
      </trkpt>
      <trkpt lat="47.07608" lon="-1.95368">
        <ele>22</ele>
        <time>2022-08-19T21:58:39Z</time>
      </trkpt>
      <trkpt lat="47.07644" lon="-1.95352">
        <ele>21.8</ele>
        <time>2022-08-19T21:58:45Z</time>
      </trkpt>
      <trkpt lat="47.0765" lon="-1.9535">
        <ele>21.8</ele>
        <time>2022-08-19T21:58:46Z</time>
      </trkpt>
      <trkpt lat="47.07672" lon="-1.95341">
        <ele>21.6</ele>
        <time>2022-08-19T21:58:50Z</time>
      </trkpt>
      <trkpt lat="47.077" lon="-1.95327">
        <ele>21.2</ele>
        <time>2022-08-19T21:58:56Z</time>
      </trkpt>
      <trkpt lat="47.07705" lon="-1.95325">
        <ele>21.2</ele>
        <time>2022-08-19T21:58:57Z</time>
      </trkpt>
      <trkpt lat="47.07724" lon="-1.95318">
        <ele>21</ele>
        <time>2022-08-19T21:59:01Z</time>
      </trkpt>
      <trkpt lat="47.0775" lon="-1.95305">
        <ele>20.6</ele>
        <time>2022-08-19T21:59:06Z</time>
      </trkpt>
      <trkpt lat="47.07755" lon="-1.95303">
        <ele>20.6</ele>
        <time>2022-08-19T21:59:07Z</time>
      </trkpt>
      <trkpt lat="47.07782" lon="-1.95289">
        <ele>20.4</ele>
        <time>2022-08-19T21:59:12Z</time>
      </trkpt>
      <trkpt lat="47.07792" lon="-1.95279">
        <ele>20.2</ele>
        <time>2022-08-19T21:59:14Z</time>
      </trkpt>
      <trkpt lat="47.07799" lon="-1.95267">
        <ele>20</ele>
        <time>2022-08-19T21:59:16Z</time>
      </trkpt>
      <trkpt lat="47.07802" lon="-1.95262">
        <ele>20</ele>
        <time>2022-08-19T21:59:17Z</time>
      </trkpt>
      <trkpt lat="47.07807" lon="-1.95242">
        <ele>19.8</ele>
        <time>2022-08-19T21:59:20Z</time>
      </trkpt>
      <trkpt lat="47.07811" lon="-1.95218">
        <ele>19.6</ele>
        <time>2022-08-19T21:59:23Z</time>
      </trkpt>
      <trkpt lat="47.07815" lon="-1.95202">
        <ele>19.4</ele>
        <time>2022-08-19T21:59:25Z</time>
      </trkpt>
      <trkpt lat="47.07822" lon="-1.9517">
        <ele>19</ele>
        <time>2022-08-19T21:59:29Z</time>
      </trkpt>
      <trkpt lat="47.07826" lon="-1.95155">
        <ele>18.6</ele>
        <time>2022-08-19T21:59:31Z</time>
      </trkpt>
      <trkpt lat="47.07837" lon="-1.95107">
        <ele>18.2</ele>
        <time>2022-08-19T21:59:38Z</time>
      </trkpt>
      <trkpt lat="47.07846" lon="-1.95066">
        <ele>18</ele>
        <time>2022-08-19T21:59:45Z</time>
      </trkpt>
      <trkpt lat="47.07853" lon="-1.95038">
        <ele>17.8</ele>
        <time>2022-08-19T21:59:50Z</time>
      </trkpt>
      <trkpt lat="47.0786" lon="-1.95005">
        <ele>17.6</ele>
        <time>2022-08-19T21:59:55Z</time>
      </trkpt>
      <trkpt lat="47.07863" lon="-1.94992">
        <ele>17.6</ele>
        <time>2022-08-19T21:59:57Z</time>
      </trkpt>
      <trkpt lat="47.07867" lon="-1.94972">
        <ele>17.6</ele>
        <time>2022-08-19T22:00:00Z</time>
      </trkpt>
      <trkpt lat="47.07876" lon="-1.94933">
        <ele>17.6</ele>
        <time>2022-08-19T22:00:06Z</time>
      </trkpt>
      <trkpt lat="47.07882" lon="-1.94903">
        <ele>17.6</ele>
        <time>2022-08-19T22:00:10Z</time>
      </trkpt>
      <trkpt lat="47.07885" lon="-1.94888">
        <ele>17.2</ele>
        <time>2022-08-19T22:00:12Z</time>
      </trkpt>
      <trkpt lat="47.07896" lon="-1.9484">
        <ele>17.8</ele>
        <time>2022-08-19T22:00:19Z</time>
      </trkpt>
      <trkpt lat="47.079" lon="-1.94819">
        <ele>17.8</ele>
        <time>2022-08-19T22:00:22Z</time>
      </trkpt>
      <trkpt lat="47.07907" lon="-1.94791">
        <ele>18</ele>
        <time>2022-08-19T22:00:26Z</time>
      </trkpt>
      <trkpt lat="47.07917" lon="-1.94743">
        <ele>18.2</ele>
        <time>2022-08-19T22:00:33Z</time>
      </trkpt>
      <trkpt lat="47.07922" lon="-1.94715">
        <ele>18.4</ele>
        <time>2022-08-19T22:00:37Z</time>
      </trkpt>
      <trkpt lat="47.07924" lon="-1.94709">
        <ele>18.4</ele>
        <time>2022-08-19T22:00:38Z</time>
      </trkpt>
      <trkpt lat="47.07927" lon="-1.94704">
        <ele>18.4</ele>
        <time>2022-08-19T22:00:39Z</time>
      </trkpt>
      <trkpt lat="47.07937" lon="-1.947">
        <ele>18.6</ele>
        <time>2022-08-19T22:00:41Z</time>
      </trkpt>
      <trkpt lat="47.07964" lon="-1.94701">
        <ele>18.6</ele>
        <time>2022-08-19T22:00:46Z</time>
      </trkpt>
      <trkpt lat="47.08012" lon="-1.94702">
        <ele>18.8</ele>
        <time>2022-08-19T22:00:54Z</time>
      </trkpt>
      <trkpt lat="47.08032" lon="-1.94703">
        <ele>18.8</ele>
        <time>2022-08-19T22:00:57Z</time>
      </trkpt>
      <trkpt lat="47.08046" lon="-1.94706">
        <ele>18.8</ele>
        <time>2022-08-19T22:00:59Z</time>
      </trkpt>
      <trkpt lat="47.08085" lon="-1.94724">
        <ele>18.2</ele>
        <time>2022-08-19T22:01:04Z</time>
      </trkpt>
      <trkpt lat="47.08134" lon="-1.94749">
        <ele>17.8</ele>
        <time>2022-08-19T22:01:10Z</time>
      </trkpt>
      <trkpt lat="47.08182" lon="-1.94772">
        <ele>17.4</ele>
        <time>2022-08-19T22:01:16Z</time>
      </trkpt>
      <trkpt lat="47.08226" lon="-1.94789">
        <ele>17.2</ele>
        <time>2022-08-19T22:01:22Z</time>
      </trkpt>
      <trkpt lat="47.08266" lon="-1.94803">
        <ele>17.2</ele>
        <time>2022-08-19T22:01:28Z</time>
      </trkpt>
      <trkpt lat="47.0832" lon="-1.94822">
        <ele>17.8</ele>
        <time>2022-08-19T22:01:37Z</time>
      </trkpt>
      <trkpt lat="47.08358" lon="-1.94835">
        <ele>17.8</ele>
        <time>2022-08-19T22:01:44Z</time>
      </trkpt>
      <trkpt lat="47.08395" lon="-1.94849">
        <ele>18.2</ele>
        <time>2022-08-19T22:01:51Z</time>
      </trkpt>
      <trkpt lat="47.08406" lon="-1.94846">
        <ele>18.2</ele>
        <time>2022-08-19T22:01:53Z</time>
      </trkpt>
      <trkpt lat="47.0841" lon="-1.94841">
        <ele>18.4</ele>
        <time>2022-08-19T22:01:54Z</time>
      </trkpt>
      <trkpt lat="47.08414" lon="-1.94835">
        <ele>18.4</ele>
        <time>2022-08-19T22:01:55Z</time>
      </trkpt>
      <trkpt lat="47.08428" lon="-1.94809">
        <ele>18.4</ele>
        <time>2022-08-19T22:01:59Z</time>
      </trkpt>
      <trkpt lat="47.08453" lon="-1.94766">
        <ele>18.6</ele>
        <time>2022-08-19T22:02:06Z</time>
      </trkpt>
      <trkpt lat="47.08486" lon="-1.94708">
        <ele>19.2</ele>
        <time>2022-08-19T22:02:15Z</time>
      </trkpt>
      <trkpt lat="47.08509" lon="-1.94657">
        <ele>19.6</ele>
        <time>2022-08-19T22:02:22Z</time>
      </trkpt>
      <trkpt lat="47.08533" lon="-1.94593">
        <ele>20</ele>
        <time>2022-08-19T22:02:30Z</time>
      </trkpt>
      <trkpt lat="47.08559" lon="-1.9452">
        <ele>20.2</ele>
        <time>2022-08-19T22:02:39Z</time>
      </trkpt>
      <trkpt lat="47.08575" lon="-1.94472">
        <ele>20.4</ele>
        <time>2022-08-19T22:02:45Z</time>
      </trkpt>
      <trkpt lat="47.086" lon="-1.94407">
        <ele>20.8</ele>
        <time>2022-08-19T22:02:53Z</time>
      </trkpt>
      <trkpt lat="47.08616" lon="-1.94357">
        <ele>21</ele>
        <time>2022-08-19T22:02:59Z</time>
      </trkpt>
      <trkpt lat="47.08637" lon="-1.94279">
        <ele>21.4</ele>
        <time>2022-08-19T22:03:08Z</time>
      </trkpt>
      <trkpt lat="47.08651" lon="-1.94224">
        <ele>21.6</ele>
        <time>2022-08-19T22:03:15Z</time>
      </trkpt>
      <trkpt lat="47.0866" lon="-1.94196">
        <ele>21.8</ele>
        <time>2022-08-19T22:03:19Z</time>
      </trkpt>
      <trkpt lat="47.08668" lon="-1.94185">
        <ele>21.8</ele>
        <time>2022-08-19T22:03:21Z</time>
      </trkpt>
      <trkpt lat="47.08677" lon="-1.9418">
        <ele>21.8</ele>
        <time>2022-08-19T22:03:23Z</time>
      </trkpt>
      <trkpt lat="47.08683" lon="-1.9418">
        <ele>21.8</ele>
        <time>2022-08-19T22:03:24Z</time>
      </trkpt>
      <trkpt lat="47.08711" lon="-1.94185">
        <ele>22.2</ele>
        <time>2022-08-19T22:03:29Z</time>
      </trkpt>
      <trkpt lat="47.08717" lon="-1.94186">
        <ele>22.2</ele>
        <time>2022-08-19T22:03:30Z</time>
      </trkpt>
      <trkpt lat="47.08723" lon="-1.94187">
        <ele>22.2</ele>
        <time>2022-08-19T22:03:31Z</time>
      </trkpt>
      <trkpt lat="47.08746" lon="-1.94193">
        <ele>22.6</ele>
        <time>2022-08-19T22:03:35Z</time>
      </trkpt>
      <trkpt lat="47.08768" lon="-1.94197">
        <ele>22.6</ele>
        <time>2022-08-19T22:03:39Z</time>
      </trkpt>
      <trkpt lat="47.08779" lon="-1.94194">
        <ele>22.8</ele>
        <time>2022-08-19T22:03:41Z</time>
      </trkpt>
      <trkpt lat="47.08784" lon="-1.94192">
        <ele>22.8</ele>
        <time>2022-08-19T22:03:42Z</time>
      </trkpt>
      <trkpt lat="47.08797" lon="-1.94187">
        <ele>23</ele>
        <time>2022-08-19T22:03:45Z</time>
      </trkpt>
      <trkpt lat="47.088" lon="-1.94187">
        <ele>23</ele>
        <time>2022-08-19T22:03:46Z</time>
      </trkpt>
      <trkpt lat="47.08805" lon="-1.94191">
        <ele>23.2</ele>
        <time>2022-08-19T22:03:48Z</time>
      </trkpt>
      <trkpt lat="47.08831" lon="-1.94212">
        <ele>23.4</ele>
        <time>2022-08-19T22:03:58Z</time>
      </trkpt>
      <trkpt lat="47.08845" lon="-1.94222">
        <ele>23.8</ele>
        <time>2022-08-19T22:04:04Z</time>
      </trkpt>
      <trkpt lat="47.08866" lon="-1.94242">
        <ele>24</ele>
        <time>2022-08-19T22:04:10Z</time>
      </trkpt>
      <trkpt lat="47.08873" lon="-1.94252">
        <ele>24</ele>
        <time>2022-08-19T22:04:12Z</time>
      </trkpt>
      <trkpt lat="47.08883" lon="-1.94269">
        <ele>24</ele>
        <time>2022-08-19T22:04:15Z</time>
      </trkpt>
      <trkpt lat="47.08886" lon="-1.94275">
        <ele>24</ele>
        <time>2022-08-19T22:04:16Z</time>
      </trkpt>
      <trkpt lat="47.0889" lon="-1.94286">
        <ele>24</ele>
        <time>2022-08-19T22:04:18Z</time>
      </trkpt>
      <trkpt lat="47.08894" lon="-1.94303">
        <ele>24</ele>
        <time>2022-08-19T22:04:21Z</time>
      </trkpt>
      <trkpt lat="47.08909" lon="-1.94357">
        <ele>24.2</ele>
        <time>2022-08-19T22:04:30Z</time>
      </trkpt>
      <trkpt lat="47.08923" lon="-1.94409">
        <ele>24</ele>
        <time>2022-08-19T22:04:38Z</time>
      </trkpt>
      <trkpt lat="47.08938" lon="-1.94462">
        <ele>23.8</ele>
        <time>2022-08-19T22:04:45Z</time>
      </trkpt>
      <trkpt lat="47.08952" lon="-1.94515">
        <ele>23.6</ele>
        <time>2022-08-19T22:04:52Z</time>
      </trkpt>
      <trkpt lat="47.0896" lon="-1.94545">
        <ele>23.4</ele>
        <time>2022-08-19T22:04:57Z</time>
      </trkpt>
      <trkpt lat="47.08962" lon="-1.94552">
        <ele>23.4</ele>
        <time>2022-08-19T22:05:01Z</time>
      </trkpt>
      <trkpt lat="47.08962" lon="-1.94552">
        <ele>23.4</ele>
        <time>2022-08-19T22:05:02Z</time>
      </trkpt>
      <trkpt lat="47.08961" lon="-1.94551">
        <ele>23.2</ele>
        <time>2022-08-19T22:05:12Z</time>
      </trkpt>
      <trkpt lat="47.0896" lon="-1.94545">
        <ele>23.2</ele>
        <time>2022-08-19T22:05:15Z</time>
      </trkpt>
      <trkpt lat="47.08959" lon="-1.94543">
        <ele>23.2</ele>
        <time>2022-08-19T22:05:16Z</time>
      </trkpt>
      <trkpt lat="47.08956" lon="-1.94534">
        <ele>23.2</ele>
        <time>2022-08-19T22:05:19Z</time>
      </trkpt>
      <trkpt lat="47.08955" lon="-1.94531">
        <ele>23</ele>
        <time>2022-08-19T22:05:20Z</time>
      </trkpt>
      <trkpt lat="47.08951" lon="-1.9452">
        <ele>23</ele>
        <time>2022-08-19T22:05:23Z</time>
      </trkpt>
      <trkpt lat="47.08942" lon="-1.94488">
        <ele>22.8</ele>
        <time>2022-08-19T22:05:29Z</time>
      </trkpt>
      <trkpt lat="47.0893" lon="-1.94447">
        <ele>22.6</ele>
        <time>2022-08-19T22:05:36Z</time>
      </trkpt>
      <trkpt lat="47.08917" lon="-1.94397">
        <ele>22.6</ele>
        <time>2022-08-19T22:05:44Z</time>
      </trkpt>
      <trkpt lat="47.08903" lon="-1.94345">
        <ele>22.4</ele>
        <time>2022-08-19T22:05:52Z</time>
      </trkpt>
      <trkpt lat="47.08882" lon="-1.9427">
        <ele>22.8</ele>
        <time>2022-08-19T22:06:03Z</time>
      </trkpt>
      <trkpt lat="47.08872" lon="-1.94252">
        <ele>22.8</ele>
        <time>2022-08-19T22:06:06Z</time>
      </trkpt>
      <trkpt lat="47.0886" lon="-1.94237">
        <ele>23</ele>
        <time>2022-08-19T22:06:09Z</time>
      </trkpt>
      <trkpt lat="47.08856" lon="-1.94233">
        <ele>23</ele>
        <time>2022-08-19T22:06:10Z</time>
      </trkpt>
      <trkpt lat="47.08838" lon="-1.9422">
        <ele>23.2</ele>
        <time>2022-08-19T22:06:14Z</time>
      </trkpt>
      <trkpt lat="47.08802" lon="-1.94189">
        <ele>23.4</ele>
        <time>2022-08-19T22:06:22Z</time>
      </trkpt>
      <trkpt lat="47.08798" lon="-1.94183">
        <ele>23.4</ele>
        <time>2022-08-19T22:06:23Z</time>
      </trkpt>
      <trkpt lat="47.08787" lon="-1.94157">
        <ele>23.6</ele>
        <time>2022-08-19T22:06:27Z</time>
      </trkpt>
      <trkpt lat="47.08777" lon="-1.94112">
        <ele>23.8</ele>
        <time>2022-08-19T22:06:33Z</time>
      </trkpt>
      <trkpt lat="47.08765" lon="-1.94051">
        <ele>24.2</ele>
        <time>2022-08-19T22:06:41Z</time>
      </trkpt>
      <trkpt lat="47.08754" lon="-1.93994">
        <ele>24.4</ele>
        <time>2022-08-19T22:06:48Z</time>
      </trkpt>
      <trkpt lat="47.08752" lon="-1.93978">
        <ele>24.4</ele>
        <time>2022-08-19T22:06:50Z</time>
      </trkpt>
      <trkpt lat="47.08751" lon="-1.93953">
        <ele>24.4</ele>
        <time>2022-08-19T22:06:53Z</time>
      </trkpt>
      <trkpt lat="47.08752" lon="-1.93936">
        <ele>24.4</ele>
        <time>2022-08-19T22:06:55Z</time>
      </trkpt>
      <trkpt lat="47.08754" lon="-1.9392">
        <ele>24.4</ele>
        <time>2022-08-19T22:06:57Z</time>
      </trkpt>
      <trkpt lat="47.08757" lon="-1.93904">
        <ele>24.6</ele>
        <time>2022-08-19T22:06:59Z</time>
      </trkpt>
      <trkpt lat="47.08772" lon="-1.93846">
        <ele>24.6</ele>
        <time>2022-08-19T22:07:06Z</time>
      </trkpt>
      <trkpt lat="47.08776" lon="-1.9383">
        <ele>24.6</ele>
        <time>2022-08-19T22:07:08Z</time>
      </trkpt>
      <trkpt lat="47.08785" lon="-1.93795">
        <ele>24.8</ele>
        <time>2022-08-19T22:07:12Z</time>
      </trkpt>
      <trkpt lat="47.08804" lon="-1.93726">
        <ele>25</ele>
        <time>2022-08-19T22:07:20Z</time>
      </trkpt>
      <trkpt lat="47.08811" lon="-1.93699">
        <ele>25</ele>
        <time>2022-08-19T22:07:23Z</time>
      </trkpt>
      <trkpt lat="47.08815" lon="-1.93682">
        <ele>25</ele>
        <time>2022-08-19T22:07:25Z</time>
      </trkpt>
      <trkpt lat="47.08819" lon="-1.93674">
        <ele>25</ele>
        <time>2022-08-19T22:07:26Z</time>
      </trkpt>
      <trkpt lat="47.08828" lon="-1.93636">
        <ele>25.2</ele>
        <time>2022-08-19T22:07:31Z</time>
      </trkpt>
      <trkpt lat="47.08829" lon="-1.93609">
        <ele>25.2</ele>
        <time>2022-08-19T22:07:36Z</time>
      </trkpt>
      <trkpt lat="47.08835" lon="-1.93574">
        <ele>25.4</ele>
        <time>2022-08-19T22:07:41Z</time>
      </trkpt>
      <trkpt lat="47.08836" lon="-1.93567">
        <ele>25.4</ele>
        <time>2022-08-19T22:07:42Z</time>
      </trkpt>
      <trkpt lat="47.08841" lon="-1.93531">
        <ele>25.6</ele>
        <time>2022-08-19T22:07:47Z</time>
      </trkpt>
      <trkpt lat="47.08844" lon="-1.93517">
        <ele>25.6</ele>
        <time>2022-08-19T22:07:49Z</time>
      </trkpt>
      <trkpt lat="47.08846" lon="-1.9351">
        <ele>25.6</ele>
        <time>2022-08-19T22:07:50Z</time>
      </trkpt>
      <trkpt lat="47.08856" lon="-1.93476">
        <ele>25.6</ele>
        <time>2022-08-19T22:07:55Z</time>
      </trkpt>
      <trkpt lat="47.08862" lon="-1.93464">
        <ele>25.6</ele>
        <time>2022-08-19T22:07:57Z</time>
      </trkpt>
      <trkpt lat="47.08874" lon="-1.93439">
        <ele>25.6</ele>
        <time>2022-08-19T22:08:01Z</time>
      </trkpt>
      <trkpt lat="47.08876" lon="-1.93433">
        <ele>25.8</ele>
        <time>2022-08-19T22:08:02Z</time>
      </trkpt>
      <trkpt lat="47.08879" lon="-1.93419">
        <ele>25.8</ele>
        <time>2022-08-19T22:08:04Z</time>
      </trkpt>
      <trkpt lat="47.08881" lon="-1.93412">
        <ele>25.8</ele>
        <time>2022-08-19T22:08:05Z</time>
      </trkpt>
      <trkpt lat="47.08886" lon="-1.93391">
        <ele>25.8</ele>
        <time>2022-08-19T22:08:08Z</time>
      </trkpt>
      <trkpt lat="47.08891" lon="-1.93376">
        <ele>25.8</ele>
        <time>2022-08-19T22:08:10Z</time>
      </trkpt>
      <trkpt lat="47.08899" lon="-1.9335">
        <ele>25.8</ele>
        <time>2022-08-19T22:08:14Z</time>
      </trkpt>
      <trkpt lat="47.08904" lon="-1.93336">
        <ele>25.8</ele>
        <time>2022-08-19T22:08:16Z</time>
      </trkpt>
      <trkpt lat="47.08913" lon="-1.93316">
        <ele>25.8</ele>
        <time>2022-08-19T22:08:19Z</time>
      </trkpt>
      <trkpt lat="47.08916" lon="-1.9331">
        <ele>25.8</ele>
        <time>2022-08-19T22:08:20Z</time>
      </trkpt>
      <trkpt lat="47.08925" lon="-1.93292">
        <ele>25.8</ele>
        <time>2022-08-19T22:08:23Z</time>
      </trkpt>
      <trkpt lat="47.08937" lon="-1.9326">
        <ele>25.8</ele>
        <time>2022-08-19T22:08:28Z</time>
      </trkpt>
      <trkpt lat="47.0894" lon="-1.93254">
        <ele>26</ele>
        <time>2022-08-19T22:08:29Z</time>
      </trkpt>
      <trkpt lat="47.08946" lon="-1.9324">
        <ele>26</ele>
        <time>2022-08-19T22:08:31Z</time>
      </trkpt>
      <trkpt lat="47.08953" lon="-1.93218">
        <ele>26</ele>
        <time>2022-08-19T22:08:34Z</time>
      </trkpt>
      <trkpt lat="47.08957" lon="-1.93205">
        <ele>26</ele>
        <time>2022-08-19T22:08:36Z</time>
      </trkpt>
      <trkpt lat="47.08962" lon="-1.93193">
        <ele>26</ele>
        <time>2022-08-19T22:08:38Z</time>
      </trkpt>
      <trkpt lat="47.08964" lon="-1.93187">
        <ele>26.2</ele>
        <time>2022-08-19T22:08:39Z</time>
      </trkpt>
      <trkpt lat="47.08965" lon="-1.93181">
        <ele>26.2</ele>
        <time>2022-08-19T22:08:40Z</time>
      </trkpt>
      <trkpt lat="47.08975" lon="-1.93154">
        <ele>26.2</ele>
        <time>2022-08-19T22:08:44Z</time>
      </trkpt>
      <trkpt lat="47.08977" lon="-1.93147">
        <ele>26.2</ele>
        <time>2022-08-19T22:08:45Z</time>
      </trkpt>
      <trkpt lat="47.08983" lon="-1.93128">
        <ele>26.4</ele>
        <time>2022-08-19T22:08:48Z</time>
      </trkpt>
      <trkpt lat="47.08989" lon="-1.93108">
        <ele>26.6</ele>
        <time>2022-08-19T22:08:51Z</time>
      </trkpt>
      <trkpt lat="47.08994" lon="-1.93095">
        <ele>26.6</ele>
        <time>2022-08-19T22:08:53Z</time>
      </trkpt>
      <trkpt lat="47.09003" lon="-1.93069">
        <ele>26.8</ele>
        <time>2022-08-19T22:08:58Z</time>
      </trkpt>
      <trkpt lat="47.09005" lon="-1.93063">
        <ele>26.8</ele>
        <time>2022-08-19T22:09:00Z</time>
      </trkpt>
      <trkpt lat="47.09005" lon="-1.93061">
        <ele>26.8</ele>
        <time>2022-08-19T22:09:02Z</time>
      </trkpt>
      <trkpt lat="47.09007" lon="-1.93052">
        <ele>27.2</ele>
        <time>2022-08-19T22:09:18Z</time>
      </trkpt>
      <trkpt lat="47.09008" lon="-1.93045">
        <ele>27.2</ele>
        <time>2022-08-19T22:09:20Z</time>
      </trkpt>
      <trkpt lat="47.09013" lon="-1.93038">
        <ele>27.2</ele>
        <time>2022-08-19T22:09:24Z</time>
      </trkpt>
      <trkpt lat="47.09015" lon="-1.9303">
        <ele>27.2</ele>
        <time>2022-08-19T22:09:26Z</time>
      </trkpt>
      <trkpt lat="47.09028" lon="-1.93009">
        <ele>27</ele>
        <time>2022-08-19T22:09:31Z</time>
      </trkpt>
      <trkpt lat="47.0903" lon="-1.93004">
        <ele>26.8</ele>
        <time>2022-08-19T22:09:32Z</time>
      </trkpt>
      <trkpt lat="47.0904" lon="-1.9299">
        <ele>27</ele>
        <time>2022-08-19T22:09:35Z</time>
      </trkpt>
      <trkpt lat="47.0906" lon="-1.9296">
        <ele>26.6</ele>
        <time>2022-08-19T22:09:41Z</time>
      </trkpt>
      <trkpt lat="47.09073" lon="-1.92938">
        <ele>26.2</ele>
        <time>2022-08-19T22:09:46Z</time>
      </trkpt>
      <trkpt lat="47.09077" lon="-1.92931">
        <ele>26</ele>
        <time>2022-08-19T22:09:49Z</time>
      </trkpt>
      <trkpt lat="47.09082" lon="-1.92918">
        <ele>23.8</ele>
        <time>2022-08-19T22:10:39Z</time>
      </trkpt>
      <trkpt lat="47.09085" lon="-1.92909">
        <ele>23.8</ele>
        <time>2022-08-19T22:10:42Z</time>
      </trkpt>
      <trkpt lat="47.09089" lon="-1.92901">
        <ele>23.6</ele>
        <time>2022-08-19T22:10:45Z</time>
      </trkpt>
      <trkpt lat="47.0909" lon="-1.92899">
        <ele>23.4</ele>
        <time>2022-08-19T22:10:46Z</time>
      </trkpt>
      <trkpt lat="47.091" lon="-1.92881">
        <ele>23.8</ele>
        <time>2022-08-19T22:10:50Z</time>
      </trkpt>
      <trkpt lat="47.09114" lon="-1.92857">
        <ele>23.2</ele>
        <time>2022-08-19T22:10:55Z</time>
      </trkpt>
      <trkpt lat="47.09117" lon="-1.92852">
        <ele>23.2</ele>
        <time>2022-08-19T22:10:56Z</time>
      </trkpt>
      <trkpt lat="47.09124" lon="-1.92846">
        <ele>23</ele>
        <time>2022-08-19T22:10:58Z</time>
      </trkpt>
      <trkpt lat="47.09128" lon="-1.92843">
        <ele>22.8</ele>
        <time>2022-08-19T22:10:59Z</time>
      </trkpt>
      <trkpt lat="47.09141" lon="-1.92826">
        <ele>22.4</ele>
        <time>2022-08-19T22:11:04Z</time>
      </trkpt>
      <trkpt lat="47.09148" lon="-1.92819">
        <ele>22.4</ele>
        <time>2022-08-19T22:11:06Z</time>
      </trkpt>
      <trkpt lat="47.09157" lon="-1.92808">
        <ele>22.2</ele>
        <time>2022-08-19T22:11:08Z</time>
      </trkpt>
      <trkpt lat="47.09165" lon="-1.92798">
        <ele>22.2</ele>
        <time>2022-08-19T22:11:10Z</time>
      </trkpt>
      <trkpt lat="47.0917" lon="-1.92786">
        <ele>22</ele>
        <time>2022-08-19T22:11:12Z</time>
      </trkpt>
      <trkpt lat="47.09171" lon="-1.92779">
        <ele>22</ele>
        <time>2022-08-19T22:11:13Z</time>
      </trkpt>
      <trkpt lat="47.09177" lon="-1.92756">
        <ele>22</ele>
        <time>2022-08-19T22:11:17Z</time>
      </trkpt>
      <trkpt lat="47.09178" lon="-1.92752">
        <ele>22</ele>
        <time>2022-08-19T22:11:20Z</time>
      </trkpt>
      <trkpt lat="47.09183" lon="-1.92742">
        <ele>21.4</ele>
        <time>2022-08-19T22:11:37Z</time>
      </trkpt>
      <trkpt lat="47.09186" lon="-1.92737">
        <ele>22.2</ele>
        <time>2022-08-19T22:11:39Z</time>
      </trkpt>
      <trkpt lat="47.09187" lon="-1.92736">
        <ele>22</ele>
        <time>2022-08-19T22:11:41Z</time>
      </trkpt>
      <trkpt lat="47.09189" lon="-1.9273">
        <ele>22.2</ele>
        <time>2022-08-19T22:11:43Z</time>
      </trkpt>
      <trkpt lat="47.09199" lon="-1.92715">
        <ele>22.2</ele>
        <time>2022-08-19T22:11:48Z</time>
      </trkpt>
      <trkpt lat="47.09212" lon="-1.92699">
        <ele>22.4</ele>
        <time>2022-08-19T22:11:53Z</time>
      </trkpt>
      <trkpt lat="47.09227" lon="-1.92682">
        <ele>22.6</ele>
        <time>2022-08-19T22:11:59Z</time>
      </trkpt>
      <trkpt lat="47.09236" lon="-1.92666">
        <ele>22.6</ele>
        <time>2022-08-19T22:12:04Z</time>
      </trkpt>
      <trkpt lat="47.09247" lon="-1.92653">
        <ele>22.6</ele>
        <time>2022-08-19T22:12:09Z</time>
      </trkpt>
      <trkpt lat="47.09252" lon="-1.92645">
        <ele>22.8</ele>
        <time>2022-08-19T22:12:12Z</time>
      </trkpt>
      <trkpt lat="47.09255" lon="-1.92641">
        <ele>22.8</ele>
        <time>2022-08-19T22:12:14Z</time>
      </trkpt>
      <trkpt lat="47.09265" lon="-1.92626">
        <ele>22.8</ele>
        <time>2022-08-19T22:12:19Z</time>
      </trkpt>
      <trkpt lat="47.09275" lon="-1.92614">
        <ele>22.8</ele>
        <time>2022-08-19T22:12:24Z</time>
      </trkpt>
      <trkpt lat="47.09281" lon="-1.92604">
        <ele>22.8</ele>
        <time>2022-08-19T22:12:27Z</time>
      </trkpt>
      <trkpt lat="47.09285" lon="-1.92599">
        <ele>22.8</ele>
        <time>2022-08-19T22:12:29Z</time>
      </trkpt>
      <trkpt lat="47.09296" lon="-1.92585">
        <ele>23</ele>
        <time>2022-08-19T22:12:34Z</time>
      </trkpt>
      <trkpt lat="47.09306" lon="-1.92572">
        <ele>23</ele>
        <time>2022-08-19T22:12:39Z</time>
      </trkpt>
      <trkpt lat="47.09316" lon="-1.92562">
        <ele>23.2</ele>
        <time>2022-08-19T22:12:44Z</time>
      </trkpt>
      <trkpt lat="47.09322" lon="-1.9255">
        <ele>23.2</ele>
        <time>2022-08-19T22:12:48Z</time>
      </trkpt>
      <trkpt lat="47.0933" lon="-1.92538">
        <ele>23.2</ele>
        <time>2022-08-19T22:12:53Z</time>
      </trkpt>
      <trkpt lat="47.09339" lon="-1.92526">
        <ele>23.2</ele>
        <time>2022-08-19T22:12:58Z</time>
      </trkpt>
      <trkpt lat="47.0935" lon="-1.92511">
        <ele>23.4</ele>
        <time>2022-08-19T22:13:03Z</time>
      </trkpt>
      <trkpt lat="47.09363" lon="-1.92494">
        <ele>23.2</ele>
        <time>2022-08-19T22:13:09Z</time>
      </trkpt>
      <trkpt lat="47.09375" lon="-1.92476">
        <ele>23</ele>
        <time>2022-08-19T22:13:15Z</time>
      </trkpt>
      <trkpt lat="47.09382" lon="-1.92467">
        <ele>23.2</ele>
        <time>2022-08-19T22:13:18Z</time>
      </trkpt>
      <trkpt lat="47.09385" lon="-1.9246">
        <ele>23</ele>
        <time>2022-08-19T22:13:20Z</time>
      </trkpt>
      <trkpt lat="47.09387" lon="-1.92457">
        <ele>22.8</ele>
        <time>2022-08-19T22:13:21Z</time>
      </trkpt>
      <trkpt lat="47.09393" lon="-1.92449">
        <ele>22.8</ele>
        <time>2022-08-19T22:13:24Z</time>
      </trkpt>
      <trkpt lat="47.09406" lon="-1.92432">
        <ele>22.6</ele>
        <time>2022-08-19T22:13:29Z</time>
      </trkpt>
      <trkpt lat="47.0942" lon="-1.92415">
        <ele>22.2</ele>
        <time>2022-08-19T22:13:35Z</time>
      </trkpt>
      <trkpt lat="47.09437" lon="-1.92393">
        <ele>22</ele>
        <time>2022-08-19T22:13:42Z</time>
      </trkpt>
      <trkpt lat="47.09441" lon="-1.92386">
        <ele>21.8</ele>
        <time>2022-08-19T22:13:44Z</time>
      </trkpt>
      <trkpt lat="47.09444" lon="-1.92383">
        <ele>21.6</ele>
        <time>2022-08-19T22:13:45Z</time>
      </trkpt>
      <trkpt lat="47.09462" lon="-1.92357">
        <ele>20.8</ele>
        <time>2022-08-19T22:13:52Z</time>
      </trkpt>
      <trkpt lat="47.09475" lon="-1.9234">
        <ele>20.2</ele>
        <time>2022-08-19T22:13:57Z</time>
      </trkpt>
      <trkpt lat="47.09493" lon="-1.92314">
        <ele>20</ele>
        <time>2022-08-19T22:14:04Z</time>
      </trkpt>
      <trkpt lat="47.09505" lon="-1.92295">
        <ele>19.8</ele>
        <time>2022-08-19T22:14:10Z</time>
      </trkpt>
      <trkpt lat="47.09507" lon="-1.92291">
        <ele>19.8</ele>
        <time>2022-08-19T22:14:13Z</time>
      </trkpt>
      <trkpt lat="47.09518" lon="-1.9229">
        <ele>15</ele>
        <time>2022-08-19T22:15:04Z</time>
      </trkpt>
      <trkpt lat="47.09523" lon="-1.92286">
        <ele>16</ele>
        <time>2022-08-19T22:15:08Z</time>
      </trkpt>
      <trkpt lat="47.09526" lon="-1.9229">
        <ele>15.6</ele>
        <time>2022-08-19T22:15:09Z</time>
      </trkpt>
      <trkpt lat="47.0954" lon="-1.92305">
        <ele>16.8</ele>
        <time>2022-08-19T22:15:13Z</time>
      </trkpt>
      <trkpt lat="47.0955" lon="-1.92315">
        <ele>16.8</ele>
        <time>2022-08-19T22:15:16Z</time>
      </trkpt>
      <trkpt lat="47.09561" lon="-1.92326">
        <ele>17</ele>
        <time>2022-08-19T22:15:19Z</time>
      </trkpt>
      <trkpt lat="47.09575" lon="-1.92339">
        <ele>17</ele>
        <time>2022-08-19T22:15:22Z</time>
      </trkpt>
      <trkpt lat="47.09589" lon="-1.92354">
        <ele>17</ele>
        <time>2022-08-19T22:15:25Z</time>
      </trkpt>
      <trkpt lat="47.09594" lon="-1.9236">
        <ele>17</ele>
        <time>2022-08-19T22:15:26Z</time>
      </trkpt>
      <trkpt lat="47.09609" lon="-1.92377">
        <ele>17.2</ele>
        <time>2022-08-19T22:15:29Z</time>
      </trkpt>
      <trkpt lat="47.09644" lon="-1.92418">
        <ele>17.4</ele>
        <time>2022-08-19T22:15:36Z</time>
      </trkpt>
      <trkpt lat="47.09678" lon="-1.92446">
        <ele>17.8</ele>
        <time>2022-08-19T22:15:42Z</time>
      </trkpt>
      <trkpt lat="47.09723" lon="-1.92468">
        <ele>18.4</ele>
        <time>2022-08-19T22:15:49Z</time>
      </trkpt>
      <trkpt lat="47.09757" lon="-1.9248">
        <ele>19</ele>
        <time>2022-08-19T22:15:54Z</time>
      </trkpt>
      <trkpt lat="47.09782" lon="-1.92492">
        <ele>19.4</ele>
        <time>2022-08-19T22:15:58Z</time>
      </trkpt>
      <trkpt lat="47.09833" lon="-1.92521">
        <ele>19.8</ele>
        <time>2022-08-19T22:16:06Z</time>
      </trkpt>
      <trkpt lat="47.09882" lon="-1.92556">
        <ele>20.2</ele>
        <time>2022-08-19T22:16:14Z</time>
      </trkpt>
      <trkpt lat="47.09932" lon="-1.92593">
        <ele>20.8</ele>
        <time>2022-08-19T22:16:22Z</time>
      </trkpt>
      <trkpt lat="47.09979" lon="-1.92616">
        <ele>21</ele>
        <time>2022-08-19T22:16:29Z</time>
      </trkpt>
      <trkpt lat="47.10026" lon="-1.92643">
        <ele>21.2</ele>
        <time>2022-08-19T22:16:36Z</time>
      </trkpt>
      <trkpt lat="47.10074" lon="-1.92679">
        <ele>21.6</ele>
        <time>2022-08-19T22:16:43Z</time>
      </trkpt>
      <trkpt lat="47.10126" lon="-1.92724">
        <ele>21.8</ele>
        <time>2022-08-19T22:16:51Z</time>
      </trkpt>
      <trkpt lat="47.10177" lon="-1.92771">
        <ele>22.2</ele>
        <time>2022-08-19T22:16:59Z</time>
      </trkpt>
      <trkpt lat="47.10221" lon="-1.92812">
        <ele>22.2</ele>
        <time>2022-08-19T22:17:06Z</time>
      </trkpt>
      <trkpt lat="47.10274" lon="-1.92856">
        <ele>22.2</ele>
        <time>2022-08-19T22:17:15Z</time>
      </trkpt>
      <trkpt lat="47.10312" lon="-1.92888">
        <ele>22.4</ele>
        <time>2022-08-19T22:17:21Z</time>
      </trkpt>
      <trkpt lat="47.10363" lon="-1.92931">
        <ele>22.6</ele>
        <time>2022-08-19T22:17:29Z</time>
      </trkpt>
      <trkpt lat="47.10369" lon="-1.92937">
        <ele>22.6</ele>
        <time>2022-08-19T22:17:30Z</time>
      </trkpt>
      <trkpt lat="47.10375" lon="-1.92943">
        <ele>22.6</ele>
        <time>2022-08-19T22:17:31Z</time>
      </trkpt>
      <trkpt lat="47.10391" lon="-1.92959">
        <ele>22.6</ele>
        <time>2022-08-19T22:17:34Z</time>
      </trkpt>
      <trkpt lat="47.10397" lon="-1.92964">
        <ele>22.6</ele>
        <time>2022-08-19T22:17:35Z</time>
      </trkpt>
      <trkpt lat="47.10407" lon="-1.92965">
        <ele>22.8</ele>
        <time>2022-08-19T22:17:37Z</time>
      </trkpt>
      <trkpt lat="47.10433" lon="-1.92948">
        <ele>23</ele>
        <time>2022-08-19T22:17:42Z</time>
      </trkpt>
      <trkpt lat="47.10482" lon="-1.92918">
        <ele>23.2</ele>
        <time>2022-08-19T22:17:51Z</time>
      </trkpt>
      <trkpt lat="47.10511" lon="-1.92898">
        <ele>23.2</ele>
        <time>2022-08-19T22:17:56Z</time>
      </trkpt>
      <trkpt lat="47.10517" lon="-1.92895">
        <ele>23.2</ele>
        <time>2022-08-19T22:17:57Z</time>
      </trkpt>
      <trkpt lat="47.10564" lon="-1.92885">
        <ele>23.4</ele>
        <time>2022-08-19T22:18:04Z</time>
      </trkpt>
      <trkpt lat="47.10615" lon="-1.92879">
        <ele>23.6</ele>
        <time>2022-08-19T22:18:12Z</time>
      </trkpt>
      <trkpt lat="47.10646" lon="-1.92868">
        <ele>23.6</ele>
        <time>2022-08-19T22:18:17Z</time>
      </trkpt>
      <trkpt lat="47.10691" lon="-1.9285">
        <ele>23.6</ele>
        <time>2022-08-19T22:18:24Z</time>
      </trkpt>
      <trkpt lat="47.10732" lon="-1.92837">
        <ele>23.6</ele>
        <time>2022-08-19T22:18:30Z</time>
      </trkpt>
      <trkpt lat="47.10752" lon="-1.9283">
        <ele>23.6</ele>
        <time>2022-08-19T22:18:33Z</time>
      </trkpt>
      <trkpt lat="47.10764" lon="-1.92823">
        <ele>23.6</ele>
        <time>2022-08-19T22:18:35Z</time>
      </trkpt>
      <trkpt lat="47.10768" lon="-1.92817">
        <ele>23.6</ele>
        <time>2022-08-19T22:18:36Z</time>
      </trkpt>
      <trkpt lat="47.10773" lon="-1.92811">
        <ele>23.4</ele>
        <time>2022-08-19T22:18:37Z</time>
      </trkpt>
      <trkpt lat="47.10788" lon="-1.92794">
        <ele>23.6</ele>
        <time>2022-08-19T22:18:40Z</time>
      </trkpt>
      <trkpt lat="47.1083" lon="-1.92757">
        <ele>23.2</ele>
        <time>2022-08-19T22:18:47Z</time>
      </trkpt>
      <trkpt lat="47.10869" lon="-1.92729">
        <ele>23.2</ele>
        <time>2022-08-19T22:18:53Z</time>
      </trkpt>
      <trkpt lat="47.10912" lon="-1.92692">
        <ele>23.2</ele>
        <time>2022-08-19T22:19:00Z</time>
      </trkpt>
      <trkpt lat="47.10944" lon="-1.92662">
        <ele>23.4</ele>
        <time>2022-08-19T22:19:06Z</time>
      </trkpt>
      <trkpt lat="47.10976" lon="-1.92634">
        <ele>23.4</ele>
        <time>2022-08-19T22:19:12Z</time>
      </trkpt>
      <trkpt lat="47.11" lon="-1.92616">
        <ele>23.2</ele>
        <time>2022-08-19T22:19:16Z</time>
      </trkpt>
      <trkpt lat="47.11029" lon="-1.92591">
        <ele>22.8</ele>
        <time>2022-08-19T22:19:22Z</time>
      </trkpt>
      <trkpt lat="47.11044" lon="-1.92579">
        <ele>22.6</ele>
        <time>2022-08-19T22:19:25Z</time>
      </trkpt>
      <trkpt lat="47.11054" lon="-1.92577">
        <ele>22.6</ele>
        <time>2022-08-19T22:19:27Z</time>
      </trkpt>
      <trkpt lat="47.11062" lon="-1.92586">
        <ele>22.4</ele>
        <time>2022-08-19T22:19:29Z</time>
      </trkpt>
      <trkpt lat="47.11066" lon="-1.92591">
        <ele>22.2</ele>
        <time>2022-08-19T22:19:30Z</time>
      </trkpt>
      <trkpt lat="47.11077" lon="-1.92609">
        <ele>22</ele>
        <time>2022-08-19T22:19:34Z</time>
      </trkpt>
      <trkpt lat="47.1109" lon="-1.92627">
        <ele>21.8</ele>
        <time>2022-08-19T22:19:38Z</time>
      </trkpt>
      <trkpt lat="47.11107" lon="-1.92647">
        <ele>21.6</ele>
        <time>2022-08-19T22:19:42Z</time>
      </trkpt>
      <trkpt lat="47.11112" lon="-1.92651">
        <ele>21.6</ele>
        <time>2022-08-19T22:19:43Z</time>
      </trkpt>
      <trkpt lat="47.11121" lon="-1.92661">
        <ele>21.6</ele>
        <time>2022-08-19T22:19:45Z</time>
      </trkpt>
      <trkpt lat="47.11135" lon="-1.92679">
        <ele>21.4</ele>
        <time>2022-08-19T22:19:48Z</time>
      </trkpt>
      <trkpt lat="47.11165" lon="-1.92727">
        <ele>21</ele>
        <time>2022-08-19T22:19:55Z</time>
      </trkpt>
      <trkpt lat="47.1119" lon="-1.92777">
        <ele>21</ele>
        <time>2022-08-19T22:20:01Z</time>
      </trkpt>
      <trkpt lat="47.11212" lon="-1.92825">
        <ele>21</ele>
        <time>2022-08-19T22:20:07Z</time>
      </trkpt>
      <trkpt lat="47.11225" lon="-1.92865">
        <ele>20.8</ele>
        <time>2022-08-19T22:20:12Z</time>
      </trkpt>
      <trkpt lat="47.11237" lon="-1.92909">
        <ele>20.6</ele>
        <time>2022-08-19T22:20:17Z</time>
      </trkpt>
      <trkpt lat="47.11251" lon="-1.92963">
        <ele>20.4</ele>
        <time>2022-08-19T22:20:23Z</time>
      </trkpt>
      <trkpt lat="47.1127" lon="-1.93015">
        <ele>20</ele>
        <time>2022-08-19T22:20:29Z</time>
      </trkpt>
      <trkpt lat="47.11303" lon="-1.93074">
        <ele>19.6</ele>
        <time>2022-08-19T22:20:37Z</time>
      </trkpt>
      <trkpt lat="47.11332" lon="-1.93122">
        <ele>19.2</ele>
        <time>2022-08-19T22:20:44Z</time>
      </trkpt>
      <trkpt lat="47.11361" lon="-1.93162">
        <ele>18.6</ele>
        <time>2022-08-19T22:20:51Z</time>
      </trkpt>
      <trkpt lat="47.11364" lon="-1.93167">
        <ele>18.6</ele>
        <time>2022-08-19T22:20:52Z</time>
      </trkpt>
      <trkpt lat="47.11372" lon="-1.93169">
        <ele>18.4</ele>
        <time>2022-08-19T22:20:54Z</time>
      </trkpt>
      <trkpt lat="47.11377" lon="-1.93163">
        <ele>18.4</ele>
        <time>2022-08-19T22:20:56Z</time>
      </trkpt>
      <trkpt lat="47.11378" lon="-1.93158">
        <ele>18.2</ele>
        <time>2022-08-19T22:20:57Z</time>
      </trkpt>
      <trkpt lat="47.11388" lon="-1.93129">
        <ele>17.8</ele>
        <time>2022-08-19T22:21:02Z</time>
      </trkpt>
      <trkpt lat="47.11404" lon="-1.93089">
        <ele>17.4</ele>
        <time>2022-08-19T22:21:08Z</time>
      </trkpt>
      <trkpt lat="47.11423" lon="-1.93046">
        <ele>17</ele>
        <time>2022-08-19T22:21:15Z</time>
      </trkpt>
      <trkpt lat="47.11439" lon="-1.92996">
        <ele>16.4</ele>
        <time>2022-08-19T22:21:22Z</time>
      </trkpt>
      <trkpt lat="47.11442" lon="-1.92988">
        <ele>16.4</ele>
        <time>2022-08-19T22:21:23Z</time>
      </trkpt>
      <trkpt lat="47.11446" lon="-1.92965">
        <ele>16.2</ele>
        <time>2022-08-19T22:21:26Z</time>
      </trkpt>
      <trkpt lat="47.11451" lon="-1.9295">
        <ele>16</ele>
        <time>2022-08-19T22:21:28Z</time>
      </trkpt>
      <trkpt lat="47.11461" lon="-1.92929">
        <ele>15.8</ele>
        <time>2022-08-19T22:21:31Z</time>
      </trkpt>
      <trkpt lat="47.11481" lon="-1.92869">
        <ele>15.6</ele>
        <time>2022-08-19T22:21:38Z</time>
      </trkpt>
      <trkpt lat="47.11483" lon="-1.9286">
        <ele>15.6</ele>
        <time>2022-08-19T22:21:39Z</time>
      </trkpt>
      <trkpt lat="47.11495" lon="-1.92827">
        <ele>15.4</ele>
        <time>2022-08-19T22:21:43Z</time>
      </trkpt>
      <trkpt lat="47.11517" lon="-1.92771">
        <ele>15.2</ele>
        <time>2022-08-19T22:21:50Z</time>
      </trkpt>
      <trkpt lat="47.1154" lon="-1.92728">
        <ele>15</ele>
        <time>2022-08-19T22:21:56Z</time>
      </trkpt>
      <trkpt lat="47.11565" lon="-1.92687">
        <ele>14.8</ele>
        <time>2022-08-19T22:22:02Z</time>
      </trkpt>
      <trkpt lat="47.11596" lon="-1.92636">
        <ele>14.8</ele>
        <time>2022-08-19T22:22:09Z</time>
      </trkpt>
      <trkpt lat="47.11613" lon="-1.92607">
        <ele>14.8</ele>
        <time>2022-08-19T22:22:13Z</time>
      </trkpt>
      <trkpt lat="47.11618" lon="-1.9259">
        <ele>15</ele>
        <time>2022-08-19T22:22:15Z</time>
      </trkpt>
      <trkpt lat="47.11621" lon="-1.9258">
        <ele>14.8</ele>
        <time>2022-08-19T22:22:16Z</time>
      </trkpt>
      <trkpt lat="47.11632" lon="-1.92556">
        <ele>15.2</ele>
        <time>2022-08-19T22:22:19Z</time>
      </trkpt>
      <trkpt lat="47.11651" lon="-1.92526">
        <ele>14.8</ele>
        <time>2022-08-19T22:22:23Z</time>
      </trkpt>
      <trkpt lat="47.11658" lon="-1.92509">
        <ele>14.8</ele>
        <time>2022-08-19T22:22:25Z</time>
      </trkpt>
      <trkpt lat="47.11667" lon="-1.92484">
        <ele>14.8</ele>
        <time>2022-08-19T22:22:28Z</time>
      </trkpt>
      <trkpt lat="47.1167" lon="-1.92466">
        <ele>14.8</ele>
        <time>2022-08-19T22:22:30Z</time>
      </trkpt>
      <trkpt lat="47.11672" lon="-1.92457">
        <ele>14.8</ele>
        <time>2022-08-19T22:22:31Z</time>
      </trkpt>
      <trkpt lat="47.11679" lon="-1.92442">
        <ele>14.8</ele>
        <time>2022-08-19T22:22:33Z</time>
      </trkpt>
      <trkpt lat="47.11709" lon="-1.92399">
        <ele>14.8</ele>
        <time>2022-08-19T22:22:39Z</time>
      </trkpt>
      <trkpt lat="47.1172" lon="-1.92385">
        <ele>14.8</ele>
        <time>2022-08-19T22:22:41Z</time>
      </trkpt>
      <trkpt lat="47.11732" lon="-1.92373">
        <ele>15</ele>
        <time>2022-08-19T22:22:43Z</time>
      </trkpt>
      <trkpt lat="47.11745" lon="-1.92363">
        <ele>14.8</ele>
        <time>2022-08-19T22:22:45Z</time>
      </trkpt>
      <trkpt lat="47.11765" lon="-1.92351">
        <ele>14.8</ele>
        <time>2022-08-19T22:22:48Z</time>
      </trkpt>
      <trkpt lat="47.11817" lon="-1.92327">
        <ele>15</ele>
        <time>2022-08-19T22:22:56Z</time>
      </trkpt>
      <trkpt lat="47.11824" lon="-1.92325">
        <ele>15</ele>
        <time>2022-08-19T22:22:57Z</time>
      </trkpt>
      <trkpt lat="47.11875" lon="-1.92297">
        <ele>15.2</ele>
        <time>2022-08-19T22:23:05Z</time>
      </trkpt>
      <trkpt lat="47.11881" lon="-1.92292">
        <ele>15.2</ele>
        <time>2022-08-19T22:23:06Z</time>
      </trkpt>
      <trkpt lat="47.11922" lon="-1.92251">
        <ele>15.2</ele>
        <time>2022-08-19T22:23:13Z</time>
      </trkpt>
      <trkpt lat="47.1196" lon="-1.9221">
        <ele>15</ele>
        <time>2022-08-19T22:23:20Z</time>
      </trkpt>
      <trkpt lat="47.11984" lon="-1.92183">
        <ele>14.8</ele>
        <time>2022-08-19T22:23:25Z</time>
      </trkpt>
      <trkpt lat="47.11992" lon="-1.92171">
        <ele>15</ele>
        <time>2022-08-19T22:23:27Z</time>
      </trkpt>
      <trkpt lat="47.12003" lon="-1.92165">
        <ele>15</ele>
        <time>2022-08-19T22:23:29Z</time>
      </trkpt>
      <trkpt lat="47.12009" lon="-1.92165">
        <ele>15</ele>
        <time>2022-08-19T22:23:30Z</time>
      </trkpt>
      <trkpt lat="47.12048" lon="-1.92166">
        <ele>14.8</ele>
        <time>2022-08-19T22:23:36Z</time>
      </trkpt>
      <trkpt lat="47.12095" lon="-1.92159">
        <ele>15</ele>
        <time>2022-08-19T22:23:43Z</time>
      </trkpt>
      <trkpt lat="47.12124" lon="-1.92143">
        <ele>14.8</ele>
        <time>2022-08-19T22:23:48Z</time>
      </trkpt>
      <trkpt lat="47.12129" lon="-1.92141">
        <ele>14.8</ele>
        <time>2022-08-19T22:23:49Z</time>
      </trkpt>
      <trkpt lat="47.12138" lon="-1.92144">
        <ele>14.6</ele>
        <time>2022-08-19T22:23:51Z</time>
      </trkpt>
      <trkpt lat="47.12144" lon="-1.92156">
        <ele>14.6</ele>
        <time>2022-08-19T22:23:53Z</time>
      </trkpt>
      <trkpt lat="47.12154" lon="-1.92176">
        <ele>14.4</ele>
        <time>2022-08-19T22:23:56Z</time>
      </trkpt>
      <trkpt lat="47.12181" lon="-1.92226">
        <ele>14</ele>
        <time>2022-08-19T22:24:03Z</time>
      </trkpt>
      <trkpt lat="47.12185" lon="-1.92244">
        <ele>13.8</ele>
        <time>2022-08-19T22:24:05Z</time>
      </trkpt>
      <trkpt lat="47.12188" lon="-1.92262">
        <ele>13.6</ele>
        <time>2022-08-19T22:24:07Z</time>
      </trkpt>
      <trkpt lat="47.12194" lon="-1.92276">
        <ele>13.4</ele>
        <time>2022-08-19T22:24:09Z</time>
      </trkpt>
      <trkpt lat="47.12197" lon="-1.92283">
        <ele>13.2</ele>
        <time>2022-08-19T22:24:10Z</time>
      </trkpt>
      <trkpt lat="47.12209" lon="-1.92302">
        <ele>12.8</ele>
        <time>2022-08-19T22:24:13Z</time>
      </trkpt>
      <trkpt lat="47.12211" lon="-1.92309">
        <ele>12.6</ele>
        <time>2022-08-19T22:24:14Z</time>
      </trkpt>
      <trkpt lat="47.12211" lon="-1.92317">
        <ele>12.6</ele>
        <time>2022-08-19T22:24:15Z</time>
      </trkpt>
      <trkpt lat="47.12209" lon="-1.92325">
        <ele>12.4</ele>
        <time>2022-08-19T22:24:16Z</time>
      </trkpt>
      <trkpt lat="47.12205" lon="-1.9233">
        <ele>12.4</ele>
        <time>2022-08-19T22:24:17Z</time>
      </trkpt>
      <trkpt lat="47.12197" lon="-1.92343">
        <ele>12.2</ele>
        <time>2022-08-19T22:24:19Z</time>
      </trkpt>
      <trkpt lat="47.12194" lon="-1.9236">
        <ele>12</ele>
        <time>2022-08-19T22:24:21Z</time>
      </trkpt>
      <trkpt lat="47.12195" lon="-1.92369">
        <ele>11.8</ele>
        <time>2022-08-19T22:24:22Z</time>
      </trkpt>
      <trkpt lat="47.12206" lon="-1.92419">
        <ele>11.4</ele>
        <time>2022-08-19T22:24:28Z</time>
      </trkpt>
      <trkpt lat="47.1221" lon="-1.92436">
        <ele>11.4</ele>
        <time>2022-08-19T22:24:30Z</time>
      </trkpt>
      <trkpt lat="47.12216" lon="-1.92452">
        <ele>11.4</ele>
        <time>2022-08-19T22:24:32Z</time>
      </trkpt>
      <trkpt lat="47.12222" lon="-1.92467">
        <ele>11.4</ele>
        <time>2022-08-19T22:24:34Z</time>
      </trkpt>
      <trkpt lat="47.1224" lon="-1.92522">
        <ele>11.2</ele>
        <time>2022-08-19T22:24:41Z</time>
      </trkpt>
      <trkpt lat="47.12244" lon="-1.92528">
        <ele>11.2</ele>
        <time>2022-08-19T22:24:42Z</time>
      </trkpt>
      <trkpt lat="47.12252" lon="-1.92533">
        <ele>11</ele>
        <time>2022-08-19T22:24:44Z</time>
      </trkpt>
      <trkpt lat="47.12262" lon="-1.92534">
        <ele>11</ele>
        <time>2022-08-19T22:24:46Z</time>
      </trkpt>
      <trkpt lat="47.12271" lon="-1.9254">
        <ele>11</ele>
        <time>2022-08-19T22:24:48Z</time>
      </trkpt>
      <trkpt lat="47.12279" lon="-1.92561">
        <ele>11</ele>
        <time>2022-08-19T22:24:51Z</time>
      </trkpt>
      <trkpt lat="47.12281" lon="-1.92568">
        <ele>11</ele>
        <time>2022-08-19T22:24:52Z</time>
      </trkpt>
      <trkpt lat="47.12284" lon="-1.92574">
        <ele>11</ele>
        <time>2022-08-19T22:24:53Z</time>
      </trkpt>
      <trkpt lat="47.12296" lon="-1.92604">
        <ele>10.8</ele>
        <time>2022-08-19T22:24:58Z</time>
      </trkpt>
      <trkpt lat="47.12299" lon="-1.9261">
        <ele>10.8</ele>
        <time>2022-08-19T22:24:59Z</time>
      </trkpt>
      <trkpt lat="47.12307" lon="-1.92627">
        <ele>10.8</ele>
        <time>2022-08-19T22:25:02Z</time>
      </trkpt>
      <trkpt lat="47.12328" lon="-1.92684">
        <ele>10.6</ele>
        <time>2022-08-19T22:25:11Z</time>
      </trkpt>
      <trkpt lat="47.12331" lon="-1.9269">
        <ele>10.4</ele>
        <time>2022-08-19T22:25:14Z</time>
      </trkpt>
      <trkpt lat="47.12338" lon="-1.92684">
        <ele>10.6</ele>
        <time>2022-08-19T22:25:18Z</time>
      </trkpt>
      <trkpt lat="47.12341" lon="-1.92682">
        <ele>10.6</ele>
        <time>2022-08-19T22:25:19Z</time>
      </trkpt>
      <trkpt lat="47.1235" lon="-1.92679">
        <ele>10.6</ele>
        <time>2022-08-19T22:25:22Z</time>
      </trkpt>
      <trkpt lat="47.12377" lon="-1.92675">
        <ele>10.4</ele>
        <time>2022-08-19T22:25:29Z</time>
      </trkpt>
      <trkpt lat="47.12385" lon="-1.92675">
        <ele>10.4</ele>
        <time>2022-08-19T22:25:31Z</time>
      </trkpt>
      <trkpt lat="47.12407" lon="-1.92673">
        <ele>10.4</ele>
        <time>2022-08-19T22:25:36Z</time>
      </trkpt>
      <trkpt lat="47.12438" lon="-1.92663">
        <ele>10.4</ele>
        <time>2022-08-19T22:25:43Z</time>
      </trkpt>
      <trkpt lat="47.12469" lon="-1.92635">
        <ele>10.2</ele>
        <time>2022-08-19T22:25:51Z</time>
      </trkpt>
      <trkpt lat="47.12489" lon="-1.92616">
        <ele>10.2</ele>
        <time>2022-08-19T22:25:57Z</time>
      </trkpt>
      <trkpt lat="47.12497" lon="-1.9261">
        <ele>10.2</ele>
        <time>2022-08-19T22:26:03Z</time>
      </trkpt>
      <trkpt lat="47.12499" lon="-1.92607">
        <ele>10.2</ele>
        <time>2022-08-19T22:26:14Z</time>
      </trkpt>
      <trkpt lat="47.12501" lon="-1.92601">
        <ele>10.2</ele>
        <time>2022-08-19T22:26:16Z</time>
      </trkpt>
      <trkpt lat="47.12504" lon="-1.92583">
        <ele>10.2</ele>
        <time>2022-08-19T22:26:22Z</time>
      </trkpt>
      <trkpt lat="47.12507" lon="-1.92557">
        <ele>10.2</ele>
        <time>2022-08-19T22:26:29Z</time>
      </trkpt>
      <trkpt lat="47.12513" lon="-1.92528">
        <ele>10.2</ele>
        <time>2022-08-19T22:26:34Z</time>
      </trkpt>
      <trkpt lat="47.12521" lon="-1.9248">
        <ele>10.2</ele>
        <time>2022-08-19T22:26:42Z</time>
      </trkpt>
      <trkpt lat="47.12528" lon="-1.92443">
        <ele>10.4</ele>
        <time>2022-08-19T22:26:47Z</time>
      </trkpt>
      <trkpt lat="47.12538" lon="-1.92388">
        <ele>10.2</ele>
        <time>2022-08-19T22:26:54Z</time>
      </trkpt>
      <trkpt lat="47.12551" lon="-1.92314">
        <ele>10.2</ele>
        <time>2022-08-19T22:27:03Z</time>
      </trkpt>
      <trkpt lat="47.12567" lon="-1.92231">
        <ele>10.2</ele>
        <time>2022-08-19T22:27:13Z</time>
      </trkpt>
      <trkpt lat="47.12576" lon="-1.92179">
        <ele>10.4</ele>
        <time>2022-08-19T22:27:19Z</time>
      </trkpt>
      <trkpt lat="47.12585" lon="-1.92121">
        <ele>10.6</ele>
        <time>2022-08-19T22:27:26Z</time>
      </trkpt>
      <trkpt lat="47.12589" lon="-1.92069">
        <ele>10.6</ele>
        <time>2022-08-19T22:27:32Z</time>
      </trkpt>
      <trkpt lat="47.12595" lon="-1.92021">
        <ele>10.6</ele>
        <time>2022-08-19T22:27:38Z</time>
      </trkpt>
      <trkpt lat="47.12603" lon="-1.9198">
        <ele>11</ele>
        <time>2022-08-19T22:27:44Z</time>
      </trkpt>
      <trkpt lat="47.12602" lon="-1.91966">
        <ele>11</ele>
        <time>2022-08-19T22:27:46Z</time>
      </trkpt>
      <trkpt lat="47.126" lon="-1.91959">
        <ele>11</ele>
        <time>2022-08-19T22:27:47Z</time>
      </trkpt>
      <trkpt lat="47.12596" lon="-1.91953">
        <ele>11</ele>
        <time>2022-08-19T22:27:48Z</time>
      </trkpt>
      <trkpt lat="47.12586" lon="-1.91944">
        <ele>11</ele>
        <time>2022-08-19T22:27:50Z</time>
      </trkpt>
      <trkpt lat="47.12539" lon="-1.91918">
        <ele>10.8</ele>
        <time>2022-08-19T22:27:58Z</time>
      </trkpt>
      <trkpt lat="47.12511" lon="-1.91906">
        <ele>10.6</ele>
        <time>2022-08-19T22:28:03Z</time>
      </trkpt>
      <trkpt lat="47.12507" lon="-1.91901">
        <ele>10.6</ele>
        <time>2022-08-19T22:28:04Z</time>
      </trkpt>
      <trkpt lat="47.12504" lon="-1.91895">
        <ele>10.6</ele>
        <time>2022-08-19T22:28:05Z</time>
      </trkpt>
      <trkpt lat="47.12502" lon="-1.91881">
        <ele>10.6</ele>
        <time>2022-08-19T22:28:07Z</time>
      </trkpt>
      <trkpt lat="47.12506" lon="-1.91871">
        <ele>10.6</ele>
        <time>2022-08-19T22:28:09Z</time>
      </trkpt>
      <trkpt lat="47.1251" lon="-1.9187">
        <ele>10.6</ele>
        <time>2022-08-19T22:28:10Z</time>
      </trkpt>
      <trkpt lat="47.12525" lon="-1.91883">
        <ele>10.4</ele>
        <time>2022-08-19T22:28:14Z</time>
      </trkpt>
      <trkpt lat="47.12529" lon="-1.91886">
        <ele>10.4</ele>
        <time>2022-08-19T22:28:15Z</time>
      </trkpt>
      <trkpt lat="47.12549" lon="-1.919">
        <ele>10.6</ele>
        <time>2022-08-19T22:28:20Z</time>
      </trkpt>
      <trkpt lat="47.12584" lon="-1.91917">
        <ele>11.2</ele>
        <time>2022-08-19T22:28:29Z</time>
      </trkpt>
      <trkpt lat="47.12609" lon="-1.9193">
        <ele>12</ele>
        <time>2022-08-19T22:28:35Z</time>
      </trkpt>
      <trkpt lat="47.12613" lon="-1.91932">
        <ele>12</ele>
        <time>2022-08-19T22:28:36Z</time>
      </trkpt>
      <trkpt lat="47.12642" lon="-1.91948">
        <ele>12.6</ele>
        <time>2022-08-19T22:28:43Z</time>
      </trkpt>
      <trkpt lat="47.12656" lon="-1.91957">
        <ele>12.8</ele>
        <time>2022-08-19T22:28:46Z</time>
      </trkpt>
      <trkpt lat="47.12669" lon="-1.9197">
        <ele>13</ele>
        <time>2022-08-19T22:28:49Z</time>
      </trkpt>
      <trkpt lat="47.12687" lon="-1.91994">
        <ele>13</ele>
        <time>2022-08-19T22:28:53Z</time>
      </trkpt>
      <trkpt lat="47.12691" lon="-1.92002">
        <ele>13</ele>
        <time>2022-08-19T22:28:54Z</time>
      </trkpt>
      <trkpt lat="47.12694" lon="-1.92011">
        <ele>13</ele>
        <time>2022-08-19T22:28:55Z</time>
      </trkpt>
      <trkpt lat="47.12699" lon="-1.92033">
        <ele>13</ele>
        <time>2022-08-19T22:28:57Z</time>
      </trkpt>
      <trkpt lat="47.12701" lon="-1.92073">
        <ele>12.8</ele>
        <time>2022-08-19T22:29:01Z</time>
      </trkpt>
      <trkpt lat="47.12702" lon="-1.9209">
        <ele>13.2</ele>
        <time>2022-08-19T22:29:05Z</time>
      </trkpt>
      <trkpt lat="47.12703" lon="-1.92091">
        <ele>13</ele>
        <time>2022-08-19T22:29:06Z</time>
      </trkpt>
      <trkpt lat="47.12704" lon="-1.92091">
        <ele>12.6</ele>
        <time>2022-08-19T22:29:09Z</time>
      </trkpt>
      <trkpt lat="47.12708" lon="-1.92086">
        <ele>12.6</ele>
        <time>2022-08-19T22:29:31Z</time>
      </trkpt>
      <trkpt lat="47.12714" lon="-1.92079">
        <ele>12.6</ele>
        <time>2022-08-19T22:29:35Z</time>
      </trkpt>
      <trkpt lat="47.12716" lon="-1.92076">
        <ele>12.6</ele>
        <time>2022-08-19T22:29:36Z</time>
      </trkpt>
      <trkpt lat="47.12719" lon="-1.92064">
        <ele>12.4</ele>
        <time>2022-08-19T22:29:41Z</time>
      </trkpt>
      <trkpt lat="47.12723" lon="-1.92048">
        <ele>12.4</ele>
        <time>2022-08-19T22:29:47Z</time>
      </trkpt>
      <trkpt lat="47.12725" lon="-1.92044">
        <ele>12.4</ele>
        <time>2022-08-19T22:29:48Z</time>
      </trkpt>
      <trkpt lat="47.12732" lon="-1.92042">
        <ele>12.4</ele>
        <time>2022-08-19T22:29:50Z</time>
      </trkpt>
      <trkpt lat="47.12743" lon="-1.92049">
        <ele>12.4</ele>
        <time>2022-08-19T22:29:55Z</time>
      </trkpt>
      <trkpt lat="47.12751" lon="-1.92057">
        <ele>12.4</ele>
        <time>2022-08-19T22:30:01Z</time>
      </trkpt>
      <trkpt lat="47.12753" lon="-1.92056">
        <ele>12.2</ele>
        <time>2022-08-19T22:30:03Z</time>
      </trkpt>
      <trkpt lat="47.12754" lon="-1.92059">
        <ele>12.4</ele>
        <time>2022-08-19T22:30:05Z</time>
      </trkpt>
      <trkpt lat="47.1275" lon="-1.92058">
        <ele>12.4</ele>
        <time>2022-08-19T22:30:07Z</time>
      </trkpt>
      <trkpt lat="47.12748" lon="-1.92056">
        <ele>12.4</ele>
        <time>2022-08-19T22:30:08Z</time>
      </trkpt>
      <trkpt lat="47.12733" lon="-1.92042">
        <ele>12.4</ele>
        <time>2022-08-19T22:30:14Z</time>
      </trkpt>
      <trkpt lat="47.12726" lon="-1.92043">
        <ele>12.4</ele>
        <time>2022-08-19T22:30:16Z</time>
      </trkpt>
      <trkpt lat="47.12723" lon="-1.92046">
        <ele>12.2</ele>
        <time>2022-08-19T22:30:17Z</time>
      </trkpt>
      <trkpt lat="47.12719" lon="-1.92068">
        <ele>12.2</ele>
        <time>2022-08-19T22:30:21Z</time>
      </trkpt>
      <trkpt lat="47.1271" lon="-1.92092">
        <ele>12.2</ele>
        <time>2022-08-19T22:30:26Z</time>
      </trkpt>
      <trkpt lat="47.1271" lon="-1.92111">
        <ele>12.2</ele>
        <time>2022-08-19T22:30:29Z</time>
      </trkpt>
      <trkpt lat="47.12712" lon="-1.92123">
        <ele>12.2</ele>
        <time>2022-08-19T22:30:31Z</time>
      </trkpt>
      <trkpt lat="47.12713" lon="-1.92129">
        <ele>12.2</ele>
        <time>2022-08-19T22:30:32Z</time>
      </trkpt>
      <trkpt lat="47.12722" lon="-1.92151">
        <ele>12.4</ele>
        <time>2022-08-19T22:30:36Z</time>
      </trkpt>
      <trkpt lat="47.12742" lon="-1.92194">
        <ele>12.4</ele>
        <time>2022-08-19T22:30:44Z</time>
      </trkpt>
      <trkpt lat="47.12744" lon="-1.92199">
        <ele>12.4</ele>
        <time>2022-08-19T22:30:45Z</time>
      </trkpt>
      <trkpt lat="47.12753" lon="-1.92215">
        <ele>12.4</ele>
        <time>2022-08-19T22:30:49Z</time>
      </trkpt>
      <trkpt lat="47.12763" lon="-1.92218">
        <ele>12.6</ele>
        <time>2022-08-19T22:30:54Z</time>
      </trkpt>
      <trkpt lat="47.12764" lon="-1.92217">
        <ele>12.6</ele>
        <time>2022-08-19T22:30:55Z</time>
      </trkpt>
      <trkpt lat="47.12767" lon="-1.92212">
        <ele>12.6</ele>
        <time>2022-08-19T22:30:58Z</time>
      </trkpt>
      <trkpt lat="47.1278" lon="-1.92196">
        <ele>12.6</ele>
        <time>2022-08-19T22:31:03Z</time>
      </trkpt>
      <trkpt lat="47.12797" lon="-1.9217">
        <ele>12.8</ele>
        <time>2022-08-19T22:31:10Z</time>
      </trkpt>
      <trkpt lat="47.12804" lon="-1.92169">
        <ele>12.8</ele>
        <time>2022-08-19T22:31:12Z</time>
      </trkpt>
      <trkpt lat="47.12808" lon="-1.92172">
        <ele>12.8</ele>
        <time>2022-08-19T22:31:13Z</time>
      </trkpt>
      <trkpt lat="47.12811" lon="-1.92175">
        <ele>13</ele>
        <time>2022-08-19T22:31:14Z</time>
      </trkpt>
      <trkpt lat="47.12821" lon="-1.92185">
        <ele>13.2</ele>
        <time>2022-08-19T22:31:17Z</time>
      </trkpt>
      <trkpt lat="47.1284" lon="-1.92204">
        <ele>13.2</ele>
        <time>2022-08-19T22:31:23Z</time>
      </trkpt>
      <trkpt lat="47.12843" lon="-1.92204">
        <ele>13.2</ele>
        <time>2022-08-19T22:31:25Z</time>
      </trkpt>
      <trkpt lat="47.12844" lon="-1.92205">
        <ele>13.2</ele>
        <time>2022-08-19T22:31:27Z</time>
      </trkpt>
      <trkpt lat="47.12856" lon="-1.92206">
        <ele>14.2</ele>
        <time>2022-08-19T22:33:13Z</time>
      </trkpt>
      <trkpt lat="47.12857" lon="-1.92199">
        <ele>14.4</ele>
        <time>2022-08-19T22:33:16Z</time>
      </trkpt>
      <trkpt lat="47.12858" lon="-1.92191">
        <ele>15.2</ele>
        <time>2022-08-19T22:33:23Z</time>
      </trkpt>
      <trkpt lat="47.1286" lon="-1.92186">
        <ele>15.6</ele>
        <time>2022-08-19T22:33:28Z</time>
      </trkpt>
      <trkpt lat="47.12864" lon="-1.92184">
        <ele>15.4</ele>
        <time>2022-08-19T22:33:32Z</time>
      </trkpt>
      <trkpt lat="47.12866" lon="-1.92182">
        <ele>15.8</ele>
        <time>2022-08-19T22:33:41Z</time>
      </trkpt>
      <trkpt lat="47.12876" lon="-1.92173">
        <ele>15.6</ele>
        <time>2022-08-19T22:33:46Z</time>
      </trkpt>
      <trkpt lat="47.12892" lon="-1.92169">
        <ele>15.6</ele>
        <time>2022-08-19T22:33:51Z</time>
      </trkpt>
      <trkpt lat="47.12909" lon="-1.92167">
        <ele>15.6</ele>
        <time>2022-08-19T22:33:56Z</time>
      </trkpt>
      <trkpt lat="47.12918" lon="-1.92159">
        <ele>15.8</ele>
        <time>2022-08-19T22:33:59Z</time>
      </trkpt>
      <trkpt lat="47.12919" lon="-1.92155">
        <ele>15.8</ele>
        <time>2022-08-19T22:34:00Z</time>
      </trkpt>
      <trkpt lat="47.12919" lon="-1.9215">
        <ele>15.8</ele>
        <time>2022-08-19T22:34:01Z</time>
      </trkpt>
      <trkpt lat="47.12918" lon="-1.92136">
        <ele>15.8</ele>
        <time>2022-08-19T22:34:04Z</time>
      </trkpt>
      <trkpt lat="47.12925" lon="-1.92117">
        <ele>15.8</ele>
        <time>2022-08-19T22:34:09Z</time>
      </trkpt>
      <trkpt lat="47.12937" lon="-1.92109">
        <ele>15.8</ele>
        <time>2022-08-19T22:34:14Z</time>
      </trkpt>
      <trkpt lat="47.1296" lon="-1.921">
        <ele>15.8</ele>
        <time>2022-08-19T22:34:21Z</time>
      </trkpt>
      <trkpt lat="47.12983" lon="-1.92092">
        <ele>15.8</ele>
        <time>2022-08-19T22:34:29Z</time>
      </trkpt>
      <trkpt lat="47.12988" lon="-1.92087">
        <ele>15.8</ele>
        <time>2022-08-19T22:34:32Z</time>
      </trkpt>
      <trkpt lat="47.12988" lon="-1.92084">
        <ele>15.8</ele>
        <time>2022-08-19T22:34:33Z</time>
      </trkpt>
      <trkpt lat="47.12991" lon="-1.92061">
        <ele>16</ele>
        <time>2022-08-19T22:34:40Z</time>
      </trkpt>
      <trkpt lat="47.12994" lon="-1.92049">
        <ele>15.8</ele>
        <time>2022-08-19T22:34:45Z</time>
      </trkpt>
      <trkpt lat="47.12988" lon="-1.92034">
        <ele>15.8</ele>
        <time>2022-08-19T22:34:50Z</time>
      </trkpt>
      <trkpt lat="47.12975" lon="-1.92007">
        <ele>15.4</ele>
        <time>2022-08-19T22:34:57Z</time>
      </trkpt>
      <trkpt lat="47.12958" lon="-1.91967">
        <ele>15.2</ele>
        <time>2022-08-19T22:35:06Z</time>
      </trkpt>
      <trkpt lat="47.12938" lon="-1.91923">
        <ele>14.8</ele>
        <time>2022-08-19T22:35:14Z</time>
      </trkpt>
      <trkpt lat="47.1293" lon="-1.91909">
        <ele>14.6</ele>
        <time>2022-08-19T22:35:18Z</time>
      </trkpt>
      <trkpt lat="47.12928" lon="-1.91912">
        <ele>14.2</ele>
        <time>2022-08-19T22:35:22Z</time>
      </trkpt>
      <trkpt lat="47.12928" lon="-1.91912">
        <ele>14.2</ele>
        <time>2022-08-19T22:35:23Z</time>
      </trkpt>
      <trkpt lat="47.12924" lon="-1.91917">
        <ele>13.8</ele>
        <time>2022-08-19T22:35:34Z</time>
      </trkpt>
      <trkpt lat="47.12919" lon="-1.9192">
        <ele>13.8</ele>
        <time>2022-08-19T22:35:36Z</time>
      </trkpt>
      <trkpt lat="47.12912" lon="-1.91924">
        <ele>13.8</ele>
        <time>2022-08-19T22:35:40Z</time>
      </trkpt>
      <trkpt lat="47.12902" lon="-1.91932">
        <ele>13.8</ele>
        <time>2022-08-19T22:35:45Z</time>
      </trkpt>
      <trkpt lat="47.12881" lon="-1.9194">
        <ele>13.8</ele>
        <time>2022-08-19T22:35:52Z</time>
      </trkpt>
      <trkpt lat="47.12864" lon="-1.91946">
        <ele>13.6</ele>
        <time>2022-08-19T22:35:58Z</time>
      </trkpt>
      <trkpt lat="47.12855" lon="-1.91944">
        <ele>13.4</ele>
        <time>2022-08-19T22:36:02Z</time>
      </trkpt>
      <trkpt lat="47.12854" lon="-1.91941">
        <ele>13.4</ele>
        <time>2022-08-19T22:36:03Z</time>
      </trkpt>
      <trkpt lat="47.12848" lon="-1.91922">
        <ele>13.4</ele>
        <time>2022-08-19T22:36:09Z</time>
      </trkpt>
      <trkpt lat="47.12845" lon="-1.9191">
        <ele>13.2</ele>
        <time>2022-08-19T22:36:14Z</time>
      </trkpt>
      <trkpt lat="47.12844" lon="-1.91904">
        <ele>12.6</ele>
        <time>2022-08-19T22:36:55Z</time>
      </trkpt>
      <trkpt lat="47.12842" lon="-1.91897">
        <ele>12.6</ele>
        <time>2022-08-19T22:36:57Z</time>
      </trkpt>
      <trkpt lat="47.12834" lon="-1.91874">
        <ele>12.2</ele>
        <time>2022-08-19T22:37:03Z</time>
      </trkpt>
      <trkpt lat="47.12828" lon="-1.91852">
        <ele>12</ele>
        <time>2022-08-19T22:37:08Z</time>
      </trkpt>
      <trkpt lat="47.12817" lon="-1.9182">
        <ele>11.6</ele>
        <time>2022-08-19T22:37:15Z</time>
      </trkpt>
      <trkpt lat="47.12816" lon="-1.918">
        <ele>11.4</ele>
        <time>2022-08-19T22:37:19Z</time>
      </trkpt>
      <trkpt lat="47.12818" lon="-1.91794">
        <ele>11.4</ele>
        <time>2022-08-19T22:37:20Z</time>
      </trkpt>
      <trkpt lat="47.12827" lon="-1.91751">
        <ele>11.2</ele>
        <time>2022-08-19T22:37:27Z</time>
      </trkpt>
      <trkpt lat="47.12835" lon="-1.91719">
        <ele>11</ele>
        <time>2022-08-19T22:37:34Z</time>
      </trkpt>
      <trkpt lat="47.12841" lon="-1.91692">
        <ele>10.8</ele>
        <time>2022-08-19T22:37:40Z</time>
      </trkpt>
      <trkpt lat="47.12848" lon="-1.91669">
        <ele>10.6</ele>
        <time>2022-08-19T22:37:45Z</time>
      </trkpt>
      <trkpt lat="47.12855" lon="-1.91637">
        <ele>10.6</ele>
        <time>2022-08-19T22:37:51Z</time>
      </trkpt>
      <trkpt lat="47.12861" lon="-1.91616">
        <ele>10.6</ele>
        <time>2022-08-19T22:37:56Z</time>
      </trkpt>
      <trkpt lat="47.12861" lon="-1.91613">
        <ele>10.4</ele>
        <time>2022-08-19T22:37:57Z</time>
      </trkpt>
      <trkpt lat="47.12859" lon="-1.91607">
        <ele>10.4</ele>
        <time>2022-08-19T22:37:59Z</time>
      </trkpt>
      <trkpt lat="47.12856" lon="-1.91604">
        <ele>10.4</ele>
        <time>2022-08-19T22:38:01Z</time>
      </trkpt>
      <trkpt lat="47.12847" lon="-1.91596">
        <ele>10.2</ele>
        <time>2022-08-19T22:38:07Z</time>
      </trkpt>
      <trkpt lat="47.12835" lon="-1.91579">
        <ele>10.2</ele>
        <time>2022-08-19T22:38:12Z</time>
      </trkpt>
      <trkpt lat="47.12817" lon="-1.91553">
        <ele>10</ele>
        <time>2022-08-19T22:38:20Z</time>
      </trkpt>
      <trkpt lat="47.12796" lon="-1.91529">
        <ele>9.8</ele>
        <time>2022-08-19T22:38:28Z</time>
      </trkpt>
      <trkpt lat="47.12781" lon="-1.91507">
        <ele>9.8</ele>
        <time>2022-08-19T22:38:34Z</time>
      </trkpt>
      <trkpt lat="47.12763" lon="-1.91482">
        <ele>9.8</ele>
        <time>2022-08-19T22:38:41Z</time>
      </trkpt>
      <trkpt lat="47.12748" lon="-1.91466">
        <ele>9.8</ele>
        <time>2022-08-19T22:38:47Z</time>
      </trkpt>
      <trkpt lat="47.12746" lon="-1.91464">
        <ele>9.6</ele>
        <time>2022-08-19T22:38:50Z</time>
      </trkpt>
      <trkpt lat="47.12744" lon="-1.91469">
        <ele>8.4</ele>
        <time>2022-08-19T22:40:51Z</time>
      </trkpt>
      <trkpt lat="47.12743" lon="-1.91477">
        <ele>8.4</ele>
        <time>2022-08-19T22:40:53Z</time>
      </trkpt>
      <trkpt lat="47.1274" lon="-1.91508">
        <ele>8.4</ele>
        <time>2022-08-19T22:40:59Z</time>
      </trkpt>
      <trkpt lat="47.12738" lon="-1.91525">
        <ele>8.4</ele>
        <time>2022-08-19T22:41:03Z</time>
      </trkpt>
      <trkpt lat="47.12735" lon="-1.91544">
        <ele>8.4</ele>
        <time>2022-08-19T22:41:09Z</time>
      </trkpt>
      <trkpt lat="47.12731" lon="-1.91565">
        <ele>8.2</ele>
        <time>2022-08-19T22:41:15Z</time>
      </trkpt>
      <trkpt lat="47.12731" lon="-1.91566">
        <ele>8</ele>
        <time>2022-08-19T22:41:17Z</time>
      </trkpt>
      <trkpt lat="47.12732" lon="-1.91555">
        <ele>7.8</ele>
        <time>2022-08-19T22:42:32Z</time>
      </trkpt>
      <trkpt lat="47.12733" lon="-1.91551">
        <ele>7.8</ele>
        <time>2022-08-19T22:42:33Z</time>
      </trkpt>
      <trkpt lat="47.12736" lon="-1.9153">
        <ele>7.8</ele>
        <time>2022-08-19T22:42:38Z</time>
      </trkpt>
      <trkpt lat="47.12739" lon="-1.91506">
        <ele>8</ele>
        <time>2022-08-19T22:42:44Z</time>
      </trkpt>
      <trkpt lat="47.12744" lon="-1.91478">
        <ele>8.2</ele>
        <time>2022-08-19T22:42:51Z</time>
      </trkpt>
      <trkpt lat="47.12749" lon="-1.91466">
        <ele>8</ele>
        <time>2022-08-19T22:42:55Z</time>
      </trkpt>
      <trkpt lat="47.12754" lon="-1.91468">
        <ele>8</ele>
        <time>2022-08-19T22:42:57Z</time>
      </trkpt>
      <trkpt lat="47.12755" lon="-1.91471">
        <ele>8.2</ele>
        <time>2022-08-19T22:42:58Z</time>
      </trkpt>
      <trkpt lat="47.1277" lon="-1.91493">
        <ele>8</ele>
        <time>2022-08-19T22:43:04Z</time>
      </trkpt>
      <trkpt lat="47.12789" lon="-1.91517">
        <ele>8</ele>
        <time>2022-08-19T22:43:12Z</time>
      </trkpt>
      <trkpt lat="47.12803" lon="-1.91537">
        <ele>8.2</ele>
        <time>2022-08-19T22:43:19Z</time>
      </trkpt>
      <trkpt lat="47.12821" lon="-1.9156">
        <ele>8</ele>
        <time>2022-08-19T22:43:27Z</time>
      </trkpt>
      <trkpt lat="47.12832" lon="-1.91576">
        <ele>8</ele>
        <time>2022-08-19T22:43:32Z</time>
      </trkpt>
      <trkpt lat="47.12847" lon="-1.91594">
        <ele>7.8</ele>
        <time>2022-08-19T22:43:38Z</time>
      </trkpt>
      <trkpt lat="47.12863" lon="-1.91608">
        <ele>7.6</ele>
        <time>2022-08-19T22:43:45Z</time>
      </trkpt>
      <trkpt lat="47.1288" lon="-1.91625">
        <ele>7.8</ele>
        <time>2022-08-19T22:43:51Z</time>
      </trkpt>
      <trkpt lat="47.12906" lon="-1.91653">
        <ele>7.6</ele>
        <time>2022-08-19T22:43:59Z</time>
      </trkpt>
      <trkpt lat="47.12926" lon="-1.91673">
        <ele>8</ele>
        <time>2022-08-19T22:44:05Z</time>
      </trkpt>
      <trkpt lat="47.12947" lon="-1.9169">
        <ele>8</ele>
        <time>2022-08-19T22:44:11Z</time>
      </trkpt>
      <trkpt lat="47.12969" lon="-1.91709">
        <ele>8</ele>
        <time>2022-08-19T22:44:17Z</time>
      </trkpt>
      <trkpt lat="47.12998" lon="-1.91739">
        <ele>8.2</ele>
        <time>2022-08-19T22:44:26Z</time>
      </trkpt>
      <trkpt lat="47.13011" lon="-1.91768">
        <ele>8.2</ele>
        <time>2022-08-19T22:44:33Z</time>
      </trkpt>
      <trkpt lat="47.13023" lon="-1.91794">
        <ele>8.2</ele>
        <time>2022-08-19T22:44:39Z</time>
      </trkpt>
      <trkpt lat="47.1303" lon="-1.91806">
        <ele>8.4</ele>
        <time>2022-08-19T22:44:43Z</time>
      </trkpt>
      <trkpt lat="47.13038" lon="-1.91804">
        <ele>8.4</ele>
        <time>2022-08-19T22:44:47Z</time>
      </trkpt>
      <trkpt lat="47.13051" lon="-1.91792">
        <ele>8.6</ele>
        <time>2022-08-19T22:44:52Z</time>
      </trkpt>
      <trkpt lat="47.13068" lon="-1.91782">
        <ele>9</ele>
        <time>2022-08-19T22:44:58Z</time>
      </trkpt>
      <trkpt lat="47.13081" lon="-1.91785">
        <ele>9.2</ele>
        <time>2022-08-19T22:45:03Z</time>
      </trkpt>
      <trkpt lat="47.13092" lon="-1.91792">
        <ele>9.4</ele>
        <time>2022-08-19T22:45:08Z</time>
      </trkpt>
      <trkpt lat="47.13092" lon="-1.91792">
        <ele>9.4</ele>
        <time>2022-08-19T22:45:09Z</time>
      </trkpt>
      <trkpt lat="47.13095" lon="-1.91794">
        <ele>10.4</ele>
        <time>2022-08-19T22:45:47Z</time>
      </trkpt>
      <trkpt lat="47.13099" lon="-1.91796">
        <ele>10.4</ele>
        <time>2022-08-19T22:45:49Z</time>
      </trkpt>
      <trkpt lat="47.1312" lon="-1.91808">
        <ele>10.6</ele>
        <time>2022-08-19T22:45:57Z</time>
      </trkpt>
      <trkpt lat="47.13135" lon="-1.91815">
        <ele>10.6</ele>
        <time>2022-08-19T22:46:03Z</time>
      </trkpt>
      <trkpt lat="47.13151" lon="-1.91824">
        <ele>10.6</ele>
        <time>2022-08-19T22:46:09Z</time>
      </trkpt>
      <trkpt lat="47.13156" lon="-1.91827">
        <ele>10.6</ele>
        <time>2022-08-19T22:46:12Z</time>
      </trkpt>
      <trkpt lat="47.13157" lon="-1.91828">
        <ele>10.6</ele>
        <time>2022-08-19T22:46:14Z</time>
      </trkpt>
      <trkpt lat="47.13169" lon="-1.91835">
        <ele>11</ele>
        <time>2022-08-19T22:46:30Z</time>
      </trkpt>
      <trkpt lat="47.13173" lon="-1.91839">
        <ele>11</ele>
        <time>2022-08-19T22:46:33Z</time>
      </trkpt>
      <trkpt lat="47.13177" lon="-1.9184">
        <ele>11</ele>
        <time>2022-08-19T22:46:36Z</time>
      </trkpt>
      <trkpt lat="47.13178" lon="-1.91841">
        <ele>11</ele>
        <time>2022-08-19T22:46:38Z</time>
      </trkpt>
      <trkpt lat="47.13179" lon="-1.91842">
        <ele>11</ele>
        <time>2022-08-19T22:46:40Z</time>
      </trkpt>
      <trkpt lat="47.13182" lon="-1.91843">
        <ele>11.2</ele>
        <time>2022-08-19T22:46:43Z</time>
      </trkpt>
      <trkpt lat="47.13192" lon="-1.91849">
        <ele>11.4</ele>
        <time>2022-08-19T22:46:50Z</time>
      </trkpt>
      <trkpt lat="47.13199" lon="-1.91854">
        <ele>11.4</ele>
        <time>2022-08-19T22:46:56Z</time>
      </trkpt>
      <trkpt lat="47.13209" lon="-1.91859">
        <ele>11.6</ele>
        <time>2022-08-19T22:47:03Z</time>
      </trkpt>
      <trkpt lat="47.13218" lon="-1.91865">
        <ele>12</ele>
        <time>2022-08-19T22:47:10Z</time>
      </trkpt>
      <trkpt lat="47.13232" lon="-1.91873">
        <ele>12.2</ele>
        <time>2022-08-19T22:47:20Z</time>
      </trkpt>
      <trkpt lat="47.13238" lon="-1.9188">
        <ele>12.4</ele>
        <time>2022-08-19T22:47:26Z</time>
      </trkpt>
      <trkpt lat="47.13239" lon="-1.9188">
        <ele>12.4</ele>
        <time>2022-08-19T22:47:27Z</time>
      </trkpt>
      <trkpt lat="47.13243" lon="-1.91882">
        <ele>12.6</ele>
        <time>2022-08-19T22:47:31Z</time>
      </trkpt>
      <trkpt lat="47.13246" lon="-1.91884">
        <ele>12.6</ele>
        <time>2022-08-19T22:47:33Z</time>
      </trkpt>
      <trkpt lat="47.13248" lon="-1.91886">
        <ele>12.8</ele>
        <time>2022-08-19T22:47:35Z</time>
      </trkpt>
      <trkpt lat="47.13252" lon="-1.91888">
        <ele>12.8</ele>
        <time>2022-08-19T22:47:37Z</time>
      </trkpt>
      <trkpt lat="47.1326" lon="-1.91894">
        <ele>13</ele>
        <time>2022-08-19T22:47:42Z</time>
      </trkpt>
      <trkpt lat="47.13277" lon="-1.91905">
        <ele>13.4</ele>
        <time>2022-08-19T22:47:49Z</time>
      </trkpt>
      <trkpt lat="47.13286" lon="-1.91911">
        <ele>13.6</ele>
        <time>2022-08-19T22:47:54Z</time>
      </trkpt>
      <trkpt lat="47.13295" lon="-1.91916">
        <ele>13.6</ele>
        <time>2022-08-19T22:47:59Z</time>
      </trkpt>
      <trkpt lat="47.13305" lon="-1.91921">
        <ele>13.8</ele>
        <time>2022-08-19T22:48:04Z</time>
      </trkpt>
      <trkpt lat="47.13322" lon="-1.91928">
        <ele>14.2</ele>
        <time>2022-08-19T22:48:10Z</time>
      </trkpt>
      <trkpt lat="47.13339" lon="-1.91941">
        <ele>14.4</ele>
        <time>2022-08-19T22:48:16Z</time>
      </trkpt>
      <trkpt lat="47.13342" lon="-1.91949">
        <ele>14.4</ele>
        <time>2022-08-19T22:48:19Z</time>
      </trkpt>
      <trkpt lat="47.1334" lon="-1.91954">
        <ele>14.4</ele>
        <time>2022-08-19T22:48:21Z</time>
      </trkpt>
      <trkpt lat="47.13329" lon="-1.91961">
        <ele>14.6</ele>
        <time>2022-08-19T22:48:26Z</time>
      </trkpt>
      <trkpt lat="47.13309" lon="-1.91969">
        <ele>14.8</ele>
        <time>2022-08-19T22:48:33Z</time>
      </trkpt>
      <trkpt lat="47.13287" lon="-1.91978">
        <ele>15.2</ele>
        <time>2022-08-19T22:48:41Z</time>
      </trkpt>
      <trkpt lat="47.13275" lon="-1.91985">
        <ele>15.2</ele>
        <time>2022-08-19T22:48:47Z</time>
      </trkpt>
      <trkpt lat="47.13274" lon="-1.91985">
        <ele>15.2</ele>
        <time>2022-08-19T22:48:49Z</time>
      </trkpt>
      <trkpt lat="47.13281" lon="-1.9198">
        <ele>16.2</ele>
        <time>2022-08-19T22:49:45Z</time>
      </trkpt>
      <trkpt lat="47.13283" lon="-1.91979">
        <ele>16.2</ele>
        <time>2022-08-19T22:49:46Z</time>
      </trkpt>
      <trkpt lat="47.13296" lon="-1.91973">
        <ele>16.2</ele>
        <time>2022-08-19T22:49:52Z</time>
      </trkpt>
      <trkpt lat="47.13311" lon="-1.91967">
        <ele>16.2</ele>
        <time>2022-08-19T22:49:56Z</time>
      </trkpt>
      <trkpt lat="47.13339" lon="-1.91957">
        <ele>16.4</ele>
        <time>2022-08-19T22:50:03Z</time>
      </trkpt>
      <trkpt lat="47.13349" lon="-1.91954">
        <ele>16.6</ele>
        <time>2022-08-19T22:50:08Z</time>
      </trkpt>
      <trkpt lat="47.13353" lon="-1.91954">
        <ele>16.6</ele>
        <time>2022-08-19T22:50:11Z</time>
      </trkpt>
      <trkpt lat="47.13358" lon="-1.91955">
        <ele>16.6</ele>
        <time>2022-08-19T22:50:14Z</time>
      </trkpt>
      <trkpt lat="47.13371" lon="-1.91965">
        <ele>16.6</ele>
        <time>2022-08-19T22:50:19Z</time>
      </trkpt>
      <trkpt lat="47.13376" lon="-1.91986">
        <ele>16.6</ele>
        <time>2022-08-19T22:50:24Z</time>
      </trkpt>
      <trkpt lat="47.13384" lon="-1.92033">
        <ele>16.4</ele>
        <time>2022-08-19T22:50:33Z</time>
      </trkpt>
      <trkpt lat="47.13392" lon="-1.92079">
        <ele>16</ele>
        <time>2022-08-19T22:50:41Z</time>
      </trkpt>
      <trkpt lat="47.13398" lon="-1.92104">
        <ele>16</ele>
        <time>2022-08-19T22:50:46Z</time>
      </trkpt>
      <trkpt lat="47.13401" lon="-1.92111">
        <ele>15.8</ele>
        <time>2022-08-19T22:50:49Z</time>
      </trkpt>
      <trkpt lat="47.13399" lon="-1.92117">
        <ele>15.8</ele>
        <time>2022-08-19T22:50:51Z</time>
      </trkpt>
      <trkpt lat="47.1339" lon="-1.92136">
        <ele>15.6</ele>
        <time>2022-08-19T22:50:56Z</time>
      </trkpt>
      <trkpt lat="47.13373" lon="-1.92173">
        <ele>15.6</ele>
        <time>2022-08-19T22:51:03Z</time>
      </trkpt>
      <trkpt lat="47.13347" lon="-1.92226">
        <ele>15.2</ele>
        <time>2022-08-19T22:51:12Z</time>
      </trkpt>
      <trkpt lat="47.13319" lon="-1.92284">
        <ele>14.8</ele>
        <time>2022-08-19T22:51:21Z</time>
      </trkpt>
      <trkpt lat="47.13289" lon="-1.92346">
        <ele>14.4</ele>
        <time>2022-08-19T22:51:30Z</time>
      </trkpt>
      <trkpt lat="47.13262" lon="-1.92396">
        <ele>14.2</ele>
        <time>2022-08-19T22:51:38Z</time>
      </trkpt>
      <trkpt lat="47.13231" lon="-1.92443">
        <ele>13.8</ele>
        <time>2022-08-19T22:51:47Z</time>
      </trkpt>
      <trkpt lat="47.13228" lon="-1.92448">
        <ele>13.8</ele>
        <time>2022-08-19T22:51:50Z</time>
      </trkpt>
      <trkpt lat="47.13229" lon="-1.92449">
        <ele>13.8</ele>
        <time>2022-08-19T22:51:52Z</time>
      </trkpt>
      <trkpt lat="47.13234" lon="-1.92452">
        <ele>13.6</ele>
        <time>2022-08-19T22:51:54Z</time>
      </trkpt>
      <trkpt lat="47.13247" lon="-1.92458">
        <ele>13.2</ele>
        <time>2022-08-19T22:51:58Z</time>
      </trkpt>
      <trkpt lat="47.13269" lon="-1.92463">
        <ele>12.6</ele>
        <time>2022-08-19T22:52:04Z</time>
      </trkpt>
      <trkpt lat="47.13285" lon="-1.92464">
        <ele>12.4</ele>
        <time>2022-08-19T22:52:09Z</time>
      </trkpt>
      <trkpt lat="47.13304" lon="-1.92468">
        <ele>12</ele>
        <time>2022-08-19T22:52:14Z</time>
      </trkpt>
      <trkpt lat="47.13321" lon="-1.92474">
        <ele>11.6</ele>
        <time>2022-08-19T22:52:18Z</time>
      </trkpt>
      <trkpt lat="47.13326" lon="-1.92475">
        <ele>11.6</ele>
        <time>2022-08-19T22:52:19Z</time>
      </trkpt>
      <trkpt lat="47.13339" lon="-1.92477">
        <ele>11.4</ele>
        <time>2022-08-19T22:52:22Z</time>
      </trkpt>
      <trkpt lat="47.13361" lon="-1.92479">
        <ele>11.4</ele>
        <time>2022-08-19T22:52:27Z</time>
      </trkpt>
      <trkpt lat="47.13375" lon="-1.92486">
        <ele>11.4</ele>
        <time>2022-08-19T22:52:30Z</time>
      </trkpt>
      <trkpt lat="47.13377" lon="-1.92489">
        <ele>11.2</ele>
        <time>2022-08-19T22:52:31Z</time>
      </trkpt>
      <trkpt lat="47.13387" lon="-1.92508">
        <ele>11.2</ele>
        <time>2022-08-19T22:52:35Z</time>
      </trkpt>
      <trkpt lat="47.134" lon="-1.92533">
        <ele>11.2</ele>
        <time>2022-08-19T22:52:40Z</time>
      </trkpt>
      <trkpt lat="47.13415" lon="-1.92558">
        <ele>11.2</ele>
        <time>2022-08-19T22:52:45Z</time>
      </trkpt>
      <trkpt lat="47.13429" lon="-1.9257">
        <ele>11.4</ele>
        <time>2022-08-19T22:52:49Z</time>
      </trkpt>
      <trkpt lat="47.13443" lon="-1.92579">
        <ele>11.4</ele>
        <time>2022-08-19T22:52:53Z</time>
      </trkpt>
      <trkpt lat="47.13457" lon="-1.92591">
        <ele>11.2</ele>
        <time>2022-08-19T22:52:57Z</time>
      </trkpt>
      <trkpt lat="47.13466" lon="-1.92595">
        <ele>11</ele>
        <time>2022-08-19T22:52:59Z</time>
      </trkpt>
      <trkpt lat="47.13476" lon="-1.92598">
        <ele>11</ele>
        <time>2022-08-19T22:53:01Z</time>
      </trkpt>
      <trkpt lat="47.13486" lon="-1.92601">
        <ele>10.8</ele>
        <time>2022-08-19T22:53:03Z</time>
      </trkpt>
      <trkpt lat="47.13498" lon="-1.92602">
        <ele>10.8</ele>
        <time>2022-08-19T22:53:06Z</time>
      </trkpt>
      <trkpt lat="47.13525" lon="-1.92607">
        <ele>10.6</ele>
        <time>2022-08-19T22:53:12Z</time>
      </trkpt>
      <trkpt lat="47.13554" lon="-1.926">
        <ele>10.4</ele>
        <time>2022-08-19T22:53:19Z</time>
      </trkpt>
      <trkpt lat="47.13558" lon="-1.92599">
        <ele>10.4</ele>
        <time>2022-08-19T22:53:20Z</time>
      </trkpt>
      <trkpt lat="47.13573" lon="-1.92597">
        <ele>10.6</ele>
        <time>2022-08-19T22:53:24Z</time>
      </trkpt>
      <trkpt lat="47.13594" lon="-1.92607">
        <ele>10.6</ele>
        <time>2022-08-19T22:53:29Z</time>
      </trkpt>
      <trkpt lat="47.13602" lon="-1.92611">
        <ele>10.6</ele>
        <time>2022-08-19T22:53:31Z</time>
      </trkpt>
      <trkpt lat="47.1361" lon="-1.92614">
        <ele>10.4</ele>
        <time>2022-08-19T22:53:33Z</time>
      </trkpt>
      <trkpt lat="47.13632" lon="-1.92625">
        <ele>10.4</ele>
        <time>2022-08-19T22:53:38Z</time>
      </trkpt>
      <trkpt lat="47.13651" lon="-1.9263">
        <ele>10.8</ele>
        <time>2022-08-19T22:53:43Z</time>
      </trkpt>
      <trkpt lat="47.13653" lon="-1.9263">
        <ele>10.8</ele>
        <time>2022-08-19T22:53:44Z</time>
      </trkpt>
      <trkpt lat="47.13656" lon="-1.92638">
        <ele>10.8</ele>
        <time>2022-08-19T22:53:47Z</time>
      </trkpt>
      <trkpt lat="47.13658" lon="-1.92662">
        <ele>11</ele>
        <time>2022-08-19T22:53:54Z</time>
      </trkpt>
      <trkpt lat="47.13666" lon="-1.92698">
        <ele>11</ele>
        <time>2022-08-19T22:54:02Z</time>
      </trkpt>
      <trkpt lat="47.13672" lon="-1.92724">
        <ele>11.2</ele>
        <time>2022-08-19T22:54:08Z</time>
      </trkpt>
      <trkpt lat="47.13676" lon="-1.92754">
        <ele>11.4</ele>
        <time>2022-08-19T22:54:14Z</time>
      </trkpt>
      <trkpt lat="47.13674" lon="-1.92789">
        <ele>11.4</ele>
        <time>2022-08-19T22:54:21Z</time>
      </trkpt>
      <trkpt lat="47.13673" lon="-1.92818">
        <ele>11.6</ele>
        <time>2022-08-19T22:54:27Z</time>
      </trkpt>
      <trkpt lat="47.13674" lon="-1.92843">
        <ele>11.4</ele>
        <time>2022-08-19T22:54:32Z</time>
      </trkpt>
      <trkpt lat="47.13676" lon="-1.9286">
        <ele>11.6</ele>
        <time>2022-08-19T22:54:37Z</time>
      </trkpt>
      <trkpt lat="47.13683" lon="-1.92895">
        <ele>11.6</ele>
        <time>2022-08-19T22:54:45Z</time>
      </trkpt>
      <trkpt lat="47.13689" lon="-1.92929">
        <ele>11.8</ele>
        <time>2022-08-19T22:54:51Z</time>
      </trkpt>
      <trkpt lat="47.1369" lon="-1.92935">
        <ele>11.8</ele>
        <time>2022-08-19T22:54:52Z</time>
      </trkpt>
      <trkpt lat="47.13697" lon="-1.92979">
        <ele>12</ele>
        <time>2022-08-19T22:54:59Z</time>
      </trkpt>
      <trkpt lat="47.13699" lon="-1.92993">
        <ele>12</ele>
        <time>2022-08-19T22:55:01Z</time>
      </trkpt>
      <trkpt lat="47.137" lon="-1.93014">
        <ele>12</ele>
        <time>2022-08-19T22:55:04Z</time>
      </trkpt>
      <trkpt lat="47.13704" lon="-1.93035">
        <ele>12</ele>
        <time>2022-08-19T22:55:07Z</time>
      </trkpt>
      <trkpt lat="47.13706" lon="-1.93048">
        <ele>12</ele>
        <time>2022-08-19T22:55:09Z</time>
      </trkpt>
      <trkpt lat="47.13708" lon="-1.93055">
        <ele>12</ele>
        <time>2022-08-19T22:55:10Z</time>
      </trkpt>
      <trkpt lat="47.1371" lon="-1.93069">
        <ele>12</ele>
        <time>2022-08-19T22:55:12Z</time>
      </trkpt>
      <trkpt lat="47.13711" lon="-1.93084">
        <ele>12</ele>
        <time>2022-08-19T22:55:15Z</time>
      </trkpt>
      <trkpt lat="47.13716" lon="-1.93102">
        <ele>12.2</ele>
        <time>2022-08-19T22:55:18Z</time>
      </trkpt>
      <trkpt lat="47.13722" lon="-1.93138">
        <ele>11.8</ele>
        <time>2022-08-19T22:55:23Z</time>
      </trkpt>
      <trkpt lat="47.13725" lon="-1.93165">
        <ele>11.4</ele>
        <time>2022-08-19T22:55:28Z</time>
      </trkpt>
      <trkpt lat="47.13725" lon="-1.93194">
        <ele>11.6</ele>
        <time>2022-08-19T22:55:33Z</time>
      </trkpt>
      <trkpt lat="47.13725" lon="-1.9322">
        <ele>11.4</ele>
        <time>2022-08-19T22:55:37Z</time>
      </trkpt>
      <trkpt lat="47.13726" lon="-1.93257">
        <ele>12.2</ele>
        <time>2022-08-19T22:55:42Z</time>
      </trkpt>
      <trkpt lat="47.13726" lon="-1.93265">
        <ele>12.2</ele>
        <time>2022-08-19T22:55:43Z</time>
      </trkpt>
      <trkpt lat="47.13726" lon="-1.9328">
        <ele>12.2</ele>
        <time>2022-08-19T22:55:45Z</time>
      </trkpt>
      <trkpt lat="47.13726" lon="-1.93302">
        <ele>12.4</ele>
        <time>2022-08-19T22:55:48Z</time>
      </trkpt>
      <trkpt lat="47.13727" lon="-1.93316">
        <ele>12.2</ele>
        <time>2022-08-19T22:55:50Z</time>
      </trkpt>
      <trkpt lat="47.13727" lon="-1.9333">
        <ele>12.2</ele>
        <time>2022-08-19T22:55:52Z</time>
      </trkpt>
      <trkpt lat="47.1373" lon="-1.93362">
        <ele>12</ele>
        <time>2022-08-19T22:55:57Z</time>
      </trkpt>
      <trkpt lat="47.13728" lon="-1.93389">
        <ele>11.8</ele>
        <time>2022-08-19T22:56:01Z</time>
      </trkpt>
      <trkpt lat="47.13721" lon="-1.93423">
        <ele>11.8</ele>
        <time>2022-08-19T22:56:06Z</time>
      </trkpt>
      <trkpt lat="47.13719" lon="-1.93437">
        <ele>11.6</ele>
        <time>2022-08-19T22:56:08Z</time>
      </trkpt>
      <trkpt lat="47.13714" lon="-1.93466">
        <ele>11.6</ele>
        <time>2022-08-19T22:56:12Z</time>
      </trkpt>
      <trkpt lat="47.13706" lon="-1.93507">
        <ele>11.6</ele>
        <time>2022-08-19T22:56:18Z</time>
      </trkpt>
      <trkpt lat="47.13699" lon="-1.9354">
        <ele>11.6</ele>
        <time>2022-08-19T22:56:23Z</time>
      </trkpt>
      <trkpt lat="47.13691" lon="-1.9359">
        <ele>11.2</ele>
        <time>2022-08-19T22:56:30Z</time>
      </trkpt>
      <trkpt lat="47.13684" lon="-1.93628">
        <ele>10.8</ele>
        <time>2022-08-19T22:56:35Z</time>
      </trkpt>
      <trkpt lat="47.13674" lon="-1.9369">
        <ele>10.4</ele>
        <time>2022-08-19T22:56:43Z</time>
      </trkpt>
      <trkpt lat="47.13673" lon="-1.93697">
        <ele>10.2</ele>
        <time>2022-08-19T22:56:44Z</time>
      </trkpt>
      <trkpt lat="47.1367" lon="-1.9372">
        <ele>9.8</ele>
        <time>2022-08-19T22:56:47Z</time>
      </trkpt>
      <trkpt lat="47.13668" lon="-1.93736">
        <ele>9.8</ele>
        <time>2022-08-19T22:56:49Z</time>
      </trkpt>
      <trkpt lat="47.13667" lon="-1.93751">
        <ele>9.6</ele>
        <time>2022-08-19T22:56:51Z</time>
      </trkpt>
      <trkpt lat="47.13665" lon="-1.93759">
        <ele>9.4</ele>
        <time>2022-08-19T22:56:52Z</time>
      </trkpt>
      <trkpt lat="47.13662" lon="-1.93778">
        <ele>9.2</ele>
        <time>2022-08-19T22:56:55Z</time>
      </trkpt>
      <trkpt lat="47.1366" lon="-1.93785">
        <ele>9.2</ele>
        <time>2022-08-19T22:56:56Z</time>
      </trkpt>
      <trkpt lat="47.13651" lon="-1.93829">
        <ele>9</ele>
        <time>2022-08-19T22:57:03Z</time>
      </trkpt>
      <trkpt lat="47.13643" lon="-1.93852">
        <ele>9</ele>
        <time>2022-08-19T22:57:08Z</time>
      </trkpt>
      <trkpt lat="47.13639" lon="-1.93875">
        <ele>9</ele>
        <time>2022-08-19T22:57:13Z</time>
      </trkpt>
      <trkpt lat="47.13631" lon="-1.93913">
        <ele>9</ele>
        <time>2022-08-19T22:57:20Z</time>
      </trkpt>
      <trkpt lat="47.13624" lon="-1.93965">
        <ele>9.4</ele>
        <time>2022-08-19T22:57:29Z</time>
      </trkpt>
      <trkpt lat="47.13621" lon="-1.94019">
        <ele>9.4</ele>
        <time>2022-08-19T22:57:37Z</time>
      </trkpt>
      <trkpt lat="47.13619" lon="-1.94072">
        <ele>9.6</ele>
        <time>2022-08-19T22:57:45Z</time>
      </trkpt>
      <trkpt lat="47.13615" lon="-1.94117">
        <ele>9.8</ele>
        <time>2022-08-19T22:57:52Z</time>
      </trkpt>
      <trkpt lat="47.13615" lon="-1.94139">
        <ele>9.4</ele>
        <time>2022-08-19T22:57:56Z</time>
      </trkpt>
      <trkpt lat="47.13616" lon="-1.94167">
        <ele>9.4</ele>
        <time>2022-08-19T22:58:01Z</time>
      </trkpt>
      <trkpt lat="47.13617" lon="-1.94194">
        <ele>9.2</ele>
        <time>2022-08-19T22:58:06Z</time>
      </trkpt>
      <trkpt lat="47.13617" lon="-1.94217">
        <ele>9.2</ele>
        <time>2022-08-19T22:58:10Z</time>
      </trkpt>
      <trkpt lat="47.13618" lon="-1.94232">
        <ele>9</ele>
        <time>2022-08-19T22:58:13Z</time>
      </trkpt>
      <trkpt lat="47.13619" lon="-1.94235">
        <ele>9</ele>
        <time>2022-08-19T22:58:14Z</time>
      </trkpt>
      <trkpt lat="47.13633" lon="-1.94263">
        <ele>9</ele>
        <time>2022-08-19T22:58:19Z</time>
      </trkpt>
      <trkpt lat="47.13641" lon="-1.94281">
        <ele>9</ele>
        <time>2022-08-19T22:58:23Z</time>
      </trkpt>
      <trkpt lat="47.13653" lon="-1.94307">
        <ele>8.6</ele>
        <time>2022-08-19T22:58:29Z</time>
      </trkpt>
      <trkpt lat="47.13667" lon="-1.94332">
        <ele>8.4</ele>
        <time>2022-08-19T22:58:34Z</time>
      </trkpt>
      <trkpt lat="47.13675" lon="-1.94353">
        <ele>8.4</ele>
        <time>2022-08-19T22:58:38Z</time>
      </trkpt>
      <trkpt lat="47.13684" lon="-1.94379">
        <ele>8.2</ele>
        <time>2022-08-19T22:58:43Z</time>
      </trkpt>
      <trkpt lat="47.13692" lon="-1.94412">
        <ele>8</ele>
        <time>2022-08-19T22:58:49Z</time>
      </trkpt>
      <trkpt lat="47.13695" lon="-1.9443">
        <ele>8.2</ele>
        <time>2022-08-19T22:58:52Z</time>
      </trkpt>
      <trkpt lat="47.13701" lon="-1.94437">
        <ele>8.2</ele>
        <time>2022-08-19T22:58:54Z</time>
      </trkpt>
      <trkpt lat="47.13711" lon="-1.94447">
        <ele>7.8</ele>
        <time>2022-08-19T22:58:57Z</time>
      </trkpt>
      <trkpt lat="47.13719" lon="-1.94454">
        <ele>8.2</ele>
        <time>2022-08-19T22:58:59Z</time>
      </trkpt>
      <trkpt lat="47.13729" lon="-1.94459">
        <ele>8</ele>
        <time>2022-08-19T22:59:01Z</time>
      </trkpt>
      <trkpt lat="47.13739" lon="-1.94469">
        <ele>8</ele>
        <time>2022-08-19T22:59:04Z</time>
      </trkpt>
      <trkpt lat="47.13746" lon="-1.94476">
        <ele>8</ele>
        <time>2022-08-19T22:59:06Z</time>
      </trkpt>
      <trkpt lat="47.13756" lon="-1.94486">
        <ele>8</ele>
        <time>2022-08-19T22:59:09Z</time>
      </trkpt>
      <trkpt lat="47.13774" lon="-1.94503">
        <ele>8</ele>
        <time>2022-08-19T22:59:14Z</time>
      </trkpt>
      <trkpt lat="47.1379" lon="-1.94518">
        <ele>8.2</ele>
        <time>2022-08-19T22:59:18Z</time>
      </trkpt>
      <trkpt lat="47.13793" lon="-1.94518">
        <ele>8.2</ele>
        <time>2022-08-19T22:59:19Z</time>
      </trkpt>
      <trkpt lat="47.1381" lon="-1.94518">
        <ele>8.4</ele>
        <time>2022-08-19T22:59:24Z</time>
      </trkpt>
      <trkpt lat="47.13836" lon="-1.94526">
        <ele>8.4</ele>
        <time>2022-08-19T22:59:31Z</time>
      </trkpt>
      <trkpt lat="47.13861" lon="-1.94535">
        <ele>8.2</ele>
        <time>2022-08-19T22:59:37Z</time>
      </trkpt>
      <trkpt lat="47.13883" lon="-1.94546">
        <ele>8.4</ele>
        <time>2022-08-19T22:59:42Z</time>
      </trkpt>
      <trkpt lat="47.13887" lon="-1.94548">
        <ele>8.4</ele>
        <time>2022-08-19T22:59:43Z</time>
      </trkpt>
      <trkpt lat="47.13891" lon="-1.9455">
        <ele>8.4</ele>
        <time>2022-08-19T22:59:44Z</time>
      </trkpt>
      <trkpt lat="47.13901" lon="-1.94555">
        <ele>8.6</ele>
        <time>2022-08-19T22:59:46Z</time>
      </trkpt>
      <trkpt lat="47.13906" lon="-1.94557">
        <ele>8.6</ele>
        <time>2022-08-19T22:59:47Z</time>
      </trkpt>
      <trkpt lat="47.13929" lon="-1.94569">
        <ele>9</ele>
        <time>2022-08-19T22:59:52Z</time>
      </trkpt>
      <trkpt lat="47.1396" lon="-1.94588">
        <ele>9.4</ele>
        <time>2022-08-19T22:59:59Z</time>
      </trkpt>
      <trkpt lat="47.13965" lon="-1.94591">
        <ele>9.6</ele>
        <time>2022-08-19T23:00:00Z</time>
      </trkpt>
      <trkpt lat="47.13974" lon="-1.94596">
        <ele>9.8</ele>
        <time>2022-08-19T23:00:02Z</time>
      </trkpt>
      <trkpt lat="47.13983" lon="-1.94601">
        <ele>9.8</ele>
        <time>2022-08-19T23:00:04Z</time>
      </trkpt>
      <trkpt lat="47.14002" lon="-1.94614">
        <ele>10.2</ele>
        <time>2022-08-19T23:00:09Z</time>
      </trkpt>
      <trkpt lat="47.14022" lon="-1.94626">
        <ele>10.8</ele>
        <time>2022-08-19T23:00:14Z</time>
      </trkpt>
      <trkpt lat="47.14031" lon="-1.94632">
        <ele>11</ele>
        <time>2022-08-19T23:00:16Z</time>
      </trkpt>
      <trkpt lat="47.1404" lon="-1.94636">
        <ele>11.2</ele>
        <time>2022-08-19T23:00:18Z</time>
      </trkpt>
      <trkpt lat="47.14062" lon="-1.94651">
        <ele>11.6</ele>
        <time>2022-08-19T23:00:23Z</time>
      </trkpt>
      <trkpt lat="47.14066" lon="-1.94653">
        <ele>11.6</ele>
        <time>2022-08-19T23:00:24Z</time>
      </trkpt>
      <trkpt lat="47.14074" lon="-1.94656">
        <ele>11.6</ele>
        <time>2022-08-19T23:00:26Z</time>
      </trkpt>
      <trkpt lat="47.14096" lon="-1.94662">
        <ele>12.2</ele>
        <time>2022-08-19T23:00:31Z</time>
      </trkpt>
      <trkpt lat="47.14127" lon="-1.94667">
        <ele>12.8</ele>
        <time>2022-08-19T23:00:38Z</time>
      </trkpt>
      <trkpt lat="47.14172" lon="-1.94674">
        <ele>13.8</ele>
        <time>2022-08-19T23:00:47Z</time>
      </trkpt>
      <trkpt lat="47.14207" lon="-1.94684">
        <ele>14.2</ele>
        <time>2022-08-19T23:00:53Z</time>
      </trkpt>
      <trkpt lat="47.14228" lon="-1.94692">
        <ele>14.6</ele>
        <time>2022-08-19T23:00:57Z</time>
      </trkpt>
      <trkpt lat="47.14245" lon="-1.94699">
        <ele>14.6</ele>
        <time>2022-08-19T23:01:00Z</time>
      </trkpt>
      <trkpt lat="47.1425" lon="-1.94701">
        <ele>14.8</ele>
        <time>2022-08-19T23:01:01Z</time>
      </trkpt>
      <trkpt lat="47.14259" lon="-1.94706">
        <ele>14.8</ele>
        <time>2022-08-19T23:01:03Z</time>
      </trkpt>
      <trkpt lat="47.14264" lon="-1.94709">
        <ele>14.8</ele>
        <time>2022-08-19T23:01:04Z</time>
      </trkpt>
      <trkpt lat="47.14296" lon="-1.94725">
        <ele>15</ele>
        <time>2022-08-19T23:01:10Z</time>
      </trkpt>
      <trkpt lat="47.14307" lon="-1.9473">
        <ele>15</ele>
        <time>2022-08-19T23:01:12Z</time>
      </trkpt>
      <trkpt lat="47.14321" lon="-1.94738">
        <ele>15.2</ele>
        <time>2022-08-19T23:01:15Z</time>
      </trkpt>
      <trkpt lat="47.14354" lon="-1.94753">
        <ele>15.6</ele>
        <time>2022-08-19T23:01:21Z</time>
      </trkpt>
      <trkpt lat="47.14381" lon="-1.94762">
        <ele>15.8</ele>
        <time>2022-08-19T23:01:26Z</time>
      </trkpt>
      <trkpt lat="47.14391" lon="-1.94765">
        <ele>15.8</ele>
        <time>2022-08-19T23:01:28Z</time>
      </trkpt>
      <trkpt lat="47.14431" lon="-1.94783">
        <ele>16</ele>
        <time>2022-08-19T23:01:36Z</time>
      </trkpt>
      <trkpt lat="47.14459" lon="-1.94799">
        <ele>16.2</ele>
        <time>2022-08-19T23:01:42Z</time>
      </trkpt>
      <trkpt lat="47.1448" lon="-1.94813">
        <ele>16.4</ele>
        <time>2022-08-19T23:01:47Z</time>
      </trkpt>
      <trkpt lat="47.14502" lon="-1.94832">
        <ele>16.6</ele>
        <time>2022-08-19T23:01:53Z</time>
      </trkpt>
      <trkpt lat="47.14516" lon="-1.94846">
        <ele>16.8</ele>
        <time>2022-08-19T23:01:57Z</time>
      </trkpt>
      <trkpt lat="47.14519" lon="-1.94849">
        <ele>16.8</ele>
        <time>2022-08-19T23:01:58Z</time>
      </trkpt>
      <trkpt lat="47.14545" lon="-1.94871">
        <ele>17.2</ele>
        <time>2022-08-19T23:02:05Z</time>
      </trkpt>
      <trkpt lat="47.14565" lon="-1.94888">
        <ele>17.6</ele>
        <time>2022-08-19T23:02:11Z</time>
      </trkpt>
      <trkpt lat="47.14602" lon="-1.94919">
        <ele>18.4</ele>
        <time>2022-08-19T23:02:22Z</time>
      </trkpt>
      <trkpt lat="47.14636" lon="-1.94946">
        <ele>19.2</ele>
        <time>2022-08-19T23:02:32Z</time>
      </trkpt>
      <trkpt lat="47.14664" lon="-1.94968">
        <ele>20</ele>
        <time>2022-08-19T23:02:40Z</time>
      </trkpt>
      <trkpt lat="47.14689" lon="-1.94985">
        <ele>20.4</ele>
        <time>2022-08-19T23:02:47Z</time>
      </trkpt>
      <trkpt lat="47.14724" lon="-1.95004">
        <ele>21.2</ele>
        <time>2022-08-19T23:02:56Z</time>
      </trkpt>
      <trkpt lat="47.14753" lon="-1.95021">
        <ele>21.8</ele>
        <time>2022-08-19T23:03:04Z</time>
      </trkpt>
      <trkpt lat="47.14784" lon="-1.95038">
        <ele>22.6</ele>
        <time>2022-08-19T23:03:13Z</time>
      </trkpt>
      <trkpt lat="47.14813" lon="-1.95058">
        <ele>23.2</ele>
        <time>2022-08-19T23:03:21Z</time>
      </trkpt>
      <trkpt lat="47.14847" lon="-1.95088">
        <ele>23.8</ele>
        <time>2022-08-19T23:03:30Z</time>
      </trkpt>
      <trkpt lat="47.14873" lon="-1.95114">
        <ele>24.2</ele>
        <time>2022-08-19T23:03:37Z</time>
      </trkpt>
      <trkpt lat="47.14906" lon="-1.95144">
        <ele>24.8</ele>
        <time>2022-08-19T23:03:46Z</time>
      </trkpt>
      <trkpt lat="47.14937" lon="-1.95172">
        <ele>25.6</ele>
        <time>2022-08-19T23:03:55Z</time>
      </trkpt>
      <trkpt lat="47.14956" lon="-1.95191">
        <ele>26</ele>
        <time>2022-08-19T23:04:01Z</time>
      </trkpt>
      <trkpt lat="47.14973" lon="-1.95207">
        <ele>26.6</ele>
        <time>2022-08-19T23:04:06Z</time>
      </trkpt>
      <trkpt lat="47.1498" lon="-1.95214">
        <ele>26.6</ele>
        <time>2022-08-19T23:04:08Z</time>
      </trkpt>
      <trkpt lat="47.14995" lon="-1.95226">
        <ele>27</ele>
        <time>2022-08-19T23:04:12Z</time>
      </trkpt>
      <trkpt lat="47.15011" lon="-1.95237">
        <ele>27.4</ele>
        <time>2022-08-19T23:04:16Z</time>
      </trkpt>
      <trkpt lat="47.15022" lon="-1.95245">
        <ele>27.6</ele>
        <time>2022-08-19T23:04:19Z</time>
      </trkpt>
      <trkpt lat="47.15051" lon="-1.95266">
        <ele>28</ele>
        <time>2022-08-19T23:04:26Z</time>
      </trkpt>
      <trkpt lat="47.15062" lon="-1.95274">
        <ele>28.2</ele>
        <time>2022-08-19T23:04:29Z</time>
      </trkpt>
      <trkpt lat="47.15066" lon="-1.95277">
        <ele>28.4</ele>
        <time>2022-08-19T23:04:30Z</time>
      </trkpt>
      <trkpt lat="47.15082" lon="-1.95287">
        <ele>28.6</ele>
        <time>2022-08-19T23:04:34Z</time>
      </trkpt>
      <trkpt lat="47.15112" lon="-1.9531">
        <ele>28.6</ele>
        <time>2022-08-19T23:04:41Z</time>
      </trkpt>
      <trkpt lat="47.1514" lon="-1.95323">
        <ele>28.6</ele>
        <time>2022-08-19T23:04:47Z</time>
      </trkpt>
      <trkpt lat="47.15159" lon="-1.95335">
        <ele>28.6</ele>
        <time>2022-08-19T23:04:51Z</time>
      </trkpt>
      <trkpt lat="47.15164" lon="-1.95337">
        <ele>28.6</ele>
        <time>2022-08-19T23:04:52Z</time>
      </trkpt>
      <trkpt lat="47.15173" lon="-1.9534">
        <ele>28.8</ele>
        <time>2022-08-19T23:04:54Z</time>
      </trkpt>
      <trkpt lat="47.15181" lon="-1.95345">
        <ele>28.6</ele>
        <time>2022-08-19T23:04:56Z</time>
      </trkpt>
      <trkpt lat="47.1519" lon="-1.95349">
        <ele>28.6</ele>
        <time>2022-08-19T23:04:58Z</time>
      </trkpt>
      <trkpt lat="47.15199" lon="-1.95354">
        <ele>28.6</ele>
        <time>2022-08-19T23:05:00Z</time>
      </trkpt>
      <trkpt lat="47.15205" lon="-1.95356">
        <ele>28.8</ele>
        <time>2022-08-19T23:05:01Z</time>
      </trkpt>
      <trkpt lat="47.15226" lon="-1.95363">
        <ele>28.4</ele>
        <time>2022-08-19T23:05:05Z</time>
      </trkpt>
      <trkpt lat="47.15261" lon="-1.95363">
        <ele>28.4</ele>
        <time>2022-08-19T23:05:11Z</time>
      </trkpt>
      <trkpt lat="47.15293" lon="-1.95358">
        <ele>28.4</ele>
        <time>2022-08-19T23:05:17Z</time>
      </trkpt>
      <trkpt lat="47.15314" lon="-1.95366">
        <ele>28.6</ele>
        <time>2022-08-19T23:05:21Z</time>
      </trkpt>
      <trkpt lat="47.15318" lon="-1.9537">
        <ele>28.6</ele>
        <time>2022-08-19T23:05:22Z</time>
      </trkpt>
      <trkpt lat="47.15334" lon="-1.95384">
        <ele>28.6</ele>
        <time>2022-08-19T23:05:26Z</time>
      </trkpt>
      <trkpt lat="47.15354" lon="-1.95403">
        <ele>28.8</ele>
        <time>2022-08-19T23:05:32Z</time>
      </trkpt>
      <trkpt lat="47.15378" lon="-1.95429">
        <ele>28.8</ele>
        <time>2022-08-19T23:05:39Z</time>
      </trkpt>
      <trkpt lat="47.15401" lon="-1.95446">
        <ele>29</ele>
        <time>2022-08-19T23:05:45Z</time>
      </trkpt>
      <trkpt lat="47.15429" lon="-1.95467">
        <ele>29</ele>
        <time>2022-08-19T23:05:52Z</time>
      </trkpt>
      <trkpt lat="47.15437" lon="-1.95474">
        <ele>29</ele>
        <time>2022-08-19T23:05:54Z</time>
      </trkpt>
      <trkpt lat="47.15454" lon="-1.95489">
        <ele>29</ele>
        <time>2022-08-19T23:05:58Z</time>
      </trkpt>
      <trkpt lat="47.1548" lon="-1.95513">
        <ele>29.2</ele>
        <time>2022-08-19T23:06:05Z</time>
      </trkpt>
      <trkpt lat="47.15484" lon="-1.95516">
        <ele>29.2</ele>
        <time>2022-08-19T23:06:06Z</time>
      </trkpt>
      <trkpt lat="47.15498" lon="-1.95528">
        <ele>29.2</ele>
        <time>2022-08-19T23:06:10Z</time>
      </trkpt>
      <trkpt lat="47.15515" lon="-1.95538">
        <ele>29.2</ele>
        <time>2022-08-19T23:06:15Z</time>
      </trkpt>
      <trkpt lat="47.15519" lon="-1.95536">
        <ele>29.4</ele>
        <time>2022-08-19T23:06:16Z</time>
      </trkpt>
      <trkpt lat="47.15523" lon="-1.95532">
        <ele>29.2</ele>
        <time>2022-08-19T23:06:17Z</time>
      </trkpt>
      <trkpt lat="47.15531" lon="-1.95514">
        <ele>29.2</ele>
        <time>2022-08-19T23:06:20Z</time>
      </trkpt>
      <trkpt lat="47.15548" lon="-1.95475">
        <ele>29.4</ele>
        <time>2022-08-19T23:06:27Z</time>
      </trkpt>
      <trkpt lat="47.15564" lon="-1.95442">
        <ele>29.4</ele>
        <time>2022-08-19T23:06:33Z</time>
      </trkpt>
      <trkpt lat="47.1559" lon="-1.95382">
        <ele>29.6</ele>
        <time>2022-08-19T23:06:43Z</time>
      </trkpt>
      <trkpt lat="47.15612" lon="-1.95336">
        <ele>29.8</ele>
        <time>2022-08-19T23:06:51Z</time>
      </trkpt>
      <trkpt lat="47.15631" lon="-1.95297">
        <ele>29.8</ele>
        <time>2022-08-19T23:06:58Z</time>
      </trkpt>
      <trkpt lat="47.15656" lon="-1.95249">
        <ele>30</ele>
        <time>2022-08-19T23:07:07Z</time>
      </trkpt>
      <trkpt lat="47.15677" lon="-1.95209">
        <ele>30.2</ele>
        <time>2022-08-19T23:07:14Z</time>
      </trkpt>
      <trkpt lat="47.1568" lon="-1.95203">
        <ele>30.2</ele>
        <time>2022-08-19T23:07:15Z</time>
      </trkpt>
      <trkpt lat="47.15689" lon="-1.95188">
        <ele>30.2</ele>
        <time>2022-08-19T23:07:18Z</time>
      </trkpt>
      <trkpt lat="47.15696" lon="-1.9518">
        <ele>30.2</ele>
        <time>2022-08-19T23:07:20Z</time>
      </trkpt>
      <trkpt lat="47.15707" lon="-1.95167">
        <ele>30</ele>
        <time>2022-08-19T23:07:23Z</time>
      </trkpt>
      <trkpt lat="47.1571" lon="-1.95163">
        <ele>30</ele>
        <time>2022-08-19T23:07:24Z</time>
      </trkpt>
      <trkpt lat="47.15721" lon="-1.95153">
        <ele>30.2</ele>
        <time>2022-08-19T23:07:27Z</time>
      </trkpt>
      <trkpt lat="47.15757" lon="-1.95118">
        <ele>30.4</ele>
        <time>2022-08-19T23:07:37Z</time>
      </trkpt>
      <trkpt lat="47.15774" lon="-1.95087">
        <ele>30.6</ele>
        <time>2022-08-19T23:07:43Z</time>
      </trkpt>
      <trkpt lat="47.15794" lon="-1.95057">
        <ele>31</ele>
        <time>2022-08-19T23:07:50Z</time>
      </trkpt>
      <trkpt lat="47.15813" lon="-1.95026">
        <ele>31.4</ele>
        <time>2022-08-19T23:07:57Z</time>
      </trkpt>
      <trkpt lat="47.15838" lon="-1.94993">
        <ele>32</ele>
        <time>2022-08-19T23:08:05Z</time>
      </trkpt>
      <trkpt lat="47.15848" lon="-1.94981">
        <ele>32.2</ele>
        <time>2022-08-19T23:08:08Z</time>
      </trkpt>
      <trkpt lat="47.15858" lon="-1.94967">
        <ele>32.4</ele>
        <time>2022-08-19T23:08:11Z</time>
      </trkpt>
      <trkpt lat="47.15876" lon="-1.94942">
        <ele>32.6</ele>
        <time>2022-08-19T23:08:16Z</time>
      </trkpt>
      <trkpt lat="47.15885" lon="-1.94934">
        <ele>32.8</ele>
        <time>2022-08-19T23:08:18Z</time>
      </trkpt>
      <trkpt lat="47.15911" lon="-1.94916">
        <ele>33.4</ele>
        <time>2022-08-19T23:08:24Z</time>
      </trkpt>
      <trkpt lat="47.15915" lon="-1.94914">
        <ele>33.4</ele>
        <time>2022-08-19T23:08:25Z</time>
      </trkpt>
      <trkpt lat="47.15922" lon="-1.94907">
        <ele>33.6</ele>
        <time>2022-08-19T23:08:27Z</time>
      </trkpt>
      <trkpt lat="47.15928" lon="-1.94899">
        <ele>33.8</ele>
        <time>2022-08-19T23:08:29Z</time>
      </trkpt>
      <trkpt lat="47.15946" lon="-1.94888">
        <ele>34.4</ele>
        <time>2022-08-19T23:08:34Z</time>
      </trkpt>
      <trkpt lat="47.15951" lon="-1.94887">
        <ele>34.4</ele>
        <time>2022-08-19T23:08:35Z</time>
      </trkpt>
      <trkpt lat="47.15968" lon="-1.94884">
        <ele>35</ele>
        <time>2022-08-19T23:08:39Z</time>
      </trkpt>
      <trkpt lat="47.15972" lon="-1.94885">
        <ele>35</ele>
        <time>2022-08-19T23:08:40Z</time>
      </trkpt>
      <trkpt lat="47.16009" lon="-1.94885">
        <ele>35.8</ele>
        <time>2022-08-19T23:08:48Z</time>
      </trkpt>
      <trkpt lat="47.16024" lon="-1.94888">
        <ele>36</ele>
        <time>2022-08-19T23:08:51Z</time>
      </trkpt>
      <trkpt lat="47.16039" lon="-1.94887">
        <ele>36.4</ele>
        <time>2022-08-19T23:08:54Z</time>
      </trkpt>
      <trkpt lat="47.16073" lon="-1.94879">
        <ele>37</ele>
        <time>2022-08-19T23:09:02Z</time>
      </trkpt>
      <trkpt lat="47.16089" lon="-1.94865">
        <ele>37.2</ele>
        <time>2022-08-19T23:09:07Z</time>
      </trkpt>
      <trkpt lat="47.16108" lon="-1.94854">
        <ele>37.6</ele>
        <time>2022-08-19T23:09:12Z</time>
      </trkpt>
      <trkpt lat="47.16127" lon="-1.94851">
        <ele>38</ele>
        <time>2022-08-19T23:09:17Z</time>
      </trkpt>
      <trkpt lat="47.16148" lon="-1.9485">
        <ele>38.4</ele>
        <time>2022-08-19T23:09:23Z</time>
      </trkpt>
      <trkpt lat="47.16161" lon="-1.94856">
        <ele>38.4</ele>
        <time>2022-08-19T23:09:27Z</time>
      </trkpt>
      <trkpt lat="47.16175" lon="-1.94861">
        <ele>38.6</ele>
        <time>2022-08-19T23:09:31Z</time>
      </trkpt>
      <trkpt lat="47.16193" lon="-1.94866">
        <ele>38.6</ele>
        <time>2022-08-19T23:09:36Z</time>
      </trkpt>
      <trkpt lat="47.16215" lon="-1.94876">
        <ele>38.6</ele>
        <time>2022-08-19T23:09:41Z</time>
      </trkpt>
      <trkpt lat="47.16244" lon="-1.94887">
        <ele>38.6</ele>
        <time>2022-08-19T23:09:48Z</time>
      </trkpt>
      <trkpt lat="47.16257" lon="-1.94896">
        <ele>38</ele>
        <time>2022-08-19T23:09:51Z</time>
      </trkpt>
      <trkpt lat="47.16263" lon="-1.949">
        <ele>38.2</ele>
        <time>2022-08-19T23:09:52Z</time>
      </trkpt>
      <trkpt lat="47.16276" lon="-1.94912">
        <ele>38.4</ele>
        <time>2022-08-19T23:09:55Z</time>
      </trkpt>
      <trkpt lat="47.16291" lon="-1.94928">
        <ele>38.8</ele>
        <time>2022-08-19T23:09:59Z</time>
      </trkpt>
      <trkpt lat="47.16304" lon="-1.94938">
        <ele>38.8</ele>
        <time>2022-08-19T23:10:02Z</time>
      </trkpt>
      <trkpt lat="47.16314" lon="-1.9495">
        <ele>39</ele>
        <time>2022-08-19T23:10:05Z</time>
      </trkpt>
      <trkpt lat="47.16334" lon="-1.94981">
        <ele>39.4</ele>
        <time>2022-08-19T23:10:11Z</time>
      </trkpt>
      <trkpt lat="47.16349" lon="-1.95004">
        <ele>39.6</ele>
        <time>2022-08-19T23:10:16Z</time>
      </trkpt>
      <trkpt lat="47.16354" lon="-1.95014">
        <ele>39.6</ele>
        <time>2022-08-19T23:10:18Z</time>
      </trkpt>
      <trkpt lat="47.1636" lon="-1.95024">
        <ele>39.8</ele>
        <time>2022-08-19T23:10:20Z</time>
      </trkpt>
      <trkpt lat="47.16371" lon="-1.9504">
        <ele>39.8</ele>
        <time>2022-08-19T23:10:23Z</time>
      </trkpt>
      <trkpt lat="47.16375" lon="-1.95045">
        <ele>40</ele>
        <time>2022-08-19T23:10:24Z</time>
      </trkpt>
      <trkpt lat="47.16378" lon="-1.9505">
        <ele>40</ele>
        <time>2022-08-19T23:10:25Z</time>
      </trkpt>
      <trkpt lat="47.16391" lon="-1.95071">
        <ele>40.2</ele>
        <time>2022-08-19T23:10:29Z</time>
      </trkpt>
      <trkpt lat="47.16394" lon="-1.95076">
        <ele>40.2</ele>
        <time>2022-08-19T23:10:30Z</time>
      </trkpt>
      <trkpt lat="47.16401" lon="-1.95085">
        <ele>40.2</ele>
        <time>2022-08-19T23:10:32Z</time>
      </trkpt>
      <trkpt lat="47.16408" lon="-1.95096">
        <ele>40.4</ele>
        <time>2022-08-19T23:10:34Z</time>
      </trkpt>
      <trkpt lat="47.16423" lon="-1.95122">
        <ele>40.4</ele>
        <time>2022-08-19T23:10:39Z</time>
      </trkpt>
      <trkpt lat="47.16442" lon="-1.95151">
        <ele>40.6</ele>
        <time>2022-08-19T23:10:45Z</time>
      </trkpt>
      <trkpt lat="47.16452" lon="-1.95164">
        <ele>40.8</ele>
        <time>2022-08-19T23:10:49Z</time>
      </trkpt>
      <trkpt lat="47.16453" lon="-1.95167">
        <ele>40.8</ele>
        <time>2022-08-19T23:10:50Z</time>
      </trkpt>
      <trkpt lat="47.16454" lon="-1.9517">
        <ele>41</ele>
        <time>2022-08-19T23:10:51Z</time>
      </trkpt>
      <trkpt lat="47.16451" lon="-1.95179">
        <ele>41</ele>
        <time>2022-08-19T23:10:53Z</time>
      </trkpt>
      <trkpt lat="47.16451" lon="-1.95184">
        <ele>41.2</ele>
        <time>2022-08-19T23:10:54Z</time>
      </trkpt>
      <trkpt lat="47.16453" lon="-1.95194">
        <ele>41.2</ele>
        <time>2022-08-19T23:10:56Z</time>
      </trkpt>
      <trkpt lat="47.16463" lon="-1.95232">
        <ele>41.4</ele>
        <time>2022-08-19T23:11:03Z</time>
      </trkpt>
      <trkpt lat="47.16472" lon="-1.95259">
        <ele>41.6</ele>
        <time>2022-08-19T23:11:09Z</time>
      </trkpt>
      <trkpt lat="47.16487" lon="-1.95291">
        <ele>41.8</ele>
        <time>2022-08-19T23:11:16Z</time>
      </trkpt>
      <trkpt lat="47.16502" lon="-1.95312">
        <ele>42</ele>
        <time>2022-08-19T23:11:22Z</time>
      </trkpt>
      <trkpt lat="47.16522" lon="-1.95324">
        <ele>42.2</ele>
        <time>2022-08-19T23:11:29Z</time>
      </trkpt>
      <trkpt lat="47.16542" lon="-1.95324">
        <ele>42.2</ele>
        <time>2022-08-19T23:11:35Z</time>
      </trkpt>
      <trkpt lat="47.16565" lon="-1.95316">
        <ele>42.4</ele>
        <time>2022-08-19T23:11:41Z</time>
      </trkpt>
      <trkpt lat="47.16581" lon="-1.9531">
        <ele>42.2</ele>
        <time>2022-08-19T23:11:45Z</time>
      </trkpt>
      <trkpt lat="47.16612" lon="-1.95306">
        <ele>41.8</ele>
        <time>2022-08-19T23:11:52Z</time>
      </trkpt>
      <trkpt lat="47.16626" lon="-1.95304">
        <ele>41.6</ele>
        <time>2022-08-19T23:11:55Z</time>
      </trkpt>
      <trkpt lat="47.16635" lon="-1.95301">
        <ele>41.6</ele>
        <time>2022-08-19T23:11:57Z</time>
      </trkpt>
      <trkpt lat="47.16638" lon="-1.95299">
        <ele>41.4</ele>
        <time>2022-08-19T23:11:58Z</time>
      </trkpt>
      <trkpt lat="47.16646" lon="-1.95297">
        <ele>41.4</ele>
        <time>2022-08-19T23:12:00Z</time>
      </trkpt>
      <trkpt lat="47.16666" lon="-1.95293">
        <ele>41.2</ele>
        <time>2022-08-19T23:12:05Z</time>
      </trkpt>
      <trkpt lat="47.16674" lon="-1.95291">
        <ele>41</ele>
        <time>2022-08-19T23:12:07Z</time>
      </trkpt>
      <trkpt lat="47.16677" lon="-1.95289">
        <ele>40.8</ele>
        <time>2022-08-19T23:12:08Z</time>
      </trkpt>
      <trkpt lat="47.167" lon="-1.95282">
        <ele>40.6</ele>
        <time>2022-08-19T23:12:13Z</time>
      </trkpt>
      <trkpt lat="47.16709" lon="-1.95278">
        <ele>40.4</ele>
        <time>2022-08-19T23:12:15Z</time>
      </trkpt>
      <trkpt lat="47.16723" lon="-1.95271">
        <ele>40.4</ele>
        <time>2022-08-19T23:12:18Z</time>
      </trkpt>
      <trkpt lat="47.1674" lon="-1.95256">
        <ele>40</ele>
        <time>2022-08-19T23:12:23Z</time>
      </trkpt>
      <trkpt lat="47.16748" lon="-1.95251">
        <ele>39.8</ele>
        <time>2022-08-19T23:12:25Z</time>
      </trkpt>
      <trkpt lat="47.1676" lon="-1.95246">
        <ele>39.4</ele>
        <time>2022-08-19T23:12:28Z</time>
      </trkpt>
      <trkpt lat="47.1678" lon="-1.95237">
        <ele>39.4</ele>
        <time>2022-08-19T23:12:33Z</time>
      </trkpt>
      <trkpt lat="47.16798" lon="-1.95229">
        <ele>39.6</ele>
        <time>2022-08-19T23:12:38Z</time>
      </trkpt>
      <trkpt lat="47.16814" lon="-1.95222">
        <ele>39.6</ele>
        <time>2022-08-19T23:12:42Z</time>
      </trkpt>
      <trkpt lat="47.16817" lon="-1.95221">
        <ele>39.6</ele>
        <time>2022-08-19T23:12:43Z</time>
      </trkpt>
      <trkpt lat="47.16823" lon="-1.95218">
        <ele>39.4</ele>
        <time>2022-08-19T23:12:45Z</time>
      </trkpt>
      <trkpt lat="47.16844" lon="-1.95204">
        <ele>38.8</ele>
        <time>2022-08-19T23:12:51Z</time>
      </trkpt>
      <trkpt lat="47.16869" lon="-1.95191">
        <ele>38.8</ele>
        <time>2022-08-19T23:12:57Z</time>
      </trkpt>
      <trkpt lat="47.16887" lon="-1.95182">
        <ele>39</ele>
        <time>2022-08-19T23:13:02Z</time>
      </trkpt>
      <trkpt lat="47.169" lon="-1.9517">
        <ele>38.8</ele>
        <time>2022-08-19T23:13:07Z</time>
      </trkpt>
      <trkpt lat="47.16916" lon="-1.9516">
        <ele>38.8</ele>
        <time>2022-08-19T23:13:12Z</time>
      </trkpt>
      <trkpt lat="47.16926" lon="-1.95152">
        <ele>38.8</ele>
        <time>2022-08-19T23:13:15Z</time>
      </trkpt>
      <trkpt lat="47.16929" lon="-1.95151">
        <ele>38.8</ele>
        <time>2022-08-19T23:13:16Z</time>
      </trkpt>
      <trkpt lat="47.16947" lon="-1.95144">
        <ele>38.6</ele>
        <time>2022-08-19T23:13:21Z</time>
      </trkpt>
      <trkpt lat="47.16954" lon="-1.95144">
        <ele>38.8</ele>
        <time>2022-08-19T23:13:23Z</time>
      </trkpt>
      <trkpt lat="47.16962" lon="-1.9515">
        <ele>39</ele>
        <time>2022-08-19T23:13:25Z</time>
      </trkpt>
      <trkpt lat="47.16977" lon="-1.95178">
        <ele>39.8</ele>
        <time>2022-08-19T23:13:31Z</time>
      </trkpt>
      <trkpt lat="47.16986" lon="-1.95198">
        <ele>39.8</ele>
        <time>2022-08-19T23:13:36Z</time>
      </trkpt>
      <trkpt lat="47.16999" lon="-1.95226">
        <ele>40.4</ele>
        <time>2022-08-19T23:13:42Z</time>
      </trkpt>
      <trkpt lat="47.17009" lon="-1.9525">
        <ele>40.8</ele>
        <time>2022-08-19T23:13:47Z</time>
      </trkpt>
      <trkpt lat="47.17015" lon="-1.95259">
        <ele>41</ele>
        <time>2022-08-19T23:13:50Z</time>
      </trkpt>
      <trkpt lat="47.17017" lon="-1.95259">
        <ele>41</ele>
        <time>2022-08-19T23:13:51Z</time>
      </trkpt>
      <trkpt lat="47.17018" lon="-1.95258">
        <ele>41.2</ele>
        <time>2022-08-19T23:13:53Z</time>
      </trkpt>
      <trkpt lat="47.17019" lon="-1.95255">
        <ele>42.4</ele>
        <time>2022-08-19T23:14:15Z</time>
      </trkpt>
      <trkpt lat="47.17019" lon="-1.95252">
        <ele>42.4</ele>
        <time>2022-08-19T23:14:16Z</time>
      </trkpt>
      <trkpt lat="47.17024" lon="-1.95231">
        <ele>42.8</ele>
        <time>2022-08-19T23:14:22Z</time>
      </trkpt>
      <trkpt lat="47.17026" lon="-1.95229">
        <ele>43</ele>
        <time>2022-08-19T23:14:24Z</time>
      </trkpt>
      <trkpt lat="47.17029" lon="-1.95219">
        <ele>47.2</ele>
        <time>2022-08-19T23:17:08Z</time>
      </trkpt>
      <trkpt lat="47.17036" lon="-1.95203">
        <ele>47.4</ele>
        <time>2022-08-19T23:17:14Z</time>
      </trkpt>
      <trkpt lat="47.17045" lon="-1.95179">
        <ele>47.4</ele>
        <time>2022-08-19T23:17:20Z</time>
      </trkpt>
      <trkpt lat="47.1705" lon="-1.95163">
        <ele>47.4</ele>
        <time>2022-08-19T23:17:25Z</time>
      </trkpt>
      <trkpt lat="47.17059" lon="-1.95143">
        <ele>47.6</ele>
        <time>2022-08-19T23:17:31Z</time>
      </trkpt>
      <trkpt lat="47.17069" lon="-1.95119">
        <ele>48</ele>
        <time>2022-08-19T23:17:37Z</time>
      </trkpt>
      <trkpt lat="47.17082" lon="-1.95087">
        <ele>48.2</ele>
        <time>2022-08-19T23:17:44Z</time>
      </trkpt>
      <trkpt lat="47.17095" lon="-1.95051">
        <ele>48.4</ele>
        <time>2022-08-19T23:17:51Z</time>
      </trkpt>
      <trkpt lat="47.17108" lon="-1.95008">
        <ele>48.6</ele>
        <time>2022-08-19T23:17:59Z</time>
      </trkpt>
      <trkpt lat="47.17124" lon="-1.94955">
        <ele>49</ele>
        <time>2022-08-19T23:18:08Z</time>
      </trkpt>
      <trkpt lat="47.1714" lon="-1.94919">
        <ele>49.4</ele>
        <time>2022-08-19T23:18:15Z</time>
      </trkpt>
      <trkpt lat="47.17162" lon="-1.94889">
        <ele>49.8</ele>
        <time>2022-08-19T23:18:22Z</time>
      </trkpt>
      <trkpt lat="47.17179" lon="-1.94875">
        <ele>50.4</ele>
        <time>2022-08-19T23:18:27Z</time>
      </trkpt>
      <trkpt lat="47.17183" lon="-1.94872">
        <ele>50.4</ele>
        <time>2022-08-19T23:18:28Z</time>
      </trkpt>
      <trkpt lat="47.17198" lon="-1.94862">
        <ele>50.6</ele>
        <time>2022-08-19T23:18:32Z</time>
      </trkpt>
      <trkpt lat="47.17207" lon="-1.94856">
        <ele>50.8</ele>
        <time>2022-08-19T23:18:34Z</time>
      </trkpt>
      <trkpt lat="47.1721" lon="-1.94853">
        <ele>50.8</ele>
        <time>2022-08-19T23:18:35Z</time>
      </trkpt>
      <trkpt lat="47.17223" lon="-1.94842">
        <ele>50.8</ele>
        <time>2022-08-19T23:18:38Z</time>
      </trkpt>
      <trkpt lat="47.17238" lon="-1.9483">
        <ele>51</ele>
        <time>2022-08-19T23:18:42Z</time>
      </trkpt>
      <trkpt lat="47.17245" lon="-1.94822">
        <ele>51</ele>
        <time>2022-08-19T23:18:44Z</time>
      </trkpt>
      <trkpt lat="47.17269" lon="-1.94798">
        <ele>51.2</ele>
        <time>2022-08-19T23:18:50Z</time>
      </trkpt>
      <trkpt lat="47.17277" lon="-1.94789">
        <ele>51.2</ele>
        <time>2022-08-19T23:18:52Z</time>
      </trkpt>
      <trkpt lat="47.17298" lon="-1.94766">
        <ele>51.4</ele>
        <time>2022-08-19T23:18:57Z</time>
      </trkpt>
      <trkpt lat="47.17332" lon="-1.94723">
        <ele>51.6</ele>
        <time>2022-08-19T23:19:05Z</time>
      </trkpt>
      <trkpt lat="47.17363" lon="-1.94684">
        <ele>51.6</ele>
        <time>2022-08-19T23:19:12Z</time>
      </trkpt>
      <trkpt lat="47.17371" lon="-1.94673">
        <ele>51.4</ele>
        <time>2022-08-19T23:19:14Z</time>
      </trkpt>
      <trkpt lat="47.17388" lon="-1.94651">
        <ele>51.4</ele>
        <time>2022-08-19T23:19:18Z</time>
      </trkpt>
      <trkpt lat="47.17414" lon="-1.94619">
        <ele>51.2</ele>
        <time>2022-08-19T23:19:24Z</time>
      </trkpt>
      <trkpt lat="47.17423" lon="-1.94609">
        <ele>51.2</ele>
        <time>2022-08-19T23:19:26Z</time>
      </trkpt>
      <trkpt lat="47.17436" lon="-1.9459">
        <ele>51</ele>
        <time>2022-08-19T23:19:29Z</time>
      </trkpt>
      <trkpt lat="47.17454" lon="-1.94567">
        <ele>50.8</ele>
        <time>2022-08-19T23:19:33Z</time>
      </trkpt>
      <trkpt lat="47.17486" lon="-1.94537">
        <ele>50.4</ele>
        <time>2022-08-19T23:19:39Z</time>
      </trkpt>
      <trkpt lat="47.1752" lon="-1.94516">
        <ele>50.2</ele>
        <time>2022-08-19T23:19:45Z</time>
      </trkpt>
      <trkpt lat="47.17543" lon="-1.94503">
        <ele>50</ele>
        <time>2022-08-19T23:19:49Z</time>
      </trkpt>
      <trkpt lat="47.17549" lon="-1.945">
        <ele>49.8</ele>
        <time>2022-08-19T23:19:50Z</time>
      </trkpt>
      <trkpt lat="47.17575" lon="-1.94489">
        <ele>49.6</ele>
        <time>2022-08-19T23:19:54Z</time>
      </trkpt>
      <trkpt lat="47.17612" lon="-1.94472">
        <ele>49.4</ele>
        <time>2022-08-19T23:20:00Z</time>
      </trkpt>
      <trkpt lat="47.17632" lon="-1.94466">
        <ele>49</ele>
        <time>2022-08-19T23:20:03Z</time>
      </trkpt>
      <trkpt lat="47.17644" lon="-1.94461">
        <ele>49</ele>
        <time>2022-08-19T23:20:05Z</time>
      </trkpt>
      <trkpt lat="47.17684" lon="-1.94448">
        <ele>49</ele>
        <time>2022-08-19T23:20:12Z</time>
      </trkpt>
      <trkpt lat="47.177" lon="-1.94442">
        <ele>49</ele>
        <time>2022-08-19T23:20:15Z</time>
      </trkpt>
      <trkpt lat="47.17705" lon="-1.94441">
        <ele>49</ele>
        <time>2022-08-19T23:20:16Z</time>
      </trkpt>
      <trkpt lat="47.17743" lon="-1.9443">
        <ele>48.8</ele>
        <time>2022-08-19T23:20:23Z</time>
      </trkpt>
      <trkpt lat="47.17753" lon="-1.94426">
        <ele>49.2</ele>
        <time>2022-08-19T23:20:25Z</time>
      </trkpt>
      <trkpt lat="47.17775" lon="-1.94418">
        <ele>49.2</ele>
        <time>2022-08-19T23:20:29Z</time>
      </trkpt>
      <trkpt lat="47.17816" lon="-1.94406">
        <ele>49.4</ele>
        <time>2022-08-19T23:20:36Z</time>
      </trkpt>
      <trkpt lat="47.1786" lon="-1.94393">
        <ele>49.6</ele>
        <time>2022-08-19T23:20:43Z</time>
      </trkpt>
      <trkpt lat="47.17906" lon="-1.94389">
        <ele>49.8</ele>
        <time>2022-08-19T23:20:50Z</time>
      </trkpt>
      <trkpt lat="47.17919" lon="-1.94391">
        <ele>49.8</ele>
        <time>2022-08-19T23:20:52Z</time>
      </trkpt>
      <trkpt lat="47.17939" lon="-1.94394">
        <ele>49.8</ele>
        <time>2022-08-19T23:20:55Z</time>
      </trkpt>
      <trkpt lat="47.17953" lon="-1.94396">
        <ele>49.8</ele>
        <time>2022-08-19T23:20:57Z</time>
      </trkpt>
      <trkpt lat="47.17973" lon="-1.94398">
        <ele>50</ele>
        <time>2022-08-19T23:21:00Z</time>
      </trkpt>
      <trkpt lat="47.18002" lon="-1.94402">
        <ele>50</ele>
        <time>2022-08-19T23:21:04Z</time>
      </trkpt>
      <trkpt lat="47.18051" lon="-1.9441">
        <ele>50.2</ele>
        <time>2022-08-19T23:21:11Z</time>
      </trkpt>
      <trkpt lat="47.18106" lon="-1.94418">
        <ele>50.6</ele>
        <time>2022-08-19T23:21:19Z</time>
      </trkpt>
      <trkpt lat="47.18163" lon="-1.94424">
        <ele>50.6</ele>
        <time>2022-08-19T23:21:27Z</time>
      </trkpt>
      <trkpt lat="47.18176" lon="-1.94425">
        <ele>50.6</ele>
        <time>2022-08-19T23:21:29Z</time>
      </trkpt>
      <trkpt lat="47.1823" lon="-1.94433">
        <ele>50.6</ele>
        <time>2022-08-19T23:21:37Z</time>
      </trkpt>
      <trkpt lat="47.18237" lon="-1.94434">
        <ele>50.6</ele>
        <time>2022-08-19T23:21:38Z</time>
      </trkpt>
      <trkpt lat="47.1829" lon="-1.94441">
        <ele>50.4</ele>
        <time>2022-08-19T23:21:46Z</time>
      </trkpt>
      <trkpt lat="47.18327" lon="-1.94445">
        <ele>50.2</ele>
        <time>2022-08-19T23:21:51Z</time>
      </trkpt>
      <trkpt lat="47.18376" lon="-1.94451">
        <ele>49.4</ele>
        <time>2022-08-19T23:21:57Z</time>
      </trkpt>
      <trkpt lat="47.18404" lon="-1.94454">
        <ele>49</ele>
        <time>2022-08-19T23:22:01Z</time>
      </trkpt>
      <trkpt lat="47.18415" lon="-1.94456">
        <ele>48.6</ele>
        <time>2022-08-19T23:22:03Z</time>
      </trkpt>
      <trkpt lat="47.18433" lon="-1.94459">
        <ele>48.2</ele>
        <time>2022-08-19T23:22:06Z</time>
      </trkpt>
      <trkpt lat="47.18476" lon="-1.94465">
        <ele>47.8</ele>
        <time>2022-08-19T23:22:13Z</time>
      </trkpt>
      <trkpt lat="47.18533" lon="-1.94474">
        <ele>47.2</ele>
        <time>2022-08-19T23:22:21Z</time>
      </trkpt>
      <trkpt lat="47.18577" lon="-1.94486">
        <ele>46.4</ele>
        <time>2022-08-19T23:22:27Z</time>
      </trkpt>
      <trkpt lat="47.18584" lon="-1.94491">
        <ele>46.4</ele>
        <time>2022-08-19T23:22:28Z</time>
      </trkpt>
      <trkpt lat="47.18591" lon="-1.94496">
        <ele>46.2</ele>
        <time>2022-08-19T23:22:29Z</time>
      </trkpt>
      <trkpt lat="47.18609" lon="-1.94517">
        <ele>46</ele>
        <time>2022-08-19T23:22:32Z</time>
      </trkpt>
      <trkpt lat="47.18635" lon="-1.94559">
        <ele>45.6</ele>
        <time>2022-08-19T23:22:37Z</time>
      </trkpt>
      <trkpt lat="47.18663" lon="-1.94613">
        <ele>45.2</ele>
        <time>2022-08-19T23:22:43Z</time>
      </trkpt>
      <trkpt lat="47.18683" lon="-1.94649">
        <ele>44.8</ele>
        <time>2022-08-19T23:22:47Z</time>
      </trkpt>
      <trkpt lat="47.18712" lon="-1.94697">
        <ele>43.4</ele>
        <time>2022-08-19T23:22:52Z</time>
      </trkpt>
      <trkpt lat="47.1874" lon="-1.94743">
        <ele>41.6</ele>
        <time>2022-08-19T23:22:57Z</time>
      </trkpt>
      <trkpt lat="47.18753" lon="-1.94764">
        <ele>40.2</ele>
        <time>2022-08-19T23:23:01Z</time>
      </trkpt>
      <trkpt lat="47.18751" lon="-1.9478">
        <ele>39</ele>
        <time>2022-08-19T23:23:05Z</time>
      </trkpt>
      <trkpt lat="47.1875" lon="-1.94782">
        <ele>38.8</ele>
        <time>2022-08-19T23:23:06Z</time>
      </trkpt>
      <trkpt lat="47.18745" lon="-1.94784">
        <ele>38.2</ele>
        <time>2022-08-19T23:23:08Z</time>
      </trkpt>
      <trkpt lat="47.18739" lon="-1.94785">
        <ele>37.8</ele>
        <time>2022-08-19T23:23:10Z</time>
      </trkpt>
      <trkpt lat="47.18732" lon="-1.94783">
        <ele>37.4</ele>
        <time>2022-08-19T23:23:13Z</time>
      </trkpt>
      <trkpt lat="47.18731" lon="-1.94783">
        <ele>37</ele>
        <time>2022-08-19T23:23:15Z</time>
      </trkpt>
      <trkpt lat="47.18735" lon="-1.94787">
        <ele>23.2</ele>
        <time>2022-08-19T23:27:58Z</time>
      </trkpt>
      <trkpt lat="47.18752" lon="-1.9479">
        <ele>23.2</ele>
        <time>2022-08-19T23:28:04Z</time>
      </trkpt>
      <trkpt lat="47.18759" lon="-1.94786">
        <ele>23.4</ele>
        <time>2022-08-19T23:28:08Z</time>
      </trkpt>
      <trkpt lat="47.18766" lon="-1.94779">
        <ele>23.8</ele>
        <time>2022-08-19T23:28:16Z</time>
      </trkpt>
      <trkpt lat="47.18772" lon="-1.94776">
        <ele>23.8</ele>
        <time>2022-08-19T23:28:20Z</time>
      </trkpt>
      <trkpt lat="47.18773" lon="-1.94777">
        <ele>23.8</ele>
        <time>2022-08-19T23:28:21Z</time>
      </trkpt>
      <trkpt lat="47.18774" lon="-1.94778">
        <ele>23.8</ele>
        <time>2022-08-19T23:28:22Z</time>
      </trkpt>
      <trkpt lat="47.18774" lon="-1.9478">
        <ele>23.8</ele>
        <time>2022-08-19T23:28:24Z</time>
      </trkpt>
      <trkpt lat="47.18778" lon="-1.94785">
        <ele>24</ele>
        <time>2022-08-19T23:28:35Z</time>
      </trkpt>
      <trkpt lat="47.18782" lon="-1.94789">
        <ele>24</ele>
        <time>2022-08-19T23:28:37Z</time>
      </trkpt>
      <trkpt lat="47.188" lon="-1.94801">
        <ele>23.6</ele>
        <time>2022-08-19T23:28:43Z</time>
      </trkpt>
      <trkpt lat="47.1881" lon="-1.94799">
        <ele>23.6</ele>
        <time>2022-08-19T23:28:45Z</time>
      </trkpt>
      <trkpt lat="47.1882" lon="-1.94795">
        <ele>23.6</ele>
        <time>2022-08-19T23:28:47Z</time>
      </trkpt>
      <trkpt lat="47.1883" lon="-1.94788">
        <ele>23.6</ele>
        <time>2022-08-19T23:28:49Z</time>
      </trkpt>
      <trkpt lat="47.18839" lon="-1.9478">
        <ele>23.4</ele>
        <time>2022-08-19T23:28:51Z</time>
      </trkpt>
      <trkpt lat="47.18844" lon="-1.94776">
        <ele>23.4</ele>
        <time>2022-08-19T23:28:52Z</time>
      </trkpt>
      <trkpt lat="47.18854" lon="-1.94769">
        <ele>23.2</ele>
        <time>2022-08-19T23:28:54Z</time>
      </trkpt>
      <trkpt lat="47.18864" lon="-1.94765">
        <ele>23.2</ele>
        <time>2022-08-19T23:28:56Z</time>
      </trkpt>
      <trkpt lat="47.18869" lon="-1.94766">
        <ele>23.2</ele>
        <time>2022-08-19T23:28:57Z</time>
      </trkpt>
      <trkpt lat="47.18875" lon="-1.94767">
        <ele>23.2</ele>
        <time>2022-08-19T23:28:58Z</time>
      </trkpt>
      <trkpt lat="47.18889" lon="-1.94777">
        <ele>23.2</ele>
        <time>2022-08-19T23:29:01Z</time>
      </trkpt>
      <trkpt lat="47.18898" lon="-1.94785">
        <ele>23</ele>
        <time>2022-08-19T23:29:03Z</time>
      </trkpt>
      <trkpt lat="47.1891" lon="-1.94796">
        <ele>23</ele>
        <time>2022-08-19T23:29:06Z</time>
      </trkpt>
      <trkpt lat="47.18925" lon="-1.94809">
        <ele>22.8</ele>
        <time>2022-08-19T23:29:11Z</time>
      </trkpt>
      <trkpt lat="47.18945" lon="-1.94822">
        <ele>22.4</ele>
        <time>2022-08-19T23:29:18Z</time>
      </trkpt>
      <trkpt lat="47.18949" lon="-1.94824">
        <ele>22.4</ele>
        <time>2022-08-19T23:29:19Z</time>
      </trkpt>
      <trkpt lat="47.18958" lon="-1.94824">
        <ele>22.4</ele>
        <time>2022-08-19T23:29:21Z</time>
      </trkpt>
      <trkpt lat="47.18967" lon="-1.94821">
        <ele>22.4</ele>
        <time>2022-08-19T23:29:23Z</time>
      </trkpt>
      <trkpt lat="47.18995" lon="-1.94798">
        <ele>22</ele>
        <time>2022-08-19T23:29:29Z</time>
      </trkpt>
      <trkpt lat="47.19014" lon="-1.94781">
        <ele>21.8</ele>
        <time>2022-08-19T23:29:33Z</time>
      </trkpt>
      <trkpt lat="47.19018" lon="-1.94777">
        <ele>21.6</ele>
        <time>2022-08-19T23:29:34Z</time>
      </trkpt>
      <trkpt lat="47.19049" lon="-1.94748">
        <ele>21</ele>
        <time>2022-08-19T23:29:40Z</time>
      </trkpt>
      <trkpt lat="47.1908" lon="-1.94723">
        <ele>20.4</ele>
        <time>2022-08-19T23:29:45Z</time>
      </trkpt>
      <trkpt lat="47.19087" lon="-1.94719">
        <ele>20.2</ele>
        <time>2022-08-19T23:29:46Z</time>
      </trkpt>
      <trkpt lat="47.19094" lon="-1.94716">
        <ele>20.2</ele>
        <time>2022-08-19T23:29:47Z</time>
      </trkpt>
      <trkpt lat="47.19122" lon="-1.94712">
        <ele>20</ele>
        <time>2022-08-19T23:29:51Z</time>
      </trkpt>
      <trkpt lat="47.19173" lon="-1.94714">
        <ele>19.6</ele>
        <time>2022-08-19T23:29:58Z</time>
      </trkpt>
      <trkpt lat="47.192" lon="-1.94716">
        <ele>19.4</ele>
        <time>2022-08-19T23:30:02Z</time>
      </trkpt>
      <trkpt lat="47.19226" lon="-1.94718">
        <ele>19</ele>
        <time>2022-08-19T23:30:06Z</time>
      </trkpt>
      <trkpt lat="47.19266" lon="-1.94717">
        <ele>18.6</ele>
        <time>2022-08-19T23:30:12Z</time>
      </trkpt>
      <trkpt lat="47.19308" lon="-1.94709">
        <ele>18</ele>
        <time>2022-08-19T23:30:18Z</time>
      </trkpt>
      <trkpt lat="47.19353" lon="-1.94699">
        <ele>18</ele>
        <time>2022-08-19T23:30:25Z</time>
      </trkpt>
      <trkpt lat="47.19398" lon="-1.94691">
        <ele>17.8</ele>
        <time>2022-08-19T23:30:33Z</time>
      </trkpt>
      <trkpt lat="47.19448" lon="-1.9468">
        <ele>18.6</ele>
        <time>2022-08-19T23:30:43Z</time>
      </trkpt>
      <trkpt lat="47.19474" lon="-1.94674">
        <ele>18.8</ele>
        <time>2022-08-19T23:30:48Z</time>
      </trkpt>
      <trkpt lat="47.19518" lon="-1.94662">
        <ele>19.2</ele>
        <time>2022-08-19T23:30:56Z</time>
      </trkpt>
      <trkpt lat="47.1955" lon="-1.94653">
        <ele>19.4</ele>
        <time>2022-08-19T23:31:02Z</time>
      </trkpt>
      <trkpt lat="47.19586" lon="-1.94642">
        <ele>19.6</ele>
        <time>2022-08-19T23:31:09Z</time>
      </trkpt>
      <trkpt lat="47.19616" lon="-1.94631">
        <ele>19.8</ele>
        <time>2022-08-19T23:31:15Z</time>
      </trkpt>
      <trkpt lat="47.19639" lon="-1.94618">
        <ele>20</ele>
        <time>2022-08-19T23:31:20Z</time>
      </trkpt>
      <trkpt lat="47.19677" lon="-1.94589">
        <ele>20.2</ele>
        <time>2022-08-19T23:31:28Z</time>
      </trkpt>
      <trkpt lat="47.19691" lon="-1.94575">
        <ele>20.2</ele>
        <time>2022-08-19T23:31:31Z</time>
      </trkpt>
      <trkpt lat="47.197" lon="-1.94564">
        <ele>20.4</ele>
        <time>2022-08-19T23:31:33Z</time>
      </trkpt>
      <trkpt lat="47.19704" lon="-1.94559">
        <ele>20.4</ele>
        <time>2022-08-19T23:31:34Z</time>
      </trkpt>
      <trkpt lat="47.19719" lon="-1.94545">
        <ele>20.4</ele>
        <time>2022-08-19T23:31:37Z</time>
      </trkpt>
      <trkpt lat="47.19733" lon="-1.94535">
        <ele>20.4</ele>
        <time>2022-08-19T23:31:40Z</time>
      </trkpt>
      <trkpt lat="47.19743" lon="-1.94529">
        <ele>20.6</ele>
        <time>2022-08-19T23:31:42Z</time>
      </trkpt>
      <trkpt lat="47.19759" lon="-1.9452">
        <ele>20.4</ele>
        <time>2022-08-19T23:31:45Z</time>
      </trkpt>
      <trkpt lat="47.19772" lon="-1.94513">
        <ele>20.4</ele>
        <time>2022-08-19T23:31:47Z</time>
      </trkpt>
      <trkpt lat="47.19791" lon="-1.94503">
        <ele>20</ele>
        <time>2022-08-19T23:31:50Z</time>
      </trkpt>
      <trkpt lat="47.1984" lon="-1.94478">
        <ele>19.6</ele>
        <time>2022-08-19T23:31:58Z</time>
      </trkpt>
      <trkpt lat="47.19892" lon="-1.94453">
        <ele>19.2</ele>
        <time>2022-08-19T23:32:06Z</time>
      </trkpt>
      <trkpt lat="47.19929" lon="-1.94434">
        <ele>18.8</ele>
        <time>2022-08-19T23:32:12Z</time>
      </trkpt>
      <trkpt lat="47.19968" lon="-1.94417">
        <ele>18.2</ele>
        <time>2022-08-19T23:32:18Z</time>
      </trkpt>
      <trkpt lat="47.1998" lon="-1.94413">
        <ele>18</ele>
        <time>2022-08-19T23:32:20Z</time>
      </trkpt>
      <trkpt lat="47.2" lon="-1.94411">
        <ele>17.8</ele>
        <time>2022-08-19T23:32:23Z</time>
      </trkpt>
      <trkpt lat="47.20042" lon="-1.9441">
        <ele>17.4</ele>
        <time>2022-08-19T23:32:30Z</time>
      </trkpt>
      <trkpt lat="47.20071" lon="-1.94409">
        <ele>17.2</ele>
        <time>2022-08-19T23:32:35Z</time>
      </trkpt>
      <trkpt lat="47.2011" lon="-1.94408">
        <ele>16.8</ele>
        <time>2022-08-19T23:32:42Z</time>
      </trkpt>
      <trkpt lat="47.20145" lon="-1.94407">
        <ele>16.8</ele>
        <time>2022-08-19T23:32:48Z</time>
      </trkpt>
      <trkpt lat="47.20175" lon="-1.94407">
        <ele>16.8</ele>
        <time>2022-08-19T23:32:53Z</time>
      </trkpt>
      <trkpt lat="47.20198" lon="-1.94407">
        <ele>16.8</ele>
        <time>2022-08-19T23:32:57Z</time>
      </trkpt>
      <trkpt lat="47.20221" lon="-1.94409">
        <ele>16.8</ele>
        <time>2022-08-19T23:33:01Z</time>
      </trkpt>
      <trkpt lat="47.20231" lon="-1.94416">
        <ele>16.6</ele>
        <time>2022-08-19T23:33:03Z</time>
      </trkpt>
      <trkpt lat="47.20239" lon="-1.9443">
        <ele>16.6</ele>
        <time>2022-08-19T23:33:05Z</time>
      </trkpt>
      <trkpt lat="47.20242" lon="-1.94438">
        <ele>16.6</ele>
        <time>2022-08-19T23:33:06Z</time>
      </trkpt>
      <trkpt lat="47.20244" lon="-1.94446">
        <ele>16.6</ele>
        <time>2022-08-19T23:33:07Z</time>
      </trkpt>
      <trkpt lat="47.2025" lon="-1.94483">
        <ele>16.6</ele>
        <time>2022-08-19T23:33:11Z</time>
      </trkpt>
      <trkpt lat="47.20269" lon="-1.94544">
        <ele>16.4</ele>
        <time>2022-08-19T23:33:18Z</time>
      </trkpt>
      <trkpt lat="47.20272" lon="-1.94552">
        <ele>16.4</ele>
        <time>2022-08-19T23:33:19Z</time>
      </trkpt>
      <trkpt lat="47.20284" lon="-1.94585">
        <ele>16.2</ele>
        <time>2022-08-19T23:33:23Z</time>
      </trkpt>
      <trkpt lat="47.20298" lon="-1.94619">
        <ele>16.2</ele>
        <time>2022-08-19T23:33:27Z</time>
      </trkpt>
      <trkpt lat="47.20301" lon="-1.94628">
        <ele>16.2</ele>
        <time>2022-08-19T23:33:28Z</time>
      </trkpt>
      <trkpt lat="47.20314" lon="-1.94674">
        <ele>16</ele>
        <time>2022-08-19T23:33:33Z</time>
      </trkpt>
      <trkpt lat="47.20331" lon="-1.9473">
        <ele>15.8</ele>
        <time>2022-08-19T23:33:39Z</time>
      </trkpt>
      <trkpt lat="47.20354" lon="-1.94797">
        <ele>15.6</ele>
        <time>2022-08-19T23:33:46Z</time>
      </trkpt>
      <trkpt lat="47.20376" lon="-1.94868">
        <ele>14.8</ele>
        <time>2022-08-19T23:33:53Z</time>
      </trkpt>
      <trkpt lat="47.20392" lon="-1.94946">
        <ele>13.8</ele>
        <time>2022-08-19T23:34:00Z</time>
      </trkpt>
      <trkpt lat="47.20407" lon="-1.95035">
        <ele>12.6</ele>
        <time>2022-08-19T23:34:07Z</time>
      </trkpt>
      <trkpt lat="47.20407" lon="-1.95061">
        <ele>12.6</ele>
        <time>2022-08-19T23:34:09Z</time>
      </trkpt>
      <trkpt lat="47.20405" lon="-1.95084">
        <ele>12.6</ele>
        <time>2022-08-19T23:34:11Z</time>
      </trkpt>
      <trkpt lat="47.20399" lon="-1.95135">
        <ele>12.4</ele>
        <time>2022-08-19T23:34:16Z</time>
      </trkpt>
      <trkpt lat="47.20399" lon="-1.95144">
        <ele>12.6</ele>
        <time>2022-08-19T23:34:17Z</time>
      </trkpt>
      <trkpt lat="47.20401" lon="-1.95163">
        <ele>12.6</ele>
        <time>2022-08-19T23:34:19Z</time>
      </trkpt>
      <trkpt lat="47.20404" lon="-1.95172">
        <ele>12.6</ele>
        <time>2022-08-19T23:34:20Z</time>
      </trkpt>
      <trkpt lat="47.20407" lon="-1.95181">
        <ele>12.6</ele>
        <time>2022-08-19T23:34:21Z</time>
      </trkpt>
      <trkpt lat="47.20417" lon="-1.95196">
        <ele>12.4</ele>
        <time>2022-08-19T23:34:23Z</time>
      </trkpt>
      <trkpt lat="47.20423" lon="-1.95202">
        <ele>12.4</ele>
        <time>2022-08-19T23:34:24Z</time>
      </trkpt>
      <trkpt lat="47.20437" lon="-1.95209">
        <ele>12.2</ele>
        <time>2022-08-19T23:34:26Z</time>
      </trkpt>
      <trkpt lat="47.20451" lon="-1.95211">
        <ele>12</ele>
        <time>2022-08-19T23:34:28Z</time>
      </trkpt>
      <trkpt lat="47.20497" lon="-1.95216">
        <ele>11.4</ele>
        <time>2022-08-19T23:34:35Z</time>
      </trkpt>
      <trkpt lat="47.20503" lon="-1.95215">
        <ele>11.4</ele>
        <time>2022-08-19T23:34:36Z</time>
      </trkpt>
      <trkpt lat="47.20521" lon="-1.95209">
        <ele>11.2</ele>
        <time>2022-08-19T23:34:39Z</time>
      </trkpt>
      <trkpt lat="47.20544" lon="-1.9519">
        <ele>11</ele>
        <time>2022-08-19T23:34:43Z</time>
      </trkpt>
      <trkpt lat="47.20584" lon="-1.95154">
        <ele>10.4</ele>
        <time>2022-08-19T23:34:49Z</time>
      </trkpt>
      <trkpt lat="47.2063" lon="-1.95118">
        <ele>9.8</ele>
        <time>2022-08-19T23:34:56Z</time>
      </trkpt>
      <trkpt lat="47.20637" lon="-1.95114">
        <ele>9.8</ele>
        <time>2022-08-19T23:34:57Z</time>
      </trkpt>
      <trkpt lat="47.20652" lon="-1.95111">
        <ele>9.8</ele>
        <time>2022-08-19T23:34:59Z</time>
      </trkpt>
      <trkpt lat="47.20666" lon="-1.95116">
        <ele>9.6</ele>
        <time>2022-08-19T23:35:01Z</time>
      </trkpt>
      <trkpt lat="47.20672" lon="-1.95119">
        <ele>9.6</ele>
        <time>2022-08-19T23:35:02Z</time>
      </trkpt>
      <trkpt lat="47.20678" lon="-1.95122">
        <ele>9.6</ele>
        <time>2022-08-19T23:35:03Z</time>
      </trkpt>
      <trkpt lat="47.20698" lon="-1.95123">
        <ele>9.4</ele>
        <time>2022-08-19T23:35:06Z</time>
      </trkpt>
      <trkpt lat="47.20705" lon="-1.95121">
        <ele>9.4</ele>
        <time>2022-08-19T23:35:07Z</time>
      </trkpt>
      <trkpt lat="47.2073" lon="-1.9511">
        <ele>9.2</ele>
        <time>2022-08-19T23:35:11Z</time>
      </trkpt>
      <trkpt lat="47.2076" lon="-1.95088">
        <ele>9</ele>
        <time>2022-08-19T23:35:16Z</time>
      </trkpt>
      <trkpt lat="47.20766" lon="-1.95085">
        <ele>9</ele>
        <time>2022-08-19T23:35:17Z</time>
      </trkpt>
      <trkpt lat="47.20773" lon="-1.95083">
        <ele>9</ele>
        <time>2022-08-19T23:35:18Z</time>
      </trkpt>
      <trkpt lat="47.20786" lon="-1.95086">
        <ele>8.8</ele>
        <time>2022-08-19T23:35:20Z</time>
      </trkpt>
      <trkpt lat="47.20804" lon="-1.95103">
        <ele>8.8</ele>
        <time>2022-08-19T23:35:23Z</time>
      </trkpt>
      <trkpt lat="47.20809" lon="-1.9511">
        <ele>8.8</ele>
        <time>2022-08-19T23:35:24Z</time>
      </trkpt>
      <trkpt lat="47.20837" lon="-1.9515">
        <ele>8.6</ele>
        <time>2022-08-19T23:35:30Z</time>
      </trkpt>
      <trkpt lat="47.20845" lon="-1.95162">
        <ele>8.6</ele>
        <time>2022-08-19T23:35:32Z</time>
      </trkpt>
      <trkpt lat="47.20859" lon="-1.95178">
        <ele>8.4</ele>
        <time>2022-08-19T23:35:35Z</time>
      </trkpt>
      <trkpt lat="47.20869" lon="-1.95182">
        <ele>8.4</ele>
        <time>2022-08-19T23:35:37Z</time>
      </trkpt>
      <trkpt lat="47.20874" lon="-1.95179">
        <ele>8.4</ele>
        <time>2022-08-19T23:35:38Z</time>
      </trkpt>
      <trkpt lat="47.20878" lon="-1.95166">
        <ele>8.2</ele>
        <time>2022-08-19T23:35:40Z</time>
      </trkpt>
      <trkpt lat="47.20878" lon="-1.95157">
        <ele>8.2</ele>
        <time>2022-08-19T23:35:41Z</time>
      </trkpt>
      <trkpt lat="47.20883" lon="-1.95114">
        <ele>8.2</ele>
        <time>2022-08-19T23:35:46Z</time>
      </trkpt>
      <trkpt lat="47.20884" lon="-1.95105">
        <ele>8.2</ele>
        <time>2022-08-19T23:35:47Z</time>
      </trkpt>
      <trkpt lat="47.20888" lon="-1.95076">
        <ele>8</ele>
        <time>2022-08-19T23:35:50Z</time>
      </trkpt>
      <trkpt lat="47.20896" lon="-1.95025">
        <ele>8.2</ele>
        <time>2022-08-19T23:35:55Z</time>
      </trkpt>
      <trkpt lat="47.20914" lon="-1.94964">
        <ele>7.8</ele>
        <time>2022-08-19T23:36:01Z</time>
      </trkpt>
      <trkpt lat="47.20922" lon="-1.94934">
        <ele>7.8</ele>
        <time>2022-08-19T23:36:04Z</time>
      </trkpt>
      <trkpt lat="47.20925" lon="-1.94913">
        <ele>7.6</ele>
        <time>2022-08-19T23:36:06Z</time>
      </trkpt>
      <trkpt lat="47.20934" lon="-1.94837">
        <ele>7.4</ele>
        <time>2022-08-19T23:36:13Z</time>
      </trkpt>
      <trkpt lat="47.20936" lon="-1.94827">
        <ele>7.4</ele>
        <time>2022-08-19T23:36:14Z</time>
      </trkpt>
      <trkpt lat="47.20943" lon="-1.9481">
        <ele>7.4</ele>
        <time>2022-08-19T23:36:16Z</time>
      </trkpt>
      <trkpt lat="47.20948" lon="-1.94803">
        <ele>7.2</ele>
        <time>2022-08-19T23:36:17Z</time>
      </trkpt>
      <trkpt lat="47.20953" lon="-1.94796">
        <ele>7.2</ele>
        <time>2022-08-19T23:36:18Z</time>
      </trkpt>
      <trkpt lat="47.20965" lon="-1.94786">
        <ele>7.2</ele>
        <time>2022-08-19T23:36:20Z</time>
      </trkpt>
      <trkpt lat="47.20971" lon="-1.94782">
        <ele>7.2</ele>
        <time>2022-08-19T23:36:21Z</time>
      </trkpt>
      <trkpt lat="47.21005" lon="-1.94769">
        <ele>7.2</ele>
        <time>2022-08-19T23:36:26Z</time>
      </trkpt>
      <trkpt lat="47.21037" lon="-1.94756">
        <ele>7.2</ele>
        <time>2022-08-19T23:36:31Z</time>
      </trkpt>
      <trkpt lat="47.21078" lon="-1.94741">
        <ele>7</ele>
        <time>2022-08-19T23:36:38Z</time>
      </trkpt>
      <trkpt lat="47.21104" lon="-1.9473">
        <ele>7</ele>
        <time>2022-08-19T23:36:43Z</time>
      </trkpt>
      <trkpt lat="47.21135" lon="-1.94718">
        <ele>6.8</ele>
        <time>2022-08-19T23:36:48Z</time>
      </trkpt>
      <trkpt lat="47.21158" lon="-1.94707">
        <ele>6.8</ele>
        <time>2022-08-19T23:36:52Z</time>
      </trkpt>
      <trkpt lat="47.21163" lon="-1.94703">
        <ele>6.8</ele>
        <time>2022-08-19T23:36:53Z</time>
      </trkpt>
      <trkpt lat="47.21166" lon="-1.94697">
        <ele>6.8</ele>
        <time>2022-08-19T23:36:54Z</time>
      </trkpt>
      <trkpt lat="47.21168" lon="-1.9468">
        <ele>6.8</ele>
        <time>2022-08-19T23:36:56Z</time>
      </trkpt>
      <trkpt lat="47.21166" lon="-1.94647">
        <ele>6.8</ele>
        <time>2022-08-19T23:37:00Z</time>
      </trkpt>
      <trkpt lat="47.21165" lon="-1.94633">
        <ele>7</ele>
        <time>2022-08-19T23:37:02Z</time>
      </trkpt>
      <trkpt lat="47.21164" lon="-1.94618">
        <ele>7.2</ele>
        <time>2022-08-19T23:37:04Z</time>
      </trkpt>
      <trkpt lat="47.21164" lon="-1.94593">
        <ele>7</ele>
        <time>2022-08-19T23:37:08Z</time>
      </trkpt>
      <trkpt lat="47.21162" lon="-1.9455">
        <ele>7.4</ele>
        <time>2022-08-19T23:37:16Z</time>
      </trkpt>
      <trkpt lat="47.21161" lon="-1.94523">
        <ele>8</ele>
        <time>2022-08-19T23:37:22Z</time>
      </trkpt>
      <trkpt lat="47.21159" lon="-1.94496">
        <ele>8.6</ele>
        <time>2022-08-19T23:37:29Z</time>
      </trkpt>
      <trkpt lat="47.21158" lon="-1.94472">
        <ele>9</ele>
        <time>2022-08-19T23:37:35Z</time>
      </trkpt>
      <trkpt lat="47.21159" lon="-1.94449">
        <ele>9.6</ele>
        <time>2022-08-19T23:37:41Z</time>
      </trkpt>
      <trkpt lat="47.21163" lon="-1.94412">
        <ele>10.8</ele>
        <time>2022-08-19T23:37:50Z</time>
      </trkpt>
      <trkpt lat="47.21167" lon="-1.9438">
        <ele>12</ele>
        <time>2022-08-19T23:37:58Z</time>
      </trkpt>
      <trkpt lat="47.21172" lon="-1.94346">
        <ele>13</ele>
        <time>2022-08-19T23:38:06Z</time>
      </trkpt>
      <trkpt lat="47.21178" lon="-1.943">
        <ele>14.2</ele>
        <time>2022-08-19T23:38:17Z</time>
      </trkpt>
      <trkpt lat="47.21184" lon="-1.94262">
        <ele>15.4</ele>
        <time>2022-08-19T23:38:25Z</time>
      </trkpt>
      <trkpt lat="47.2119" lon="-1.9422">
        <ele>16.2</ele>
        <time>2022-08-19T23:38:32Z</time>
      </trkpt>
      <trkpt lat="47.21196" lon="-1.94175">
        <ele>16.6</ele>
        <time>2022-08-19T23:38:38Z</time>
      </trkpt>
      <trkpt lat="47.21205" lon="-1.94109">
        <ele>17.2</ele>
        <time>2022-08-19T23:38:45Z</time>
      </trkpt>
      <trkpt lat="47.21214" lon="-1.94027">
        <ele>18</ele>
        <time>2022-08-19T23:38:53Z</time>
      </trkpt>
      <trkpt lat="47.21225" lon="-1.93944">
        <ele>18.6</ele>
        <time>2022-08-19T23:39:01Z</time>
      </trkpt>
      <trkpt lat="47.21228" lon="-1.93923">
        <ele>18.8</ele>
        <time>2022-08-19T23:39:03Z</time>
      </trkpt>
      <trkpt lat="47.21246" lon="-1.93849">
        <ele>19.2</ele>
        <time>2022-08-19T23:39:10Z</time>
      </trkpt>
      <trkpt lat="47.21251" lon="-1.93788">
        <ele>19.8</ele>
        <time>2022-08-19T23:39:16Z</time>
      </trkpt>
      <trkpt lat="47.21255" lon="-1.93719">
        <ele>20.2</ele>
        <time>2022-08-19T23:39:23Z</time>
      </trkpt>
      <trkpt lat="47.21254" lon="-1.93664">
        <ele>20.4</ele>
        <time>2022-08-19T23:39:29Z</time>
      </trkpt>
      <trkpt lat="47.2126" lon="-1.93652">
        <ele>20.6</ele>
        <time>2022-08-19T23:39:32Z</time>
      </trkpt>
      <trkpt lat="47.21264" lon="-1.9365">
        <ele>20.6</ele>
        <time>2022-08-19T23:39:33Z</time>
      </trkpt>
      <trkpt lat="47.21276" lon="-1.93649">
        <ele>20.8</ele>
        <time>2022-08-19T23:39:36Z</time>
      </trkpt>
      <trkpt lat="47.21298" lon="-1.93645">
        <ele>21.4</ele>
        <time>2022-08-19T23:39:42Z</time>
      </trkpt>
      <trkpt lat="47.21331" lon="-1.9364">
        <ele>22.2</ele>
        <time>2022-08-19T23:39:50Z</time>
      </trkpt>
      <trkpt lat="47.21349" lon="-1.93637">
        <ele>22.4</ele>
        <time>2022-08-19T23:39:54Z</time>
      </trkpt>
      <trkpt lat="47.21354" lon="-1.93635">
        <ele>22.4</ele>
        <time>2022-08-19T23:39:55Z</time>
      </trkpt>
      <trkpt lat="47.21392" lon="-1.93627">
        <ele>22.8</ele>
        <time>2022-08-19T23:40:02Z</time>
      </trkpt>
      <trkpt lat="47.21435" lon="-1.93618">
        <ele>23</ele>
        <time>2022-08-19T23:40:09Z</time>
      </trkpt>
      <trkpt lat="47.21478" lon="-1.9361">
        <ele>23.2</ele>
        <time>2022-08-19T23:40:16Z</time>
      </trkpt>
      <trkpt lat="47.2151" lon="-1.93602">
        <ele>23</ele>
        <time>2022-08-19T23:40:21Z</time>
      </trkpt>
      <trkpt lat="47.2154" lon="-1.93595">
        <ele>22.4</ele>
        <time>2022-08-19T23:40:26Z</time>
      </trkpt>
      <trkpt lat="47.21579" lon="-1.93586">
        <ele>22.6</ele>
        <time>2022-08-19T23:40:32Z</time>
      </trkpt>
      <trkpt lat="47.2161" lon="-1.93578">
        <ele>22.2</ele>
        <time>2022-08-19T23:40:37Z</time>
      </trkpt>
      <trkpt lat="47.21646" lon="-1.93571">
        <ele>22</ele>
        <time>2022-08-19T23:40:43Z</time>
      </trkpt>
      <trkpt lat="47.21683" lon="-1.93563">
        <ele>21.8</ele>
        <time>2022-08-19T23:40:49Z</time>
      </trkpt>
      <trkpt lat="47.21712" lon="-1.93558">
        <ele>21.8</ele>
        <time>2022-08-19T23:40:54Z</time>
      </trkpt>
      <trkpt lat="47.21718" lon="-1.93557">
        <ele>21.8</ele>
        <time>2022-08-19T23:40:55Z</time>
      </trkpt>
      <trkpt lat="47.21736" lon="-1.93554">
        <ele>21.8</ele>
        <time>2022-08-19T23:40:58Z</time>
      </trkpt>
      <trkpt lat="47.21776" lon="-1.93545">
        <ele>21.8</ele>
        <time>2022-08-19T23:41:05Z</time>
      </trkpt>
      <trkpt lat="47.21816" lon="-1.93538">
        <ele>21.6</ele>
        <time>2022-08-19T23:41:12Z</time>
      </trkpt>
      <trkpt lat="47.21822" lon="-1.93537">
        <ele>21.8</ele>
        <time>2022-08-19T23:41:13Z</time>
      </trkpt>
      <trkpt lat="47.21841" lon="-1.93533">
        <ele>21.8</ele>
        <time>2022-08-19T23:41:16Z</time>
      </trkpt>
      <trkpt lat="47.21878" lon="-1.93525">
        <ele>21.6</ele>
        <time>2022-08-19T23:41:22Z</time>
      </trkpt>
      <trkpt lat="47.21919" lon="-1.93515">
        <ele>21.2</ele>
        <time>2022-08-19T23:41:28Z</time>
      </trkpt>
      <trkpt lat="47.21979" lon="-1.93503">
        <ele>21.2</ele>
        <time>2022-08-19T23:41:36Z</time>
      </trkpt>
      <trkpt lat="47.21986" lon="-1.93502">
        <ele>21.2</ele>
        <time>2022-08-19T23:41:37Z</time>
      </trkpt>
      <trkpt lat="47.2204" lon="-1.93493">
        <ele>21.2</ele>
        <time>2022-08-19T23:41:45Z</time>
      </trkpt>
      <trkpt lat="47.22048" lon="-1.93502">
        <ele>21.2</ele>
        <time>2022-08-19T23:41:47Z</time>
      </trkpt>
      <trkpt lat="47.22049" lon="-1.93517">
        <ele>21.2</ele>
        <time>2022-08-19T23:41:49Z</time>
      </trkpt>
      <trkpt lat="47.22048" lon="-1.93525">
        <ele>21</ele>
        <time>2022-08-19T23:41:50Z</time>
      </trkpt>
      <trkpt lat="47.22041" lon="-1.93583">
        <ele>21</ele>
        <time>2022-08-19T23:41:57Z</time>
      </trkpt>
      <trkpt lat="47.22033" lon="-1.93649">
        <ele>21</ele>
        <time>2022-08-19T23:42:04Z</time>
      </trkpt>
      <trkpt lat="47.2203" lon="-1.93688">
        <ele>20.8</ele>
        <time>2022-08-19T23:42:08Z</time>
      </trkpt>
      <trkpt lat="47.22031" lon="-1.93708">
        <ele>20.8</ele>
        <time>2022-08-19T23:42:10Z</time>
      </trkpt>
      <trkpt lat="47.22033" lon="-1.93728">
        <ele>20.8</ele>
        <time>2022-08-19T23:42:12Z</time>
      </trkpt>
      <trkpt lat="47.22038" lon="-1.93748">
        <ele>20.8</ele>
        <time>2022-08-19T23:42:14Z</time>
      </trkpt>
      <trkpt lat="47.22053" lon="-1.93803">
        <ele>20.4</ele>
        <time>2022-08-19T23:42:20Z</time>
      </trkpt>
      <trkpt lat="47.22068" lon="-1.93864">
        <ele>19.6</ele>
        <time>2022-08-19T23:42:27Z</time>
      </trkpt>
      <trkpt lat="47.22083" lon="-1.93923">
        <ele>19</ele>
        <time>2022-08-19T23:42:34Z</time>
      </trkpt>
      <trkpt lat="47.221" lon="-1.93986">
        <ele>18.2</ele>
        <time>2022-08-19T23:42:41Z</time>
      </trkpt>
      <trkpt lat="47.22113" lon="-1.9404">
        <ele>17.8</ele>
        <time>2022-08-19T23:42:47Z</time>
      </trkpt>
      <trkpt lat="47.22117" lon="-1.94056">
        <ele>17.6</ele>
        <time>2022-08-19T23:42:49Z</time>
      </trkpt>
      <trkpt lat="47.22121" lon="-1.9407">
        <ele>17.4</ele>
        <time>2022-08-19T23:42:51Z</time>
      </trkpt>
      <trkpt lat="47.22121" lon="-1.94086">
        <ele>17.2</ele>
        <time>2022-08-19T23:42:53Z</time>
      </trkpt>
      <trkpt lat="47.22119" lon="-1.94094">
        <ele>17</ele>
        <time>2022-08-19T23:42:54Z</time>
      </trkpt>
      <trkpt lat="47.22105" lon="-1.94164">
        <ele>16.4</ele>
        <time>2022-08-19T23:43:02Z</time>
      </trkpt>
      <trkpt lat="47.22085" lon="-1.94221">
        <ele>15.8</ele>
        <time>2022-08-19T23:43:09Z</time>
      </trkpt>
      <trkpt lat="47.22068" lon="-1.94257">
        <ele>15.2</ele>
        <time>2022-08-19T23:43:14Z</time>
      </trkpt>
      <trkpt lat="47.22069" lon="-1.94264">
        <ele>15.2</ele>
        <time>2022-08-19T23:43:15Z</time>
      </trkpt>
      <trkpt lat="47.22072" lon="-1.9427">
        <ele>15</ele>
        <time>2022-08-19T23:43:16Z</time>
      </trkpt>
      <trkpt lat="47.22081" lon="-1.94276">
        <ele>14.8</ele>
        <time>2022-08-19T23:43:18Z</time>
      </trkpt>
      <trkpt lat="47.22119" lon="-1.94285">
        <ele>14.8</ele>
        <time>2022-08-19T23:43:25Z</time>
      </trkpt>
      <trkpt lat="47.22141" lon="-1.94293">
        <ele>14.8</ele>
        <time>2022-08-19T23:43:29Z</time>
      </trkpt>
      <trkpt lat="47.2215" lon="-1.94301">
        <ele>15</ele>
        <time>2022-08-19T23:43:31Z</time>
      </trkpt>
      <trkpt lat="47.22175" lon="-1.94333">
        <ele>14.6</ele>
        <time>2022-08-19T23:43:37Z</time>
      </trkpt>
      <trkpt lat="47.22203" lon="-1.94376">
        <ele>15.2</ele>
        <time>2022-08-19T23:43:45Z</time>
      </trkpt>
      <trkpt lat="47.22205" lon="-1.94381">
        <ele>15.2</ele>
        <time>2022-08-19T23:43:46Z</time>
      </trkpt>
      <trkpt lat="47.22211" lon="-1.94387">
        <ele>15.2</ele>
        <time>2022-08-19T23:43:48Z</time>
      </trkpt>
      <trkpt lat="47.22222" lon="-1.94381">
        <ele>15.2</ele>
        <time>2022-08-19T23:43:51Z</time>
      </trkpt>
      <trkpt lat="47.22244" lon="-1.94366">
        <ele>15.2</ele>
        <time>2022-08-19T23:43:56Z</time>
      </trkpt>
      <trkpt lat="47.22271" lon="-1.94348">
        <ele>15.2</ele>
        <time>2022-08-19T23:44:02Z</time>
      </trkpt>
      <trkpt lat="47.22294" lon="-1.94333">
        <ele>15.2</ele>
        <time>2022-08-19T23:44:07Z</time>
      </trkpt>
      <trkpt lat="47.22312" lon="-1.94318">
        <ele>15</ele>
        <time>2022-08-19T23:44:12Z</time>
      </trkpt>
      <trkpt lat="47.22331" lon="-1.943">
        <ele>14.6</ele>
        <time>2022-08-19T23:44:18Z</time>
      </trkpt>
      <trkpt lat="47.22348" lon="-1.94288">
        <ele>14.4</ele>
        <time>2022-08-19T23:44:23Z</time>
      </trkpt>
      <trkpt lat="47.22359" lon="-1.94276">
        <ele>14</ele>
        <time>2022-08-19T23:44:28Z</time>
      </trkpt>
      <trkpt lat="47.22371" lon="-1.94265">
        <ele>13.6</ele>
        <time>2022-08-19T23:44:33Z</time>
      </trkpt>
      <trkpt lat="47.22382" lon="-1.94257">
        <ele>13.2</ele>
        <time>2022-08-19T23:44:38Z</time>
      </trkpt>
      <trkpt lat="47.22397" lon="-1.94246">
        <ele>12.8</ele>
        <time>2022-08-19T23:44:44Z</time>
      </trkpt>
      <trkpt lat="47.22418" lon="-1.9423">
        <ele>12.8</ele>
        <time>2022-08-19T23:44:50Z</time>
      </trkpt>
      <trkpt lat="47.22431" lon="-1.94219">
        <ele>12.6</ele>
        <time>2022-08-19T23:44:55Z</time>
      </trkpt>
      <trkpt lat="47.22436" lon="-1.94217">
        <ele>12.6</ele>
        <time>2022-08-19T23:44:58Z</time>
      </trkpt>
      <trkpt lat="47.22439" lon="-1.94215">
        <ele>12.6</ele>
        <time>2022-08-19T23:45:01Z</time>
      </trkpt>
      <trkpt lat="47.22444" lon="-1.94212">
        <ele>12.6</ele>
        <time>2022-08-19T23:45:03Z</time>
      </trkpt>
      <trkpt lat="47.22457" lon="-1.94202">
        <ele>12.8</ele>
        <time>2022-08-19T23:45:08Z</time>
      </trkpt>
      <trkpt lat="47.22471" lon="-1.94193">
        <ele>13</ele>
        <time>2022-08-19T23:45:13Z</time>
      </trkpt>
      <trkpt lat="47.22488" lon="-1.94183">
        <ele>13</ele>
        <time>2022-08-19T23:45:18Z</time>
      </trkpt>
      <trkpt lat="47.22504" lon="-1.94174">
        <ele>13</ele>
        <time>2022-08-19T23:45:23Z</time>
      </trkpt>
      <trkpt lat="47.2252" lon="-1.94164">
        <ele>13.4</ele>
        <time>2022-08-19T23:45:28Z</time>
      </trkpt>
      <trkpt lat="47.22529" lon="-1.94158">
        <ele>13.8</ele>
        <time>2022-08-19T23:45:32Z</time>
      </trkpt>
      <trkpt lat="47.22544" lon="-1.94147">
        <ele>14</ele>
        <time>2022-08-19T23:45:37Z</time>
      </trkpt>
      <trkpt lat="47.22571" lon="-1.94135">
        <ele>14.6</ele>
        <time>2022-08-19T23:45:45Z</time>
      </trkpt>
      <trkpt lat="47.22585" lon="-1.94128">
        <ele>14.8</ele>
        <time>2022-08-19T23:45:50Z</time>
      </trkpt>
      <trkpt lat="47.22596" lon="-1.94117">
        <ele>15</ele>
        <time>2022-08-19T23:45:55Z</time>
      </trkpt>
      <trkpt lat="47.22612" lon="-1.94102">
        <ele>15.2</ele>
        <time>2022-08-19T23:46:00Z</time>
      </trkpt>
      <trkpt lat="47.2262" lon="-1.94094">
        <ele>15.4</ele>
        <time>2022-08-19T23:46:04Z</time>
      </trkpt>
      <trkpt lat="47.22628" lon="-1.94085">
        <ele>15.4</ele>
        <time>2022-08-19T23:46:09Z</time>
      </trkpt>
      <trkpt lat="47.22655" lon="-1.94068">
        <ele>16.2</ele>
        <time>2022-08-19T23:46:15Z</time>
      </trkpt>
      <trkpt lat="47.22658" lon="-1.94067">
        <ele>16.4</ele>
        <time>2022-08-19T23:46:16Z</time>
      </trkpt>
      <trkpt lat="47.22661" lon="-1.94072">
        <ele>16.6</ele>
        <time>2022-08-19T23:46:18Z</time>
      </trkpt>
      <trkpt lat="47.22671" lon="-1.94097">
        <ele>16.8</ele>
        <time>2022-08-19T23:46:24Z</time>
      </trkpt>
      <trkpt lat="47.22683" lon="-1.94132">
        <ele>16.6</ele>
        <time>2022-08-19T23:46:31Z</time>
      </trkpt>
      <trkpt lat="47.22696" lon="-1.94175">
        <ele>17.2</ele>
        <time>2022-08-19T23:46:38Z</time>
      </trkpt>
      <trkpt lat="47.22697" lon="-1.94181">
        <ele>17.2</ele>
        <time>2022-08-19T23:46:39Z</time>
      </trkpt>
      <trkpt lat="47.22704" lon="-1.94218">
        <ele>18</ele>
        <time>2022-08-19T23:46:45Z</time>
      </trkpt>
      <trkpt lat="47.22712" lon="-1.94257">
        <ele>19</ele>
        <time>2022-08-19T23:46:52Z</time>
      </trkpt>
      <trkpt lat="47.22727" lon="-1.94298">
        <ele>20.2</ele>
        <time>2022-08-19T23:47:00Z</time>
      </trkpt>
      <trkpt lat="47.22742" lon="-1.94339">
        <ele>21.2</ele>
        <time>2022-08-19T23:47:08Z</time>
      </trkpt>
      <trkpt lat="47.22748" lon="-1.94354">
        <ele>21.6</ele>
        <time>2022-08-19T23:47:11Z</time>
      </trkpt>
      <trkpt lat="47.22751" lon="-1.9436">
        <ele>21.8</ele>
        <time>2022-08-19T23:47:12Z</time>
      </trkpt>
      <trkpt lat="47.22762" lon="-1.94378">
        <ele>22</ele>
        <time>2022-08-19T23:47:15Z</time>
      </trkpt>
      <trkpt lat="47.22774" lon="-1.94394">
        <ele>22.2</ele>
        <time>2022-08-19T23:47:18Z</time>
      </trkpt>
      <trkpt lat="47.22798" lon="-1.94441">
        <ele>22.8</ele>
        <time>2022-08-19T23:47:25Z</time>
      </trkpt>
      <trkpt lat="47.2281" lon="-1.94487">
        <ele>23.4</ele>
        <time>2022-08-19T23:47:31Z</time>
      </trkpt>
      <trkpt lat="47.22814" lon="-1.94509">
        <ele>23.6</ele>
        <time>2022-08-19T23:47:34Z</time>
      </trkpt>
      <trkpt lat="47.22816" lon="-1.94515">
        <ele>23.8</ele>
        <time>2022-08-19T23:47:35Z</time>
      </trkpt>
      <trkpt lat="47.22818" lon="-1.94522">
        <ele>24</ele>
        <time>2022-08-19T23:47:36Z</time>
      </trkpt>
      <trkpt lat="47.22824" lon="-1.94559">
        <ele>24.8</ele>
        <time>2022-08-19T23:47:41Z</time>
      </trkpt>
      <trkpt lat="47.2284" lon="-1.94621">
        <ele>25.6</ele>
        <time>2022-08-19T23:47:49Z</time>
      </trkpt>
      <trkpt lat="47.22861" lon="-1.94668">
        <ele>26.4</ele>
        <time>2022-08-19T23:47:56Z</time>
      </trkpt>
      <trkpt lat="47.22883" lon="-1.94709">
        <ele>27.2</ele>
        <time>2022-08-19T23:48:03Z</time>
      </trkpt>
      <trkpt lat="47.22905" lon="-1.94748">
        <ele>27.8</ele>
        <time>2022-08-19T23:48:10Z</time>
      </trkpt>
      <trkpt lat="47.22924" lon="-1.94784">
        <ele>28.6</ele>
        <time>2022-08-19T23:48:17Z</time>
      </trkpt>
      <trkpt lat="47.22937" lon="-1.94794">
        <ele>29</ele>
        <time>2022-08-19T23:48:21Z</time>
      </trkpt>
      <trkpt lat="47.22941" lon="-1.94793">
        <ele>29.2</ele>
        <time>2022-08-19T23:48:22Z</time>
      </trkpt>
      <trkpt lat="47.22953" lon="-1.94784">
        <ele>29.4</ele>
        <time>2022-08-19T23:48:25Z</time>
      </trkpt>
      <trkpt lat="47.22957" lon="-1.94781">
        <ele>29.4</ele>
        <time>2022-08-19T23:48:26Z</time>
      </trkpt>
      <trkpt lat="47.22975" lon="-1.94764">
        <ele>29.8</ele>
        <time>2022-08-19T23:48:30Z</time>
      </trkpt>
      <trkpt lat="47.23007" lon="-1.94723">
        <ele>30.4</ele>
        <time>2022-08-19T23:48:38Z</time>
      </trkpt>
      <trkpt lat="47.23037" lon="-1.94674">
        <ele>31.2</ele>
        <time>2022-08-19T23:48:46Z</time>
      </trkpt>
      <trkpt lat="47.23066" lon="-1.94619">
        <ele>31.6</ele>
        <time>2022-08-19T23:48:54Z</time>
      </trkpt>
      <trkpt lat="47.23084" lon="-1.94574">
        <ele>32</ele>
        <time>2022-08-19T23:49:00Z</time>
      </trkpt>
      <trkpt lat="47.23094" lon="-1.94543">
        <ele>32.4</ele>
        <time>2022-08-19T23:49:04Z</time>
      </trkpt>
      <trkpt lat="47.23102" lon="-1.94519">
        <ele>32.4</ele>
        <time>2022-08-19T23:49:07Z</time>
      </trkpt>
      <trkpt lat="47.23104" lon="-1.94511">
        <ele>32.4</ele>
        <time>2022-08-19T23:49:08Z</time>
      </trkpt>
      <trkpt lat="47.23117" lon="-1.9448">
        <ele>32.6</ele>
        <time>2022-08-19T23:49:12Z</time>
      </trkpt>
      <trkpt lat="47.2312" lon="-1.94473">
        <ele>32.6</ele>
        <time>2022-08-19T23:49:13Z</time>
      </trkpt>
      <trkpt lat="47.23126" lon="-1.94463">
        <ele>32.6</ele>
        <time>2022-08-19T23:49:15Z</time>
      </trkpt>
      <trkpt lat="47.23132" lon="-1.94451">
        <ele>32.8</ele>
        <time>2022-08-19T23:49:19Z</time>
      </trkpt>
      <trkpt lat="47.23134" lon="-1.94457">
        <ele>33</ele>
        <time>2022-08-19T23:49:22Z</time>
      </trkpt>
      <trkpt lat="47.23132" lon="-1.94459">
        <ele>33</ele>
        <time>2022-08-19T23:49:23Z</time>
      </trkpt>
      <trkpt lat="47.23124" lon="-1.94473">
        <ele>33.4</ele>
        <time>2022-08-19T23:49:28Z</time>
      </trkpt>
      <trkpt lat="47.2312" lon="-1.94476">
        <ele>33.4</ele>
        <time>2022-08-19T23:49:30Z</time>
      </trkpt>
      <trkpt lat="47.23118" lon="-1.94475">
        <ele>33.4</ele>
        <time>2022-08-19T23:49:31Z</time>
      </trkpt>
      <trkpt lat="47.23114" lon="-1.94468">
        <ele>33.4</ele>
        <time>2022-08-19T23:49:34Z</time>
      </trkpt>
      <trkpt lat="47.23113" lon="-1.94465">
        <ele>33.2</ele>
        <time>2022-08-19T23:49:35Z</time>
      </trkpt>
      <trkpt lat="47.23113" lon="-1.94444">
        <ele>33.2</ele>
        <time>2022-08-19T23:49:41Z</time>
      </trkpt>
      <trkpt lat="47.23118" lon="-1.94426">
        <ele>32.8</ele>
        <time>2022-08-19T23:49:45Z</time>
      </trkpt>
      <trkpt lat="47.2312" lon="-1.94419">
        <ele>32.4</ele>
        <time>2022-08-19T23:49:47Z</time>
      </trkpt>
      <trkpt lat="47.23119" lon="-1.94411">
        <ele>32</ele>
        <time>2022-08-19T23:49:49Z</time>
      </trkpt>
      <trkpt lat="47.23114" lon="-1.944">
        <ele>31.4</ele>
        <time>2022-08-19T23:49:52Z</time>
      </trkpt>
      <trkpt lat="47.23113" lon="-1.9439">
        <ele>31</ele>
        <time>2022-08-19T23:49:54Z</time>
      </trkpt>
      <trkpt lat="47.23113" lon="-1.94368">
        <ele>30.4</ele>
        <time>2022-08-19T23:49:58Z</time>
      </trkpt>
      <trkpt lat="47.23114" lon="-1.94335">
        <ele>29.6</ele>
        <time>2022-08-19T23:50:03Z</time>
      </trkpt>
      <trkpt lat="47.23111" lon="-1.94288">
        <ele>29</ele>
        <time>2022-08-19T23:50:10Z</time>
      </trkpt>
      <trkpt lat="47.2311" lon="-1.94273">
        <ele>28.8</ele>
        <time>2022-08-19T23:50:12Z</time>
      </trkpt>
      <trkpt lat="47.2311" lon="-1.94253">
        <ele>28.8</ele>
        <time>2022-08-19T23:50:15Z</time>
      </trkpt>
      <trkpt lat="47.23109" lon="-1.94246">
        <ele>28.8</ele>
        <time>2022-08-19T23:50:16Z</time>
      </trkpt>
      <trkpt lat="47.23106" lon="-1.94204">
        <ele>29</ele>
        <time>2022-08-19T23:50:22Z</time>
      </trkpt>
      <trkpt lat="47.23103" lon="-1.94148">
        <ele>29.8</ele>
        <time>2022-08-19T23:50:30Z</time>
      </trkpt>
      <trkpt lat="47.23102" lon="-1.9411">
        <ele>30</ele>
        <time>2022-08-19T23:50:36Z</time>
      </trkpt>
      <trkpt lat="47.23099" lon="-1.94068">
        <ele>30.6</ele>
        <time>2022-08-19T23:50:43Z</time>
      </trkpt>
      <trkpt lat="47.23094" lon="-1.94026">
        <ele>31.6</ele>
        <time>2022-08-19T23:50:50Z</time>
      </trkpt>
      <trkpt lat="47.23092" lon="-1.94008">
        <ele>32</ele>
        <time>2022-08-19T23:50:53Z</time>
      </trkpt>
      <trkpt lat="47.2309" lon="-1.93995">
        <ele>32.2</ele>
        <time>2022-08-19T23:50:55Z</time>
      </trkpt>
      <trkpt lat="47.23084" lon="-1.93966">
        <ele>32.8</ele>
        <time>2022-08-19T23:50:59Z</time>
      </trkpt>
      <trkpt lat="47.23081" lon="-1.93951">
        <ele>33</ele>
        <time>2022-08-19T23:51:01Z</time>
      </trkpt>
      <trkpt lat="47.23074" lon="-1.93897">
        <ele>33.6</ele>
        <time>2022-08-19T23:51:07Z</time>
      </trkpt>
      <trkpt lat="47.23072" lon="-1.93888">
        <ele>33.6</ele>
        <time>2022-08-19T23:51:08Z</time>
      </trkpt>
      <trkpt lat="47.23071" lon="-1.9386">
        <ele>34</ele>
        <time>2022-08-19T23:51:11Z</time>
      </trkpt>
      <trkpt lat="47.23072" lon="-1.9385">
        <ele>34</ele>
        <time>2022-08-19T23:51:12Z</time>
      </trkpt>
      <trkpt lat="47.23076" lon="-1.93811">
        <ele>34.2</ele>
        <time>2022-08-19T23:51:16Z</time>
      </trkpt>
      <trkpt lat="47.23081" lon="-1.93782">
        <ele>34.4</ele>
        <time>2022-08-19T23:51:19Z</time>
      </trkpt>
      <trkpt lat="47.23086" lon="-1.93763">
        <ele>34.4</ele>
        <time>2022-08-19T23:51:21Z</time>
      </trkpt>
      <trkpt lat="47.23102" lon="-1.93705">
        <ele>34.6</ele>
        <time>2022-08-19T23:51:27Z</time>
      </trkpt>
      <trkpt lat="47.23116" lon="-1.93645">
        <ele>34.8</ele>
        <time>2022-08-19T23:51:34Z</time>
      </trkpt>
      <trkpt lat="47.23129" lon="-1.93587">
        <ele>35</ele>
        <time>2022-08-19T23:51:41Z</time>
      </trkpt>
      <trkpt lat="47.23132" lon="-1.93579">
        <ele>35</ele>
        <time>2022-08-19T23:51:42Z</time>
      </trkpt>
      <trkpt lat="47.23144" lon="-1.9355">
        <ele>35</ele>
        <time>2022-08-19T23:51:46Z</time>
      </trkpt>
      <trkpt lat="47.23153" lon="-1.93531">
        <ele>35</ele>
        <time>2022-08-19T23:51:49Z</time>
      </trkpt>
      <trkpt lat="47.23157" lon="-1.93523">
        <ele>35</ele>
        <time>2022-08-19T23:51:51Z</time>
      </trkpt>
      <trkpt lat="47.23162" lon="-1.93502">
        <ele>35.2</ele>
        <time>2022-08-19T23:51:56Z</time>
      </trkpt>
      <trkpt lat="47.23175" lon="-1.93476">
        <ele>35.2</ele>
        <time>2022-08-19T23:52:01Z</time>
      </trkpt>
      <trkpt lat="47.23192" lon="-1.93435">
        <ele>35.2</ele>
        <time>2022-08-19T23:52:07Z</time>
      </trkpt>
      <trkpt lat="47.232" lon="-1.93411">
        <ele>35.2</ele>
        <time>2022-08-19T23:52:10Z</time>
      </trkpt>
      <trkpt lat="47.23204" lon="-1.93392">
        <ele>35.2</ele>
        <time>2022-08-19T23:52:12Z</time>
      </trkpt>
      <trkpt lat="47.23205" lon="-1.93382">
        <ele>35.2</ele>
        <time>2022-08-19T23:52:13Z</time>
      </trkpt>
      <trkpt lat="47.23208" lon="-1.93313">
        <ele>35.4</ele>
        <time>2022-08-19T23:52:20Z</time>
      </trkpt>
      <trkpt lat="47.23213" lon="-1.93253">
        <ele>35.2</ele>
        <time>2022-08-19T23:52:26Z</time>
      </trkpt>
      <trkpt lat="47.2322" lon="-1.93184">
        <ele>35.2</ele>
        <time>2022-08-19T23:52:33Z</time>
      </trkpt>
      <trkpt lat="47.23222" lon="-1.93166">
        <ele>35.4</ele>
        <time>2022-08-19T23:52:35Z</time>
      </trkpt>
      <trkpt lat="47.23225" lon="-1.93148">
        <ele>35.4</ele>
        <time>2022-08-19T23:52:37Z</time>
      </trkpt>
      <trkpt lat="47.23227" lon="-1.93116">
        <ele>35.4</ele>
        <time>2022-08-19T23:52:41Z</time>
      </trkpt>
      <trkpt lat="47.23227" lon="-1.93109">
        <ele>35.4</ele>
        <time>2022-08-19T23:52:42Z</time>
      </trkpt>
      <trkpt lat="47.23227" lon="-1.93103">
        <ele>35.4</ele>
        <time>2022-08-19T23:52:43Z</time>
      </trkpt>
      <trkpt lat="47.23231" lon="-1.93081">
        <ele>35.4</ele>
        <time>2022-08-19T23:52:46Z</time>
      </trkpt>
      <trkpt lat="47.23235" lon="-1.93046">
        <ele>35.4</ele>
        <time>2022-08-19T23:52:50Z</time>
      </trkpt>
      <trkpt lat="47.23236" lon="-1.93018">
        <ele>35.2</ele>
        <time>2022-08-19T23:52:53Z</time>
      </trkpt>
      <trkpt lat="47.23238" lon="-1.92961">
        <ele>34.8</ele>
        <time>2022-08-19T23:52:59Z</time>
      </trkpt>
      <trkpt lat="47.23243" lon="-1.92881">
        <ele>34.4</ele>
        <time>2022-08-19T23:53:07Z</time>
      </trkpt>
      <trkpt lat="47.23245" lon="-1.92799">
        <ele>33.8</ele>
        <time>2022-08-19T23:53:15Z</time>
      </trkpt>
      <trkpt lat="47.23249" lon="-1.92717">
        <ele>33.2</ele>
        <time>2022-08-19T23:53:23Z</time>
      </trkpt>
      <trkpt lat="47.2326" lon="-1.92647">
        <ele>32.4</ele>
        <time>2022-08-19T23:53:30Z</time>
      </trkpt>
      <trkpt lat="47.23268" lon="-1.9261">
        <ele>32</ele>
        <time>2022-08-19T23:53:34Z</time>
      </trkpt>
      <trkpt lat="47.23269" lon="-1.92593">
        <ele>31.6</ele>
        <time>2022-08-19T23:53:36Z</time>
      </trkpt>
      <trkpt lat="47.23265" lon="-1.92578">
        <ele>31.4</ele>
        <time>2022-08-19T23:53:38Z</time>
      </trkpt>
      <trkpt lat="47.23261" lon="-1.92572">
        <ele>31.4</ele>
        <time>2022-08-19T23:53:39Z</time>
      </trkpt>
      <trkpt lat="47.23258" lon="-1.92567">
        <ele>31.2</ele>
        <time>2022-08-19T23:53:40Z</time>
      </trkpt>
      <trkpt lat="47.23259" lon="-1.92555">
        <ele>31</ele>
        <time>2022-08-19T23:53:42Z</time>
      </trkpt>
      <trkpt lat="47.23278" lon="-1.9253">
        <ele>30.6</ele>
        <time>2022-08-19T23:53:47Z</time>
      </trkpt>
      <trkpt lat="47.23306" lon="-1.92495">
        <ele>30.2</ele>
        <time>2022-08-19T23:53:53Z</time>
      </trkpt>
      <trkpt lat="47.23345" lon="-1.92446">
        <ele>29.4</ele>
        <time>2022-08-19T23:54:01Z</time>
      </trkpt>
      <trkpt lat="47.23384" lon="-1.92397">
        <ele>28.6</ele>
        <time>2022-08-19T23:54:09Z</time>
      </trkpt>
      <trkpt lat="47.23413" lon="-1.9236">
        <ele>27.8</ele>
        <time>2022-08-19T23:54:15Z</time>
      </trkpt>
      <trkpt lat="47.23448" lon="-1.92315">
        <ele>27.2</ele>
        <time>2022-08-19T23:54:22Z</time>
      </trkpt>
      <trkpt lat="47.23484" lon="-1.92271">
        <ele>27</ele>
        <time>2022-08-19T23:54:29Z</time>
      </trkpt>
      <trkpt lat="47.23493" lon="-1.92258">
        <ele>27</ele>
        <time>2022-08-19T23:54:31Z</time>
      </trkpt>
      <trkpt lat="47.23506" lon="-1.92237">
        <ele>26.8</ele>
        <time>2022-08-19T23:54:34Z</time>
      </trkpt>
      <trkpt lat="47.2353" lon="-1.92193">
        <ele>26.4</ele>
        <time>2022-08-19T23:54:40Z</time>
      </trkpt>
      <trkpt lat="47.2355" lon="-1.92152">
        <ele>26.4</ele>
        <time>2022-08-19T23:54:46Z</time>
      </trkpt>
      <trkpt lat="47.23553" lon="-1.92146">
        <ele>26.4</ele>
        <time>2022-08-19T23:54:47Z</time>
      </trkpt>
      <trkpt lat="47.23564" lon="-1.92112">
        <ele>26.4</ele>
        <time>2022-08-19T23:54:52Z</time>
      </trkpt>
      <trkpt lat="47.23566" lon="-1.92105">
        <ele>26.4</ele>
        <time>2022-08-19T23:54:53Z</time>
      </trkpt>
      <trkpt lat="47.23579" lon="-1.9207">
        <ele>26.4</ele>
        <time>2022-08-19T23:54:58Z</time>
      </trkpt>
      <trkpt lat="47.23593" lon="-1.92034">
        <ele>26.6</ele>
        <time>2022-08-19T23:55:03Z</time>
      </trkpt>
      <trkpt lat="47.23598" lon="-1.92018">
        <ele>26.6</ele>
        <time>2022-08-19T23:55:05Z</time>
      </trkpt>
      <trkpt lat="47.23601" lon="-1.92003">
        <ele>26.6</ele>
        <time>2022-08-19T23:55:07Z</time>
      </trkpt>
      <trkpt lat="47.23602" lon="-1.91987">
        <ele>26.8</ele>
        <time>2022-08-19T23:55:09Z</time>
      </trkpt>
      <trkpt lat="47.23601" lon="-1.91963">
        <ele>26.8</ele>
        <time>2022-08-19T23:55:12Z</time>
      </trkpt>
      <trkpt lat="47.23591" lon="-1.91896">
        <ele>27.2</ele>
        <time>2022-08-19T23:55:21Z</time>
      </trkpt>
      <trkpt lat="47.23575" lon="-1.91847">
        <ele>27.6</ele>
        <time>2022-08-19T23:55:28Z</time>
      </trkpt>
      <trkpt lat="47.23572" lon="-1.91832">
        <ele>27.6</ele>
        <time>2022-08-19T23:55:30Z</time>
      </trkpt>
      <trkpt lat="47.23564" lon="-1.91812">
        <ele>27.8</ele>
        <time>2022-08-19T23:55:33Z</time>
      </trkpt>
      <trkpt lat="47.23546" lon="-1.91765">
        <ele>27.8</ele>
        <time>2022-08-19T23:55:40Z</time>
      </trkpt>
      <trkpt lat="47.23535" lon="-1.91735">
        <ele>27.6</ele>
        <time>2022-08-19T23:55:44Z</time>
      </trkpt>
      <trkpt lat="47.2353" lon="-1.91719">
        <ele>27.6</ele>
        <time>2022-08-19T23:55:46Z</time>
      </trkpt>
      <trkpt lat="47.23512" lon="-1.9167">
        <ele>27.4</ele>
        <time>2022-08-19T23:55:52Z</time>
      </trkpt>
      <trkpt lat="47.23504" lon="-1.91651">
        <ele>27.2</ele>
        <time>2022-08-19T23:55:56Z</time>
      </trkpt>
      <trkpt lat="47.23501" lon="-1.91645">
        <ele>27</ele>
        <time>2022-08-19T23:56:00Z</time>
      </trkpt>
      <trkpt lat="47.235" lon="-1.91643">
        <ele>27</ele>
        <time>2022-08-19T23:56:01Z</time>
      </trkpt>
      <trkpt lat="47.23495" lon="-1.91634">
        <ele>26.6</ele>
        <time>2022-08-19T23:56:04Z</time>
      </trkpt>
      <trkpt lat="47.23485" lon="-1.91606">
        <ele>25.8</ele>
        <time>2022-08-19T23:56:09Z</time>
      </trkpt>
      <trkpt lat="47.23477" lon="-1.91583">
        <ele>25.4</ele>
        <time>2022-08-19T23:56:12Z</time>
      </trkpt>
      <trkpt lat="47.23473" lon="-1.91566">
        <ele>25</ele>
        <time>2022-08-19T23:56:14Z</time>
      </trkpt>
      <trkpt lat="47.23459" lon="-1.91523">
        <ele>24</ele>
        <time>2022-08-19T23:56:19Z</time>
      </trkpt>
      <trkpt lat="47.23434" lon="-1.9146">
        <ele>22.8</ele>
        <time>2022-08-19T23:56:25Z</time>
      </trkpt>
      <trkpt lat="47.23431" lon="-1.91449">
        <ele>22.8</ele>
        <time>2022-08-19T23:56:26Z</time>
      </trkpt>
      <trkpt lat="47.23419" lon="-1.91413">
        <ele>22.2</ele>
        <time>2022-08-19T23:56:29Z</time>
      </trkpt>
      <trkpt lat="47.23394" lon="-1.91339">
        <ele>21</ele>
        <time>2022-08-19T23:56:35Z</time>
      </trkpt>
      <trkpt lat="47.2337" lon="-1.91263">
        <ele>19.6</ele>
        <time>2022-08-19T23:56:41Z</time>
      </trkpt>
      <trkpt lat="47.23354" lon="-1.91203">
        <ele>18.8</ele>
        <time>2022-08-19T23:56:46Z</time>
      </trkpt>
      <trkpt lat="47.23352" lon="-1.91191">
        <ele>18.6</ele>
        <time>2022-08-19T23:56:47Z</time>
      </trkpt>
      <trkpt lat="47.23352" lon="-1.91156">
        <ele>18</ele>
        <time>2022-08-19T23:56:50Z</time>
      </trkpt>
      <trkpt lat="47.23349" lon="-1.91102">
        <ele>17.2</ele>
        <time>2022-08-19T23:56:55Z</time>
      </trkpt>
      <trkpt lat="47.23345" lon="-1.91082">
        <ele>17</ele>
        <time>2022-08-19T23:56:57Z</time>
      </trkpt>
      <trkpt lat="47.23337" lon="-1.91053">
        <ele>16.4</ele>
        <time>2022-08-19T23:57:00Z</time>
      </trkpt>
      <trkpt lat="47.23321" lon="-1.90993">
        <ele>15.6</ele>
        <time>2022-08-19T23:57:06Z</time>
      </trkpt>
      <trkpt lat="47.23307" lon="-1.90945">
        <ele>15</ele>
        <time>2022-08-19T23:57:11Z</time>
      </trkpt>
      <trkpt lat="47.23305" lon="-1.90936">
        <ele>14.8</ele>
        <time>2022-08-19T23:57:12Z</time>
      </trkpt>
      <trkpt lat="47.23297" lon="-1.90911">
        <ele>14.2</ele>
        <time>2022-08-19T23:57:15Z</time>
      </trkpt>
      <trkpt lat="47.23294" lon="-1.90902">
        <ele>14</ele>
        <time>2022-08-19T23:57:16Z</time>
      </trkpt>
      <trkpt lat="47.23277" lon="-1.90861">
        <ele>13.2</ele>
        <time>2022-08-19T23:57:21Z</time>
      </trkpt>
      <trkpt lat="47.23274" lon="-1.90853">
        <ele>13</ele>
        <time>2022-08-19T23:57:22Z</time>
      </trkpt>
      <trkpt lat="47.23258" lon="-1.90811">
        <ele>12</ele>
        <time>2022-08-19T23:57:27Z</time>
      </trkpt>
      <trkpt lat="47.23232" lon="-1.90738">
        <ele>10.8</ele>
        <time>2022-08-19T23:57:35Z</time>
      </trkpt>
      <trkpt lat="47.2321" lon="-1.90689">
        <ele>10.2</ele>
        <time>2022-08-19T23:57:41Z</time>
      </trkpt>
      <trkpt lat="47.23206" lon="-1.90681">
        <ele>10</ele>
        <time>2022-08-19T23:57:42Z</time>
      </trkpt>
      <trkpt lat="47.23198" lon="-1.90666">
        <ele>9.8</ele>
        <time>2022-08-19T23:57:44Z</time>
      </trkpt>
      <trkpt lat="47.2319" lon="-1.9065">
        <ele>9.4</ele>
        <time>2022-08-19T23:57:46Z</time>
      </trkpt>
      <trkpt lat="47.23159" lon="-1.90582">
        <ele>8.4</ele>
        <time>2022-08-19T23:57:54Z</time>
      </trkpt>
      <trkpt lat="47.23127" lon="-1.90516">
        <ele>7.8</ele>
        <time>2022-08-19T23:58:02Z</time>
      </trkpt>
      <trkpt lat="47.23123" lon="-1.90508">
        <ele>7.6</ele>
        <time>2022-08-19T23:58:03Z</time>
      </trkpt>
      <trkpt lat="47.23103" lon="-1.90468">
        <ele>7.2</ele>
        <time>2022-08-19T23:58:08Z</time>
      </trkpt>
      <trkpt lat="47.23073" lon="-1.90413">
        <ele>7</ele>
        <time>2022-08-19T23:58:15Z</time>
      </trkpt>
      <trkpt lat="47.23039" lon="-1.90351">
        <ele>6.4</ele>
        <time>2022-08-19T23:58:23Z</time>
      </trkpt>
      <trkpt lat="47.23026" lon="-1.90328">
        <ele>6.4</ele>
        <time>2022-08-19T23:58:26Z</time>
      </trkpt>
      <trkpt lat="47.22992" lon="-1.90264">
        <ele>6.2</ele>
        <time>2022-08-19T23:58:34Z</time>
      </trkpt>
      <trkpt lat="47.22988" lon="-1.90256">
        <ele>6.2</ele>
        <time>2022-08-19T23:58:35Z</time>
      </trkpt>
      <trkpt lat="47.22957" lon="-1.90188">
        <ele>6</ele>
        <time>2022-08-19T23:58:43Z</time>
      </trkpt>
      <trkpt lat="47.22954" lon="-1.90179">
        <ele>6</ele>
        <time>2022-08-19T23:58:44Z</time>
      </trkpt>
      <trkpt lat="47.22926" lon="-1.90111">
        <ele>5.8</ele>
        <time>2022-08-19T23:58:52Z</time>
      </trkpt>
      <trkpt lat="47.22902" lon="-1.9004">
        <ele>5.6</ele>
        <time>2022-08-19T23:59:00Z</time>
      </trkpt>
      <trkpt lat="47.229" lon="-1.90031">
        <ele>5.6</ele>
        <time>2022-08-19T23:59:01Z</time>
      </trkpt>
      <trkpt lat="47.22878" lon="-1.89957">
        <ele>5.6</ele>
        <time>2022-08-19T23:59:09Z</time>
      </trkpt>
      <trkpt lat="47.22873" lon="-1.89938">
        <ele>5.6</ele>
        <time>2022-08-19T23:59:11Z</time>
      </trkpt>
      <trkpt lat="47.22852" lon="-1.89861">
        <ele>5.4</ele>
        <time>2022-08-19T23:59:19Z</time>
      </trkpt>
      <trkpt lat="47.22842" lon="-1.89822">
        <ele>5.4</ele>
        <time>2022-08-19T23:59:23Z</time>
      </trkpt>
      <trkpt lat="47.22819" lon="-1.89747">
        <ele>5.4</ele>
        <time>2022-08-19T23:59:31Z</time>
      </trkpt>
      <trkpt lat="47.22811" lon="-1.89719">
        <ele>5.4</ele>
        <time>2022-08-19T23:59:34Z</time>
      </trkpt>
      <trkpt lat="47.22789" lon="-1.89644">
        <ele>5.2</ele>
        <time>2022-08-19T23:59:42Z</time>
      </trkpt>
      <trkpt lat="47.22763" lon="-1.89571">
        <ele>5.4</ele>
        <time>2022-08-19T23:59:50Z</time>
      </trkpt>
      <trkpt lat="47.22759" lon="-1.89562">
        <ele>5.4</ele>
        <time>2022-08-19T23:59:51Z</time>
      </trkpt>
      <trkpt lat="47.22736" lon="-1.89513">
        <ele>5.4</ele>
        <time>2022-08-19T23:59:57Z</time>
      </trkpt>
      <trkpt lat="47.22736" lon="-1.89496">
        <ele>5.4</ele>
        <time>2022-08-19T23:59:59Z</time>
      </trkpt>
      <trkpt lat="47.22744" lon="-1.89483">
        <ele>5.4</ele>
        <time>2022-08-20T00:00:01Z</time>
      </trkpt>
      <trkpt lat="47.22789" lon="-1.89429">
        <ele>5.2</ele>
        <time>2022-08-20T00:00:10Z</time>
      </trkpt>
      <trkpt lat="47.22827" lon="-1.89379">
        <ele>5.2</ele>
        <time>2022-08-20T00:00:18Z</time>
      </trkpt>
      <trkpt lat="47.22873" lon="-1.89322">
        <ele>5</ele>
        <time>2022-08-20T00:00:27Z</time>
      </trkpt>
      <trkpt lat="47.22878" lon="-1.89315">
        <ele>5</ele>
        <time>2022-08-20T00:00:28Z</time>
      </trkpt>
      <trkpt lat="47.22923" lon="-1.89257">
        <ele>4.8</ele>
        <time>2022-08-20T00:00:37Z</time>
      </trkpt>
      <trkpt lat="47.22965" lon="-1.89203">
        <ele>4.6</ele>
        <time>2022-08-20T00:00:45Z</time>
      </trkpt>
      <trkpt lat="47.23007" lon="-1.8915">
        <ele>4.6</ele>
        <time>2022-08-20T00:00:53Z</time>
      </trkpt>
      <trkpt lat="47.23043" lon="-1.89105">
        <ele>4.6</ele>
        <time>2022-08-20T00:01:00Z</time>
      </trkpt>
      <trkpt lat="47.23084" lon="-1.89055">
        <ele>4.6</ele>
        <time>2022-08-20T00:01:08Z</time>
      </trkpt>
      <trkpt lat="47.2312" lon="-1.89008">
        <ele>4.6</ele>
        <time>2022-08-20T00:01:15Z</time>
      </trkpt>
      <trkpt lat="47.23126" lon="-1.89001">
        <ele>4.6</ele>
        <time>2022-08-20T00:01:16Z</time>
      </trkpt>
      <trkpt lat="47.23142" lon="-1.88983">
        <ele>4.6</ele>
        <time>2022-08-20T00:01:19Z</time>
      </trkpt>
      <trkpt lat="47.23187" lon="-1.88926">
        <ele>4.8</ele>
        <time>2022-08-20T00:01:28Z</time>
      </trkpt>
      <trkpt lat="47.23227" lon="-1.88875">
        <ele>4.6</ele>
        <time>2022-08-20T00:01:36Z</time>
      </trkpt>
      <trkpt lat="47.23258" lon="-1.88836">
        <ele>4.8</ele>
        <time>2022-08-20T00:01:42Z</time>
      </trkpt>
      <trkpt lat="47.23288" lon="-1.88797">
        <ele>4.8</ele>
        <time>2022-08-20T00:01:48Z</time>
      </trkpt>
      <trkpt lat="47.23294" lon="-1.88791">
        <ele>4.8</ele>
        <time>2022-08-20T00:01:49Z</time>
      </trkpt>
      <trkpt lat="47.23325" lon="-1.88752">
        <ele>4.8</ele>
        <time>2022-08-20T00:01:55Z</time>
      </trkpt>
      <trkpt lat="47.2337" lon="-1.88695">
        <ele>4.6</ele>
        <time>2022-08-20T00:02:04Z</time>
      </trkpt>
      <trkpt lat="47.23411" lon="-1.88642">
        <ele>4.6</ele>
        <time>2022-08-20T00:02:12Z</time>
      </trkpt>
      <trkpt lat="47.23454" lon="-1.88589">
        <ele>4.6</ele>
        <time>2022-08-20T00:02:20Z</time>
      </trkpt>
      <trkpt lat="47.23475" lon="-1.88562">
        <ele>4.6</ele>
        <time>2022-08-20T00:02:24Z</time>
      </trkpt>
      <trkpt lat="47.23489" lon="-1.8854">
        <ele>4.6</ele>
        <time>2022-08-20T00:02:27Z</time>
      </trkpt>
      <trkpt lat="47.23495" lon="-1.88521">
        <ele>4.6</ele>
        <time>2022-08-20T00:02:29Z</time>
      </trkpt>
      <trkpt lat="47.23512" lon="-1.88443">
        <ele>4.8</ele>
        <time>2022-08-20T00:02:37Z</time>
      </trkpt>
      <trkpt lat="47.23514" lon="-1.88433">
        <ele>4.8</ele>
        <time>2022-08-20T00:02:38Z</time>
      </trkpt>
      <trkpt lat="47.23532" lon="-1.88355">
        <ele>4.8</ele>
        <time>2022-08-20T00:02:46Z</time>
      </trkpt>
      <trkpt lat="47.23538" lon="-1.88325">
        <ele>4.8</ele>
        <time>2022-08-20T00:02:49Z</time>
      </trkpt>
      <trkpt lat="47.23556" lon="-1.88248">
        <ele>4.8</ele>
        <time>2022-08-20T00:02:57Z</time>
      </trkpt>
      <trkpt lat="47.23563" lon="-1.88218">
        <ele>4.8</ele>
        <time>2022-08-20T00:03:00Z</time>
      </trkpt>
      <trkpt lat="47.2358" lon="-1.88142">
        <ele>4.8</ele>
        <time>2022-08-20T00:03:08Z</time>
      </trkpt>
      <trkpt lat="47.23598" lon="-1.88063">
        <ele>5</ele>
        <time>2022-08-20T00:03:16Z</time>
      </trkpt>
      <trkpt lat="47.23616" lon="-1.87986">
        <ele>5</ele>
        <time>2022-08-20T00:03:24Z</time>
      </trkpt>
      <trkpt lat="47.23618" lon="-1.87977">
        <ele>5</ele>
        <time>2022-08-20T00:03:25Z</time>
      </trkpt>
      <trkpt lat="47.23636" lon="-1.87898">
        <ele>5</ele>
        <time>2022-08-20T00:03:33Z</time>
      </trkpt>
      <trkpt lat="47.23641" lon="-1.87878">
        <ele>5</ele>
        <time>2022-08-20T00:03:35Z</time>
      </trkpt>
      <trkpt lat="47.23659" lon="-1.878">
        <ele>5.2</ele>
        <time>2022-08-20T00:03:43Z</time>
      </trkpt>
      <trkpt lat="47.23663" lon="-1.87781">
        <ele>5.2</ele>
        <time>2022-08-20T00:03:45Z</time>
      </trkpt>
      <trkpt lat="47.23678" lon="-1.87713">
        <ele>5.2</ele>
        <time>2022-08-20T00:03:52Z</time>
      </trkpt>
      <trkpt lat="47.2368" lon="-1.87703">
        <ele>5.2</ele>
        <time>2022-08-20T00:03:53Z</time>
      </trkpt>
      <trkpt lat="47.23699" lon="-1.87627">
        <ele>5.4</ele>
        <time>2022-08-20T00:04:01Z</time>
      </trkpt>
      <trkpt lat="47.23701" lon="-1.87617">
        <ele>5.4</ele>
        <time>2022-08-20T00:04:02Z</time>
      </trkpt>
      <trkpt lat="47.23718" lon="-1.8754">
        <ele>5.4</ele>
        <time>2022-08-20T00:04:10Z</time>
      </trkpt>
      <trkpt lat="47.23724" lon="-1.87511">
        <ele>5.4</ele>
        <time>2022-08-20T00:04:13Z</time>
      </trkpt>
      <trkpt lat="47.23741" lon="-1.87435">
        <ele>5.4</ele>
        <time>2022-08-20T00:04:21Z</time>
      </trkpt>
      <trkpt lat="47.23761" lon="-1.87352">
        <ele>5.4</ele>
        <time>2022-08-20T00:04:30Z</time>
      </trkpt>
      <trkpt lat="47.23765" lon="-1.87344">
        <ele>5.4</ele>
        <time>2022-08-20T00:04:31Z</time>
      </trkpt>
      <trkpt lat="47.23788" lon="-1.87308">
        <ele>5.4</ele>
        <time>2022-08-20T00:04:36Z</time>
      </trkpt>
      <trkpt lat="47.23819" lon="-1.8727">
        <ele>5.4</ele>
        <time>2022-08-20T00:04:42Z</time>
      </trkpt>
      <trkpt lat="47.23824" lon="-1.87262">
        <ele>5.4</ele>
        <time>2022-08-20T00:04:43Z</time>
      </trkpt>
      <trkpt lat="47.23827" lon="-1.87253">
        <ele>5.4</ele>
        <time>2022-08-20T00:04:44Z</time>
      </trkpt>
      <trkpt lat="47.23826" lon="-1.87236">
        <ele>5.4</ele>
        <time>2022-08-20T00:04:46Z</time>
      </trkpt>
      <trkpt lat="47.23813" lon="-1.87209">
        <ele>5.6</ele>
        <time>2022-08-20T00:04:50Z</time>
      </trkpt>
      <trkpt lat="47.23807" lon="-1.87196">
        <ele>5.6</ele>
        <time>2022-08-20T00:04:53Z</time>
      </trkpt>
      <trkpt lat="47.23806" lon="-1.87192">
        <ele>5.6</ele>
        <time>2022-08-20T00:04:54Z</time>
      </trkpt>
      <trkpt lat="47.23801" lon="-1.87183">
        <ele>5.8</ele>
        <time>2022-08-20T00:04:57Z</time>
      </trkpt>
      <trkpt lat="47.23787" lon="-1.87159">
        <ele>5.8</ele>
        <time>2022-08-20T00:05:03Z</time>
      </trkpt>
      <trkpt lat="47.23771" lon="-1.87133">
        <ele>5.2</ele>
        <time>2022-08-20T00:05:09Z</time>
      </trkpt>
      <trkpt lat="47.23763" lon="-1.87118">
        <ele>4.8</ele>
        <time>2022-08-20T00:05:12Z</time>
      </trkpt>
      <trkpt lat="47.23758" lon="-1.87107">
        <ele>4.6</ele>
        <time>2022-08-20T00:05:14Z</time>
      </trkpt>
      <trkpt lat="47.23755" lon="-1.87101">
        <ele>4.4</ele>
        <time>2022-08-20T00:05:15Z</time>
      </trkpt>
      <trkpt lat="47.23735" lon="-1.87059">
        <ele>4</ele>
        <time>2022-08-20T00:05:22Z</time>
      </trkpt>
      <trkpt lat="47.23714" lon="-1.87017">
        <ele>3.4</ele>
        <time>2022-08-20T00:05:29Z</time>
      </trkpt>
      <trkpt lat="47.23705" lon="-1.86998">
        <ele>3.2</ele>
        <time>2022-08-20T00:05:32Z</time>
      </trkpt>
      <trkpt lat="47.237" lon="-1.86985">
        <ele>3</ele>
        <time>2022-08-20T00:05:34Z</time>
      </trkpt>
      <trkpt lat="47.23682" lon="-1.86951">
        <ele>2.8</ele>
        <time>2022-08-20T00:05:39Z</time>
      </trkpt>
      <trkpt lat="47.23659" lon="-1.86908">
        <ele>3</ele>
        <time>2022-08-20T00:05:45Z</time>
      </trkpt>
      <trkpt lat="47.23636" lon="-1.8686">
        <ele>2.6</ele>
        <time>2022-08-20T00:05:52Z</time>
      </trkpt>
      <trkpt lat="47.2361" lon="-1.86809">
        <ele>2.8</ele>
        <time>2022-08-20T00:05:59Z</time>
      </trkpt>
      <trkpt lat="47.23603" lon="-1.86795">
        <ele>2.6</ele>
        <time>2022-08-20T00:06:01Z</time>
      </trkpt>
      <trkpt lat="47.23596" lon="-1.8678">
        <ele>2.8</ele>
        <time>2022-08-20T00:06:03Z</time>
      </trkpt>
      <trkpt lat="47.23578" lon="-1.86744">
        <ele>3</ele>
        <time>2022-08-20T00:06:08Z</time>
      </trkpt>
      <trkpt lat="47.23561" lon="-1.86711">
        <ele>3.2</ele>
        <time>2022-08-20T00:06:13Z</time>
      </trkpt>
      <trkpt lat="47.23558" lon="-1.86706">
        <ele>3.2</ele>
        <time>2022-08-20T00:06:14Z</time>
      </trkpt>
      <trkpt lat="47.23555" lon="-1.86701">
        <ele>3.2</ele>
        <time>2022-08-20T00:06:15Z</time>
      </trkpt>
      <trkpt lat="47.23548" lon="-1.86692">
        <ele>3.4</ele>
        <time>2022-08-20T00:06:17Z</time>
      </trkpt>
      <trkpt lat="47.23543" lon="-1.86681">
        <ele>3.4</ele>
        <time>2022-08-20T00:06:19Z</time>
      </trkpt>
      <trkpt lat="47.23534" lon="-1.86661">
        <ele>3.2</ele>
        <time>2022-08-20T00:06:22Z</time>
      </trkpt>
      <trkpt lat="47.23511" lon="-1.86613">
        <ele>3.2</ele>
        <time>2022-08-20T00:06:29Z</time>
      </trkpt>
      <trkpt lat="47.23491" lon="-1.86574">
        <ele>3.2</ele>
        <time>2022-08-20T00:06:35Z</time>
      </trkpt>
      <trkpt lat="47.23477" lon="-1.86547">
        <ele>3.4</ele>
        <time>2022-08-20T00:06:39Z</time>
      </trkpt>
      <trkpt lat="47.23443" lon="-1.86476">
        <ele>3.6</ele>
        <time>2022-08-20T00:06:49Z</time>
      </trkpt>
      <trkpt lat="47.23439" lon="-1.86469">
        <ele>3.6</ele>
        <time>2022-08-20T00:06:50Z</time>
      </trkpt>
      <trkpt lat="47.2341" lon="-1.86411">
        <ele>4</ele>
        <time>2022-08-20T00:06:58Z</time>
      </trkpt>
      <trkpt lat="47.23377" lon="-1.86344">
        <ele>4</ele>
        <time>2022-08-20T00:07:07Z</time>
      </trkpt>
      <trkpt lat="47.23347" lon="-1.86284">
        <ele>4.2</ele>
        <time>2022-08-20T00:07:15Z</time>
      </trkpt>
      <trkpt lat="47.23314" lon="-1.86218">
        <ele>4.2</ele>
        <time>2022-08-20T00:07:24Z</time>
      </trkpt>
      <trkpt lat="47.23311" lon="-1.86211">
        <ele>4.2</ele>
        <time>2022-08-20T00:07:25Z</time>
      </trkpt>
      <trkpt lat="47.23291" lon="-1.86171">
        <ele>4.4</ele>
        <time>2022-08-20T00:07:31Z</time>
      </trkpt>
      <trkpt lat="47.23258" lon="-1.86106">
        <ele>4.6</ele>
        <time>2022-08-20T00:07:40Z</time>
      </trkpt>
      <trkpt lat="47.23225" lon="-1.86039">
        <ele>4.8</ele>
        <time>2022-08-20T00:07:49Z</time>
      </trkpt>
      <trkpt lat="47.23222" lon="-1.86032">
        <ele>4.8</ele>
        <time>2022-08-20T00:07:50Z</time>
      </trkpt>
      <trkpt lat="47.2319" lon="-1.85968">
        <ele>4.8</ele>
        <time>2022-08-20T00:07:59Z</time>
      </trkpt>
      <trkpt lat="47.23157" lon="-1.85901">
        <ele>4.8</ele>
        <time>2022-08-20T00:08:08Z</time>
      </trkpt>
      <trkpt lat="47.23122" lon="-1.85832">
        <ele>4.8</ele>
        <time>2022-08-20T00:08:17Z</time>
      </trkpt>
      <trkpt lat="47.23088" lon="-1.85764">
        <ele>5</ele>
        <time>2022-08-20T00:08:26Z</time>
      </trkpt>
      <trkpt lat="47.23085" lon="-1.85756">
        <ele>5</ele>
        <time>2022-08-20T00:08:27Z</time>
      </trkpt>
      <trkpt lat="47.2305" lon="-1.85689">
        <ele>5.2</ele>
        <time>2022-08-20T00:08:36Z</time>
      </trkpt>
      <trkpt lat="47.23047" lon="-1.85681">
        <ele>5.2</ele>
        <time>2022-08-20T00:08:37Z</time>
      </trkpt>
      <trkpt lat="47.2302" lon="-1.85628">
        <ele>5.2</ele>
        <time>2022-08-20T00:08:44Z</time>
      </trkpt>
      <trkpt lat="47.22985" lon="-1.85559">
        <ele>5.2</ele>
        <time>2022-08-20T00:08:53Z</time>
      </trkpt>
      <trkpt lat="47.22958" lon="-1.85506">
        <ele>5.2</ele>
        <time>2022-08-20T00:09:00Z</time>
      </trkpt>
      <trkpt lat="47.22933" lon="-1.85452">
        <ele>5</ele>
        <time>2022-08-20T00:09:07Z</time>
      </trkpt>
      <trkpt lat="47.22906" lon="-1.85399">
        <ele>5</ele>
        <time>2022-08-20T00:09:14Z</time>
      </trkpt>
      <trkpt lat="47.22871" lon="-1.85329">
        <ele>5</ele>
        <time>2022-08-20T00:09:23Z</time>
      </trkpt>
      <trkpt lat="47.22837" lon="-1.8526">
        <ele>5.4</ele>
        <time>2022-08-20T00:09:32Z</time>
      </trkpt>
      <trkpt lat="47.22811" lon="-1.85208">
        <ele>5.4</ele>
        <time>2022-08-20T00:09:39Z</time>
      </trkpt>
      <trkpt lat="47.22789" lon="-1.85161">
        <ele>5.4</ele>
        <time>2022-08-20T00:09:45Z</time>
      </trkpt>
      <trkpt lat="47.22762" lon="-1.85109">
        <ele>5.6</ele>
        <time>2022-08-20T00:09:52Z</time>
      </trkpt>
      <trkpt lat="47.22727" lon="-1.8504">
        <ele>5.2</ele>
        <time>2022-08-20T00:10:01Z</time>
      </trkpt>
      <trkpt lat="47.22692" lon="-1.8497">
        <ele>5.4</ele>
        <time>2022-08-20T00:10:10Z</time>
      </trkpt>
      <trkpt lat="47.22669" lon="-1.84923">
        <ele>5.6</ele>
        <time>2022-08-20T00:10:16Z</time>
      </trkpt>
      <trkpt lat="47.22658" lon="-1.849">
        <ele>5.6</ele>
        <time>2022-08-20T00:10:19Z</time>
      </trkpt>
      <trkpt lat="47.22646" lon="-1.84877">
        <ele>5.6</ele>
        <time>2022-08-20T00:10:22Z</time>
      </trkpt>
      <trkpt lat="47.22613" lon="-1.84809">
        <ele>5.6</ele>
        <time>2022-08-20T00:10:31Z</time>
      </trkpt>
      <trkpt lat="47.22578" lon="-1.84742">
        <ele>5.8</ele>
        <time>2022-08-20T00:10:40Z</time>
      </trkpt>
      <trkpt lat="47.22569" lon="-1.84729">
        <ele>5.8</ele>
        <time>2022-08-20T00:10:42Z</time>
      </trkpt>
      <trkpt lat="47.22558" lon="-1.84706">
        <ele>5.8</ele>
        <time>2022-08-20T00:10:45Z</time>
      </trkpt>
      <trkpt lat="47.22546" lon="-1.84684">
        <ele>5.8</ele>
        <time>2022-08-20T00:10:48Z</time>
      </trkpt>
      <trkpt lat="47.22532" lon="-1.84663">
        <ele>5.8</ele>
        <time>2022-08-20T00:10:51Z</time>
      </trkpt>
      <trkpt lat="47.22527" lon="-1.84656">
        <ele>5.6</ele>
        <time>2022-08-20T00:10:52Z</time>
      </trkpt>
      <trkpt lat="47.22505" lon="-1.84636">
        <ele>5.8</ele>
        <time>2022-08-20T00:10:56Z</time>
      </trkpt>
      <trkpt lat="47.22483" lon="-1.84617">
        <ele>5.4</ele>
        <time>2022-08-20T00:11:00Z</time>
      </trkpt>
      <trkpt lat="47.22474" lon="-1.84604">
        <ele>5.4</ele>
        <time>2022-08-20T00:11:02Z</time>
      </trkpt>
      <trkpt lat="47.22466" lon="-1.8459">
        <ele>5.4</ele>
        <time>2022-08-20T00:11:04Z</time>
      </trkpt>
      <trkpt lat="47.22455" lon="-1.84567">
        <ele>5.4</ele>
        <time>2022-08-20T00:11:07Z</time>
      </trkpt>
      <trkpt lat="47.22452" lon="-1.8456">
        <ele>5.4</ele>
        <time>2022-08-20T00:11:08Z</time>
      </trkpt>
      <trkpt lat="47.22441" lon="-1.84538">
        <ele>5.4</ele>
        <time>2022-08-20T00:11:11Z</time>
      </trkpt>
      <trkpt lat="47.22413" lon="-1.84475">
        <ele>5.4</ele>
        <time>2022-08-20T00:11:19Z</time>
      </trkpt>
      <trkpt lat="47.22407" lon="-1.84458">
        <ele>5.4</ele>
        <time>2022-08-20T00:11:21Z</time>
      </trkpt>
      <trkpt lat="47.22401" lon="-1.84431">
        <ele>5.2</ele>
        <time>2022-08-20T00:11:24Z</time>
      </trkpt>
      <trkpt lat="47.22393" lon="-1.84383">
        <ele>5.2</ele>
        <time>2022-08-20T00:11:29Z</time>
      </trkpt>
      <trkpt lat="47.2239" lon="-1.84374">
        <ele>5.2</ele>
        <time>2022-08-20T00:11:30Z</time>
      </trkpt>
      <trkpt lat="47.22376" lon="-1.8434">
        <ele>5.4</ele>
        <time>2022-08-20T00:11:34Z</time>
      </trkpt>
      <trkpt lat="47.22347" lon="-1.84276">
        <ele>5.6</ele>
        <time>2022-08-20T00:11:42Z</time>
      </trkpt>
      <trkpt lat="47.22316" lon="-1.84216">
        <ele>5.6</ele>
        <time>2022-08-20T00:11:50Z</time>
      </trkpt>
      <trkpt lat="47.22305" lon="-1.84194">
        <ele>5.4</ele>
        <time>2022-08-20T00:11:53Z</time>
      </trkpt>
      <trkpt lat="47.22298" lon="-1.8418">
        <ele>5.2</ele>
        <time>2022-08-20T00:11:55Z</time>
      </trkpt>
      <trkpt lat="47.22272" lon="-1.84129">
        <ele>5.2</ele>
        <time>2022-08-20T00:12:02Z</time>
      </trkpt>
      <trkpt lat="47.22247" lon="-1.84078">
        <ele>4.8</ele>
        <time>2022-08-20T00:12:09Z</time>
      </trkpt>
      <trkpt lat="47.22222" lon="-1.84027">
        <ele>4.2</ele>
        <time>2022-08-20T00:12:16Z</time>
      </trkpt>
      <trkpt lat="47.22211" lon="-1.84006">
        <ele>4</ele>
        <time>2022-08-20T00:12:19Z</time>
      </trkpt>
      <trkpt lat="47.22207" lon="-1.83998">
        <ele>4</ele>
        <time>2022-08-20T00:12:20Z</time>
      </trkpt>
      <trkpt lat="47.22186" lon="-1.83954">
        <ele>3.6</ele>
        <time>2022-08-20T00:12:26Z</time>
      </trkpt>
      <trkpt lat="47.22154" lon="-1.83889">
        <ele>3.2</ele>
        <time>2022-08-20T00:12:34Z</time>
      </trkpt>
      <trkpt lat="47.22147" lon="-1.83873">
        <ele>3</ele>
        <time>2022-08-20T00:12:36Z</time>
      </trkpt>
      <trkpt lat="47.22125" lon="-1.83828">
        <ele>2.8</ele>
        <time>2022-08-20T00:12:42Z</time>
      </trkpt>
      <trkpt lat="47.22096" lon="-1.83769">
        <ele>2.6</ele>
        <time>2022-08-20T00:12:50Z</time>
      </trkpt>
      <trkpt lat="47.22063" lon="-1.83703">
        <ele>2.2</ele>
        <time>2022-08-20T00:12:59Z</time>
      </trkpt>
      <trkpt lat="47.22041" lon="-1.83659">
        <ele>2.2</ele>
        <time>2022-08-20T00:13:05Z</time>
      </trkpt>
      <trkpt lat="47.22012" lon="-1.83601">
        <ele>2.2</ele>
        <time>2022-08-20T00:13:13Z</time>
      </trkpt>
      <trkpt lat="47.21988" lon="-1.83551">
        <ele>2.4</ele>
        <time>2022-08-20T00:13:20Z</time>
      </trkpt>
      <trkpt lat="47.21982" lon="-1.83537">
        <ele>2.6</ele>
        <time>2022-08-20T00:13:22Z</time>
      </trkpt>
      <trkpt lat="47.21971" lon="-1.83515">
        <ele>2.6</ele>
        <time>2022-08-20T00:13:25Z</time>
      </trkpt>
      <trkpt lat="47.21944" lon="-1.83463">
        <ele>2.2</ele>
        <time>2022-08-20T00:13:32Z</time>
      </trkpt>
      <trkpt lat="47.21917" lon="-1.8341">
        <ele>2</ele>
        <time>2022-08-20T00:13:39Z</time>
      </trkpt>
      <trkpt lat="47.21895" lon="-1.83363">
        <ele>2</ele>
        <time>2022-08-20T00:13:45Z</time>
      </trkpt>
      <trkpt lat="47.21868" lon="-1.83309">
        <ele>1.8</ele>
        <time>2022-08-20T00:13:52Z</time>
      </trkpt>
      <trkpt lat="47.21849" lon="-1.83271">
        <ele>1.8</ele>
        <time>2022-08-20T00:13:57Z</time>
      </trkpt>
      <trkpt lat="47.21841" lon="-1.83257">
        <ele>1.8</ele>
        <time>2022-08-20T00:13:59Z</time>
      </trkpt>
      <trkpt lat="47.21811" lon="-1.83198">
        <ele>1.8</ele>
        <time>2022-08-20T00:14:07Z</time>
      </trkpt>
      <trkpt lat="47.21789" lon="-1.83153">
        <ele>2</ele>
        <time>2022-08-20T00:14:13Z</time>
      </trkpt>
      <trkpt lat="47.21763" lon="-1.83101">
        <ele>2</ele>
        <time>2022-08-20T00:14:20Z</time>
      </trkpt>
      <trkpt lat="47.2174" lon="-1.8306">
        <ele>2</ele>
        <time>2022-08-20T00:14:26Z</time>
      </trkpt>
      <trkpt lat="47.21737" lon="-1.83054">
        <ele>1.8</ele>
        <time>2022-08-20T00:14:27Z</time>
      </trkpt>
      <trkpt lat="47.21726" lon="-1.83034">
        <ele>2</ele>
        <time>2022-08-20T00:14:30Z</time>
      </trkpt>
      <trkpt lat="47.21715" lon="-1.83012">
        <ele>1.8</ele>
        <time>2022-08-20T00:14:33Z</time>
      </trkpt>
      <trkpt lat="47.21703" lon="-1.82989">
        <ele>1.6</ele>
        <time>2022-08-20T00:14:36Z</time>
      </trkpt>
      <trkpt lat="47.21673" lon="-1.82929">
        <ele>1.6</ele>
        <time>2022-08-20T00:14:44Z</time>
      </trkpt>
      <trkpt lat="47.21646" lon="-1.82878">
        <ele>2</ele>
        <time>2022-08-20T00:14:51Z</time>
      </trkpt>
      <trkpt lat="47.21618" lon="-1.82828">
        <ele>2</ele>
        <time>2022-08-20T00:14:58Z</time>
      </trkpt>
      <trkpt lat="47.21594" lon="-1.82786">
        <ele>2</ele>
        <time>2022-08-20T00:15:04Z</time>
      </trkpt>
      <trkpt lat="47.21566" lon="-1.82739">
        <ele>2</ele>
        <time>2022-08-20T00:15:11Z</time>
      </trkpt>
      <trkpt lat="47.21555" lon="-1.82719">
        <ele>2</ele>
        <time>2022-08-20T00:15:14Z</time>
      </trkpt>
      <trkpt lat="47.2152" lon="-1.82663">
        <ele>2</ele>
        <time>2022-08-20T00:15:22Z</time>
      </trkpt>
      <trkpt lat="47.21487" lon="-1.82609">
        <ele>2.2</ele>
        <time>2022-08-20T00:15:30Z</time>
      </trkpt>
      <trkpt lat="47.21449" lon="-1.82547">
        <ele>2.2</ele>
        <time>2022-08-20T00:15:39Z</time>
      </trkpt>
      <trkpt lat="47.21441" lon="-1.82533">
        <ele>2.2</ele>
        <time>2022-08-20T00:15:41Z</time>
      </trkpt>
      <trkpt lat="47.21426" lon="-1.82506">
        <ele>2.2</ele>
        <time>2022-08-20T00:15:45Z</time>
      </trkpt>
      <trkpt lat="47.21399" lon="-1.82461">
        <ele>2.2</ele>
        <time>2022-08-20T00:15:52Z</time>
      </trkpt>
      <trkpt lat="47.21392" lon="-1.82449">
        <ele>2.4</ele>
        <time>2022-08-20T00:15:54Z</time>
      </trkpt>
      <trkpt lat="47.21387" lon="-1.82436">
        <ele>2.4</ele>
        <time>2022-08-20T00:15:56Z</time>
      </trkpt>
      <trkpt lat="47.21387" lon="-1.82429">
        <ele>2.4</ele>
        <time>2022-08-20T00:15:57Z</time>
      </trkpt>
      <trkpt lat="47.21389" lon="-1.82423">
        <ele>2.4</ele>
        <time>2022-08-20T00:15:58Z</time>
      </trkpt>
      <trkpt lat="47.21394" lon="-1.82415">
        <ele>2.6</ele>
        <time>2022-08-20T00:16:00Z</time>
      </trkpt>
      <trkpt lat="47.21415" lon="-1.8239">
        <ele>3</ele>
        <time>2022-08-20T00:16:07Z</time>
      </trkpt>
      <trkpt lat="47.21429" lon="-1.82371">
        <ele>3</ele>
        <time>2022-08-20T00:16:12Z</time>
      </trkpt>
      <trkpt lat="47.21432" lon="-1.82368">
        <ele>2.8</ele>
        <time>2022-08-20T00:16:13Z</time>
      </trkpt>
      <trkpt lat="47.21447" lon="-1.82354">
        <ele>3</ele>
        <time>2022-08-20T00:16:17Z</time>
      </trkpt>
      <trkpt lat="47.2145" lon="-1.82349">
        <ele>3</ele>
        <time>2022-08-20T00:16:18Z</time>
      </trkpt>
      <trkpt lat="47.21451" lon="-1.82343">
        <ele>3</ele>
        <time>2022-08-20T00:16:19Z</time>
      </trkpt>
      <trkpt lat="47.21447" lon="-1.82332">
        <ele>3.2</ele>
        <time>2022-08-20T00:16:21Z</time>
      </trkpt>
      <trkpt lat="47.2143" lon="-1.823">
        <ele>3.6</ele>
        <time>2022-08-20T00:16:28Z</time>
      </trkpt>
      <trkpt lat="47.21419" lon="-1.82282">
        <ele>3.8</ele>
        <time>2022-08-20T00:16:32Z</time>
      </trkpt>
      <trkpt lat="47.21415" lon="-1.82279">
        <ele>3.8</ele>
        <time>2022-08-20T00:16:33Z</time>
      </trkpt>
      <trkpt lat="47.2141" lon="-1.82276">
        <ele>3.8</ele>
        <time>2022-08-20T00:16:34Z</time>
      </trkpt>
      <trkpt lat="47.21393" lon="-1.82273">
        <ele>3.8</ele>
        <time>2022-08-20T00:16:37Z</time>
      </trkpt>
      <trkpt lat="47.21386" lon="-1.8227">
        <ele>3.8</ele>
        <time>2022-08-20T00:16:38Z</time>
      </trkpt>
      <trkpt lat="47.21376" lon="-1.82259">
        <ele>3.8</ele>
        <time>2022-08-20T00:16:40Z</time>
      </trkpt>
      <trkpt lat="47.21359" lon="-1.82232">
        <ele>3.8</ele>
        <time>2022-08-20T00:16:44Z</time>
      </trkpt>
      <trkpt lat="47.21329" lon="-1.82185">
        <ele>3.4</ele>
        <time>2022-08-20T00:16:52Z</time>
      </trkpt>
      <trkpt lat="47.21326" lon="-1.82179">
        <ele>3.2</ele>
        <time>2022-08-20T00:16:53Z</time>
      </trkpt>
      <trkpt lat="47.2132" lon="-1.82167">
        <ele>3</ele>
        <time>2022-08-20T00:16:55Z</time>
      </trkpt>
      <trkpt lat="47.21317" lon="-1.82161">
        <ele>2.8</ele>
        <time>2022-08-20T00:16:56Z</time>
      </trkpt>
      <trkpt lat="47.21302" lon="-1.82137">
        <ele>2.4</ele>
        <time>2022-08-20T00:17:00Z</time>
      </trkpt>
      <trkpt lat="47.21298" lon="-1.82132">
        <ele>2.2</ele>
        <time>2022-08-20T00:17:01Z</time>
      </trkpt>
      <trkpt lat="47.21288" lon="-1.82122">
        <ele>2</ele>
        <time>2022-08-20T00:17:03Z</time>
      </trkpt>
      <trkpt lat="47.21262" lon="-1.82078">
        <ele>1.4</ele>
        <time>2022-08-20T00:17:09Z</time>
      </trkpt>
      <trkpt lat="47.21254" lon="-1.82064">
        <ele>1.2</ele>
        <time>2022-08-20T00:17:11Z</time>
      </trkpt>
      <trkpt lat="47.21246" lon="-1.82049">
        <ele>1</ele>
        <time>2022-08-20T00:17:13Z</time>
      </trkpt>
      <trkpt lat="47.21242" lon="-1.82042">
        <ele>1</ele>
        <time>2022-08-20T00:17:14Z</time>
      </trkpt>
      <trkpt lat="47.21227" lon="-1.8202">
        <ele>0.80000000000001</ele>
        <time>2022-08-20T00:17:17Z</time>
      </trkpt>
      <trkpt lat="47.21209" lon="-1.81992">
        <ele>0.80000000000001</ele>
        <time>2022-08-20T00:17:21Z</time>
      </trkpt>
      <trkpt lat="47.21177" lon="-1.81938">
        <ele>0.19999999999999</ele>
        <time>2022-08-20T00:17:28Z</time>
      </trkpt>
      <trkpt lat="47.21164" lon="-1.81916">
        <ele>1.2</ele>
        <time>2022-08-20T00:17:31Z</time>
      </trkpt>
      <trkpt lat="47.21156" lon="-1.81904">
        <ele>2</ele>
        <time>2022-08-20T00:17:33Z</time>
      </trkpt>
      <trkpt lat="47.21148" lon="-1.81892">
        <ele>1.6</ele>
        <time>2022-08-20T00:17:35Z</time>
      </trkpt>
      <trkpt lat="47.21141" lon="-1.81877">
        <ele>1.6</ele>
        <time>2022-08-20T00:17:37Z</time>
      </trkpt>
      <trkpt lat="47.2113" lon="-1.81858">
        <ele>1.6</ele>
        <time>2022-08-20T00:17:40Z</time>
      </trkpt>
      <trkpt lat="47.21122" lon="-1.81845">
        <ele>1.6</ele>
        <time>2022-08-20T00:17:42Z</time>
      </trkpt>
      <trkpt lat="47.21101" lon="-1.81809">
        <ele>1.6</ele>
        <time>2022-08-20T00:17:48Z</time>
      </trkpt>
      <trkpt lat="47.21094" lon="-1.81796">
        <ele>1.6</ele>
        <time>2022-08-20T00:17:50Z</time>
      </trkpt>
      <trkpt lat="47.21084" lon="-1.81778">
        <ele>1.8</ele>
        <time>2022-08-20T00:17:53Z</time>
      </trkpt>
      <trkpt lat="47.21071" lon="-1.81754">
        <ele>1</ele>
        <time>2022-08-20T00:17:57Z</time>
      </trkpt>
      <trkpt lat="47.21067" lon="-1.81749">
        <ele>0.80000000000001</ele>
        <time>2022-08-20T00:17:58Z</time>
      </trkpt>
      <trkpt lat="47.21063" lon="-1.81743">
        <ele>0.60000000000002</ele>
        <time>2022-08-20T00:17:59Z</time>
      </trkpt>
      <trkpt lat="47.21055" lon="-1.81719">
        <ele>1.2</ele>
        <time>2022-08-20T00:18:02Z</time>
      </trkpt>
      <trkpt lat="47.21049" lon="-1.81704">
        <ele>1.2</ele>
        <time>2022-08-20T00:18:04Z</time>
      </trkpt>
      <trkpt lat="47.21038" lon="-1.81686">
        <ele>1.2</ele>
        <time>2022-08-20T00:18:07Z</time>
      </trkpt>
      <trkpt lat="47.21031" lon="-1.81674">
        <ele>1.2</ele>
        <time>2022-08-20T00:18:09Z</time>
      </trkpt>
      <trkpt lat="47.21026" lon="-1.81661">
        <ele>1.2</ele>
        <time>2022-08-20T00:18:11Z</time>
      </trkpt>
      <trkpt lat="47.21023" lon="-1.81655">
        <ele>1.2</ele>
        <time>2022-08-20T00:18:12Z</time>
      </trkpt>
      <trkpt lat="47.2102" lon="-1.81649">
        <ele>1.2</ele>
        <time>2022-08-20T00:18:13Z</time>
      </trkpt>
      <trkpt lat="47.21011" lon="-1.81623">
        <ele>1</ele>
        <time>2022-08-20T00:18:17Z</time>
      </trkpt>
      <trkpt lat="47.20995" lon="-1.8158">
        <ele>0.80000000000001</ele>
        <time>2022-08-20T00:18:23Z</time>
      </trkpt>
      <trkpt lat="47.20979" lon="-1.81547">
        <ele>0.80000000000001</ele>
        <time>2022-08-20T00:18:28Z</time>
      </trkpt>
      <trkpt lat="47.20973" lon="-1.81533">
        <ele>0.80000000000001</ele>
        <time>2022-08-20T00:18:30Z</time>
      </trkpt>
      <trkpt lat="47.20965" lon="-1.81511">
        <ele>1</ele>
        <time>2022-08-20T00:18:33Z</time>
      </trkpt>
      <trkpt lat="47.20957" lon="-1.81487">
        <ele>1</ele>
        <time>2022-08-20T00:18:36Z</time>
      </trkpt>
      <trkpt lat="47.20951" lon="-1.81472">
        <ele>1.2</ele>
        <time>2022-08-20T00:18:38Z</time>
      </trkpt>
      <trkpt lat="47.2094" lon="-1.81443">
        <ele>1</ele>
        <time>2022-08-20T00:18:42Z</time>
      </trkpt>
      <trkpt lat="47.20935" lon="-1.8143">
        <ele>1.2</ele>
        <time>2022-08-20T00:18:44Z</time>
      </trkpt>
      <trkpt lat="47.20928" lon="-1.81418">
        <ele>1.2</ele>
        <time>2022-08-20T00:18:46Z</time>
      </trkpt>
      <trkpt lat="47.2092" lon="-1.81398">
        <ele>1</ele>
        <time>2022-08-20T00:18:49Z</time>
      </trkpt>
      <trkpt lat="47.20905" lon="-1.81349">
        <ele>1.2</ele>
        <time>2022-08-20T00:18:55Z</time>
      </trkpt>
      <trkpt lat="47.20893" lon="-1.81314">
        <ele>1</ele>
        <time>2022-08-20T00:19:00Z</time>
      </trkpt>
      <trkpt lat="47.2089" lon="-1.81306">
        <ele>1</ele>
        <time>2022-08-20T00:19:01Z</time>
      </trkpt>
      <trkpt lat="47.20885" lon="-1.81294">
        <ele>1</ele>
        <time>2022-08-20T00:19:03Z</time>
      </trkpt>
      <trkpt lat="47.20878" lon="-1.81281">
        <ele>1</ele>
        <time>2022-08-20T00:19:05Z</time>
      </trkpt>
      <trkpt lat="47.20874" lon="-1.81264">
        <ele>0.80000000000001</ele>
        <time>2022-08-20T00:19:07Z</time>
      </trkpt>
      <trkpt lat="47.20871" lon="-1.81245">
        <ele>0.80000000000001</ele>
        <time>2022-08-20T00:19:09Z</time>
      </trkpt>
      <trkpt lat="47.20869" lon="-1.81236">
        <ele>0.60000000000002</ele>
        <time>2022-08-20T00:19:10Z</time>
      </trkpt>
      <trkpt lat="47.20861" lon="-1.81197">
        <ele>0.60000000000002</ele>
        <time>2022-08-20T00:19:14Z</time>
      </trkpt>
      <trkpt lat="47.20848" lon="-1.81147">
        <ele>0.80000000000001</ele>
        <time>2022-08-20T00:19:20Z</time>
      </trkpt>
      <trkpt lat="47.20842" lon="-1.81125">
        <ele>0.80000000000001</ele>
        <time>2022-08-20T00:19:23Z</time>
      </trkpt>
      <trkpt lat="47.20838" lon="-1.8111">
        <ele>0.80000000000001</ele>
        <time>2022-08-20T00:19:25Z</time>
      </trkpt>
      <trkpt lat="47.20826" lon="-1.81061">
        <ele>0.60000000000002</ele>
        <time>2022-08-20T00:19:31Z</time>
      </trkpt>
      <trkpt lat="47.20824" lon="-1.81052">
        <ele>0.60000000000002</ele>
        <time>2022-08-20T00:19:32Z</time>
      </trkpt>
      <trkpt lat="47.20817" lon="-1.81031">
        <ele>0.60000000000002</ele>
        <time>2022-08-20T00:19:35Z</time>
      </trkpt>
      <trkpt lat="47.20807" lon="-1.8098">
        <ele>0.39999999999998</ele>
        <time>2022-08-20T00:19:41Z</time>
      </trkpt>
      <trkpt lat="47.20797" lon="-1.80929">
        <ele>0.39999999999998</ele>
        <time>2022-08-20T00:19:47Z</time>
      </trkpt>
      <trkpt lat="47.20793" lon="-1.80905">
        <ele>0.39999999999998</ele>
        <time>2022-08-20T00:19:50Z</time>
      </trkpt>
      <trkpt lat="47.20792" lon="-1.80897">
        <ele>0.19999999999999</ele>
        <time>2022-08-20T00:19:51Z</time>
      </trkpt>
      <trkpt lat="47.20787" lon="-1.80883">
        <ele>0.19999999999999</ele>
        <time>2022-08-20T00:19:53Z</time>
      </trkpt>
      <trkpt lat="47.20783" lon="-1.80856">
        <ele>0.19999999999999</ele>
        <time>2022-08-20T00:19:56Z</time>
      </trkpt>
      <trkpt lat="47.20774" lon="-1.80792">
        <ele>0.60000000000002</ele>
        <time>2022-08-20T00:20:03Z</time>
      </trkpt>
      <trkpt lat="47.20772" lon="-1.80775">
        <ele>0.60000000000002</ele>
        <time>2022-08-20T00:20:05Z</time>
      </trkpt>
      <trkpt lat="47.2077" lon="-1.80759">
        <ele>0.60000000000002</ele>
        <time>2022-08-20T00:20:07Z</time>
      </trkpt>
      <trkpt lat="47.20768" lon="-1.8075">
        <ele>0.60000000000002</ele>
        <time>2022-08-20T00:20:08Z</time>
      </trkpt>
      <trkpt lat="47.20762" lon="-1.80713">
        <ele>0.60000000000002</ele>
        <time>2022-08-20T00:20:12Z</time>
      </trkpt>
      <trkpt lat="47.20757" lon="-1.80669">
        <ele>0.60000000000002</ele>
        <time>2022-08-20T00:20:17Z</time>
      </trkpt>
      <trkpt lat="47.20753" lon="-1.80656">
        <ele>0.60000000000002</ele>
        <time>2022-08-20T00:20:19Z</time>
      </trkpt>
      <trkpt lat="47.2075" lon="-1.80641">
        <ele>0.39999999999998</ele>
        <time>2022-08-20T00:20:21Z</time>
      </trkpt>
      <trkpt lat="47.20748" lon="-1.80634">
        <ele>0.19999999999999</ele>
        <time>2022-08-20T00:20:22Z</time>
      </trkpt>
      <trkpt lat="47.20747" lon="-1.80617">
        <ele>0.19999999999999</ele>
        <time>2022-08-20T00:20:24Z</time>
      </trkpt>
      <trkpt lat="47.20747" lon="-1.80605">
        <ele>0.19999999999999</ele>
        <time>2022-08-20T00:20:25Z</time>
      </trkpt>
      <trkpt lat="47.20743" lon="-1.80546">
        <ele>0.39999999999998</ele>
        <time>2022-08-20T00:20:31Z</time>
      </trkpt>
      <trkpt lat="47.20742" lon="-1.80537">
        <ele>0.39999999999998</ele>
        <time>2022-08-20T00:20:32Z</time>
      </trkpt>
      <trkpt lat="47.20737" lon="-1.80492">
        <ele>0.60000000000002</ele>
        <time>2022-08-20T00:20:37Z</time>
      </trkpt>
      <trkpt lat="47.20736" lon="-1.80484">
        <ele>0.80000000000001</ele>
        <time>2022-08-20T00:20:38Z</time>
      </trkpt>
      <trkpt lat="47.20733" lon="-1.8047">
        <ele>0.60000000000002</ele>
        <time>2022-08-20T00:20:40Z</time>
      </trkpt>
      <trkpt lat="47.20733" lon="-1.80462">
        <ele>0.39999999999998</ele>
        <time>2022-08-20T00:20:41Z</time>
      </trkpt>
      <trkpt lat="47.20732" lon="-1.80453">
        <ele>0.19999999999999</ele>
        <time>2022-08-20T00:20:42Z</time>
      </trkpt>
      <trkpt lat="47.20732" lon="-1.80421">
        <ele>0.19999999999999</ele>
        <time>2022-08-20T00:20:45Z</time>
      </trkpt>
      <trkpt lat="47.20732" lon="-1.80411">
        <ele>0.19999999999999</ele>
        <time>2022-08-20T00:20:46Z</time>
      </trkpt>
      <trkpt lat="47.20733" lon="-1.80393">
        <ele>0.19999999999999</ele>
        <time>2022-08-20T00:20:48Z</time>
      </trkpt>
      <trkpt lat="47.20733" lon="-1.80377">
        <ele>0.19999999999999</ele>
        <time>2022-08-20T00:20:50Z</time>
      </trkpt>
      <trkpt lat="47.20732" lon="-1.80368">
        <ele>0.19999999999999</ele>
        <time>2022-08-20T00:20:51Z</time>
      </trkpt>
      <trkpt lat="47.20727" lon="-1.80316">
        <ele>0.19999999999999</ele>
        <time>2022-08-20T00:20:57Z</time>
      </trkpt>
      <trkpt lat="47.20725" lon="-1.80301">
        <ele>0.19999999999999</ele>
        <time>2022-08-20T00:20:59Z</time>
      </trkpt>
      <trkpt lat="47.20725" lon="-1.80293">
        <ele>0.19999999999999</ele>
        <time>2022-08-20T00:21:00Z</time>
      </trkpt>
      <trkpt lat="47.20724" lon="-1.80285">
        <ele>0.19999999999999</ele>
        <time>2022-08-20T00:21:01Z</time>
      </trkpt>
      <trkpt lat="47.20723" lon="-1.80269">
        <ele>-0.19999999999999</ele>
        <time>2022-08-20T00:21:03Z</time>
      </trkpt>
      <trkpt lat="47.20722" lon="-1.80261">
        <ele>-0.39999999999998</ele>
        <time>2022-08-20T00:21:04Z</time>
      </trkpt>
      <trkpt lat="47.2072" lon="-1.80213">
        <ele>-0.60000000000002</ele>
        <time>2022-08-20T00:21:09Z</time>
      </trkpt>
      <trkpt lat="47.20718" lon="-1.80186">
        <ele>-0.60000000000002</ele>
        <time>2022-08-20T00:21:12Z</time>
      </trkpt>
      <trkpt lat="47.20716" lon="-1.80168">
        <ele>-0.60000000000002</ele>
        <time>2022-08-20T00:21:14Z</time>
      </trkpt>
      <trkpt lat="47.20711" lon="-1.80115">
        <ele>-0.60000000000002</ele>
        <time>2022-08-20T00:21:20Z</time>
      </trkpt>
      <trkpt lat="47.20708" lon="-1.80058">
        <ele>-0.60000000000002</ele>
        <time>2022-08-20T00:21:26Z</time>
      </trkpt>
      <trkpt lat="47.20703" lon="-1.79994">
        <ele>-0.39999999999998</ele>
        <time>2022-08-20T00:21:33Z</time>
      </trkpt>
      <trkpt lat="47.20702" lon="-1.79977">
        <ele>-0.39999999999998</ele>
        <time>2022-08-20T00:21:35Z</time>
      </trkpt>
      <trkpt lat="47.20698" lon="-1.79955">
        <ele>-0.39999999999998</ele>
        <time>2022-08-20T00:21:38Z</time>
      </trkpt>
      <trkpt lat="47.20696" lon="-1.7993">
        <ele>-0.39999999999998</ele>
        <time>2022-08-20T00:21:41Z</time>
      </trkpt>
      <trkpt lat="47.20696" lon="-1.79919">
        <ele>-0.39999999999998</ele>
        <time>2022-08-20T00:21:42Z</time>
      </trkpt>
      <trkpt lat="47.20695" lon="-1.7991">
        <ele>-0.39999999999998</ele>
        <time>2022-08-20T00:21:43Z</time>
      </trkpt>
      <trkpt lat="47.20694" lon="-1.79883">
        <ele>-0.19999999999999</ele>
        <time>2022-08-20T00:21:46Z</time>
      </trkpt>
      <trkpt lat="47.20691" lon="-1.7982">
        <ele>-0.19999999999999</ele>
        <time>2022-08-20T00:21:53Z</time>
      </trkpt>
      <trkpt lat="47.20688" lon="-1.79797">
        <ele>0.19999999999999</ele>
        <time>2022-08-20T00:21:56Z</time>
      </trkpt>
      <trkpt lat="47.20687" lon="-1.79781">
        <ele>0.19999999999999</ele>
        <time>2022-08-20T00:21:58Z</time>
      </trkpt>
      <trkpt lat="47.20685" lon="-1.79739">
        <ele>0.19999999999999</ele>
        <time>2022-08-20T00:22:03Z</time>
      </trkpt>
      <trkpt lat="47.20684" lon="-1.79711">
        <ele>0.19999999999999</ele>
        <time>2022-08-20T00:22:06Z</time>
      </trkpt>
      <trkpt lat="47.20682" lon="-1.79695">
        <ele>0.39999999999998</ele>
        <time>2022-08-20T00:22:08Z</time>
      </trkpt>
      <trkpt lat="47.20681" lon="-1.79686">
        <ele>0.39999999999998</ele>
        <time>2022-08-20T00:22:09Z</time>
      </trkpt>
      <trkpt lat="47.2068" lon="-1.7966">
        <ele>0.39999999999998</ele>
        <time>2022-08-20T00:22:12Z</time>
      </trkpt>
      <trkpt lat="47.20681" lon="-1.79639">
        <ele>0.39999999999998</ele>
        <time>2022-08-20T00:22:14Z</time>
      </trkpt>
      <trkpt lat="47.20682" lon="-1.79612">
        <ele>0.60000000000002</ele>
        <time>2022-08-20T00:22:17Z</time>
      </trkpt>
      <trkpt lat="47.20683" lon="-1.79558">
        <ele>0.80000000000001</ele>
        <time>2022-08-20T00:22:23Z</time>
      </trkpt>
      <trkpt lat="47.20683" lon="-1.79485">
        <ele>1.2</ele>
        <time>2022-08-20T00:22:31Z</time>
      </trkpt>
      <trkpt lat="47.20686" lon="-1.79431">
        <ele>1.4</ele>
        <time>2022-08-20T00:22:37Z</time>
      </trkpt>
      <trkpt lat="47.20688" lon="-1.79422">
        <ele>1.4</ele>
        <time>2022-08-20T00:22:38Z</time>
      </trkpt>
      <trkpt lat="47.20689" lon="-1.79413">
        <ele>1.4</ele>
        <time>2022-08-20T00:22:39Z</time>
      </trkpt>
      <trkpt lat="47.20698" lon="-1.7939">
        <ele>1.4</ele>
        <time>2022-08-20T00:22:42Z</time>
      </trkpt>
      <trkpt lat="47.20707" lon="-1.7936">
        <ele>1.8</ele>
        <time>2022-08-20T00:22:46Z</time>
      </trkpt>
      <trkpt lat="47.20709" lon="-1.79343">
        <ele>1.8</ele>
        <time>2022-08-20T00:22:48Z</time>
      </trkpt>
      <trkpt lat="47.20711" lon="-1.7929">
        <ele>2</ele>
        <time>2022-08-20T00:22:54Z</time>
      </trkpt>
      <trkpt lat="47.20702" lon="-1.79217">
        <ele>2.4</ele>
        <time>2022-08-20T00:23:02Z</time>
      </trkpt>
      <trkpt lat="47.20702" lon="-1.79208">
        <ele>2.6</ele>
        <time>2022-08-20T00:23:03Z</time>
      </trkpt>
      <trkpt lat="47.20705" lon="-1.79171">
        <ele>2.6</ele>
        <time>2022-08-20T00:23:07Z</time>
      </trkpt>
      <trkpt lat="47.20714" lon="-1.79089">
        <ele>2.8</ele>
        <time>2022-08-20T00:23:16Z</time>
      </trkpt>
      <trkpt lat="47.20728" lon="-1.79038">
        <ele>3</ele>
        <time>2022-08-20T00:23:22Z</time>
      </trkpt>
      <trkpt lat="47.20748" lon="-1.79002">
        <ele>3</ele>
        <time>2022-08-20T00:23:27Z</time>
      </trkpt>
      <trkpt lat="47.20775" lon="-1.7895">
        <ele>2.8</ele>
        <time>2022-08-20T00:23:34Z</time>
      </trkpt>
      <trkpt lat="47.20781" lon="-1.78935">
        <ele>2.8</ele>
        <time>2022-08-20T00:23:36Z</time>
      </trkpt>
      <trkpt lat="47.20788" lon="-1.78909">
        <ele>3</ele>
        <time>2022-08-20T00:23:39Z</time>
      </trkpt>
      <trkpt lat="47.20806" lon="-1.78829">
        <ele>3.2</ele>
        <time>2022-08-20T00:23:48Z</time>
      </trkpt>
      <trkpt lat="47.20818" lon="-1.78769">
        <ele>3.4</ele>
        <time>2022-08-20T00:23:55Z</time>
      </trkpt>
      <trkpt lat="47.20828" lon="-1.7871">
        <ele>3.6</ele>
        <time>2022-08-20T00:24:02Z</time>
      </trkpt>
      <trkpt lat="47.20829" lon="-1.78694">
        <ele>3.6</ele>
        <time>2022-08-20T00:24:04Z</time>
      </trkpt>
      <trkpt lat="47.2083" lon="-1.78668">
        <ele>3.6</ele>
        <time>2022-08-20T00:24:07Z</time>
      </trkpt>
      <trkpt lat="47.20829" lon="-1.7865">
        <ele>3.6</ele>
        <time>2022-08-20T00:24:09Z</time>
      </trkpt>
      <trkpt lat="47.20825" lon="-1.78634">
        <ele>3.6</ele>
        <time>2022-08-20T00:24:11Z</time>
      </trkpt>
      <trkpt lat="47.20822" lon="-1.78627">
        <ele>3.6</ele>
        <time>2022-08-20T00:24:12Z</time>
      </trkpt>
      <trkpt lat="47.20819" lon="-1.7862">
        <ele>3.6</ele>
        <time>2022-08-20T00:24:13Z</time>
      </trkpt>
      <trkpt lat="47.2081" lon="-1.78609">
        <ele>3.6</ele>
        <time>2022-08-20T00:24:15Z</time>
      </trkpt>
      <trkpt lat="47.20806" lon="-1.78605">
        <ele>3.6</ele>
        <time>2022-08-20T00:24:16Z</time>
      </trkpt>
      <trkpt lat="47.20771" lon="-1.78578">
        <ele>4</ele>
        <time>2022-08-20T00:24:23Z</time>
      </trkpt>
      <trkpt lat="47.20728" lon="-1.7856">
        <ele>4.2</ele>
        <time>2022-08-20T00:24:31Z</time>
      </trkpt>
      <trkpt lat="47.20701" lon="-1.78556">
        <ele>4.2</ele>
        <time>2022-08-20T00:24:36Z</time>
      </trkpt>
      <trkpt lat="47.2069" lon="-1.78554">
        <ele>4.2</ele>
        <time>2022-08-20T00:24:38Z</time>
      </trkpt>
      <trkpt lat="47.2068" lon="-1.78555">
        <ele>4.2</ele>
        <time>2022-08-20T00:24:40Z</time>
      </trkpt>
      <trkpt lat="47.20667" lon="-1.78553">
        <ele>4.2</ele>
        <time>2022-08-20T00:24:43Z</time>
      </trkpt>
      <trkpt lat="47.20646" lon="-1.78541">
        <ele>3.8</ele>
        <time>2022-08-20T00:24:48Z</time>
      </trkpt>
      <trkpt lat="47.20629" lon="-1.78528">
        <ele>3.4</ele>
        <time>2022-08-20T00:24:52Z</time>
      </trkpt>
      <trkpt lat="47.20624" lon="-1.7852">
        <ele>3.2</ele>
        <time>2022-08-20T00:24:54Z</time>
      </trkpt>
      <trkpt lat="47.2062" lon="-1.78513">
        <ele>2.8</ele>
        <time>2022-08-20T00:24:56Z</time>
      </trkpt>
      <trkpt lat="47.20621" lon="-1.78507">
        <ele>2.4</ele>
        <time>2022-08-20T00:24:57Z</time>
      </trkpt>
      <trkpt lat="47.20626" lon="-1.78472">
        <ele>1.8</ele>
        <time>2022-08-20T00:25:00Z</time>
      </trkpt>
      <trkpt lat="47.20627" lon="-1.78461">
        <ele>1.8</ele>
        <time>2022-08-20T00:25:01Z</time>
      </trkpt>
      <trkpt lat="47.20625" lon="-1.78409">
        <ele>1.6</ele>
        <time>2022-08-20T00:25:06Z</time>
      </trkpt>
      <trkpt lat="47.20623" lon="-1.78391">
        <ele>1.6</ele>
        <time>2022-08-20T00:25:08Z</time>
      </trkpt>
      <trkpt lat="47.20614" lon="-1.78323">
        <ele>1.6</ele>
        <time>2022-08-20T00:25:16Z</time>
      </trkpt>
      <trkpt lat="47.20606" lon="-1.78265">
        <ele>1.4</ele>
        <time>2022-08-20T00:25:23Z</time>
      </trkpt>
      <trkpt lat="47.20597" lon="-1.78201">
        <ele>1.4</ele>
        <time>2022-08-20T00:25:31Z</time>
      </trkpt>
      <trkpt lat="47.2059" lon="-1.78143">
        <ele>1.4</ele>
        <time>2022-08-20T00:25:38Z</time>
      </trkpt>
      <trkpt lat="47.20587" lon="-1.78129">
        <ele>1.4</ele>
        <time>2022-08-20T00:25:40Z</time>
      </trkpt>
      <trkpt lat="47.20586" lon="-1.78114">
        <ele>1</ele>
        <time>2022-08-20T00:25:42Z</time>
      </trkpt>
      <trkpt lat="47.20586" lon="-1.78097">
        <ele>1.2</ele>
        <time>2022-08-20T00:25:44Z</time>
      </trkpt>
      <trkpt lat="47.20586" lon="-1.78073">
        <ele>1.8</ele>
        <time>2022-08-20T00:25:47Z</time>
      </trkpt>
      <trkpt lat="47.20585" lon="-1.78035">
        <ele>1.6</ele>
        <time>2022-08-20T00:25:52Z</time>
      </trkpt>
      <trkpt lat="47.20585" lon="-1.78023">
        <ele>1.6</ele>
        <time>2022-08-20T00:25:54Z</time>
      </trkpt>
      <trkpt lat="47.20584" lon="-1.77978">
        <ele>2</ele>
        <time>2022-08-20T00:26:01Z</time>
      </trkpt>
      <trkpt lat="47.20584" lon="-1.77958">
        <ele>2.4</ele>
        <time>2022-08-20T00:26:04Z</time>
      </trkpt>
      <trkpt lat="47.20583" lon="-1.7794">
        <ele>2.6</ele>
        <time>2022-08-20T00:26:07Z</time>
      </trkpt>
      <trkpt lat="47.20584" lon="-1.77901">
        <ele>2.8</ele>
        <time>2022-08-20T00:26:12Z</time>
      </trkpt>
      <trkpt lat="47.2059" lon="-1.77844">
        <ele>3</ele>
        <time>2022-08-20T00:26:19Z</time>
      </trkpt>
      <trkpt lat="47.20597" lon="-1.77806">
        <ele>3.4</ele>
        <time>2022-08-20T00:26:25Z</time>
      </trkpt>
      <trkpt lat="47.20599" lon="-1.77771">
        <ele>3.8</ele>
        <time>2022-08-20T00:26:32Z</time>
      </trkpt>
      <trkpt lat="47.20601" lon="-1.7774">
        <ele>4.6</ele>
        <time>2022-08-20T00:26:39Z</time>
      </trkpt>
      <trkpt lat="47.20598" lon="-1.77714">
        <ele>5.2</ele>
        <time>2022-08-20T00:26:44Z</time>
      </trkpt>
      <trkpt lat="47.20597" lon="-1.77708">
        <ele>5.2</ele>
        <time>2022-08-20T00:26:45Z</time>
      </trkpt>
      <trkpt lat="47.20597" lon="-1.77702">
        <ele>5.4</ele>
        <time>2022-08-20T00:26:46Z</time>
      </trkpt>
      <trkpt lat="47.20599" lon="-1.77688">
        <ele>5.4</ele>
        <time>2022-08-20T00:26:48Z</time>
      </trkpt>
      <trkpt lat="47.20605" lon="-1.77659">
        <ele>5.4</ele>
        <time>2022-08-20T00:26:52Z</time>
      </trkpt>
      <trkpt lat="47.20607" lon="-1.77651">
        <ele>5.6</ele>
        <time>2022-08-20T00:26:53Z</time>
      </trkpt>
      <trkpt lat="47.20611" lon="-1.77624">
        <ele>5.6</ele>
        <time>2022-08-20T00:26:56Z</time>
      </trkpt>
      <trkpt lat="47.20612" lon="-1.77605">
        <ele>5.6</ele>
        <time>2022-08-20T00:26:58Z</time>
      </trkpt>
      <trkpt lat="47.20611" lon="-1.77553">
        <ele>5.6</ele>
        <time>2022-08-20T00:27:03Z</time>
      </trkpt>
      <trkpt lat="47.20609" lon="-1.77545">
        <ele>5.6</ele>
        <time>2022-08-20T00:27:04Z</time>
      </trkpt>
      <trkpt lat="47.20605" lon="-1.77501">
        <ele>5.8</ele>
        <time>2022-08-20T00:27:10Z</time>
      </trkpt>
      <trkpt lat="47.20603" lon="-1.77494">
        <ele>5.8</ele>
        <time>2022-08-20T00:27:11Z</time>
      </trkpt>
      <trkpt lat="47.20596" lon="-1.77469">
        <ele>6</ele>
        <time>2022-08-20T00:27:15Z</time>
      </trkpt>
      <trkpt lat="47.20592" lon="-1.77457">
        <ele>6.2</ele>
        <time>2022-08-20T00:27:17Z</time>
      </trkpt>
      <trkpt lat="47.20587" lon="-1.77433">
        <ele>6.6</ele>
        <time>2022-08-20T00:27:22Z</time>
      </trkpt>
      <trkpt lat="47.20584" lon="-1.77405">
        <ele>6.8</ele>
        <time>2022-08-20T00:27:26Z</time>
      </trkpt>
      <trkpt lat="47.20583" lon="-1.77398">
        <ele>6.8</ele>
        <time>2022-08-20T00:27:27Z</time>
      </trkpt>
      <trkpt lat="47.20574" lon="-1.77363">
        <ele>7</ele>
        <time>2022-08-20T00:27:32Z</time>
      </trkpt>
      <trkpt lat="47.20573" lon="-1.77349">
        <ele>7</ele>
        <time>2022-08-20T00:27:34Z</time>
      </trkpt>
      <trkpt lat="47.20571" lon="-1.77326">
        <ele>6.8</ele>
        <time>2022-08-20T00:27:37Z</time>
      </trkpt>
      <trkpt lat="47.20569" lon="-1.77311">
        <ele>6.8</ele>
        <time>2022-08-20T00:27:39Z</time>
      </trkpt>
      <trkpt lat="47.20571" lon="-1.77296">
        <ele>7</ele>
        <time>2022-08-20T00:27:41Z</time>
      </trkpt>
      <trkpt lat="47.20573" lon="-1.77277">
        <ele>7.2</ele>
        <time>2022-08-20T00:27:44Z</time>
      </trkpt>
      <trkpt lat="47.20572" lon="-1.7727">
        <ele>7.2</ele>
        <time>2022-08-20T00:27:45Z</time>
      </trkpt>
      <trkpt lat="47.20572" lon="-1.77262">
        <ele>7.2</ele>
        <time>2022-08-20T00:27:46Z</time>
      </trkpt>
      <trkpt lat="47.20572" lon="-1.77237">
        <ele>7.2</ele>
        <time>2022-08-20T00:27:49Z</time>
      </trkpt>
      <trkpt lat="47.20572" lon="-1.77204">
        <ele>7.2</ele>
        <time>2022-08-20T00:27:53Z</time>
      </trkpt>
      <trkpt lat="47.20573" lon="-1.77196">
        <ele>7.2</ele>
        <time>2022-08-20T00:27:54Z</time>
      </trkpt>
      <trkpt lat="47.20572" lon="-1.77179">
        <ele>7</ele>
        <time>2022-08-20T00:27:56Z</time>
      </trkpt>
      <trkpt lat="47.20571" lon="-1.77164">
        <ele>7.2</ele>
        <time>2022-08-20T00:27:58Z</time>
      </trkpt>
      <trkpt lat="47.2057" lon="-1.77138">
        <ele>6.8</ele>
        <time>2022-08-20T00:28:02Z</time>
      </trkpt>
      <trkpt lat="47.20566" lon="-1.77106">
        <ele>6.6</ele>
        <time>2022-08-20T00:28:07Z</time>
      </trkpt>
      <trkpt lat="47.2056" lon="-1.77068">
        <ele>6.2</ele>
        <time>2022-08-20T00:28:12Z</time>
      </trkpt>
      <trkpt lat="47.20554" lon="-1.77031">
        <ele>5.8</ele>
        <time>2022-08-20T00:28:18Z</time>
      </trkpt>
      <trkpt lat="47.20549" lon="-1.77009">
        <ele>5.6</ele>
        <time>2022-08-20T00:28:21Z</time>
      </trkpt>
      <trkpt lat="47.20549" lon="-1.76993">
        <ele>5.4</ele>
        <time>2022-08-20T00:28:23Z</time>
      </trkpt>
      <trkpt lat="47.20542" lon="-1.76961">
        <ele>5</ele>
        <time>2022-08-20T00:28:28Z</time>
      </trkpt>
      <trkpt lat="47.20538" lon="-1.76914">
        <ele>4.4</ele>
        <time>2022-08-20T00:28:33Z</time>
      </trkpt>
      <trkpt lat="47.20532" lon="-1.76879">
        <ele>4.2</ele>
        <time>2022-08-20T00:28:37Z</time>
      </trkpt>
      <trkpt lat="47.2053" lon="-1.76872">
        <ele>4.2</ele>
        <time>2022-08-20T00:28:38Z</time>
      </trkpt>
      <trkpt lat="47.20522" lon="-1.76851">
        <ele>3.8</ele>
        <time>2022-08-20T00:28:42Z</time>
      </trkpt>
      <trkpt lat="47.20521" lon="-1.76836">
        <ele>3.2</ele>
        <time>2022-08-20T00:28:46Z</time>
      </trkpt>
      <trkpt lat="47.2052" lon="-1.76806">
        <ele>2.6</ele>
        <time>2022-08-20T00:28:51Z</time>
      </trkpt>
      <trkpt lat="47.20512" lon="-1.76776">
        <ele>3</ele>
        <time>2022-08-20T00:28:55Z</time>
      </trkpt>
      <trkpt lat="47.20503" lon="-1.76732">
        <ele>2.8</ele>
        <time>2022-08-20T00:29:01Z</time>
      </trkpt>
      <trkpt lat="47.20502" lon="-1.76726">
        <ele>2.6</ele>
        <time>2022-08-20T00:29:02Z</time>
      </trkpt>
      <trkpt lat="47.20501" lon="-1.76699">
        <ele>2.4</ele>
        <time>2022-08-20T00:29:05Z</time>
      </trkpt>
      <trkpt lat="47.205" lon="-1.76688">
        <ele>2.2</ele>
        <time>2022-08-20T00:29:06Z</time>
      </trkpt>
      <trkpt lat="47.20493" lon="-1.76654">
        <ele>2.2</ele>
        <time>2022-08-20T00:29:09Z</time>
      </trkpt>
      <trkpt lat="47.20486" lon="-1.76614">
        <ele>2.2</ele>
        <time>2022-08-20T00:29:13Z</time>
      </trkpt>
      <trkpt lat="47.20484" lon="-1.76605">
        <ele>2</ele>
        <time>2022-08-20T00:29:14Z</time>
      </trkpt>
      <trkpt lat="47.20482" lon="-1.76596">
        <ele>2.2</ele>
        <time>2022-08-20T00:29:15Z</time>
      </trkpt>
      <trkpt lat="47.20475" lon="-1.76562">
        <ele>2.4</ele>
        <time>2022-08-20T00:29:19Z</time>
      </trkpt>
      <trkpt lat="47.20468" lon="-1.76531">
        <ele>2.8</ele>
        <time>2022-08-20T00:29:23Z</time>
      </trkpt>
      <trkpt lat="47.20467" lon="-1.76524">
        <ele>3</ele>
        <time>2022-08-20T00:29:24Z</time>
      </trkpt>
      <trkpt lat="47.20465" lon="-1.76471">
        <ele>2.8</ele>
        <time>2022-08-20T00:29:31Z</time>
      </trkpt>
      <trkpt lat="47.20464" lon="-1.76464">
        <ele>2.8</ele>
        <time>2022-08-20T00:29:32Z</time>
      </trkpt>
      <trkpt lat="47.20459" lon="-1.76428">
        <ele>2.8</ele>
        <time>2022-08-20T00:29:37Z</time>
      </trkpt>
      <trkpt lat="47.20452" lon="-1.76383">
        <ele>3</ele>
        <time>2022-08-20T00:29:44Z</time>
      </trkpt>
      <trkpt lat="47.20448" lon="-1.76362">
        <ele>3.2</ele>
        <time>2022-08-20T00:29:48Z</time>
      </trkpt>
      <trkpt lat="47.20445" lon="-1.76332">
        <ele>3.2</ele>
        <time>2022-08-20T00:29:53Z</time>
      </trkpt>
      <trkpt lat="47.20439" lon="-1.76287">
        <ele>3.4</ele>
        <time>2022-08-20T00:30:00Z</time>
      </trkpt>
      <trkpt lat="47.20435" lon="-1.76268">
        <ele>3.8</ele>
        <time>2022-08-20T00:30:04Z</time>
      </trkpt>
      <trkpt lat="47.20431" lon="-1.76243">
        <ele>3.8</ele>
        <time>2022-08-20T00:30:09Z</time>
      </trkpt>
      <trkpt lat="47.20429" lon="-1.76231">
        <ele>4</ele>
        <time>2022-08-20T00:30:11Z</time>
      </trkpt>
      <trkpt lat="47.20423" lon="-1.762">
        <ele>4.2</ele>
        <time>2022-08-20T00:30:16Z</time>
      </trkpt>
      <trkpt lat="47.20414" lon="-1.7615">
        <ele>4.6</ele>
        <time>2022-08-20T00:30:24Z</time>
      </trkpt>
      <trkpt lat="47.20409" lon="-1.76107">
        <ele>5.2</ele>
        <time>2022-08-20T00:30:31Z</time>
      </trkpt>
      <trkpt lat="47.20407" lon="-1.76069">
        <ele>5.4</ele>
        <time>2022-08-20T00:30:37Z</time>
      </trkpt>
      <trkpt lat="47.20406" lon="-1.76063">
        <ele>5.6</ele>
        <time>2022-08-20T00:30:38Z</time>
      </trkpt>
      <trkpt lat="47.204" lon="-1.76033">
        <ele>5.8</ele>
        <time>2022-08-20T00:30:43Z</time>
      </trkpt>
      <trkpt lat="47.204" lon="-1.76027">
        <ele>5.8</ele>
        <time>2022-08-20T00:30:44Z</time>
      </trkpt>
      <trkpt lat="47.20396" lon="-1.7598">
        <ele>5.8</ele>
        <time>2022-08-20T00:30:50Z</time>
      </trkpt>
      <trkpt lat="47.20387" lon="-1.7593">
        <ele>6</ele>
        <time>2022-08-20T00:30:56Z</time>
      </trkpt>
      <trkpt lat="47.20379" lon="-1.75886">
        <ele>6.2</ele>
        <time>2022-08-20T00:31:02Z</time>
      </trkpt>
      <trkpt lat="47.2037" lon="-1.75836">
        <ele>6.2</ele>
        <time>2022-08-20T00:31:10Z</time>
      </trkpt>
      <trkpt lat="47.20361" lon="-1.75802">
        <ele>6.2</ele>
        <time>2022-08-20T00:31:16Z</time>
      </trkpt>
      <trkpt lat="47.20354" lon="-1.7577">
        <ele>6.2</ele>
        <time>2022-08-20T00:31:22Z</time>
      </trkpt>
      <trkpt lat="47.20348" lon="-1.75744">
        <ele>6.2</ele>
        <time>2022-08-20T00:31:27Z</time>
      </trkpt>
      <trkpt lat="47.20346" lon="-1.75732">
        <ele>6.2</ele>
        <time>2022-08-20T00:31:29Z</time>
      </trkpt>
      <trkpt lat="47.20342" lon="-1.75708">
        <ele>6.2</ele>
        <time>2022-08-20T00:31:33Z</time>
      </trkpt>
      <trkpt lat="47.20338" lon="-1.75678">
        <ele>6</ele>
        <time>2022-08-20T00:31:38Z</time>
      </trkpt>
      <trkpt lat="47.20334" lon="-1.75662">
        <ele>5.8</ele>
        <time>2022-08-20T00:31:41Z</time>
      </trkpt>
      <trkpt lat="47.20323" lon="-1.75621">
        <ele>5.8</ele>
        <time>2022-08-20T00:31:49Z</time>
      </trkpt>
      <trkpt lat="47.20315" lon="-1.75592">
        <ele>5.8</ele>
        <time>2022-08-20T00:31:56Z</time>
      </trkpt>
      <trkpt lat="47.20315" lon="-1.75587">
        <ele>5.6</ele>
        <time>2022-08-20T00:31:58Z</time>
      </trkpt>
      <trkpt lat="47.20316" lon="-1.75587">
        <ele>5.8</ele>
        <time>2022-08-20T00:32:00Z</time>
      </trkpt>
      <trkpt lat="47.2031" lon="-1.75583">
        <ele>5.8</ele>
        <time>2022-08-20T00:33:36Z</time>
      </trkpt>
      <trkpt lat="47.20307" lon="-1.75583">
        <ele>5.6</ele>
        <time>2022-08-20T00:33:38Z</time>
      </trkpt>
      <trkpt lat="47.20298" lon="-1.7559">
        <ele>5.8</ele>
        <time>2022-08-20T00:33:42Z</time>
      </trkpt>
      <trkpt lat="47.20294" lon="-1.75593">
        <ele>5.8</ele>
        <time>2022-08-20T00:33:43Z</time>
      </trkpt>
      <trkpt lat="47.20284" lon="-1.75608">
        <ele>5.8</ele>
        <time>2022-08-20T00:33:46Z</time>
      </trkpt>
      <trkpt lat="47.20268" lon="-1.75629">
        <ele>5.8</ele>
        <time>2022-08-20T00:33:51Z</time>
      </trkpt>
      <trkpt lat="47.20261" lon="-1.75646">
        <ele>6</ele>
        <time>2022-08-20T00:33:56Z</time>
      </trkpt>
      <trkpt lat="47.20255" lon="-1.75664">
        <ele>6.2</ele>
        <time>2022-08-20T00:34:00Z</time>
      </trkpt>
      <trkpt lat="47.20244" lon="-1.75698">
        <ele>6.2</ele>
        <time>2022-08-20T00:34:05Z</time>
      </trkpt>
      <trkpt lat="47.20228" lon="-1.75758">
        <ele>6.4</ele>
        <time>2022-08-20T00:34:13Z</time>
      </trkpt>
      <trkpt lat="47.20214" lon="-1.75815">
        <ele>6.6</ele>
        <time>2022-08-20T00:34:21Z</time>
      </trkpt>
      <trkpt lat="47.20199" lon="-1.75852">
        <ele>7</ele>
        <time>2022-08-20T00:34:27Z</time>
      </trkpt>
      <trkpt lat="47.20177" lon="-1.75888">
        <ele>7.2</ele>
        <time>2022-08-20T00:34:34Z</time>
      </trkpt>
      <trkpt lat="47.20166" lon="-1.75899">
        <ele>7.2</ele>
        <time>2022-08-20T00:34:37Z</time>
      </trkpt>
      <trkpt lat="47.20154" lon="-1.75909">
        <ele>7.2</ele>
        <time>2022-08-20T00:34:40Z</time>
      </trkpt>
      <trkpt lat="47.20146" lon="-1.75914">
        <ele>7.4</ele>
        <time>2022-08-20T00:34:42Z</time>
      </trkpt>
      <trkpt lat="47.20137" lon="-1.75917">
        <ele>7.4</ele>
        <time>2022-08-20T00:34:44Z</time>
      </trkpt>
      <trkpt lat="47.20133" lon="-1.75917">
        <ele>7.6</ele>
        <time>2022-08-20T00:34:45Z</time>
      </trkpt>
      <trkpt lat="47.20128" lon="-1.75916">
        <ele>7.6</ele>
        <time>2022-08-20T00:34:46Z</time>
      </trkpt>
      <trkpt lat="47.20112" lon="-1.7591">
        <ele>7.8</ele>
        <time>2022-08-20T00:34:50Z</time>
      </trkpt>
      <trkpt lat="47.20107" lon="-1.7591">
        <ele>7.8</ele>
        <time>2022-08-20T00:34:51Z</time>
      </trkpt>
      <trkpt lat="47.20099" lon="-1.75911">
        <ele>8</ele>
        <time>2022-08-20T00:34:53Z</time>
      </trkpt>
      <trkpt lat="47.20089" lon="-1.75919">
        <ele>8.2</ele>
        <time>2022-08-20T00:34:56Z</time>
      </trkpt>
      <trkpt lat="47.20078" lon="-1.75936">
        <ele>8.4</ele>
        <time>2022-08-20T00:35:00Z</time>
      </trkpt>
      <trkpt lat="47.20063" lon="-1.75957">
        <ele>9</ele>
        <time>2022-08-20T00:35:05Z</time>
      </trkpt>
      <trkpt lat="47.20059" lon="-1.75967">
        <ele>9.2</ele>
        <time>2022-08-20T00:35:07Z</time>
      </trkpt>
      <trkpt lat="47.20056" lon="-1.75978">
        <ele>9.2</ele>
        <time>2022-08-20T00:35:09Z</time>
      </trkpt>
      <trkpt lat="47.2005" lon="-1.75985">
        <ele>9.4</ele>
        <time>2022-08-20T00:35:11Z</time>
      </trkpt>
      <trkpt lat="47.20038" lon="-1.75982">
        <ele>9.4</ele>
        <time>2022-08-20T00:35:14Z</time>
      </trkpt>
      <trkpt lat="47.20034" lon="-1.7598">
        <ele>9.6</ele>
        <time>2022-08-20T00:35:15Z</time>
      </trkpt>
      <trkpt lat="47.2002" lon="-1.75975">
        <ele>9.6</ele>
        <time>2022-08-20T00:35:19Z</time>
      </trkpt>
      <trkpt lat="47.20012" lon="-1.75973">
        <ele>9.8</ele>
        <time>2022-08-20T00:35:23Z</time>
      </trkpt>
      <trkpt lat="47.20013" lon="-1.75973">
        <ele>9.8</ele>
        <time>2022-08-20T00:35:24Z</time>
      </trkpt>
      <trkpt lat="47.20007" lon="-1.7597">
        <ele>10.4</ele>
        <time>2022-08-20T00:35:44Z</time>
      </trkpt>
      <trkpt lat="47.20005" lon="-1.75967">
        <ele>10.6</ele>
        <time>2022-08-20T00:35:46Z</time>
      </trkpt>
      <trkpt lat="47.20003" lon="-1.75964">
        <ele>10.4</ele>
        <time>2022-08-20T00:35:49Z</time>
      </trkpt>
    </trkseg>
  </trk>
</gpx>